<?xml version="1.0" encoding="UTF-8" standalone="no" ?>
<gpx xmlns="http://www.topografix.com/GPX/1/1" xmlns:xsi="http://www.w3.org/2001/XMLSchema-instance" xsi:schemaLocation="http://www.topografix.com/GPX/1/1 http://www.topografix.com/GPX/1/1/gpx.xsd" version="1.1" creator="VisuGPX - https://www.visugpx.com">
  <metadata>
    <name>Torchets Bauges</name>
  </metadata>
  <trk>
    <name><![CDATA[TRK-2021-05-23]]></name>
    <trkseg>
      <trkpt lat="45.5924" lon="6.05907">
        <ele>1077.3204</ele>
        <time>2021-05-23T10:42:04</time>
      </trkpt>
      <trkpt lat="45.5924" lon="6.05907">
        <ele>1077.3204</ele>
        <time>2021-05-23T10:42:34</time>
      </trkpt>
      <trkpt lat="45.59239" lon="6.05907">
        <ele>1077.3204</ele>
        <time>2021-05-23T10:43:04</time>
      </trkpt>
      <trkpt lat="45.59239" lon="6.05907">
        <ele>1077.3204</ele>
        <time>2021-05-23T10:43:34</time>
      </trkpt>
      <trkpt lat="45.59238" lon="6.05907">
        <ele>1077.3204</ele>
        <time>2021-05-23T10:43:40</time>
      </trkpt>
      <trkpt lat="45.59236" lon="6.05908">
        <ele>1077.3204</ele>
        <time>2021-05-23T10:43:42</time>
      </trkpt>
      <trkpt lat="45.59235" lon="6.05909">
        <ele>1077.3204</ele>
        <time>2021-05-23T10:43:43</time>
      </trkpt>
      <trkpt lat="45.59234" lon="6.05908">
        <ele>1077.3204</ele>
        <time>2021-05-23T10:43:44</time>
      </trkpt>
      <trkpt lat="45.59233" lon="6.05909">
        <ele>1077.3204</ele>
        <time>2021-05-23T10:43:45</time>
      </trkpt>
      <trkpt lat="45.59225" lon="6.05908">
        <ele>1077.3204</ele>
        <time>2021-05-23T10:43:53</time>
      </trkpt>
      <trkpt lat="45.59218" lon="6.05906">
        <ele>1077.3204</ele>
        <time>2021-05-23T10:43:57</time>
      </trkpt>
      <trkpt lat="45.59214" lon="6.05905">
        <ele>1077.3204</ele>
        <time>2021-05-23T10:44:00</time>
      </trkpt>
      <trkpt lat="45.59202" lon="6.05904">
        <ele>1077.3204</ele>
        <time>2021-05-23T10:44:11</time>
      </trkpt>
      <trkpt lat="45.5919" lon="6.05904">
        <ele>1077.3204</ele>
        <time>2021-05-23T10:44:18</time>
      </trkpt>
      <trkpt lat="45.59188" lon="6.05904">
        <ele>1077.3204</ele>
        <time>2021-05-23T10:44:19</time>
      </trkpt>
      <trkpt lat="45.59185" lon="6.05905">
        <ele>1077.3204</ele>
        <time>2021-05-23T10:44:23</time>
      </trkpt>
      <trkpt lat="45.59184" lon="6.05906">
        <ele>1077.3204</ele>
        <time>2021-05-23T10:44:26</time>
      </trkpt>
      <trkpt lat="45.59181" lon="6.05905">
        <ele>1077.3204</ele>
        <time>2021-05-23T10:44:31</time>
      </trkpt>
      <trkpt lat="45.59168" lon="6.05904">
        <ele>1077.3204</ele>
        <time>2021-05-23T10:44:39</time>
      </trkpt>
      <trkpt lat="45.59166" lon="6.05904">
        <ele>1077.3204</ele>
        <time>2021-05-23T10:44:40</time>
      </trkpt>
      <trkpt lat="45.59141" lon="6.05901">
        <ele>1077.3204</ele>
        <time>2021-05-23T10:45:01</time>
      </trkpt>
      <trkpt lat="45.59136" lon="6.05901">
        <ele>1077.3204</ele>
        <time>2021-05-23T10:45:04</time>
      </trkpt>
      <trkpt lat="45.59131" lon="6.05901">
        <ele>1077.3204</ele>
        <time>2021-05-23T10:45:07</time>
      </trkpt>
      <trkpt lat="45.59128" lon="6.05901">
        <ele>1077.3204</ele>
        <time>2021-05-23T10:45:09</time>
      </trkpt>
      <trkpt lat="45.59122" lon="6.05902">
        <ele>1077.3204</ele>
        <time>2021-05-23T10:45:12</time>
      </trkpt>
      <trkpt lat="45.5911" lon="6.05906">
        <ele>1077.3204</ele>
        <time>2021-05-23T10:45:19</time>
      </trkpt>
      <trkpt lat="45.59108" lon="6.05907">
        <ele>1077.3204</ele>
        <time>2021-05-23T10:45:20</time>
      </trkpt>
      <trkpt lat="45.59104" lon="6.05907">
        <ele>1077.3204</ele>
        <time>2021-05-23T10:45:22</time>
      </trkpt>
      <trkpt lat="45.59102" lon="6.05907">
        <ele>1077.3204</ele>
        <time>2021-05-23T10:45:23</time>
      </trkpt>
      <trkpt lat="45.59099" lon="6.05905">
        <ele>1077.3204</ele>
        <time>2021-05-23T10:45:26</time>
      </trkpt>
      <trkpt lat="45.59086" lon="6.05909">
        <ele>1077.3204</ele>
        <time>2021-05-23T10:45:44</time>
      </trkpt>
      <trkpt lat="45.5908" lon="6.05912">
        <ele>1077.3204</ele>
        <time>2021-05-23T10:45:50</time>
      </trkpt>
      <trkpt lat="45.59078" lon="6.05913">
        <ele>1077.3204</ele>
        <time>2021-05-23T10:45:52</time>
      </trkpt>
      <trkpt lat="45.59075" lon="6.05913">
        <ele>1077.3204</ele>
        <time>2021-05-23T10:45:54</time>
      </trkpt>
      <trkpt lat="45.59047" lon="6.0592">
        <ele>1077.3204</ele>
        <time>2021-05-23T10:46:12</time>
      </trkpt>
      <trkpt lat="45.59038" lon="6.05921">
        <ele>1077.3204</ele>
        <time>2021-05-23T10:46:16</time>
      </trkpt>
      <trkpt lat="45.59037" lon="6.05921">
        <ele>1077.3204</ele>
        <time>2021-05-23T10:46:17</time>
      </trkpt>
      <trkpt lat="45.59033" lon="6.0592">
        <ele>1077.3204</ele>
        <time>2021-05-23T10:46:19</time>
      </trkpt>
      <trkpt lat="45.59031" lon="6.0592">
        <ele>1077.3204</ele>
        <time>2021-05-23T10:46:20</time>
      </trkpt>
      <trkpt lat="45.59025" lon="6.05918">
        <ele>1077.3204</ele>
        <time>2021-05-23T10:46:23</time>
      </trkpt>
      <trkpt lat="45.59016" lon="6.05921">
        <ele>1077.3204</ele>
        <time>2021-05-23T10:46:28</time>
      </trkpt>
      <trkpt lat="45.59012" lon="6.05925">
        <ele>1077.3204</ele>
        <time>2021-05-23T10:46:31</time>
      </trkpt>
      <trkpt lat="45.59011" lon="6.05927">
        <ele>1077.3204</ele>
        <time>2021-05-23T10:46:32</time>
      </trkpt>
      <trkpt lat="45.59004" lon="6.05934">
        <ele>1077.3204</ele>
        <time>2021-05-23T10:46:41</time>
      </trkpt>
      <trkpt lat="45.59" lon="6.05939">
        <ele>1077.3204</ele>
        <time>2021-05-23T10:46:50</time>
      </trkpt>
      <trkpt lat="45.58997" lon="6.05943">
        <ele>1077.3204</ele>
        <time>2021-05-23T10:46:55</time>
      </trkpt>
      <trkpt lat="45.58995" lon="6.05944">
        <ele>1077.3204</ele>
        <time>2021-05-23T10:46:57</time>
      </trkpt>
      <trkpt lat="45.58994" lon="6.05945">
        <ele>1077.3204</ele>
        <time>2021-05-23T10:46:59</time>
      </trkpt>
      <trkpt lat="45.58993" lon="6.05945">
        <ele>1077.3204</ele>
        <time>2021-05-23T10:47:00</time>
      </trkpt>
      <trkpt lat="45.58991" lon="6.05945">
        <ele>1077.3204</ele>
        <time>2021-05-23T10:47:02</time>
      </trkpt>
      <trkpt lat="45.5899" lon="6.05945">
        <ele>1077.3204</ele>
        <time>2021-05-23T10:47:03</time>
      </trkpt>
      <trkpt lat="45.58989" lon="6.05945">
        <ele>1077.3204</ele>
        <time>2021-05-23T10:47:04</time>
      </trkpt>
      <trkpt lat="45.58988" lon="6.05945">
        <ele>1077.3204</ele>
        <time>2021-05-23T10:47:05</time>
      </trkpt>
      <trkpt lat="45.58987" lon="6.05946">
        <ele>1077.3204</ele>
        <time>2021-05-23T10:47:06</time>
      </trkpt>
      <trkpt lat="45.58986" lon="6.05947">
        <ele>1077.3204</ele>
        <time>2021-05-23T10:47:07</time>
      </trkpt>
      <trkpt lat="45.58982" lon="6.0595">
        <ele>1077.3204</ele>
        <time>2021-05-23T10:47:16</time>
      </trkpt>
      <trkpt lat="45.58979" lon="6.05953">
        <ele>1077.3204</ele>
        <time>2021-05-23T10:47:18</time>
      </trkpt>
      <trkpt lat="45.58978" lon="6.05954">
        <ele>1077.3204</ele>
        <time>2021-05-23T10:47:19</time>
      </trkpt>
      <trkpt lat="45.58976" lon="6.05956">
        <ele>1077.3204</ele>
        <time>2021-05-23T10:47:20</time>
      </trkpt>
      <trkpt lat="45.58967" lon="6.05965">
        <ele>1077.3204</ele>
        <time>2021-05-23T10:47:30</time>
      </trkpt>
      <trkpt lat="45.58966" lon="6.05967">
        <ele>1077.3204</ele>
        <time>2021-05-23T10:47:32</time>
      </trkpt>
      <trkpt lat="45.58962" lon="6.05969">
        <ele>1077.3204</ele>
        <time>2021-05-23T10:47:35</time>
      </trkpt>
      <trkpt lat="45.58959" lon="6.05972">
        <ele>1077.3204</ele>
        <time>2021-05-23T10:47:37</time>
      </trkpt>
      <trkpt lat="45.58936" lon="6.06001">
        <ele>1077.3204</ele>
        <time>2021-05-23T10:47:55</time>
      </trkpt>
      <trkpt lat="45.58935" lon="6.06003">
        <ele>1077.3204</ele>
        <time>2021-05-23T10:47:56</time>
      </trkpt>
      <trkpt lat="45.58934" lon="6.06004">
        <ele>1077.3204</ele>
        <time>2021-05-23T10:47:57</time>
      </trkpt>
      <trkpt lat="45.58922" lon="6.06011">
        <ele>1077.3204</ele>
        <time>2021-05-23T10:48:17</time>
      </trkpt>
      <trkpt lat="45.58907" lon="6.0603">
        <ele>1077.3204</ele>
        <time>2021-05-23T10:48:29</time>
      </trkpt>
      <trkpt lat="45.58904" lon="6.06039">
        <ele>1077.3204</ele>
        <time>2021-05-23T10:48:35</time>
      </trkpt>
      <trkpt lat="45.58903" lon="6.0604">
        <ele>1077.3204</ele>
        <time>2021-05-23T10:48:44</time>
      </trkpt>
      <trkpt lat="45.58904" lon="6.0604">
        <ele>1077.3204</ele>
        <time>2021-05-23T10:48:45</time>
      </trkpt>
      <trkpt lat="45.58903" lon="6.06042">
        <ele>1077.3204</ele>
        <time>2021-05-23T10:49:07</time>
      </trkpt>
      <trkpt lat="45.589" lon="6.06045">
        <ele>1077.3204</ele>
        <time>2021-05-23T10:49:10</time>
      </trkpt>
      <trkpt lat="45.58898" lon="6.06046">
        <ele>1077.3204</ele>
        <time>2021-05-23T10:49:12</time>
      </trkpt>
      <trkpt lat="45.58895" lon="6.06047">
        <ele>1077.3204</ele>
        <time>2021-05-23T10:49:14</time>
      </trkpt>
      <trkpt lat="45.58892" lon="6.06049">
        <ele>1077.3204</ele>
        <time>2021-05-23T10:49:16</time>
      </trkpt>
      <trkpt lat="45.58885" lon="6.06055">
        <ele>1077.3204</ele>
        <time>2021-05-23T10:49:20</time>
      </trkpt>
      <trkpt lat="45.58884" lon="6.06056">
        <ele>1077.3204</ele>
        <time>2021-05-23T10:49:21</time>
      </trkpt>
      <trkpt lat="45.58877" lon="6.06061">
        <ele>1077.3204</ele>
        <time>2021-05-23T10:49:25</time>
      </trkpt>
      <trkpt lat="45.58866" lon="6.06066">
        <ele>1077.3204</ele>
        <time>2021-05-23T10:49:38</time>
      </trkpt>
      <trkpt lat="45.58865" lon="6.06066">
        <ele>1077.3204</ele>
        <time>2021-05-23T10:49:39</time>
      </trkpt>
      <trkpt lat="45.58854" lon="6.06066">
        <ele>1080.9204</ele>
        <time>2021-05-23T10:49:46</time>
      </trkpt>
      <trkpt lat="45.5885" lon="6.06067">
        <ele>1080.9204</ele>
        <time>2021-05-23T10:49:48</time>
      </trkpt>
      <trkpt lat="45.58846" lon="6.06069">
        <ele>1080.9204</ele>
        <time>2021-05-23T10:49:51</time>
      </trkpt>
      <trkpt lat="45.58832" lon="6.0607">
        <ele>1076.7205</ele>
        <time>2021-05-23T10:50:08</time>
      </trkpt>
      <trkpt lat="45.58831" lon="6.06071">
        <ele>1076.7205</ele>
        <time>2021-05-23T10:50:09</time>
      </trkpt>
      <trkpt lat="45.58829" lon="6.06071">
        <ele>1076.7205</ele>
        <time>2021-05-23T10:50:11</time>
      </trkpt>
      <trkpt lat="45.58829" lon="6.06072">
        <ele>1076.7205</ele>
        <time>2021-05-23T10:50:12</time>
      </trkpt>
      <trkpt lat="45.58828" lon="6.06072">
        <ele>1076.7205</ele>
        <time>2021-05-23T10:50:13</time>
      </trkpt>
      <trkpt lat="45.58825" lon="6.06074">
        <ele>1076.7205</ele>
        <time>2021-05-23T10:50:16</time>
      </trkpt>
      <trkpt lat="45.58823" lon="6.06075">
        <ele>1076.7205</ele>
        <time>2021-05-23T10:50:18</time>
      </trkpt>
      <trkpt lat="45.58821" lon="6.06077">
        <ele>1076.7205</ele>
        <time>2021-05-23T10:50:20</time>
      </trkpt>
      <trkpt lat="45.58815" lon="6.06079">
        <ele>1076.7205</ele>
        <time>2021-05-23T10:50:24</time>
      </trkpt>
      <trkpt lat="45.58812" lon="6.0608">
        <ele>1076.7205</ele>
        <time>2021-05-23T10:50:26</time>
      </trkpt>
      <trkpt lat="45.58809" lon="6.06081">
        <ele>1076.7205</ele>
        <time>2021-05-23T10:50:28</time>
      </trkpt>
      <trkpt lat="45.58801" lon="6.06079">
        <ele>1076.7205</ele>
        <time>2021-05-23T10:50:33</time>
      </trkpt>
      <trkpt lat="45.58791" lon="6.06079">
        <ele>1076.7205</ele>
        <time>2021-05-23T10:50:38</time>
      </trkpt>
      <trkpt lat="45.58769" lon="6.06081">
        <ele>1076.7205</ele>
        <time>2021-05-23T10:50:49</time>
      </trkpt>
      <trkpt lat="45.58768" lon="6.06082">
        <ele>1076.7205</ele>
        <time>2021-05-23T10:50:50</time>
      </trkpt>
      <trkpt lat="45.58766" lon="6.06082">
        <ele>1076.7205</ele>
        <time>2021-05-23T10:50:51</time>
      </trkpt>
      <trkpt lat="45.58761" lon="6.06084">
        <ele>1076.7205</ele>
        <time>2021-05-23T10:50:54</time>
      </trkpt>
      <trkpt lat="45.58737" lon="6.06087">
        <ele>1076.7205</ele>
        <time>2021-05-23T10:51:20</time>
      </trkpt>
      <trkpt lat="45.58732" lon="6.06091">
        <ele>1076.7205</ele>
        <time>2021-05-23T10:51:24</time>
      </trkpt>
      <trkpt lat="45.58731" lon="6.06091">
        <ele>1076.7205</ele>
        <time>2021-05-23T10:51:25</time>
      </trkpt>
      <trkpt lat="45.58726" lon="6.06091">
        <ele>1076.7205</ele>
        <time>2021-05-23T10:51:28</time>
      </trkpt>
      <trkpt lat="45.58722" lon="6.06091">
        <ele>1076.7205</ele>
        <time>2021-05-23T10:51:31</time>
      </trkpt>
      <trkpt lat="45.58709" lon="6.06085">
        <ele>1076.7205</ele>
        <time>2021-05-23T10:51:40</time>
      </trkpt>
      <trkpt lat="45.58706" lon="6.06085">
        <ele>1076.7205</ele>
        <time>2021-05-23T10:51:42</time>
      </trkpt>
      <trkpt lat="45.58704" lon="6.06084">
        <ele>1076.7205</ele>
        <time>2021-05-23T10:51:43</time>
      </trkpt>
      <trkpt lat="45.587" lon="6.06078">
        <ele>1076.7205</ele>
        <time>2021-05-23T10:51:49</time>
      </trkpt>
      <trkpt lat="45.587" lon="6.06077">
        <ele>1076.7205</ele>
        <time>2021-05-23T10:51:50</time>
      </trkpt>
      <trkpt lat="45.587" lon="6.06077">
        <ele>1076.7205</ele>
        <time>2021-05-23T10:51:51</time>
      </trkpt>
      <trkpt lat="45.58701" lon="6.06077">
        <ele>1076.7205</ele>
        <time>2021-05-23T10:51:52</time>
      </trkpt>
      <trkpt lat="45.58701" lon="6.06075">
        <ele>1076.7205</ele>
        <time>2021-05-23T10:51:53</time>
      </trkpt>
      <trkpt lat="45.58701" lon="6.06074">
        <ele>1076.7205</ele>
        <time>2021-05-23T10:51:55</time>
      </trkpt>
      <trkpt lat="45.58702" lon="6.06073">
        <ele>1076.7205</ele>
        <time>2021-05-23T10:51:56</time>
      </trkpt>
      <trkpt lat="45.58703" lon="6.06072">
        <ele>1076.7205</ele>
        <time>2021-05-23T10:51:57</time>
      </trkpt>
      <trkpt lat="45.58703" lon="6.06072">
        <ele>1076.7205</ele>
        <time>2021-05-23T10:51:58</time>
      </trkpt>
      <trkpt lat="45.58703" lon="6.06072">
        <ele>1076.7205</ele>
        <time>2021-05-23T10:52:00</time>
      </trkpt>
      <trkpt lat="45.58703" lon="6.06072">
        <ele>1076.7205</ele>
        <time>2021-05-23T10:52:01</time>
      </trkpt>
      <trkpt lat="45.58704" lon="6.06071">
        <ele>1076.7205</ele>
        <time>2021-05-23T10:52:02</time>
      </trkpt>
      <trkpt lat="45.58704" lon="6.0607">
        <ele>1076.7205</ele>
        <time>2021-05-23T10:52:03</time>
      </trkpt>
      <trkpt lat="45.58705" lon="6.06069">
        <ele>1076.7205</ele>
        <time>2021-05-23T10:52:04</time>
      </trkpt>
      <trkpt lat="45.58706" lon="6.06068">
        <ele>1076.7205</ele>
        <time>2021-05-23T10:52:05</time>
      </trkpt>
      <trkpt lat="45.58707" lon="6.06067">
        <ele>1076.7205</ele>
        <time>2021-05-23T10:52:06</time>
      </trkpt>
      <trkpt lat="45.58708" lon="6.06064">
        <ele>1076.7205</ele>
        <time>2021-05-23T10:52:08</time>
      </trkpt>
      <trkpt lat="45.58709" lon="6.06061">
        <ele>1076.7205</ele>
        <time>2021-05-23T10:52:10</time>
      </trkpt>
      <trkpt lat="45.58709" lon="6.0606">
        <ele>1076.7205</ele>
        <time>2021-05-23T10:52:11</time>
      </trkpt>
      <trkpt lat="45.5871" lon="6.06059">
        <ele>1076.7205</ele>
        <time>2021-05-23T10:52:12</time>
      </trkpt>
      <trkpt lat="45.5871" lon="6.06059">
        <ele>1076.7205</ele>
        <time>2021-05-23T10:52:16</time>
      </trkpt>
      <trkpt lat="45.58711" lon="6.06059">
        <ele>1076.7205</ele>
        <time>2021-05-23T10:52:17</time>
      </trkpt>
      <trkpt lat="45.58712" lon="6.06058">
        <ele>1076.7205</ele>
        <time>2021-05-23T10:52:20</time>
      </trkpt>
      <trkpt lat="45.58712" lon="6.06058">
        <ele>1076.7205</ele>
        <time>2021-05-23T10:52:21</time>
      </trkpt>
      <trkpt lat="45.58712" lon="6.06057">
        <ele>1076.7205</ele>
        <time>2021-05-23T10:52:24</time>
      </trkpt>
      <trkpt lat="45.58713" lon="6.06057">
        <ele>1076.7205</ele>
        <time>2021-05-23T10:52:25</time>
      </trkpt>
      <trkpt lat="45.58713" lon="6.06055">
        <ele>1076.7205</ele>
        <time>2021-05-23T10:52:26</time>
      </trkpt>
      <trkpt lat="45.58714" lon="6.06054">
        <ele>1076.7205</ele>
        <time>2021-05-23T10:52:27</time>
      </trkpt>
      <trkpt lat="45.58714" lon="6.06051">
        <ele>1058.2205</ele>
        <time>2021-05-23T10:52:30</time>
      </trkpt>
      <trkpt lat="45.58715" lon="6.0605">
        <ele>1058.2205</ele>
        <time>2021-05-23T10:52:31</time>
      </trkpt>
      <trkpt lat="45.58715" lon="6.06049">
        <ele>1058.2205</ele>
        <time>2021-05-23T10:52:32</time>
      </trkpt>
      <trkpt lat="45.58716" lon="6.06048">
        <ele>1058.2205</ele>
        <time>2021-05-23T10:52:33</time>
      </trkpt>
      <trkpt lat="45.58715" lon="6.06046">
        <ele>1058.2205</ele>
        <time>2021-05-23T10:52:35</time>
      </trkpt>
      <trkpt lat="45.58715" lon="6.06045">
        <ele>1058.2205</ele>
        <time>2021-05-23T10:52:36</time>
      </trkpt>
      <trkpt lat="45.58715" lon="6.06043">
        <ele>1058.2205</ele>
        <time>2021-05-23T10:52:38</time>
      </trkpt>
      <trkpt lat="45.58715" lon="6.06042">
        <ele>1058.2205</ele>
        <time>2021-05-23T10:52:39</time>
      </trkpt>
      <trkpt lat="45.58716" lon="6.06042">
        <ele>1060.4204</ele>
        <time>2021-05-23T10:52:40</time>
      </trkpt>
      <trkpt lat="45.58716" lon="6.0604">
        <ele>1060.4204</ele>
        <time>2021-05-23T10:52:41</time>
      </trkpt>
      <trkpt lat="45.58717" lon="6.0604">
        <ele>1060.4204</ele>
        <time>2021-05-23T10:52:42</time>
      </trkpt>
      <trkpt lat="45.58718" lon="6.06037">
        <ele>1060.4204</ele>
        <time>2021-05-23T10:52:49</time>
      </trkpt>
      <trkpt lat="45.58718" lon="6.06036">
        <ele>1059.5204</ele>
        <time>2021-05-23T10:52:50</time>
      </trkpt>
      <trkpt lat="45.58718" lon="6.06035">
        <ele>1059.5204</ele>
        <time>2021-05-23T10:52:51</time>
      </trkpt>
      <trkpt lat="45.58718" lon="6.06034">
        <ele>1059.5204</ele>
        <time>2021-05-23T10:52:52</time>
      </trkpt>
      <trkpt lat="45.58719" lon="6.06032">
        <ele>1059.5204</ele>
        <time>2021-05-23T10:52:53</time>
      </trkpt>
      <trkpt lat="45.5872" lon="6.06031">
        <ele>1059.5204</ele>
        <time>2021-05-23T10:52:54</time>
      </trkpt>
      <trkpt lat="45.58722" lon="6.06027">
        <ele>1059.5204</ele>
        <time>2021-05-23T10:52:57</time>
      </trkpt>
      <trkpt lat="45.58722" lon="6.06026">
        <ele>1059.5204</ele>
        <time>2021-05-23T10:52:58</time>
      </trkpt>
      <trkpt lat="45.58723" lon="6.06024">
        <ele>1059.5204</ele>
        <time>2021-05-23T10:52:59</time>
      </trkpt>
      <trkpt lat="45.58723" lon="6.06023">
        <ele>1060.0204</ele>
        <time>2021-05-23T10:53:00</time>
      </trkpt>
      <trkpt lat="45.58724" lon="6.06021">
        <ele>1060.0204</ele>
        <time>2021-05-23T10:53:02</time>
      </trkpt>
      <trkpt lat="45.58724" lon="6.06019">
        <ele>1060.0204</ele>
        <time>2021-05-23T10:53:03</time>
      </trkpt>
      <trkpt lat="45.58725" lon="6.06018">
        <ele>1060.0204</ele>
        <time>2021-05-23T10:53:05</time>
      </trkpt>
      <trkpt lat="45.58725" lon="6.06017">
        <ele>1060.0204</ele>
        <time>2021-05-23T10:53:06</time>
      </trkpt>
      <trkpt lat="45.58726" lon="6.06014">
        <ele>1060.0204</ele>
        <time>2021-05-23T10:53:09</time>
      </trkpt>
      <trkpt lat="45.58727" lon="6.06012">
        <ele>1064.1205</ele>
        <time>2021-05-23T10:53:11</time>
      </trkpt>
      <trkpt lat="45.58728" lon="6.06012">
        <ele>1064.1205</ele>
        <time>2021-05-23T10:53:12</time>
      </trkpt>
      <trkpt lat="45.58728" lon="6.06011">
        <ele>1064.1205</ele>
        <time>2021-05-23T10:53:13</time>
      </trkpt>
      <trkpt lat="45.58728" lon="6.0601">
        <ele>1064.1205</ele>
        <time>2021-05-23T10:53:14</time>
      </trkpt>
      <trkpt lat="45.58731" lon="6.06006">
        <ele>1064.1205</ele>
        <time>2021-05-23T10:53:19</time>
      </trkpt>
      <trkpt lat="45.58731" lon="6.06006">
        <ele>1067.1205</ele>
        <time>2021-05-23T10:53:21</time>
      </trkpt>
      <trkpt lat="45.58733" lon="6.06006">
        <ele>1067.1205</ele>
        <time>2021-05-23T10:53:23</time>
      </trkpt>
      <trkpt lat="45.58734" lon="6.06005">
        <ele>1067.1205</ele>
        <time>2021-05-23T10:53:24</time>
      </trkpt>
      <trkpt lat="45.58735" lon="6.06004">
        <ele>1067.1205</ele>
        <time>2021-05-23T10:53:26</time>
      </trkpt>
      <trkpt lat="45.58736" lon="6.06003">
        <ele>1067.1205</ele>
        <time>2021-05-23T10:53:27</time>
      </trkpt>
      <trkpt lat="45.58742" lon="6.05996">
        <ele>1067.2205</ele>
        <time>2021-05-23T10:53:37</time>
      </trkpt>
      <trkpt lat="45.58744" lon="6.05989">
        <ele>1070.7205</ele>
        <time>2021-05-23T10:53:43</time>
      </trkpt>
      <trkpt lat="45.58751" lon="6.05975">
        <ele>1072.2205</ele>
        <time>2021-05-23T10:54:02</time>
      </trkpt>
      <trkpt lat="45.58751" lon="6.05974">
        <ele>1072.2205</ele>
        <time>2021-05-23T10:54:03</time>
      </trkpt>
      <trkpt lat="45.58751" lon="6.05974">
        <ele>1072.2205</ele>
        <time>2021-05-23T10:54:04</time>
      </trkpt>
      <trkpt lat="45.58751" lon="6.05973">
        <ele>1072.2205</ele>
        <time>2021-05-23T10:54:05</time>
      </trkpt>
      <trkpt lat="45.58752" lon="6.05973">
        <ele>1072.2205</ele>
        <time>2021-05-23T10:54:06</time>
      </trkpt>
      <trkpt lat="45.58753" lon="6.05971">
        <ele>1072.2205</ele>
        <time>2021-05-23T10:54:08</time>
      </trkpt>
      <trkpt lat="45.58762" lon="6.05966">
        <ele>1073.2205</ele>
        <time>2021-05-23T10:54:22</time>
      </trkpt>
      <trkpt lat="45.58762" lon="6.05965">
        <ele>1073.2205</ele>
        <time>2021-05-23T10:54:23</time>
      </trkpt>
      <trkpt lat="45.58764" lon="6.05966">
        <ele>1073.2205</ele>
        <time>2021-05-23T10:54:27</time>
      </trkpt>
      <trkpt lat="45.58763" lon="6.05966">
        <ele>1075.5204</ele>
        <time>2021-05-23T10:54:34</time>
      </trkpt>
      <trkpt lat="45.58763" lon="6.05966">
        <ele>1075.5204</ele>
        <time>2021-05-23T10:54:35</time>
      </trkpt>
      <trkpt lat="45.58763" lon="6.05966">
        <ele>1075.5204</ele>
        <time>2021-05-23T10:54:37</time>
      </trkpt>
      <trkpt lat="45.58766" lon="6.05965">
        <ele>1074.3204</ele>
        <time>2021-05-23T10:54:40</time>
      </trkpt>
      <trkpt lat="45.58767" lon="6.05966">
        <ele>1074.3204</ele>
        <time>2021-05-23T10:54:41</time>
      </trkpt>
      <trkpt lat="45.58769" lon="6.05967">
        <ele>1074.3204</ele>
        <time>2021-05-23T10:54:44</time>
      </trkpt>
      <trkpt lat="45.58772" lon="6.05966">
        <ele>1074.3204</ele>
        <time>2021-05-23T10:54:47</time>
      </trkpt>
      <trkpt lat="45.58775" lon="6.05967">
        <ele>1077.2538</ele>
        <time>2021-05-23T10:54:50</time>
      </trkpt>
      <trkpt lat="45.58778" lon="6.05968">
        <ele>1077.2538</ele>
        <time>2021-05-23T10:54:53</time>
      </trkpt>
      <trkpt lat="45.5878" lon="6.05968">
        <ele>1077.2538</ele>
        <time>2021-05-23T10:54:55</time>
      </trkpt>
      <trkpt lat="45.58783" lon="6.05966">
        <ele>1077.2538</ele>
        <time>2021-05-23T10:54:59</time>
      </trkpt>
      <trkpt lat="45.58785" lon="6.05967">
        <ele>1079.2205</ele>
        <time>2021-05-23T10:55:02</time>
      </trkpt>
      <trkpt lat="45.58786" lon="6.05967">
        <ele>1079.2205</ele>
        <time>2021-05-23T10:55:04</time>
      </trkpt>
      <trkpt lat="45.58787" lon="6.05967">
        <ele>1079.2205</ele>
        <time>2021-05-23T10:55:05</time>
      </trkpt>
      <trkpt lat="45.58788" lon="6.05967">
        <ele>1079.2205</ele>
        <time>2021-05-23T10:55:06</time>
      </trkpt>
      <trkpt lat="45.58789" lon="6.05967">
        <ele>1079.2205</ele>
        <time>2021-05-23T10:55:07</time>
      </trkpt>
      <trkpt lat="45.58791" lon="6.05966">
        <ele>1078.4204</ele>
        <time>2021-05-23T10:55:10</time>
      </trkpt>
      <trkpt lat="45.58796" lon="6.05965">
        <ele>1078.4204</ele>
        <time>2021-05-23T10:55:16</time>
      </trkpt>
      <trkpt lat="45.58798" lon="6.05957">
        <ele>1082.8871</ele>
        <time>2021-05-23T10:55:24</time>
      </trkpt>
      <trkpt lat="45.58797" lon="6.05955">
        <ele>1082.8871</ele>
        <time>2021-05-23T10:55:25</time>
      </trkpt>
      <trkpt lat="45.58797" lon="6.05953">
        <ele>1082.8871</ele>
        <time>2021-05-23T10:55:27</time>
      </trkpt>
      <trkpt lat="45.58796" lon="6.05952">
        <ele>1082.8871</ele>
        <time>2021-05-23T10:55:28</time>
      </trkpt>
      <trkpt lat="45.58796" lon="6.0595">
        <ele>1082.8871</ele>
        <time>2021-05-23T10:55:29</time>
      </trkpt>
      <trkpt lat="45.58796" lon="6.05948">
        <ele>1082.8871</ele>
        <time>2021-05-23T10:55:30</time>
      </trkpt>
      <trkpt lat="45.58797" lon="6.05947">
        <ele>1082.8871</ele>
        <time>2021-05-23T10:55:31</time>
      </trkpt>
      <trkpt lat="45.58799" lon="6.05946">
        <ele>1082.8871</ele>
        <time>2021-05-23T10:55:39</time>
      </trkpt>
      <trkpt lat="45.58799" lon="6.05945">
        <ele>1082.8871</ele>
        <time>2021-05-23T10:55:40</time>
      </trkpt>
      <trkpt lat="45.58799" lon="6.05944">
        <ele>1082.8871</ele>
        <time>2021-05-23T10:55:41</time>
      </trkpt>
      <trkpt lat="45.58799" lon="6.05943">
        <ele>1082.8871</ele>
        <time>2021-05-23T10:55:42</time>
      </trkpt>
      <trkpt lat="45.58799" lon="6.05942">
        <ele>1082.8871</ele>
        <time>2021-05-23T10:55:43</time>
      </trkpt>
      <trkpt lat="45.588" lon="6.0594">
        <ele>1082.8871</ele>
        <time>2021-05-23T10:55:44</time>
      </trkpt>
      <trkpt lat="45.588" lon="6.05939">
        <ele>1082.8871</ele>
        <time>2021-05-23T10:55:45</time>
      </trkpt>
      <trkpt lat="45.58801" lon="6.05937">
        <ele>1082.8871</ele>
        <time>2021-05-23T10:55:46</time>
      </trkpt>
      <trkpt lat="45.58802" lon="6.05932">
        <ele>1082.8871</ele>
        <time>2021-05-23T10:55:48</time>
      </trkpt>
      <trkpt lat="45.58803" lon="6.05927">
        <ele>1082.8871</ele>
        <time>2021-05-23T10:55:56</time>
      </trkpt>
      <trkpt lat="45.58803" lon="6.05926">
        <ele>1082.8871</ele>
        <time>2021-05-23T10:55:57</time>
      </trkpt>
      <trkpt lat="45.58804" lon="6.05925">
        <ele>1082.8871</ele>
        <time>2021-05-23T10:55:58</time>
      </trkpt>
      <trkpt lat="45.58805" lon="6.05919">
        <ele>1082.8871</ele>
        <time>2021-05-23T10:56:05</time>
      </trkpt>
      <trkpt lat="45.58805" lon="6.05918">
        <ele>1082.8871</ele>
        <time>2021-05-23T10:56:06</time>
      </trkpt>
      <trkpt lat="45.58806" lon="6.05915">
        <ele>1082.8871</ele>
        <time>2021-05-23T10:56:11</time>
      </trkpt>
      <trkpt lat="45.58806" lon="6.05914">
        <ele>1082.8871</ele>
        <time>2021-05-23T10:56:12</time>
      </trkpt>
      <trkpt lat="45.58807" lon="6.05914">
        <ele>1082.8871</ele>
        <time>2021-05-23T10:56:13</time>
      </trkpt>
      <trkpt lat="45.58807" lon="6.05913">
        <ele>1082.8871</ele>
        <time>2021-05-23T10:56:14</time>
      </trkpt>
      <trkpt lat="45.58808" lon="6.05912">
        <ele>1082.8871</ele>
        <time>2021-05-23T10:56:17</time>
      </trkpt>
      <trkpt lat="45.58808" lon="6.05912">
        <ele>1082.8871</ele>
        <time>2021-05-23T10:56:18</time>
      </trkpt>
      <trkpt lat="45.5881" lon="6.05906">
        <ele>1082.8871</ele>
        <time>2021-05-23T10:56:24</time>
      </trkpt>
      <trkpt lat="45.5881" lon="6.05902">
        <ele>1082.8871</ele>
        <time>2021-05-23T10:56:40</time>
      </trkpt>
      <trkpt lat="45.5881" lon="6.05902">
        <ele>1082.8871</ele>
        <time>2021-05-23T10:56:41</time>
      </trkpt>
      <trkpt lat="45.58809" lon="6.05901">
        <ele>1082.8871</ele>
        <time>2021-05-23T10:56:48</time>
      </trkpt>
      <trkpt lat="45.58809" lon="6.059">
        <ele>1082.8871</ele>
        <time>2021-05-23T10:56:49</time>
      </trkpt>
      <trkpt lat="45.58806" lon="6.059">
        <ele>1082.8871</ele>
        <time>2021-05-23T10:56:52</time>
      </trkpt>
      <trkpt lat="45.58802" lon="6.05899">
        <ele>1082.8871</ele>
        <time>2021-05-23T10:56:55</time>
      </trkpt>
      <trkpt lat="45.588" lon="6.05898">
        <ele>1082.8871</ele>
        <time>2021-05-23T10:56:57</time>
      </trkpt>
      <trkpt lat="45.58796" lon="6.05896">
        <ele>1082.8871</ele>
        <time>2021-05-23T10:57:00</time>
      </trkpt>
      <trkpt lat="45.58794" lon="6.05898">
        <ele>1082.8871</ele>
        <time>2021-05-23T10:57:02</time>
      </trkpt>
      <trkpt lat="45.58793" lon="6.05899">
        <ele>1082.8871</ele>
        <time>2021-05-23T10:57:03</time>
      </trkpt>
      <trkpt lat="45.58791" lon="6.05899">
        <ele>1082.8871</ele>
        <time>2021-05-23T10:57:04</time>
      </trkpt>
      <trkpt lat="45.58779" lon="6.05898">
        <ele>1082.8871</ele>
        <time>2021-05-23T10:57:13</time>
      </trkpt>
      <trkpt lat="45.58777" lon="6.05898">
        <ele>1082.8871</ele>
        <time>2021-05-23T10:57:15</time>
      </trkpt>
      <trkpt lat="45.58775" lon="6.05898">
        <ele>1082.8871</ele>
        <time>2021-05-23T10:57:17</time>
      </trkpt>
      <trkpt lat="45.58773" lon="6.05898">
        <ele>1082.8871</ele>
        <time>2021-05-23T10:57:19</time>
      </trkpt>
      <trkpt lat="45.58772" lon="6.05898">
        <ele>1082.8871</ele>
        <time>2021-05-23T10:57:20</time>
      </trkpt>
      <trkpt lat="45.58769" lon="6.05898">
        <ele>1082.8871</ele>
        <time>2021-05-23T10:57:22</time>
      </trkpt>
      <trkpt lat="45.58765" lon="6.05898">
        <ele>1082.8871</ele>
        <time>2021-05-23T10:57:27</time>
      </trkpt>
      <trkpt lat="45.58764" lon="6.05898">
        <ele>1082.8871</ele>
        <time>2021-05-23T10:57:28</time>
      </trkpt>
      <trkpt lat="45.58762" lon="6.05898">
        <ele>1082.8871</ele>
        <time>2021-05-23T10:57:30</time>
      </trkpt>
      <trkpt lat="45.58762" lon="6.05898">
        <ele>1082.8871</ele>
        <time>2021-05-23T10:57:31</time>
      </trkpt>
      <trkpt lat="45.58761" lon="6.05898">
        <ele>1082.8871</ele>
        <time>2021-05-23T10:57:33</time>
      </trkpt>
      <trkpt lat="45.58759" lon="6.05899">
        <ele>1082.8871</ele>
        <time>2021-05-23T10:57:36</time>
      </trkpt>
      <trkpt lat="45.58756" lon="6.05896">
        <ele>1082.8871</ele>
        <time>2021-05-23T10:57:39</time>
      </trkpt>
      <trkpt lat="45.58754" lon="6.05895">
        <ele>1082.8871</ele>
        <time>2021-05-23T10:57:40</time>
      </trkpt>
      <trkpt lat="45.58754" lon="6.05894">
        <ele>1082.8871</ele>
        <time>2021-05-23T10:57:41</time>
      </trkpt>
      <trkpt lat="45.58754" lon="6.05894">
        <ele>1082.8871</ele>
        <time>2021-05-23T10:57:43</time>
      </trkpt>
      <trkpt lat="45.58748" lon="6.05892">
        <ele>1082.8871</ele>
        <time>2021-05-23T10:57:48</time>
      </trkpt>
      <trkpt lat="45.58745" lon="6.05891">
        <ele>1082.8871</ele>
        <time>2021-05-23T10:57:51</time>
      </trkpt>
      <trkpt lat="45.58741" lon="6.05889">
        <ele>1082.8871</ele>
        <time>2021-05-23T10:57:54</time>
      </trkpt>
      <trkpt lat="45.5874" lon="6.05888">
        <ele>1082.8871</ele>
        <time>2021-05-23T10:57:56</time>
      </trkpt>
      <trkpt lat="45.58739" lon="6.05887">
        <ele>1082.8871</ele>
        <time>2021-05-23T10:57:59</time>
      </trkpt>
      <trkpt lat="45.58738" lon="6.05887">
        <ele>1082.8871</ele>
        <time>2021-05-23T10:58:00</time>
      </trkpt>
      <trkpt lat="45.58736" lon="6.05887">
        <ele>1082.8871</ele>
        <time>2021-05-23T10:58:02</time>
      </trkpt>
      <trkpt lat="45.58735" lon="6.05886">
        <ele>1082.8871</ele>
        <time>2021-05-23T10:58:03</time>
      </trkpt>
      <trkpt lat="45.58732" lon="6.05884">
        <ele>1082.8871</ele>
        <time>2021-05-23T10:58:05</time>
      </trkpt>
      <trkpt lat="45.58727" lon="6.05879">
        <ele>1082.8871</ele>
        <time>2021-05-23T10:58:12</time>
      </trkpt>
      <trkpt lat="45.58722" lon="6.05873">
        <ele>1082.8871</ele>
        <time>2021-05-23T10:58:19</time>
      </trkpt>
      <trkpt lat="45.58722" lon="6.05871">
        <ele>1082.8871</ele>
        <time>2021-05-23T10:58:20</time>
      </trkpt>
      <trkpt lat="45.58723" lon="6.0587">
        <ele>1082.8871</ele>
        <time>2021-05-23T10:58:24</time>
      </trkpt>
      <trkpt lat="45.58722" lon="6.05869">
        <ele>1082.8871</ele>
        <time>2021-05-23T10:58:25</time>
      </trkpt>
      <trkpt lat="45.58723" lon="6.05869">
        <ele>1082.8871</ele>
        <time>2021-05-23T10:58:27</time>
      </trkpt>
      <trkpt lat="45.58722" lon="6.05869">
        <ele>1082.8871</ele>
        <time>2021-05-23T10:58:28</time>
      </trkpt>
      <trkpt lat="45.58718" lon="6.05864">
        <ele>1082.8871</ele>
        <time>2021-05-23T10:58:35</time>
      </trkpt>
      <trkpt lat="45.58717" lon="6.05864">
        <ele>1082.8871</ele>
        <time>2021-05-23T10:58:36</time>
      </trkpt>
      <trkpt lat="45.58716" lon="6.05864">
        <ele>1082.8871</ele>
        <time>2021-05-23T10:58:37</time>
      </trkpt>
      <trkpt lat="45.58715" lon="6.05864">
        <ele>1082.8871</ele>
        <time>2021-05-23T10:58:38</time>
      </trkpt>
      <trkpt lat="45.58715" lon="6.05864">
        <ele>1082.8871</ele>
        <time>2021-05-23T10:58:39</time>
      </trkpt>
      <trkpt lat="45.58714" lon="6.05864">
        <ele>1082.8871</ele>
        <time>2021-05-23T10:58:40</time>
      </trkpt>
      <trkpt lat="45.58713" lon="6.05864">
        <ele>1082.8871</ele>
        <time>2021-05-23T10:58:41</time>
      </trkpt>
      <trkpt lat="45.58713" lon="6.05863">
        <ele>1082.8871</ele>
        <time>2021-05-23T10:58:42</time>
      </trkpt>
      <trkpt lat="45.58713" lon="6.05863">
        <ele>1082.8871</ele>
        <time>2021-05-23T10:58:43</time>
      </trkpt>
      <trkpt lat="45.58709" lon="6.05861">
        <ele>1082.8871</ele>
        <time>2021-05-23T10:58:47</time>
      </trkpt>
      <trkpt lat="45.58708" lon="6.0586">
        <ele>1082.8871</ele>
        <time>2021-05-23T10:58:48</time>
      </trkpt>
      <trkpt lat="45.58707" lon="6.0586">
        <ele>1082.8871</ele>
        <time>2021-05-23T10:58:49</time>
      </trkpt>
      <trkpt lat="45.58707" lon="6.05858">
        <ele>1082.8871</ele>
        <time>2021-05-23T10:58:51</time>
      </trkpt>
      <trkpt lat="45.58706" lon="6.05856">
        <ele>1082.8871</ele>
        <time>2021-05-23T10:58:53</time>
      </trkpt>
      <trkpt lat="45.58705" lon="6.05855">
        <ele>1082.8871</ele>
        <time>2021-05-23T10:58:54</time>
      </trkpt>
      <trkpt lat="45.58703" lon="6.0585">
        <ele>1082.8871</ele>
        <time>2021-05-23T10:58:58</time>
      </trkpt>
      <trkpt lat="45.58702" lon="6.05847">
        <ele>1082.8871</ele>
        <time>2021-05-23T10:59:00</time>
      </trkpt>
      <trkpt lat="45.58702" lon="6.05846">
        <ele>1082.8871</ele>
        <time>2021-05-23T10:59:01</time>
      </trkpt>
      <trkpt lat="45.58701" lon="6.05845">
        <ele>1082.8871</ele>
        <time>2021-05-23T10:59:02</time>
      </trkpt>
      <trkpt lat="45.58702" lon="6.05845">
        <ele>1082.8871</ele>
        <time>2021-05-23T10:59:05</time>
      </trkpt>
      <trkpt lat="45.58703" lon="6.05845">
        <ele>1082.8871</ele>
        <time>2021-05-23T10:59:06</time>
      </trkpt>
      <trkpt lat="45.58703" lon="6.05845">
        <ele>1082.8871</ele>
        <time>2021-05-23T10:59:08</time>
      </trkpt>
      <trkpt lat="45.58703" lon="6.05844">
        <ele>1082.8871</ele>
        <time>2021-05-23T10:59:09</time>
      </trkpt>
      <trkpt lat="45.58701" lon="6.05842">
        <ele>1082.8871</ele>
        <time>2021-05-23T10:59:12</time>
      </trkpt>
      <trkpt lat="45.587" lon="6.0584">
        <ele>1082.8871</ele>
        <time>2021-05-23T10:59:13</time>
      </trkpt>
      <trkpt lat="45.58699" lon="6.05839">
        <ele>1082.8871</ele>
        <time>2021-05-23T10:59:14</time>
      </trkpt>
      <trkpt lat="45.58699" lon="6.05839">
        <ele>1082.8871</ele>
        <time>2021-05-23T10:59:15</time>
      </trkpt>
      <trkpt lat="45.58698" lon="6.05838">
        <ele>1082.8871</ele>
        <time>2021-05-23T10:59:17</time>
      </trkpt>
      <trkpt lat="45.58697" lon="6.05837">
        <ele>1082.8871</ele>
        <time>2021-05-23T10:59:18</time>
      </trkpt>
      <trkpt lat="45.58697" lon="6.05835">
        <ele>1082.8871</ele>
        <time>2021-05-23T10:59:23</time>
      </trkpt>
      <trkpt lat="45.58697" lon="6.05835">
        <ele>1082.8871</ele>
        <time>2021-05-23T10:59:24</time>
      </trkpt>
      <trkpt lat="45.58697" lon="6.05835">
        <ele>1082.8871</ele>
        <time>2021-05-23T10:59:26</time>
      </trkpt>
      <trkpt lat="45.58697" lon="6.05834">
        <ele>1082.8871</ele>
        <time>2021-05-23T10:59:27</time>
      </trkpt>
      <trkpt lat="45.58696" lon="6.05832">
        <ele>1082.8871</ele>
        <time>2021-05-23T10:59:29</time>
      </trkpt>
      <trkpt lat="45.58696" lon="6.05831">
        <ele>1082.8871</ele>
        <time>2021-05-23T10:59:30</time>
      </trkpt>
      <trkpt lat="45.58695" lon="6.0583">
        <ele>1082.8871</ele>
        <time>2021-05-23T10:59:31</time>
      </trkpt>
      <trkpt lat="45.58695" lon="6.05829">
        <ele>1082.8871</ele>
        <time>2021-05-23T10:59:33</time>
      </trkpt>
      <trkpt lat="45.58694" lon="6.05827">
        <ele>1082.8871</ele>
        <time>2021-05-23T10:59:34</time>
      </trkpt>
      <trkpt lat="45.58694" lon="6.05826">
        <ele>1082.8871</ele>
        <time>2021-05-23T10:59:35</time>
      </trkpt>
      <trkpt lat="45.58694" lon="6.05824">
        <ele>1082.8871</ele>
        <time>2021-05-23T10:59:37</time>
      </trkpt>
      <trkpt lat="45.58694" lon="6.05821">
        <ele>1082.8871</ele>
        <time>2021-05-23T10:59:40</time>
      </trkpt>
      <trkpt lat="45.58694" lon="6.0582">
        <ele>1082.8871</ele>
        <time>2021-05-23T10:59:41</time>
      </trkpt>
      <trkpt lat="45.58694" lon="6.0582">
        <ele>1082.8871</ele>
        <time>2021-05-23T10:59:42</time>
      </trkpt>
      <trkpt lat="45.58693" lon="6.05818">
        <ele>1082.8871</ele>
        <time>2021-05-23T10:59:44</time>
      </trkpt>
      <trkpt lat="45.58693" lon="6.05817">
        <ele>1082.8871</ele>
        <time>2021-05-23T10:59:46</time>
      </trkpt>
      <trkpt lat="45.58694" lon="6.05816">
        <ele>1082.8871</ele>
        <time>2021-05-23T10:59:47</time>
      </trkpt>
      <trkpt lat="45.58694" lon="6.05814">
        <ele>1082.8871</ele>
        <time>2021-05-23T10:59:52</time>
      </trkpt>
      <trkpt lat="45.58694" lon="6.05811">
        <ele>1082.8871</ele>
        <time>2021-05-23T10:59:55</time>
      </trkpt>
      <trkpt lat="45.58694" lon="6.05811">
        <ele>1082.8871</ele>
        <time>2021-05-23T10:59:56</time>
      </trkpt>
      <trkpt lat="45.58694" lon="6.0581">
        <ele>1082.8871</ele>
        <time>2021-05-23T10:59:58</time>
      </trkpt>
      <trkpt lat="45.58693" lon="6.05809">
        <ele>1082.8871</ele>
        <time>2021-05-23T10:59:59</time>
      </trkpt>
      <trkpt lat="45.58692" lon="6.05807">
        <ele>1082.8871</ele>
        <time>2021-05-23T11:00:03</time>
      </trkpt>
      <trkpt lat="45.58691" lon="6.05806">
        <ele>1082.8871</ele>
        <time>2021-05-23T11:00:04</time>
      </trkpt>
      <trkpt lat="45.5869" lon="6.05805">
        <ele>1082.8871</ele>
        <time>2021-05-23T11:00:08</time>
      </trkpt>
      <trkpt lat="45.58688" lon="6.05803">
        <ele>1082.8871</ele>
        <time>2021-05-23T11:00:10</time>
      </trkpt>
      <trkpt lat="45.58685" lon="6.05802">
        <ele>1082.8871</ele>
        <time>2021-05-23T11:00:11</time>
      </trkpt>
      <trkpt lat="45.5868" lon="6.05799">
        <ele>1082.8871</ele>
        <time>2021-05-23T11:00:24</time>
      </trkpt>
      <trkpt lat="45.58679" lon="6.05799">
        <ele>1082.8871</ele>
        <time>2021-05-23T11:00:25</time>
      </trkpt>
      <trkpt lat="45.58678" lon="6.05798">
        <ele>1082.8871</ele>
        <time>2021-05-23T11:00:28</time>
      </trkpt>
      <trkpt lat="45.58678" lon="6.05798">
        <ele>1082.8871</ele>
        <time>2021-05-23T11:00:29</time>
      </trkpt>
      <trkpt lat="45.58677" lon="6.05798">
        <ele>1082.8871</ele>
        <time>2021-05-23T11:00:33</time>
      </trkpt>
      <trkpt lat="45.58672" lon="6.05794">
        <ele>1082.8871</ele>
        <time>2021-05-23T11:00:37</time>
      </trkpt>
      <trkpt lat="45.5867" lon="6.05793">
        <ele>1082.8871</ele>
        <time>2021-05-23T11:00:38</time>
      </trkpt>
      <trkpt lat="45.58669" lon="6.05793">
        <ele>1082.8871</ele>
        <time>2021-05-23T11:00:39</time>
      </trkpt>
      <trkpt lat="45.58667" lon="6.05792">
        <ele>1082.8871</ele>
        <time>2021-05-23T11:00:40</time>
      </trkpt>
      <trkpt lat="45.58665" lon="6.05791">
        <ele>1082.8871</ele>
        <time>2021-05-23T11:00:41</time>
      </trkpt>
      <trkpt lat="45.58664" lon="6.05791">
        <ele>1082.8871</ele>
        <time>2021-05-23T11:00:42</time>
      </trkpt>
      <trkpt lat="45.5866" lon="6.0579">
        <ele>1082.8871</ele>
        <time>2021-05-23T11:00:46</time>
      </trkpt>
      <trkpt lat="45.5866" lon="6.05789">
        <ele>1082.8871</ele>
        <time>2021-05-23T11:00:48</time>
      </trkpt>
      <trkpt lat="45.58661" lon="6.05789">
        <ele>1082.8871</ele>
        <time>2021-05-23T11:00:49</time>
      </trkpt>
      <trkpt lat="45.58659" lon="6.05788">
        <ele>1082.8871</ele>
        <time>2021-05-23T11:00:53</time>
      </trkpt>
      <trkpt lat="45.58658" lon="6.05787">
        <ele>1082.8871</ele>
        <time>2021-05-23T11:00:55</time>
      </trkpt>
      <trkpt lat="45.58658" lon="6.05787">
        <ele>1082.8871</ele>
        <time>2021-05-23T11:01:00</time>
      </trkpt>
      <trkpt lat="45.58657" lon="6.05787">
        <ele>1082.8871</ele>
        <time>2021-05-23T11:01:01</time>
      </trkpt>
      <trkpt lat="45.58656" lon="6.05788">
        <ele>1082.8871</ele>
        <time>2021-05-23T11:01:31</time>
      </trkpt>
      <trkpt lat="45.58655" lon="6.05787">
        <ele>1082.8871</ele>
        <time>2021-05-23T11:01:59</time>
      </trkpt>
      <trkpt lat="45.58649" lon="6.05785">
        <ele>1082.8871</ele>
        <time>2021-05-23T11:02:03</time>
      </trkpt>
      <trkpt lat="45.58648" lon="6.05785">
        <ele>1082.8871</ele>
        <time>2021-05-23T11:02:09</time>
      </trkpt>
      <trkpt lat="45.58644" lon="6.05784">
        <ele>1082.8871</ele>
        <time>2021-05-23T11:02:12</time>
      </trkpt>
      <trkpt lat="45.58644" lon="6.05783">
        <ele>1082.8871</ele>
        <time>2021-05-23T11:02:14</time>
      </trkpt>
      <trkpt lat="45.58641" lon="6.05783">
        <ele>1082.8871</ele>
        <time>2021-05-23T11:02:17</time>
      </trkpt>
      <trkpt lat="45.5864" lon="6.05782">
        <ele>1082.8871</ele>
        <time>2021-05-23T11:02:19</time>
      </trkpt>
      <trkpt lat="45.58639" lon="6.05779">
        <ele>1082.8871</ele>
        <time>2021-05-23T11:02:30</time>
      </trkpt>
      <trkpt lat="45.58639" lon="6.05779">
        <ele>1082.8871</ele>
        <time>2021-05-23T11:02:31</time>
      </trkpt>
      <trkpt lat="45.58638" lon="6.05778">
        <ele>1082.8871</ele>
        <time>2021-05-23T11:02:32</time>
      </trkpt>
      <trkpt lat="45.58638" lon="6.05777">
        <ele>1082.8871</ele>
        <time>2021-05-23T11:02:33</time>
      </trkpt>
      <trkpt lat="45.58637" lon="6.05776">
        <ele>1082.8871</ele>
        <time>2021-05-23T11:02:34</time>
      </trkpt>
      <trkpt lat="45.58638" lon="6.05775">
        <ele>1082.8871</ele>
        <time>2021-05-23T11:02:35</time>
      </trkpt>
      <trkpt lat="45.58638" lon="6.05774">
        <ele>1082.8871</ele>
        <time>2021-05-23T11:02:37</time>
      </trkpt>
      <trkpt lat="45.58637" lon="6.05773">
        <ele>1082.8871</ele>
        <time>2021-05-23T11:02:38</time>
      </trkpt>
      <trkpt lat="45.58637" lon="6.05772">
        <ele>1082.8871</ele>
        <time>2021-05-23T11:02:39</time>
      </trkpt>
      <trkpt lat="45.58635" lon="6.05768">
        <ele>1082.8871</ele>
        <time>2021-05-23T11:02:41</time>
      </trkpt>
      <trkpt lat="45.58635" lon="6.05768">
        <ele>1110.0872</ele>
        <time>2021-05-23T11:02:43</time>
      </trkpt>
      <trkpt lat="45.58634" lon="6.05767">
        <ele>1110.0872</ele>
        <time>2021-05-23T11:02:44</time>
      </trkpt>
      <trkpt lat="45.58634" lon="6.05766">
        <ele>1110.0872</ele>
        <time>2021-05-23T11:02:45</time>
      </trkpt>
      <trkpt lat="45.58633" lon="6.05765">
        <ele>1110.0872</ele>
        <time>2021-05-23T11:02:46</time>
      </trkpt>
      <trkpt lat="45.58632" lon="6.05763">
        <ele>1110.0872</ele>
        <time>2021-05-23T11:02:48</time>
      </trkpt>
      <trkpt lat="45.58631" lon="6.05763">
        <ele>1110.0872</ele>
        <time>2021-05-23T11:02:49</time>
      </trkpt>
      <trkpt lat="45.58631" lon="6.05763">
        <ele>1110.0872</ele>
        <time>2021-05-23T11:02:50</time>
      </trkpt>
      <trkpt lat="45.58629" lon="6.05762">
        <ele>1109.987</ele>
        <time>2021-05-23T11:03:00</time>
      </trkpt>
      <trkpt lat="45.58629" lon="6.05761">
        <ele>1109.987</ele>
        <time>2021-05-23T11:03:01</time>
      </trkpt>
      <trkpt lat="45.58627" lon="6.05759">
        <ele>1109.987</ele>
        <time>2021-05-23T11:03:26</time>
      </trkpt>
      <trkpt lat="45.58625" lon="6.05757">
        <ele>1109.987</ele>
        <time>2021-05-23T11:03:31</time>
      </trkpt>
      <trkpt lat="45.58625" lon="6.05756">
        <ele>1109.987</ele>
        <time>2021-05-23T11:03:32</time>
      </trkpt>
      <trkpt lat="45.58625" lon="6.05756">
        <ele>1109.987</ele>
        <time>2021-05-23T11:03:33</time>
      </trkpt>
      <trkpt lat="45.58621" lon="6.05754">
        <ele>1109.987</ele>
        <time>2021-05-23T11:03:56</time>
      </trkpt>
      <trkpt lat="45.58619" lon="6.05753">
        <ele>1109.987</ele>
        <time>2021-05-23T11:03:57</time>
      </trkpt>
      <trkpt lat="45.58618" lon="6.05753">
        <ele>1109.987</ele>
        <time>2021-05-23T11:03:58</time>
      </trkpt>
      <trkpt lat="45.58616" lon="6.05751">
        <ele>1109.987</ele>
        <time>2021-05-23T11:04:01</time>
      </trkpt>
      <trkpt lat="45.58614" lon="6.0575">
        <ele>1109.987</ele>
        <time>2021-05-23T11:04:02</time>
      </trkpt>
      <trkpt lat="45.58613" lon="6.05748">
        <ele>1109.987</ele>
        <time>2021-05-23T11:04:04</time>
      </trkpt>
      <trkpt lat="45.58612" lon="6.05747">
        <ele>1109.987</ele>
        <time>2021-05-23T11:04:05</time>
      </trkpt>
      <trkpt lat="45.58611" lon="6.05745">
        <ele>1109.987</ele>
        <time>2021-05-23T11:04:06</time>
      </trkpt>
      <trkpt lat="45.58608" lon="6.0574">
        <ele>1109.987</ele>
        <time>2021-05-23T11:04:29</time>
      </trkpt>
      <trkpt lat="45.58604" lon="6.0574">
        <ele>1109.987</ele>
        <time>2021-05-23T11:04:31</time>
      </trkpt>
      <trkpt lat="45.58603" lon="6.0574">
        <ele>1109.987</ele>
        <time>2021-05-23T11:04:32</time>
      </trkpt>
      <trkpt lat="45.58601" lon="6.0574">
        <ele>1109.987</ele>
        <time>2021-05-23T11:04:33</time>
      </trkpt>
      <trkpt lat="45.586" lon="6.0574">
        <ele>1109.987</ele>
        <time>2021-05-23T11:04:34</time>
      </trkpt>
      <trkpt lat="45.58599" lon="6.0574">
        <ele>1109.987</ele>
        <time>2021-05-23T11:04:35</time>
      </trkpt>
      <trkpt lat="45.58598" lon="6.0574">
        <ele>1109.987</ele>
        <time>2021-05-23T11:04:36</time>
      </trkpt>
      <trkpt lat="45.58596" lon="6.05739">
        <ele>1109.987</ele>
        <time>2021-05-23T11:04:38</time>
      </trkpt>
      <trkpt lat="45.58594" lon="6.05738">
        <ele>1118.8204</ele>
        <time>2021-05-23T11:04:43</time>
      </trkpt>
      <trkpt lat="45.58594" lon="6.05737">
        <ele>1118.8204</ele>
        <time>2021-05-23T11:04:44</time>
      </trkpt>
      <trkpt lat="45.58591" lon="6.05736">
        <ele>1121.4204</ele>
        <time>2021-05-23T11:04:59</time>
      </trkpt>
      <trkpt lat="45.58591" lon="6.05737">
        <ele>1121.4204</ele>
        <time>2021-05-23T11:05:00</time>
      </trkpt>
      <trkpt lat="45.5859" lon="6.05738">
        <ele>1121.4204</ele>
        <time>2021-05-23T11:05:01</time>
      </trkpt>
      <trkpt lat="45.58589" lon="6.05739">
        <ele>1120.9204</ele>
        <time>2021-05-23T11:05:05</time>
      </trkpt>
      <trkpt lat="45.58589" lon="6.05739">
        <ele>1120.9204</ele>
        <time>2021-05-23T11:05:06</time>
      </trkpt>
      <trkpt lat="45.58589" lon="6.05739">
        <ele>1120.9204</ele>
        <time>2021-05-23T11:05:07</time>
      </trkpt>
      <trkpt lat="45.58589" lon="6.05739">
        <ele>1120.9204</ele>
        <time>2021-05-23T11:05:08</time>
      </trkpt>
      <trkpt lat="45.58588" lon="6.05738">
        <ele>1121.5204</ele>
        <time>2021-05-23T11:05:13</time>
      </trkpt>
      <trkpt lat="45.58587" lon="6.05738">
        <ele>1121.5204</ele>
        <time>2021-05-23T11:05:15</time>
      </trkpt>
      <trkpt lat="45.58586" lon="6.05737">
        <ele>1121.5204</ele>
        <time>2021-05-23T11:05:16</time>
      </trkpt>
      <trkpt lat="45.58585" lon="6.05736">
        <ele>1122.1205</ele>
        <time>2021-05-23T11:05:46</time>
      </trkpt>
      <trkpt lat="45.58585" lon="6.05736">
        <ele>1122.1205</ele>
        <time>2021-05-23T11:05:51</time>
      </trkpt>
      <trkpt lat="45.58584" lon="6.05736">
        <ele>1122.1205</ele>
        <time>2021-05-23T11:05:52</time>
      </trkpt>
      <trkpt lat="45.58582" lon="6.05736">
        <ele>1122.1205</ele>
        <time>2021-05-23T11:06:22</time>
      </trkpt>
      <trkpt lat="45.58581" lon="6.05736">
        <ele>1121.9204</ele>
        <time>2021-05-23T11:06:50</time>
      </trkpt>
      <trkpt lat="45.5858" lon="6.05736">
        <ele>1121.9204</ele>
        <time>2021-05-23T11:06:51</time>
      </trkpt>
      <trkpt lat="45.5858" lon="6.05736">
        <ele>1120.2205</ele>
        <time>2021-05-23T11:06:52</time>
      </trkpt>
      <trkpt lat="45.5858" lon="6.05736">
        <ele>1120.2205</ele>
        <time>2021-05-23T11:06:53</time>
      </trkpt>
      <trkpt lat="45.58579" lon="6.05736">
        <ele>1120.2205</ele>
        <time>2021-05-23T11:06:55</time>
      </trkpt>
      <trkpt lat="45.58578" lon="6.05735">
        <ele>1120.2205</ele>
        <time>2021-05-23T11:06:57</time>
      </trkpt>
      <trkpt lat="45.58578" lon="6.05735">
        <ele>1120.2205</ele>
        <time>2021-05-23T11:06:58</time>
      </trkpt>
      <trkpt lat="45.58577" lon="6.05734">
        <ele>1120.3204</ele>
        <time>2021-05-23T11:07:02</time>
      </trkpt>
      <trkpt lat="45.58577" lon="6.05734">
        <ele>1120.3204</ele>
        <time>2021-05-23T11:07:03</time>
      </trkpt>
      <trkpt lat="45.58577" lon="6.05734">
        <ele>1120.3204</ele>
        <time>2021-05-23T11:07:04</time>
      </trkpt>
      <trkpt lat="45.58575" lon="6.05733">
        <ele>1120.3204</ele>
        <time>2021-05-23T11:07:14</time>
      </trkpt>
      <trkpt lat="45.58575" lon="6.05733">
        <ele>1120.3204</ele>
        <time>2021-05-23T11:07:15</time>
      </trkpt>
      <trkpt lat="45.58575" lon="6.05732">
        <ele>1120.3204</ele>
        <time>2021-05-23T11:07:24</time>
      </trkpt>
      <trkpt lat="45.58575" lon="6.05732">
        <ele>1120.3204</ele>
        <time>2021-05-23T11:07:25</time>
      </trkpt>
      <trkpt lat="45.58572" lon="6.0573">
        <ele>1123.3204</ele>
        <time>2021-05-23T11:07:34</time>
      </trkpt>
      <trkpt lat="45.58572" lon="6.05731">
        <ele>1123.3204</ele>
        <time>2021-05-23T11:07:35</time>
      </trkpt>
      <trkpt lat="45.58571" lon="6.05732">
        <ele>1123.3204</ele>
        <time>2021-05-23T11:07:39</time>
      </trkpt>
      <trkpt lat="45.58571" lon="6.05732">
        <ele>1123.3204</ele>
        <time>2021-05-23T11:07:40</time>
      </trkpt>
      <trkpt lat="45.5857" lon="6.05733">
        <ele>1120.9204</ele>
        <time>2021-05-23T11:08:08</time>
      </trkpt>
      <trkpt lat="45.5857" lon="6.05733">
        <ele>1120.9204</ele>
        <time>2021-05-23T11:08:09</time>
      </trkpt>
      <trkpt lat="45.58567" lon="6.05733">
        <ele>1120.7205</ele>
        <time>2021-05-23T11:08:28</time>
      </trkpt>
      <trkpt lat="45.58566" lon="6.05732">
        <ele>1120.7205</ele>
        <time>2021-05-23T11:08:29</time>
      </trkpt>
      <trkpt lat="45.58564" lon="6.05732">
        <ele>1120.7205</ele>
        <time>2021-05-23T11:08:30</time>
      </trkpt>
      <trkpt lat="45.58564" lon="6.05731">
        <ele>1120.7205</ele>
        <time>2021-05-23T11:08:31</time>
      </trkpt>
      <trkpt lat="45.58563" lon="6.05731">
        <ele>1120.7205</ele>
        <time>2021-05-23T11:08:34</time>
      </trkpt>
      <trkpt lat="45.58563" lon="6.0573">
        <ele>1120.7205</ele>
        <time>2021-05-23T11:08:36</time>
      </trkpt>
      <trkpt lat="45.58561" lon="6.05729">
        <ele>1120.7205</ele>
        <time>2021-05-23T11:08:44</time>
      </trkpt>
      <trkpt lat="45.58549" lon="6.05722">
        <ele>1120.7205</ele>
        <time>2021-05-23T11:08:55</time>
      </trkpt>
      <trkpt lat="45.58548" lon="6.05721">
        <ele>1120.7205</ele>
        <time>2021-05-23T11:08:56</time>
      </trkpt>
      <trkpt lat="45.58547" lon="6.0572">
        <ele>1120.7205</ele>
        <time>2021-05-23T11:08:57</time>
      </trkpt>
      <trkpt lat="45.58542" lon="6.05716">
        <ele>1131.4204</ele>
        <time>2021-05-23T11:09:04</time>
      </trkpt>
      <trkpt lat="45.58542" lon="6.05716">
        <ele>1131.4204</ele>
        <time>2021-05-23T11:09:05</time>
      </trkpt>
      <trkpt lat="45.5854" lon="6.05714">
        <ele>1131.4204</ele>
        <time>2021-05-23T11:09:08</time>
      </trkpt>
      <trkpt lat="45.58539" lon="6.05713">
        <ele>1131.4204</ele>
        <time>2021-05-23T11:09:11</time>
      </trkpt>
      <trkpt lat="45.58539" lon="6.0571">
        <ele>1135.9204</ele>
        <time>2021-05-23T11:09:14</time>
      </trkpt>
      <trkpt lat="45.58538" lon="6.05709">
        <ele>1135.9204</ele>
        <time>2021-05-23T11:09:17</time>
      </trkpt>
      <trkpt lat="45.58538" lon="6.05708">
        <ele>1134.1205</ele>
        <time>2021-05-23T11:09:23</time>
      </trkpt>
      <trkpt lat="45.58539" lon="6.05705">
        <ele>1134.1205</ele>
        <time>2021-05-23T11:09:27</time>
      </trkpt>
      <trkpt lat="45.58538" lon="6.05703">
        <ele>1134.1205</ele>
        <time>2021-05-23T11:09:30</time>
      </trkpt>
      <trkpt lat="45.58538" lon="6.05703">
        <ele>1134.1205</ele>
        <time>2021-05-23T11:09:31</time>
      </trkpt>
      <trkpt lat="45.58538" lon="6.05701">
        <ele>1134.1205</ele>
        <time>2021-05-23T11:09:41</time>
      </trkpt>
      <trkpt lat="45.58538" lon="6.05699">
        <ele>1134.1205</ele>
        <time>2021-05-23T11:09:42</time>
      </trkpt>
      <trkpt lat="45.58538" lon="6.05698">
        <ele>1134.1205</ele>
        <time>2021-05-23T11:09:44</time>
      </trkpt>
      <trkpt lat="45.58538" lon="6.05696">
        <ele>1134.1205</ele>
        <time>2021-05-23T11:09:45</time>
      </trkpt>
      <trkpt lat="45.58538" lon="6.05695">
        <ele>1134.1205</ele>
        <time>2021-05-23T11:09:47</time>
      </trkpt>
      <trkpt lat="45.58538" lon="6.05694">
        <ele>1134.1205</ele>
        <time>2021-05-23T11:09:48</time>
      </trkpt>
      <trkpt lat="45.58537" lon="6.05693">
        <ele>1134.1205</ele>
        <time>2021-05-23T11:09:49</time>
      </trkpt>
      <trkpt lat="45.58537" lon="6.05692">
        <ele>1134.1205</ele>
        <time>2021-05-23T11:09:50</time>
      </trkpt>
      <trkpt lat="45.58537" lon="6.05691">
        <ele>1134.1205</ele>
        <time>2021-05-23T11:09:51</time>
      </trkpt>
      <trkpt lat="45.58536" lon="6.05687">
        <ele>1134.1205</ele>
        <time>2021-05-23T11:09:55</time>
      </trkpt>
      <trkpt lat="45.58535" lon="6.05685">
        <ele>1134.1205</ele>
        <time>2021-05-23T11:10:03</time>
      </trkpt>
      <trkpt lat="45.58535" lon="6.05685">
        <ele>1134.1205</ele>
        <time>2021-05-23T11:10:04</time>
      </trkpt>
      <trkpt lat="45.58535" lon="6.05683">
        <ele>1134.1205</ele>
        <time>2021-05-23T11:10:05</time>
      </trkpt>
      <trkpt lat="45.58534" lon="6.05683">
        <ele>1134.1205</ele>
        <time>2021-05-23T11:10:06</time>
      </trkpt>
      <trkpt lat="45.58533" lon="6.05682">
        <ele>1134.1205</ele>
        <time>2021-05-23T11:10:07</time>
      </trkpt>
      <trkpt lat="45.58533" lon="6.05682">
        <ele>1134.1205</ele>
        <time>2021-05-23T11:10:08</time>
      </trkpt>
      <trkpt lat="45.58533" lon="6.05681">
        <ele>1134.1205</ele>
        <time>2021-05-23T11:10:09</time>
      </trkpt>
      <trkpt lat="45.58531" lon="6.0568">
        <ele>1134.1205</ele>
        <time>2021-05-23T11:10:12</time>
      </trkpt>
      <trkpt lat="45.58531" lon="6.0568">
        <ele>1134.1205</ele>
        <time>2021-05-23T11:10:13</time>
      </trkpt>
      <trkpt lat="45.5853" lon="6.05679">
        <ele>1134.1205</ele>
        <time>2021-05-23T11:10:15</time>
      </trkpt>
      <trkpt lat="45.58526" lon="6.05676">
        <ele>1134.1205</ele>
        <time>2021-05-23T11:10:30</time>
      </trkpt>
      <trkpt lat="45.58526" lon="6.05676">
        <ele>1134.1205</ele>
        <time>2021-05-23T11:10:31</time>
      </trkpt>
      <trkpt lat="45.58525" lon="6.05676">
        <ele>1134.1205</ele>
        <time>2021-05-23T11:10:32</time>
      </trkpt>
      <trkpt lat="45.58525" lon="6.05676">
        <ele>1134.1205</ele>
        <time>2021-05-23T11:10:33</time>
      </trkpt>
      <trkpt lat="45.58523" lon="6.05675">
        <ele>1134.1205</ele>
        <time>2021-05-23T11:10:37</time>
      </trkpt>
      <trkpt lat="45.58522" lon="6.05675">
        <ele>1134.1205</ele>
        <time>2021-05-23T11:10:38</time>
      </trkpt>
      <trkpt lat="45.58522" lon="6.05673">
        <ele>1134.1205</ele>
        <time>2021-05-23T11:10:39</time>
      </trkpt>
      <trkpt lat="45.58517" lon="6.0567">
        <ele>1134.1205</ele>
        <time>2021-05-23T11:10:56</time>
      </trkpt>
      <trkpt lat="45.58516" lon="6.05669">
        <ele>1134.1205</ele>
        <time>2021-05-23T11:10:57</time>
      </trkpt>
      <trkpt lat="45.58515" lon="6.05668">
        <ele>1134.1205</ele>
        <time>2021-05-23T11:10:59</time>
      </trkpt>
      <trkpt lat="45.58515" lon="6.05668">
        <ele>1134.1205</ele>
        <time>2021-05-23T11:11:00</time>
      </trkpt>
      <trkpt lat="45.5851" lon="6.05665">
        <ele>1150.7205</ele>
        <time>2021-05-23T11:11:30</time>
      </trkpt>
      <trkpt lat="45.58509" lon="6.05664">
        <ele>1150.7205</ele>
        <time>2021-05-23T11:11:36</time>
      </trkpt>
      <trkpt lat="45.58505" lon="6.05662">
        <ele>1150.7205</ele>
        <time>2021-05-23T11:11:39</time>
      </trkpt>
      <trkpt lat="45.58504" lon="6.05661">
        <ele>1150.7205</ele>
        <time>2021-05-23T11:11:40</time>
      </trkpt>
      <trkpt lat="45.58502" lon="6.0566">
        <ele>1150.7205</ele>
        <time>2021-05-23T11:11:42</time>
      </trkpt>
      <trkpt lat="45.58501" lon="6.05659">
        <ele>1150.7205</ele>
        <time>2021-05-23T11:11:44</time>
      </trkpt>
      <trkpt lat="45.585" lon="6.05658">
        <ele>1150.7205</ele>
        <time>2021-05-23T11:11:45</time>
      </trkpt>
      <trkpt lat="45.58499" lon="6.05657">
        <ele>1150.7205</ele>
        <time>2021-05-23T11:11:46</time>
      </trkpt>
      <trkpt lat="45.58497" lon="6.05657">
        <ele>1150.7205</ele>
        <time>2021-05-23T11:11:47</time>
      </trkpt>
      <trkpt lat="45.58497" lon="6.05657">
        <ele>1150.7205</ele>
        <time>2021-05-23T11:11:48</time>
      </trkpt>
      <trkpt lat="45.58491" lon="6.05654">
        <ele>1148.7205</ele>
        <time>2021-05-23T11:12:18</time>
      </trkpt>
      <trkpt lat="45.58491" lon="6.05654">
        <ele>1149.3204</ele>
        <time>2021-05-23T11:12:50</time>
      </trkpt>
      <trkpt lat="45.58491" lon="6.05654">
        <ele>1149.3204</ele>
        <time>2021-05-23T11:13:12</time>
      </trkpt>
      <trkpt lat="45.58491" lon="6.05654">
        <ele>1149.3204</ele>
        <time>2021-05-23T11:13:13</time>
      </trkpt>
      <trkpt lat="45.58491" lon="6.05651">
        <ele>1153.9204</ele>
        <time>2021-05-23T11:13:31</time>
      </trkpt>
      <trkpt lat="45.58491" lon="6.05651">
        <ele>1153.9204</ele>
        <time>2021-05-23T11:13:32</time>
      </trkpt>
      <trkpt lat="45.5849" lon="6.0565">
        <ele>1153.9204</ele>
        <time>2021-05-23T11:13:33</time>
      </trkpt>
      <trkpt lat="45.5849" lon="6.0565">
        <ele>1154.9204</ele>
        <time>2021-05-23T11:13:34</time>
      </trkpt>
      <trkpt lat="45.58489" lon="6.05649">
        <ele>1154.9204</ele>
        <time>2021-05-23T11:13:35</time>
      </trkpt>
      <trkpt lat="45.58488" lon="6.05647">
        <ele>1154.9204</ele>
        <time>2021-05-23T11:13:38</time>
      </trkpt>
      <trkpt lat="45.58487" lon="6.05647">
        <ele>1154.9204</ele>
        <time>2021-05-23T11:13:40</time>
      </trkpt>
      <trkpt lat="45.58485" lon="6.05645">
        <ele>1154.9204</ele>
        <time>2021-05-23T11:13:42</time>
      </trkpt>
      <trkpt lat="45.58483" lon="6.05643">
        <ele>1156.7205</ele>
        <time>2021-05-23T11:13:56</time>
      </trkpt>
      <trkpt lat="45.58481" lon="6.05641">
        <ele>1156.7205</ele>
        <time>2021-05-23T11:13:58</time>
      </trkpt>
      <trkpt lat="45.58476" lon="6.0564">
        <ele>1156.7205</ele>
        <time>2021-05-23T11:14:01</time>
      </trkpt>
      <trkpt lat="45.58472" lon="6.05638">
        <ele>1156.7205</ele>
        <time>2021-05-23T11:14:08</time>
      </trkpt>
      <trkpt lat="45.58471" lon="6.05637">
        <ele>1156.7205</ele>
        <time>2021-05-23T11:14:09</time>
      </trkpt>
      <trkpt lat="45.5847" lon="6.05637">
        <ele>1156.7205</ele>
        <time>2021-05-23T11:14:10</time>
      </trkpt>
      <trkpt lat="45.58469" lon="6.05636">
        <ele>1156.7205</ele>
        <time>2021-05-23T11:14:11</time>
      </trkpt>
      <trkpt lat="45.58467" lon="6.05633">
        <ele>1156.7205</ele>
        <time>2021-05-23T11:14:18</time>
      </trkpt>
      <trkpt lat="45.58463" lon="6.05632">
        <ele>1156.7205</ele>
        <time>2021-05-23T11:14:21</time>
      </trkpt>
      <trkpt lat="45.58462" lon="6.05631">
        <ele>1156.7205</ele>
        <time>2021-05-23T11:14:23</time>
      </trkpt>
      <trkpt lat="45.58462" lon="6.05631">
        <ele>1166.4204</ele>
        <time>2021-05-23T11:14:24</time>
      </trkpt>
      <trkpt lat="45.58462" lon="6.05631">
        <ele>1166.4204</ele>
        <time>2021-05-23T11:14:26</time>
      </trkpt>
      <trkpt lat="45.5846" lon="6.05628">
        <ele>1166.4204</ele>
        <time>2021-05-23T11:14:29</time>
      </trkpt>
      <trkpt lat="45.58459" lon="6.05627">
        <ele>1166.4204</ele>
        <time>2021-05-23T11:14:32</time>
      </trkpt>
      <trkpt lat="45.58458" lon="6.05626">
        <ele>1166.4204</ele>
        <time>2021-05-23T11:14:33</time>
      </trkpt>
      <trkpt lat="45.58454" lon="6.05625">
        <ele>1169.4204</ele>
        <time>2021-05-23T11:14:40</time>
      </trkpt>
      <trkpt lat="45.58451" lon="6.05623">
        <ele>1169.4204</ele>
        <time>2021-05-23T11:14:43</time>
      </trkpt>
      <trkpt lat="45.5845" lon="6.05622">
        <ele>1171.8204</ele>
        <time>2021-05-23T11:14:44</time>
      </trkpt>
      <trkpt lat="45.58445" lon="6.05621">
        <ele>1171.8204</ele>
        <time>2021-05-23T11:14:48</time>
      </trkpt>
      <trkpt lat="45.58444" lon="6.0562">
        <ele>1171.8204</ele>
        <time>2021-05-23T11:14:49</time>
      </trkpt>
      <trkpt lat="45.5844" lon="6.05621">
        <ele>1171.8204</ele>
        <time>2021-05-23T11:14:53</time>
      </trkpt>
      <trkpt lat="45.58436" lon="6.05621">
        <ele>1172.1205</ele>
        <time>2021-05-23T11:14:56</time>
      </trkpt>
      <trkpt lat="45.5843" lon="6.05618">
        <ele>1172.1205</ele>
        <time>2021-05-23T11:15:02</time>
      </trkpt>
      <trkpt lat="45.58427" lon="6.05615">
        <ele>1172.1205</ele>
        <time>2021-05-23T11:15:19</time>
      </trkpt>
      <trkpt lat="45.58425" lon="6.05615">
        <ele>1172.1205</ele>
        <time>2021-05-23T11:15:21</time>
      </trkpt>
      <trkpt lat="45.58424" lon="6.05615">
        <ele>1172.1205</ele>
        <time>2021-05-23T11:15:23</time>
      </trkpt>
      <trkpt lat="45.58423" lon="6.05615">
        <ele>1174.6205</ele>
        <time>2021-05-23T11:15:24</time>
      </trkpt>
      <trkpt lat="45.58422" lon="6.05614">
        <ele>1174.6205</ele>
        <time>2021-05-23T11:15:25</time>
      </trkpt>
      <trkpt lat="45.5842" lon="6.05614">
        <ele>1174.6205</ele>
        <time>2021-05-23T11:15:26</time>
      </trkpt>
      <trkpt lat="45.58418" lon="6.05614">
        <ele>1174.6205</ele>
        <time>2021-05-23T11:15:28</time>
      </trkpt>
      <trkpt lat="45.58417" lon="6.05615">
        <ele>1174.6205</ele>
        <time>2021-05-23T11:15:29</time>
      </trkpt>
      <trkpt lat="45.58416" lon="6.05615">
        <ele>1174.6205</ele>
        <time>2021-05-23T11:15:30</time>
      </trkpt>
      <trkpt lat="45.58415" lon="6.05614">
        <ele>1174.6205</ele>
        <time>2021-05-23T11:15:32</time>
      </trkpt>
      <trkpt lat="45.58415" lon="6.05614">
        <ele>1174.6205</ele>
        <time>2021-05-23T11:15:33</time>
      </trkpt>
      <trkpt lat="45.58414" lon="6.05614">
        <ele>1175.1205</ele>
        <time>2021-05-23T11:15:34</time>
      </trkpt>
      <trkpt lat="45.58412" lon="6.05614">
        <ele>1175.1205</ele>
        <time>2021-05-23T11:15:35</time>
      </trkpt>
      <trkpt lat="45.58412" lon="6.05613">
        <ele>1175.1205</ele>
        <time>2021-05-23T11:15:36</time>
      </trkpt>
      <trkpt lat="45.58411" lon="6.05612">
        <ele>1175.1205</ele>
        <time>2021-05-23T11:15:41</time>
      </trkpt>
      <trkpt lat="45.58411" lon="6.05611">
        <ele>1175.1205</ele>
        <time>2021-05-23T11:15:42</time>
      </trkpt>
      <trkpt lat="45.58409" lon="6.0561">
        <ele>1176.6205</ele>
        <time>2021-05-23T11:15:47</time>
      </trkpt>
      <trkpt lat="45.58409" lon="6.0561">
        <ele>1176.6205</ele>
        <time>2021-05-23T11:15:48</time>
      </trkpt>
      <trkpt lat="45.58407" lon="6.05609">
        <ele>1176.6205</ele>
        <time>2021-05-23T11:15:50</time>
      </trkpt>
      <trkpt lat="45.58406" lon="6.05609">
        <ele>1176.6205</ele>
        <time>2021-05-23T11:15:51</time>
      </trkpt>
      <trkpt lat="45.58405" lon="6.05608">
        <ele>1176.6205</ele>
        <time>2021-05-23T11:15:52</time>
      </trkpt>
      <trkpt lat="45.58405" lon="6.05608">
        <ele>1176.6205</ele>
        <time>2021-05-23T11:15:53</time>
      </trkpt>
      <trkpt lat="45.58403" lon="6.05608">
        <ele>1176.9204</ele>
        <time>2021-05-23T11:15:54</time>
      </trkpt>
      <trkpt lat="45.58402" lon="6.05607">
        <ele>1176.9204</ele>
        <time>2021-05-23T11:15:55</time>
      </trkpt>
      <trkpt lat="45.58401" lon="6.05607">
        <ele>1176.9204</ele>
        <time>2021-05-23T11:15:57</time>
      </trkpt>
      <trkpt lat="45.58398" lon="6.05608">
        <ele>1176.9204</ele>
        <time>2021-05-23T11:16:01</time>
      </trkpt>
      <trkpt lat="45.58395" lon="6.05606">
        <ele>1185.0204</ele>
        <time>2021-05-23T11:16:14</time>
      </trkpt>
      <trkpt lat="45.58394" lon="6.05605">
        <ele>1185.0204</ele>
        <time>2021-05-23T11:16:16</time>
      </trkpt>
      <trkpt lat="45.58393" lon="6.05605">
        <ele>1185.0204</ele>
        <time>2021-05-23T11:16:17</time>
      </trkpt>
      <trkpt lat="45.58393" lon="6.05604">
        <ele>1185.0204</ele>
        <time>2021-05-23T11:16:19</time>
      </trkpt>
      <trkpt lat="45.58392" lon="6.05603">
        <ele>1185.0204</ele>
        <time>2021-05-23T11:16:20</time>
      </trkpt>
      <trkpt lat="45.58391" lon="6.05602">
        <ele>1185.0204</ele>
        <time>2021-05-23T11:16:30</time>
      </trkpt>
      <trkpt lat="45.5839" lon="6.05602">
        <ele>1185.0204</ele>
        <time>2021-05-23T11:16:31</time>
      </trkpt>
      <trkpt lat="45.58389" lon="6.05602">
        <ele>1185.0204</ele>
        <time>2021-05-23T11:16:32</time>
      </trkpt>
      <trkpt lat="45.58387" lon="6.05601">
        <ele>1185.0204</ele>
        <time>2021-05-23T11:16:33</time>
      </trkpt>
      <trkpt lat="45.58383" lon="6.056">
        <ele>1185.0204</ele>
        <time>2021-05-23T11:16:37</time>
      </trkpt>
      <trkpt lat="45.58382" lon="6.056">
        <ele>1185.0204</ele>
        <time>2021-05-23T11:16:38</time>
      </trkpt>
      <trkpt lat="45.58382" lon="6.056">
        <ele>1185.0204</ele>
        <time>2021-05-23T11:16:39</time>
      </trkpt>
      <trkpt lat="45.5838" lon="6.05599">
        <ele>1185.0204</ele>
        <time>2021-05-23T11:16:40</time>
      </trkpt>
      <trkpt lat="45.58379" lon="6.05597">
        <ele>1185.0204</ele>
        <time>2021-05-23T11:16:43</time>
      </trkpt>
      <trkpt lat="45.58378" lon="6.05596">
        <ele>1185.0204</ele>
        <time>2021-05-23T11:16:45</time>
      </trkpt>
      <trkpt lat="45.58378" lon="6.05595">
        <ele>1185.0204</ele>
        <time>2021-05-23T11:16:46</time>
      </trkpt>
      <trkpt lat="45.58377" lon="6.05595">
        <ele>1185.0204</ele>
        <time>2021-05-23T11:16:47</time>
      </trkpt>
      <trkpt lat="45.58377" lon="6.05595">
        <ele>1185.0204</ele>
        <time>2021-05-23T11:16:51</time>
      </trkpt>
      <trkpt lat="45.58373" lon="6.05594">
        <ele>1185.0204</ele>
        <time>2021-05-23T11:16:54</time>
      </trkpt>
      <trkpt lat="45.58369" lon="6.05593">
        <ele>1185.0204</ele>
        <time>2021-05-23T11:16:58</time>
      </trkpt>
      <trkpt lat="45.58369" lon="6.05591">
        <ele>1185.0204</ele>
        <time>2021-05-23T11:16:59</time>
      </trkpt>
      <trkpt lat="45.58368" lon="6.0559">
        <ele>1185.0204</ele>
        <time>2021-05-23T11:17:00</time>
      </trkpt>
      <trkpt lat="45.58367" lon="6.05589">
        <ele>1185.0204</ele>
        <time>2021-05-23T11:17:02</time>
      </trkpt>
      <trkpt lat="45.58366" lon="6.05589">
        <ele>1185.0204</ele>
        <time>2021-05-23T11:17:03</time>
      </trkpt>
      <trkpt lat="45.58364" lon="6.05589">
        <ele>1185.5204</ele>
        <time>2021-05-23T11:17:05</time>
      </trkpt>
      <trkpt lat="45.58363" lon="6.05588">
        <ele>1185.5204</ele>
        <time>2021-05-23T11:17:06</time>
      </trkpt>
      <trkpt lat="45.58362" lon="6.05588">
        <ele>1185.5204</ele>
        <time>2021-05-23T11:17:08</time>
      </trkpt>
      <trkpt lat="45.58362" lon="6.05588">
        <ele>1185.5204</ele>
        <time>2021-05-23T11:17:09</time>
      </trkpt>
      <trkpt lat="45.58361" lon="6.05588">
        <ele>1185.5204</ele>
        <time>2021-05-23T11:17:12</time>
      </trkpt>
      <trkpt lat="45.5836" lon="6.05588">
        <ele>1186.6205</ele>
        <time>2021-05-23T11:17:14</time>
      </trkpt>
      <trkpt lat="45.58359" lon="6.05588">
        <ele>1186.6205</ele>
        <time>2021-05-23T11:17:15</time>
      </trkpt>
      <trkpt lat="45.58359" lon="6.05587">
        <ele>1186.6205</ele>
        <time>2021-05-23T11:17:17</time>
      </trkpt>
      <trkpt lat="45.58358" lon="6.05586">
        <ele>1186.6205</ele>
        <time>2021-05-23T11:17:21</time>
      </trkpt>
      <trkpt lat="45.58357" lon="6.05586">
        <ele>1186.6205</ele>
        <time>2021-05-23T11:17:22</time>
      </trkpt>
      <trkpt lat="45.58355" lon="6.05584">
        <ele>1189.3204</ele>
        <time>2021-05-23T11:17:30</time>
      </trkpt>
      <trkpt lat="45.58353" lon="6.05584">
        <ele>1189.3204</ele>
        <time>2021-05-23T11:17:31</time>
      </trkpt>
      <trkpt lat="45.58348" lon="6.05583">
        <ele>1194.2205</ele>
        <time>2021-05-23T11:17:40</time>
      </trkpt>
      <trkpt lat="45.58348" lon="6.05583">
        <ele>1194.2205</ele>
        <time>2021-05-23T11:17:41</time>
      </trkpt>
      <trkpt lat="45.58344" lon="6.05582">
        <ele>1194.4204</ele>
        <time>2021-05-23T11:17:48</time>
      </trkpt>
      <trkpt lat="45.58343" lon="6.05583">
        <ele>1194.4204</ele>
        <time>2021-05-23T11:17:49</time>
      </trkpt>
      <trkpt lat="45.58341" lon="6.05582">
        <ele>1194.4204</ele>
        <time>2021-05-23T11:17:52</time>
      </trkpt>
      <trkpt lat="45.58339" lon="6.05582">
        <ele>1195.7205</ele>
        <time>2021-05-23T11:17:55</time>
      </trkpt>
      <trkpt lat="45.58337" lon="6.0558">
        <ele>1195.7205</ele>
        <time>2021-05-23T11:17:57</time>
      </trkpt>
      <trkpt lat="45.58336" lon="6.05579">
        <ele>1195.7205</ele>
        <time>2021-05-23T11:17:58</time>
      </trkpt>
      <trkpt lat="45.58336" lon="6.05577">
        <ele>1195.7205</ele>
        <time>2021-05-23T11:17:59</time>
      </trkpt>
      <trkpt lat="45.58333" lon="6.05575">
        <ele>1195.7205</ele>
        <time>2021-05-23T11:18:07</time>
      </trkpt>
      <trkpt lat="45.58332" lon="6.05575">
        <ele>1195.7205</ele>
        <time>2021-05-23T11:18:08</time>
      </trkpt>
      <trkpt lat="45.58331" lon="6.05573">
        <ele>1195.7205</ele>
        <time>2021-05-23T11:18:10</time>
      </trkpt>
      <trkpt lat="45.5833" lon="6.05573">
        <ele>1195.7205</ele>
        <time>2021-05-23T11:18:11</time>
      </trkpt>
      <trkpt lat="45.58327" lon="6.0557">
        <ele>1195.7205</ele>
        <time>2021-05-23T11:18:15</time>
      </trkpt>
      <trkpt lat="45.58326" lon="6.0557">
        <ele>1195.7205</ele>
        <time>2021-05-23T11:18:16</time>
      </trkpt>
      <trkpt lat="45.58325" lon="6.05571">
        <ele>1195.7205</ele>
        <time>2021-05-23T11:18:17</time>
      </trkpt>
      <trkpt lat="45.58325" lon="6.05571">
        <ele>1195.7205</ele>
        <time>2021-05-23T11:18:18</time>
      </trkpt>
      <trkpt lat="45.58323" lon="6.05571">
        <ele>1204.4204</ele>
        <time>2021-05-23T11:18:31</time>
      </trkpt>
      <trkpt lat="45.58322" lon="6.0557">
        <ele>1204.4204</ele>
        <time>2021-05-23T11:18:32</time>
      </trkpt>
      <trkpt lat="45.58319" lon="6.05569">
        <ele>1205.8204</ele>
        <time>2021-05-23T11:18:37</time>
      </trkpt>
      <trkpt lat="45.58318" lon="6.05568">
        <ele>1205.8204</ele>
        <time>2021-05-23T11:18:38</time>
      </trkpt>
      <trkpt lat="45.58315" lon="6.05566">
        <ele>1210.6205</ele>
        <time>2021-05-23T11:18:50</time>
      </trkpt>
      <trkpt lat="45.58314" lon="6.05566">
        <ele>1210.6205</ele>
        <time>2021-05-23T11:18:51</time>
      </trkpt>
      <trkpt lat="45.5831" lon="6.05566">
        <ele>1210.6205</ele>
        <time>2021-05-23T11:18:54</time>
      </trkpt>
      <trkpt lat="45.58308" lon="6.05565">
        <ele>1210.6205</ele>
        <time>2021-05-23T11:18:56</time>
      </trkpt>
      <trkpt lat="45.58307" lon="6.05564">
        <ele>1210.6205</ele>
        <time>2021-05-23T11:18:57</time>
      </trkpt>
      <trkpt lat="45.58306" lon="6.05562">
        <ele>1210.6205</ele>
        <time>2021-05-23T11:19:00</time>
      </trkpt>
      <trkpt lat="45.58306" lon="6.05561">
        <ele>1210.6205</ele>
        <time>2021-05-23T11:19:01</time>
      </trkpt>
      <trkpt lat="45.58306" lon="6.05561">
        <ele>1210.6205</ele>
        <time>2021-05-23T11:19:02</time>
      </trkpt>
      <trkpt lat="45.58306" lon="6.0556">
        <ele>1210.6205</ele>
        <time>2021-05-23T11:19:03</time>
      </trkpt>
      <trkpt lat="45.58305" lon="6.05559">
        <ele>1210.6205</ele>
        <time>2021-05-23T11:19:04</time>
      </trkpt>
      <trkpt lat="45.58304" lon="6.05559">
        <ele>1210.6205</ele>
        <time>2021-05-23T11:19:05</time>
      </trkpt>
      <trkpt lat="45.58303" lon="6.05559">
        <ele>1210.6205</ele>
        <time>2021-05-23T11:19:09</time>
      </trkpt>
      <trkpt lat="45.58303" lon="6.05559">
        <ele>1210.6205</ele>
        <time>2021-05-23T11:19:10</time>
      </trkpt>
      <trkpt lat="45.58303" lon="6.05558">
        <ele>1210.6205</ele>
        <time>2021-05-23T11:19:11</time>
      </trkpt>
      <trkpt lat="45.58303" lon="6.05556">
        <ele>1210.6205</ele>
        <time>2021-05-23T11:19:16</time>
      </trkpt>
      <trkpt lat="45.58302" lon="6.05556">
        <ele>1210.6205</ele>
        <time>2021-05-23T11:19:17</time>
      </trkpt>
      <trkpt lat="45.58302" lon="6.05555">
        <ele>1210.6205</ele>
        <time>2021-05-23T11:19:18</time>
      </trkpt>
      <trkpt lat="45.58303" lon="6.05555">
        <ele>1210.6205</ele>
        <time>2021-05-23T11:19:19</time>
      </trkpt>
      <trkpt lat="45.58303" lon="6.05554">
        <ele>1210.6205</ele>
        <time>2021-05-23T11:19:20</time>
      </trkpt>
      <trkpt lat="45.58303" lon="6.05553">
        <ele>1210.6205</ele>
        <time>2021-05-23T11:19:21</time>
      </trkpt>
      <trkpt lat="45.58302" lon="6.05551">
        <ele>1212.6205</ele>
        <time>2021-05-23T11:19:25</time>
      </trkpt>
      <trkpt lat="45.58302" lon="6.05549">
        <ele>1212.6205</ele>
        <time>2021-05-23T11:19:27</time>
      </trkpt>
      <trkpt lat="45.58302" lon="6.05548">
        <ele>1212.6205</ele>
        <time>2021-05-23T11:19:28</time>
      </trkpt>
      <trkpt lat="45.583" lon="6.05547">
        <ele>1214.2205</ele>
        <time>2021-05-23T11:19:38</time>
      </trkpt>
      <trkpt lat="45.583" lon="6.05545">
        <ele>1214.2205</ele>
        <time>2021-05-23T11:19:39</time>
      </trkpt>
      <trkpt lat="45.58296" lon="6.05537">
        <ele>1214.2205</ele>
        <time>2021-05-23T11:20:00</time>
      </trkpt>
      <trkpt lat="45.58295" lon="6.05536">
        <ele>1214.2205</ele>
        <time>2021-05-23T11:20:01</time>
      </trkpt>
      <trkpt lat="45.58293" lon="6.05535">
        <ele>1214.7205</ele>
        <time>2021-05-23T11:20:12</time>
      </trkpt>
      <trkpt lat="45.58293" lon="6.05536">
        <ele>1214.7205</ele>
        <time>2021-05-23T11:20:13</time>
      </trkpt>
      <trkpt lat="45.58293" lon="6.05536">
        <ele>1215.8204</ele>
        <time>2021-05-23T11:20:14</time>
      </trkpt>
      <trkpt lat="45.58293" lon="6.05536">
        <ele>1215.8204</ele>
        <time>2021-05-23T11:20:15</time>
      </trkpt>
      <trkpt lat="45.58293" lon="6.05532">
        <ele>1215.8204</ele>
        <time>2021-05-23T11:20:33</time>
      </trkpt>
      <trkpt lat="45.58293" lon="6.05531">
        <ele>1215.8204</ele>
        <time>2021-05-23T11:20:34</time>
      </trkpt>
      <trkpt lat="45.58295" lon="6.05521">
        <ele>1215.8204</ele>
        <time>2021-05-23T11:20:52</time>
      </trkpt>
      <trkpt lat="45.58295" lon="6.0552">
        <ele>1215.8204</ele>
        <time>2021-05-23T11:20:53</time>
      </trkpt>
      <trkpt lat="45.58294" lon="6.05517">
        <ele>1211.9204</ele>
        <time>2021-05-23T11:20:55</time>
      </trkpt>
      <trkpt lat="45.58294" lon="6.05517">
        <ele>1211.9204</ele>
        <time>2021-05-23T11:20:56</time>
      </trkpt>
      <trkpt lat="45.58294" lon="6.05516">
        <ele>1211.9204</ele>
        <time>2021-05-23T11:20:57</time>
      </trkpt>
      <trkpt lat="45.58295" lon="6.05514">
        <ele>1211.9204</ele>
        <time>2021-05-23T11:21:01</time>
      </trkpt>
      <trkpt lat="45.58296" lon="6.05513">
        <ele>1211.9204</ele>
        <time>2021-05-23T11:21:02</time>
      </trkpt>
      <trkpt lat="45.58297" lon="6.0551">
        <ele>1218.6205</ele>
        <time>2021-05-23T11:21:06</time>
      </trkpt>
      <trkpt lat="45.58297" lon="6.05509">
        <ele>1218.6205</ele>
        <time>2021-05-23T11:21:07</time>
      </trkpt>
      <trkpt lat="45.58298" lon="6.05507">
        <ele>1218.6205</ele>
        <time>2021-05-23T11:21:16</time>
      </trkpt>
      <trkpt lat="45.58299" lon="6.05506">
        <ele>1218.6205</ele>
        <time>2021-05-23T11:21:18</time>
      </trkpt>
      <trkpt lat="45.583" lon="6.05504">
        <ele>1218.6205</ele>
        <time>2021-05-23T11:21:20</time>
      </trkpt>
      <trkpt lat="45.583" lon="6.05502">
        <ele>1218.6205</ele>
        <time>2021-05-23T11:21:21</time>
      </trkpt>
      <trkpt lat="45.58302" lon="6.05495">
        <ele>1218.6205</ele>
        <time>2021-05-23T11:21:30</time>
      </trkpt>
      <trkpt lat="45.58302" lon="6.05494">
        <ele>1218.6205</ele>
        <time>2021-05-23T11:21:31</time>
      </trkpt>
      <trkpt lat="45.58302" lon="6.05492">
        <ele>1218.6205</ele>
        <time>2021-05-23T11:21:33</time>
      </trkpt>
      <trkpt lat="45.58302" lon="6.05492">
        <ele>1218.6205</ele>
        <time>2021-05-23T11:21:34</time>
      </trkpt>
      <trkpt lat="45.58305" lon="6.05488">
        <ele>1218.6205</ele>
        <time>2021-05-23T11:21:44</time>
      </trkpt>
      <trkpt lat="45.58306" lon="6.05486">
        <ele>1218.6205</ele>
        <time>2021-05-23T11:21:46</time>
      </trkpt>
      <trkpt lat="45.58309" lon="6.05485">
        <ele>1218.6205</ele>
        <time>2021-05-23T11:21:53</time>
      </trkpt>
      <trkpt lat="45.5831" lon="6.05484">
        <ele>1229.9204</ele>
        <time>2021-05-23T11:21:55</time>
      </trkpt>
      <trkpt lat="45.58311" lon="6.05484">
        <ele>1229.9204</ele>
        <time>2021-05-23T11:21:56</time>
      </trkpt>
      <trkpt lat="45.58311" lon="6.05483">
        <ele>1229.9204</ele>
        <time>2021-05-23T11:21:57</time>
      </trkpt>
      <trkpt lat="45.58312" lon="6.05483">
        <ele>1229.9204</ele>
        <time>2021-05-23T11:21:58</time>
      </trkpt>
      <trkpt lat="45.58313" lon="6.05481">
        <ele>1229.9204</ele>
        <time>2021-05-23T11:21:59</time>
      </trkpt>
      <trkpt lat="45.58315" lon="6.05478">
        <ele>1229.9204</ele>
        <time>2021-05-23T11:22:10</time>
      </trkpt>
      <trkpt lat="45.58316" lon="6.05478">
        <ele>1229.9204</ele>
        <time>2021-05-23T11:22:11</time>
      </trkpt>
      <trkpt lat="45.58317" lon="6.05478">
        <ele>1229.9204</ele>
        <time>2021-05-23T11:22:12</time>
      </trkpt>
      <trkpt lat="45.58318" lon="6.05477">
        <ele>1229.9204</ele>
        <time>2021-05-23T11:22:13</time>
      </trkpt>
      <trkpt lat="45.58318" lon="6.05477">
        <ele>1229.9204</ele>
        <time>2021-05-23T11:22:14</time>
      </trkpt>
      <trkpt lat="45.58319" lon="6.05476">
        <ele>1229.9204</ele>
        <time>2021-05-23T11:22:15</time>
      </trkpt>
      <trkpt lat="45.58323" lon="6.0547">
        <ele>1229.9204</ele>
        <time>2021-05-23T11:22:19</time>
      </trkpt>
      <trkpt lat="45.58324" lon="6.05469">
        <ele>1229.9204</ele>
        <time>2021-05-23T11:22:20</time>
      </trkpt>
      <trkpt lat="45.58325" lon="6.05466">
        <ele>1229.9204</ele>
        <time>2021-05-23T11:22:21</time>
      </trkpt>
      <trkpt lat="45.58325" lon="6.05464">
        <ele>1229.9204</ele>
        <time>2021-05-23T11:22:23</time>
      </trkpt>
      <trkpt lat="45.58326" lon="6.05464">
        <ele>1229.9204</ele>
        <time>2021-05-23T11:22:24</time>
      </trkpt>
      <trkpt lat="45.58326" lon="6.05463">
        <ele>1229.9204</ele>
        <time>2021-05-23T11:22:25</time>
      </trkpt>
      <trkpt lat="45.58325" lon="6.05463">
        <ele>1229.9204</ele>
        <time>2021-05-23T11:22:26</time>
      </trkpt>
      <trkpt lat="45.58325" lon="6.05462">
        <ele>1229.9204</ele>
        <time>2021-05-23T11:22:27</time>
      </trkpt>
      <trkpt lat="45.58325" lon="6.05461">
        <ele>1229.9204</ele>
        <time>2021-05-23T11:22:28</time>
      </trkpt>
      <trkpt lat="45.58324" lon="6.0546">
        <ele>1229.9204</ele>
        <time>2021-05-23T11:22:29</time>
      </trkpt>
      <trkpt lat="45.58326" lon="6.05458">
        <ele>1229.9204</ele>
        <time>2021-05-23T11:22:38</time>
      </trkpt>
      <trkpt lat="45.58325" lon="6.05457">
        <ele>1229.9204</ele>
        <time>2021-05-23T11:22:39</time>
      </trkpt>
      <trkpt lat="45.58328" lon="6.05456">
        <ele>1233.8204</ele>
        <time>2021-05-23T11:22:46</time>
      </trkpt>
      <trkpt lat="45.58329" lon="6.05455">
        <ele>1233.8204</ele>
        <time>2021-05-23T11:22:47</time>
      </trkpt>
      <trkpt lat="45.5833" lon="6.05455">
        <ele>1233.8204</ele>
        <time>2021-05-23T11:22:48</time>
      </trkpt>
      <trkpt lat="45.5833" lon="6.05454">
        <ele>1233.8204</ele>
        <time>2021-05-23T11:22:49</time>
      </trkpt>
      <trkpt lat="45.58333" lon="6.05453">
        <ele>1237.9204</ele>
        <time>2021-05-23T11:22:58</time>
      </trkpt>
      <trkpt lat="45.58333" lon="6.05453">
        <ele>1237.9204</ele>
        <time>2021-05-23T11:22:59</time>
      </trkpt>
      <trkpt lat="45.58345" lon="6.05443">
        <ele>1242.0872</ele>
        <time>2021-05-23T11:23:23</time>
      </trkpt>
      <trkpt lat="45.58345" lon="6.05442">
        <ele>1245.9204</ele>
        <time>2021-05-23T11:23:24</time>
      </trkpt>
      <trkpt lat="45.58346" lon="6.05441">
        <ele>1245.9204</ele>
        <time>2021-05-23T11:23:33</time>
      </trkpt>
      <trkpt lat="45.58346" lon="6.0544">
        <ele>1245.6205</ele>
        <time>2021-05-23T11:23:34</time>
      </trkpt>
      <trkpt lat="45.58347" lon="6.0544">
        <ele>1245.6205</ele>
        <time>2021-05-23T11:23:38</time>
      </trkpt>
      <trkpt lat="45.58347" lon="6.05439">
        <ele>1245.6205</ele>
        <time>2021-05-23T11:23:39</time>
      </trkpt>
      <trkpt lat="45.58348" lon="6.05438">
        <ele>1245.6205</ele>
        <time>2021-05-23T11:23:41</time>
      </trkpt>
      <trkpt lat="45.58348" lon="6.05437">
        <ele>1245.6205</ele>
        <time>2021-05-23T11:23:42</time>
      </trkpt>
      <trkpt lat="45.58349" lon="6.05437">
        <ele>1245.6205</ele>
        <time>2021-05-23T11:23:43</time>
      </trkpt>
      <trkpt lat="45.58348" lon="6.05436">
        <ele>1248.3204</ele>
        <time>2021-05-23T11:23:44</time>
      </trkpt>
      <trkpt lat="45.58349" lon="6.05435">
        <ele>1248.3204</ele>
        <time>2021-05-23T11:23:45</time>
      </trkpt>
      <trkpt lat="45.58349" lon="6.05435">
        <ele>1248.3204</ele>
        <time>2021-05-23T11:23:46</time>
      </trkpt>
      <trkpt lat="45.5835" lon="6.05433">
        <ele>1248.3204</ele>
        <time>2021-05-23T11:23:51</time>
      </trkpt>
      <trkpt lat="45.58351" lon="6.0543">
        <ele>1248.3204</ele>
        <time>2021-05-23T11:23:53</time>
      </trkpt>
      <trkpt lat="45.58352" lon="6.0543">
        <ele>1248.9204</ele>
        <time>2021-05-23T11:23:54</time>
      </trkpt>
      <trkpt lat="45.58352" lon="6.05427">
        <ele>1248.9204</ele>
        <time>2021-05-23T11:23:57</time>
      </trkpt>
      <trkpt lat="45.58352" lon="6.05426">
        <ele>1248.9204</ele>
        <time>2021-05-23T11:23:58</time>
      </trkpt>
      <trkpt lat="45.58353" lon="6.05424">
        <ele>1248.9204</ele>
        <time>2021-05-23T11:24:00</time>
      </trkpt>
      <trkpt lat="45.58354" lon="6.05423">
        <ele>1248.9204</ele>
        <time>2021-05-23T11:24:03</time>
      </trkpt>
      <trkpt lat="45.58356" lon="6.05421">
        <ele>1246.9204</ele>
        <time>2021-05-23T11:24:06</time>
      </trkpt>
      <trkpt lat="45.58358" lon="6.0542">
        <ele>1248.2205</ele>
        <time>2021-05-23T11:24:16</time>
      </trkpt>
      <trkpt lat="45.58361" lon="6.05419">
        <ele>1248.2205</ele>
        <time>2021-05-23T11:24:19</time>
      </trkpt>
      <trkpt lat="45.58362" lon="6.05419">
        <ele>1248.2205</ele>
        <time>2021-05-23T11:24:20</time>
      </trkpt>
      <trkpt lat="45.58362" lon="6.05419">
        <ele>1248.2205</ele>
        <time>2021-05-23T11:24:21</time>
      </trkpt>
      <trkpt lat="45.58363" lon="6.05419">
        <ele>1248.2205</ele>
        <time>2021-05-23T11:24:23</time>
      </trkpt>
      <trkpt lat="45.58365" lon="6.05418">
        <ele>1248.4204</ele>
        <time>2021-05-23T11:24:25</time>
      </trkpt>
      <trkpt lat="45.58371" lon="6.05414">
        <ele>1248.4204</ele>
        <time>2021-05-23T11:24:30</time>
      </trkpt>
      <trkpt lat="45.58375" lon="6.05411">
        <ele>1250.6205</ele>
        <time>2021-05-23T11:24:34</time>
      </trkpt>
      <trkpt lat="45.58376" lon="6.0541">
        <ele>1250.6205</ele>
        <time>2021-05-23T11:24:37</time>
      </trkpt>
      <trkpt lat="45.58377" lon="6.0541">
        <ele>1250.6205</ele>
        <time>2021-05-23T11:24:39</time>
      </trkpt>
      <trkpt lat="45.58378" lon="6.0541">
        <ele>1250.6205</ele>
        <time>2021-05-23T11:24:40</time>
      </trkpt>
      <trkpt lat="45.58378" lon="6.0541">
        <ele>1250.6205</ele>
        <time>2021-05-23T11:24:41</time>
      </trkpt>
      <trkpt lat="45.58379" lon="6.05409">
        <ele>1250.6205</ele>
        <time>2021-05-23T11:24:42</time>
      </trkpt>
      <trkpt lat="45.5838" lon="6.05409">
        <ele>1250.6205</ele>
        <time>2021-05-23T11:24:43</time>
      </trkpt>
      <trkpt lat="45.58381" lon="6.05407">
        <ele>1251.7205</ele>
        <time>2021-05-23T11:24:45</time>
      </trkpt>
      <trkpt lat="45.58381" lon="6.05406">
        <ele>1251.7205</ele>
        <time>2021-05-23T11:24:47</time>
      </trkpt>
      <trkpt lat="45.58383" lon="6.05405">
        <ele>1251.7205</ele>
        <time>2021-05-23T11:24:49</time>
      </trkpt>
      <trkpt lat="45.58383" lon="6.05404">
        <ele>1251.7205</ele>
        <time>2021-05-23T11:24:50</time>
      </trkpt>
      <trkpt lat="45.58384" lon="6.05404">
        <ele>1251.7205</ele>
        <time>2021-05-23T11:24:52</time>
      </trkpt>
      <trkpt lat="45.58388" lon="6.05398">
        <ele>1251.7205</ele>
        <time>2021-05-23T11:25:00</time>
      </trkpt>
      <trkpt lat="45.58389" lon="6.05396">
        <ele>1251.7205</ele>
        <time>2021-05-23T11:25:02</time>
      </trkpt>
      <trkpt lat="45.5839" lon="6.05395">
        <ele>1251.7205</ele>
        <time>2021-05-23T11:25:03</time>
      </trkpt>
      <trkpt lat="45.58392" lon="6.05391">
        <ele>1251.7205</ele>
        <time>2021-05-23T11:25:07</time>
      </trkpt>
      <trkpt lat="45.58393" lon="6.05391">
        <ele>1251.7205</ele>
        <time>2021-05-23T11:25:08</time>
      </trkpt>
      <trkpt lat="45.58396" lon="6.05389">
        <ele>1251.7205</ele>
        <time>2021-05-23T11:25:38</time>
      </trkpt>
      <trkpt lat="45.58397" lon="6.05388">
        <ele>1251.7205</ele>
        <time>2021-05-23T11:25:39</time>
      </trkpt>
      <trkpt lat="45.584" lon="6.05384">
        <ele>1251.7205</ele>
        <time>2021-05-23T11:25:55</time>
      </trkpt>
      <trkpt lat="45.58401" lon="6.05383">
        <ele>1251.7205</ele>
        <time>2021-05-23T11:25:56</time>
      </trkpt>
      <trkpt lat="45.58402" lon="6.05383">
        <ele>1251.7205</ele>
        <time>2021-05-23T11:25:57</time>
      </trkpt>
      <trkpt lat="45.58403" lon="6.05382">
        <ele>1251.7205</ele>
        <time>2021-05-23T11:25:58</time>
      </trkpt>
      <trkpt lat="45.58404" lon="6.05382">
        <ele>1251.7205</ele>
        <time>2021-05-23T11:25:59</time>
      </trkpt>
      <trkpt lat="45.58404" lon="6.05382">
        <ele>1251.7205</ele>
        <time>2021-05-23T11:26:01</time>
      </trkpt>
      <trkpt lat="45.58404" lon="6.05382">
        <ele>1251.7205</ele>
        <time>2021-05-23T11:26:02</time>
      </trkpt>
      <trkpt lat="45.58404" lon="6.05382">
        <ele>1251.7205</ele>
        <time>2021-05-23T11:26:03</time>
      </trkpt>
      <trkpt lat="45.58409" lon="6.05377">
        <ele>1251.7205</ele>
        <time>2021-05-23T11:26:15</time>
      </trkpt>
      <trkpt lat="45.5841" lon="6.05377">
        <ele>1251.7205</ele>
        <time>2021-05-23T11:26:16</time>
      </trkpt>
      <trkpt lat="45.58411" lon="6.05377">
        <ele>1251.7205</ele>
        <time>2021-05-23T11:26:18</time>
      </trkpt>
      <trkpt lat="45.5841" lon="6.05377">
        <ele>1251.7205</ele>
        <time>2021-05-23T11:26:19</time>
      </trkpt>
      <trkpt lat="45.58411" lon="6.05377">
        <ele>1251.7205</ele>
        <time>2021-05-23T11:26:26</time>
      </trkpt>
      <trkpt lat="45.58413" lon="6.05378">
        <ele>1251.7205</ele>
        <time>2021-05-23T11:26:28</time>
      </trkpt>
      <trkpt lat="45.58414" lon="6.05377">
        <ele>1251.7205</ele>
        <time>2021-05-23T11:26:29</time>
      </trkpt>
      <trkpt lat="45.58416" lon="6.05376">
        <ele>1251.7205</ele>
        <time>2021-05-23T11:26:32</time>
      </trkpt>
      <trkpt lat="45.58417" lon="6.05375">
        <ele>1251.7205</ele>
        <time>2021-05-23T11:26:33</time>
      </trkpt>
      <trkpt lat="45.58418" lon="6.05375">
        <ele>1251.7205</ele>
        <time>2021-05-23T11:26:34</time>
      </trkpt>
      <trkpt lat="45.58419" lon="6.05375">
        <ele>1251.7205</ele>
        <time>2021-05-23T11:26:35</time>
      </trkpt>
      <trkpt lat="45.5842" lon="6.05374">
        <ele>1251.7205</ele>
        <time>2021-05-23T11:26:37</time>
      </trkpt>
      <trkpt lat="45.58421" lon="6.05372">
        <ele>1251.7205</ele>
        <time>2021-05-23T11:26:38</time>
      </trkpt>
      <trkpt lat="45.58425" lon="6.05371">
        <ele>1251.7205</ele>
        <time>2021-05-23T11:26:49</time>
      </trkpt>
      <trkpt lat="45.58426" lon="6.0537">
        <ele>1251.7205</ele>
        <time>2021-05-23T11:26:50</time>
      </trkpt>
      <trkpt lat="45.58428" lon="6.05367">
        <ele>1251.7205</ele>
        <time>2021-05-23T11:27:20</time>
      </trkpt>
      <trkpt lat="45.58429" lon="6.05367">
        <ele>1251.7205</ele>
        <time>2021-05-23T11:27:50</time>
      </trkpt>
      <trkpt lat="45.58432" lon="6.05365">
        <ele>1251.7205</ele>
        <time>2021-05-23T11:28:06</time>
      </trkpt>
      <trkpt lat="45.58433" lon="6.05363">
        <ele>1251.7205</ele>
        <time>2021-05-23T11:28:07</time>
      </trkpt>
      <trkpt lat="45.58436" lon="6.05361">
        <ele>1271.8204</ele>
        <time>2021-05-23T11:28:25</time>
      </trkpt>
      <trkpt lat="45.58436" lon="6.05361">
        <ele>1271.8204</ele>
        <time>2021-05-23T11:28:26</time>
      </trkpt>
      <trkpt lat="45.58436" lon="6.05356">
        <ele>1272.4204</ele>
        <time>2021-05-23T11:28:40</time>
      </trkpt>
      <trkpt lat="45.58436" lon="6.05355">
        <ele>1272.4204</ele>
        <time>2021-05-23T11:28:41</time>
      </trkpt>
      <trkpt lat="45.58436" lon="6.05354">
        <ele>1272.4204</ele>
        <time>2021-05-23T11:28:43</time>
      </trkpt>
      <trkpt lat="45.58436" lon="6.05352">
        <ele>1272.4204</ele>
        <time>2021-05-23T11:28:44</time>
      </trkpt>
      <trkpt lat="45.58436" lon="6.05351">
        <ele>1272.4204</ele>
        <time>2021-05-23T11:28:45</time>
      </trkpt>
      <trkpt lat="45.58436" lon="6.05349">
        <ele>1271.3538</ele>
        <time>2021-05-23T11:28:47</time>
      </trkpt>
      <trkpt lat="45.58436" lon="6.05347">
        <ele>1271.3538</ele>
        <time>2021-05-23T11:28:49</time>
      </trkpt>
      <trkpt lat="45.58436" lon="6.05347">
        <ele>1271.3538</ele>
        <time>2021-05-23T11:28:50</time>
      </trkpt>
      <trkpt lat="45.58436" lon="6.05346">
        <ele>1271.3538</ele>
        <time>2021-05-23T11:29:31</time>
      </trkpt>
      <trkpt lat="45.58436" lon="6.05345">
        <ele>1276.2205</ele>
        <time>2021-05-23T11:29:40</time>
      </trkpt>
      <trkpt lat="45.58435" lon="6.05344">
        <ele>1276.2205</ele>
        <time>2021-05-23T11:29:41</time>
      </trkpt>
      <trkpt lat="45.58435" lon="6.05342">
        <ele>1276.4204</ele>
        <time>2021-05-23T11:29:47</time>
      </trkpt>
      <trkpt lat="45.58434" lon="6.05342">
        <ele>1276.4204</ele>
        <time>2021-05-23T11:29:48</time>
      </trkpt>
      <trkpt lat="45.58436" lon="6.0534">
        <ele>1277.4204</ele>
        <time>2021-05-23T11:29:57</time>
      </trkpt>
      <trkpt lat="45.58437" lon="6.05339">
        <ele>1277.4204</ele>
        <time>2021-05-23T11:29:58</time>
      </trkpt>
      <trkpt lat="45.5844" lon="6.05335">
        <ele>1277.4204</ele>
        <time>2021-05-23T11:30:19</time>
      </trkpt>
      <trkpt lat="45.58441" lon="6.05335">
        <ele>1277.4204</ele>
        <time>2021-05-23T11:30:20</time>
      </trkpt>
      <trkpt lat="45.58442" lon="6.05335">
        <ele>1277.4204</ele>
        <time>2021-05-23T11:30:21</time>
      </trkpt>
      <trkpt lat="45.58444" lon="6.05333">
        <ele>1277.4204</ele>
        <time>2021-05-23T11:30:25</time>
      </trkpt>
      <trkpt lat="45.58445" lon="6.05333">
        <ele>1277.4204</ele>
        <time>2021-05-23T11:30:26</time>
      </trkpt>
      <trkpt lat="45.58448" lon="6.0533">
        <ele>1278.3204</ele>
        <time>2021-05-23T11:30:34</time>
      </trkpt>
      <trkpt lat="45.58449" lon="6.0533">
        <ele>1278.3204</ele>
        <time>2021-05-23T11:30:35</time>
      </trkpt>
      <trkpt lat="45.58451" lon="6.05329">
        <ele>1278.3204</ele>
        <time>2021-05-23T11:30:36</time>
      </trkpt>
      <trkpt lat="45.58452" lon="6.05329">
        <ele>1278.3204</ele>
        <time>2021-05-23T11:30:37</time>
      </trkpt>
      <trkpt lat="45.58455" lon="6.05331">
        <ele>1278.3204</ele>
        <time>2021-05-23T11:30:41</time>
      </trkpt>
      <trkpt lat="45.58455" lon="6.05331">
        <ele>1278.3204</ele>
        <time>2021-05-23T11:30:42</time>
      </trkpt>
      <trkpt lat="45.58456" lon="6.05332">
        <ele>1278.3204</ele>
        <time>2021-05-23T11:30:43</time>
      </trkpt>
      <trkpt lat="45.58457" lon="6.05333">
        <ele>1278.3204</ele>
        <time>2021-05-23T11:30:45</time>
      </trkpt>
      <trkpt lat="45.58458" lon="6.05333">
        <ele>1278.3204</ele>
        <time>2021-05-23T11:30:46</time>
      </trkpt>
      <trkpt lat="45.58459" lon="6.05333">
        <ele>1278.3204</ele>
        <time>2021-05-23T11:30:47</time>
      </trkpt>
      <trkpt lat="45.58461" lon="6.05333">
        <ele>1278.3204</ele>
        <time>2021-05-23T11:30:48</time>
      </trkpt>
      <trkpt lat="45.58462" lon="6.05333">
        <ele>1278.3204</ele>
        <time>2021-05-23T11:30:49</time>
      </trkpt>
      <trkpt lat="45.58463" lon="6.05333">
        <ele>1278.3204</ele>
        <time>2021-05-23T11:30:50</time>
      </trkpt>
      <trkpt lat="45.58466" lon="6.05332">
        <ele>1278.3204</ele>
        <time>2021-05-23T11:30:53</time>
      </trkpt>
      <trkpt lat="45.58466" lon="6.0533">
        <ele>1278.3204</ele>
        <time>2021-05-23T11:30:55</time>
      </trkpt>
      <trkpt lat="45.58467" lon="6.0533">
        <ele>1278.3204</ele>
        <time>2021-05-23T11:30:56</time>
      </trkpt>
      <trkpt lat="45.58468" lon="6.0533">
        <ele>1278.3204</ele>
        <time>2021-05-23T11:30:57</time>
      </trkpt>
      <trkpt lat="45.58467" lon="6.0533">
        <ele>1276.8204</ele>
        <time>2021-05-23T11:31:30</time>
      </trkpt>
      <trkpt lat="45.58468" lon="6.05329">
        <ele>1283.4204</ele>
        <time>2021-05-23T11:31:46</time>
      </trkpt>
      <trkpt lat="45.5847" lon="6.05329">
        <ele>1283.4204</ele>
        <time>2021-05-23T11:31:47</time>
      </trkpt>
      <trkpt lat="45.58471" lon="6.05329">
        <ele>1283.4204</ele>
        <time>2021-05-23T11:31:48</time>
      </trkpt>
      <trkpt lat="45.58474" lon="6.05328">
        <ele>1283.4204</ele>
        <time>2021-05-23T11:31:51</time>
      </trkpt>
      <trkpt lat="45.58476" lon="6.05328">
        <ele>1283.4204</ele>
        <time>2021-05-23T11:31:54</time>
      </trkpt>
      <trkpt lat="45.5848" lon="6.05328">
        <ele>1283.4204</ele>
        <time>2021-05-23T11:31:58</time>
      </trkpt>
      <trkpt lat="45.58481" lon="6.05328">
        <ele>1283.4204</ele>
        <time>2021-05-23T11:32:01</time>
      </trkpt>
      <trkpt lat="45.58482" lon="6.05328">
        <ele>1283.4204</ele>
        <time>2021-05-23T11:32:02</time>
      </trkpt>
      <trkpt lat="45.58483" lon="6.05327">
        <ele>1283.4204</ele>
        <time>2021-05-23T11:32:21</time>
      </trkpt>
      <trkpt lat="45.58483" lon="6.05326">
        <ele>1283.4204</ele>
        <time>2021-05-23T11:32:22</time>
      </trkpt>
      <trkpt lat="45.58488" lon="6.0532">
        <ele>1283.4204</ele>
        <time>2021-05-23T11:32:26</time>
      </trkpt>
      <trkpt lat="45.58495" lon="6.05318">
        <ele>1246.0872</ele>
        <time>2021-05-23T11:32:30</time>
      </trkpt>
      <trkpt lat="45.58496" lon="6.05317">
        <ele>1246.0872</ele>
        <time>2021-05-23T11:32:31</time>
      </trkpt>
      <trkpt lat="45.58499" lon="6.05317">
        <ele>1246.0872</ele>
        <time>2021-05-23T11:32:35</time>
      </trkpt>
      <trkpt lat="45.585" lon="6.05316">
        <ele>1246.0872</ele>
        <time>2021-05-23T11:32:41</time>
      </trkpt>
      <trkpt lat="45.58502" lon="6.05315">
        <ele>1246.0872</ele>
        <time>2021-05-23T11:32:43</time>
      </trkpt>
      <trkpt lat="45.58506" lon="6.05312">
        <ele>1246.0872</ele>
        <time>2021-05-23T11:33:05</time>
      </trkpt>
      <trkpt lat="45.58507" lon="6.0531">
        <ele>1246.0872</ele>
        <time>2021-05-23T11:33:07</time>
      </trkpt>
      <trkpt lat="45.58511" lon="6.05307">
        <ele>1286.5204</ele>
        <time>2021-05-23T11:33:16</time>
      </trkpt>
      <trkpt lat="45.58511" lon="6.05306">
        <ele>1286.5204</ele>
        <time>2021-05-23T11:33:17</time>
      </trkpt>
      <trkpt lat="45.58512" lon="6.05305">
        <ele>1051.2205</ele>
        <time>2021-05-23T11:33:18</time>
      </trkpt>
      <trkpt lat="45.58513" lon="6.05305">
        <ele>1051.2205</ele>
        <time>2021-05-23T11:33:19</time>
      </trkpt>
      <trkpt lat="45.58513" lon="6.05304">
        <ele>1051.2205</ele>
        <time>2021-05-23T11:33:20</time>
      </trkpt>
      <trkpt lat="45.58515" lon="6.05304">
        <ele>1051.2205</ele>
        <time>2021-05-23T11:33:21</time>
      </trkpt>
      <trkpt lat="45.58519" lon="6.05301">
        <ele>1051.2205</ele>
        <time>2021-05-23T11:33:31</time>
      </trkpt>
      <trkpt lat="45.58519" lon="6.053">
        <ele>1051.2205</ele>
        <time>2021-05-23T11:33:32</time>
      </trkpt>
      <trkpt lat="45.5852" lon="6.05299">
        <ele>1051.2205</ele>
        <time>2021-05-23T11:33:33</time>
      </trkpt>
      <trkpt lat="45.5852" lon="6.05297">
        <ele>1051.2205</ele>
        <time>2021-05-23T11:33:35</time>
      </trkpt>
      <trkpt lat="45.5852" lon="6.05296">
        <ele>1051.2205</ele>
        <time>2021-05-23T11:33:36</time>
      </trkpt>
      <trkpt lat="45.58521" lon="6.05295">
        <ele>1051.2205</ele>
        <time>2021-05-23T11:33:37</time>
      </trkpt>
      <trkpt lat="45.58523" lon="6.05294">
        <ele>1051.2205</ele>
        <time>2021-05-23T11:33:43</time>
      </trkpt>
      <trkpt lat="45.58523" lon="6.05293">
        <ele>1051.2205</ele>
        <time>2021-05-23T11:33:44</time>
      </trkpt>
      <trkpt lat="45.58523" lon="6.05293">
        <ele>1051.2205</ele>
        <time>2021-05-23T11:33:45</time>
      </trkpt>
      <trkpt lat="45.58523" lon="6.05293">
        <ele>1051.2205</ele>
        <time>2021-05-23T11:33:46</time>
      </trkpt>
      <trkpt lat="45.58524" lon="6.05293">
        <ele>1051.2205</ele>
        <time>2021-05-23T11:33:47</time>
      </trkpt>
      <trkpt lat="45.58524" lon="6.05292">
        <ele>1297.3204</ele>
        <time>2021-05-23T11:33:48</time>
      </trkpt>
      <trkpt lat="45.58525" lon="6.05289">
        <ele>1297.3204</ele>
        <time>2021-05-23T11:33:54</time>
      </trkpt>
      <trkpt lat="45.58525" lon="6.05288">
        <ele>1297.3204</ele>
        <time>2021-05-23T11:33:55</time>
      </trkpt>
      <trkpt lat="45.58527" lon="6.05287">
        <ele>1297.3204</ele>
        <time>2021-05-23T11:34:00</time>
      </trkpt>
      <trkpt lat="45.58527" lon="6.05288">
        <ele>1297.3204</ele>
        <time>2021-05-23T11:34:01</time>
      </trkpt>
      <trkpt lat="45.58528" lon="6.05288">
        <ele>1297.3204</ele>
        <time>2021-05-23T11:34:02</time>
      </trkpt>
      <trkpt lat="45.58529" lon="6.05287">
        <ele>1297.3204</ele>
        <time>2021-05-23T11:34:03</time>
      </trkpt>
      <trkpt lat="45.58529" lon="6.05287">
        <ele>1297.3204</ele>
        <time>2021-05-23T11:34:04</time>
      </trkpt>
      <trkpt lat="45.5853" lon="6.05286">
        <ele>1297.3204</ele>
        <time>2021-05-23T11:34:05</time>
      </trkpt>
      <trkpt lat="45.58531" lon="6.05286">
        <ele>1297.3204</ele>
        <time>2021-05-23T11:34:07</time>
      </trkpt>
      <trkpt lat="45.58536" lon="6.05283">
        <ele>1297.3204</ele>
        <time>2021-05-23T11:34:26</time>
      </trkpt>
      <trkpt lat="45.58538" lon="6.05282">
        <ele>1302.7205</ele>
        <time>2021-05-23T11:34:29</time>
      </trkpt>
      <trkpt lat="45.58538" lon="6.05281">
        <ele>1302.7205</ele>
        <time>2021-05-23T11:34:31</time>
      </trkpt>
      <trkpt lat="45.58539" lon="6.05281">
        <ele>1302.7205</ele>
        <time>2021-05-23T11:34:32</time>
      </trkpt>
      <trkpt lat="45.58541" lon="6.0528">
        <ele>1303.4204</ele>
        <time>2021-05-23T11:34:40</time>
      </trkpt>
      <trkpt lat="45.58542" lon="6.0528">
        <ele>1303.4204</ele>
        <time>2021-05-23T11:34:41</time>
      </trkpt>
      <trkpt lat="45.58543" lon="6.0528">
        <ele>1303.4204</ele>
        <time>2021-05-23T11:34:44</time>
      </trkpt>
      <trkpt lat="45.58545" lon="6.05279">
        <ele>1303.4204</ele>
        <time>2021-05-23T11:34:46</time>
      </trkpt>
      <trkpt lat="45.58545" lon="6.05279">
        <ele>1303.4204</ele>
        <time>2021-05-23T11:34:47</time>
      </trkpt>
      <trkpt lat="45.58546" lon="6.05279">
        <ele>1302.7205</ele>
        <time>2021-05-23T11:34:48</time>
      </trkpt>
      <trkpt lat="45.58549" lon="6.05277">
        <ele>1305.7205</ele>
        <time>2021-05-23T11:34:58</time>
      </trkpt>
      <trkpt lat="45.58551" lon="6.05277">
        <ele>1305.7205</ele>
        <time>2021-05-23T11:35:00</time>
      </trkpt>
      <trkpt lat="45.58551" lon="6.05276">
        <ele>1305.7205</ele>
        <time>2021-05-23T11:35:01</time>
      </trkpt>
      <trkpt lat="45.58553" lon="6.05276">
        <ele>1305.7205</ele>
        <time>2021-05-23T11:35:03</time>
      </trkpt>
      <trkpt lat="45.58557" lon="6.05275">
        <ele>1305.7205</ele>
        <time>2021-05-23T11:35:07</time>
      </trkpt>
      <trkpt lat="45.58557" lon="6.05275">
        <ele>1295.8204</ele>
        <time>2021-05-23T11:35:08</time>
      </trkpt>
      <trkpt lat="45.58556" lon="6.05273">
        <ele>1295.8204</ele>
        <time>2021-05-23T11:35:09</time>
      </trkpt>
      <trkpt lat="45.58556" lon="6.05271">
        <ele>1295.8204</ele>
        <time>2021-05-23T11:35:11</time>
      </trkpt>
      <trkpt lat="45.58558" lon="6.05271">
        <ele>1295.8204</ele>
        <time>2021-05-23T11:35:13</time>
      </trkpt>
      <trkpt lat="45.58559" lon="6.05271">
        <ele>1295.8204</ele>
        <time>2021-05-23T11:35:14</time>
      </trkpt>
      <trkpt lat="45.5856" lon="6.05271">
        <ele>1295.8204</ele>
        <time>2021-05-23T11:35:16</time>
      </trkpt>
      <trkpt lat="45.58561" lon="6.05271">
        <ele>1295.8204</ele>
        <time>2021-05-23T11:35:17</time>
      </trkpt>
      <trkpt lat="45.58563" lon="6.05271">
        <ele>1295.8204</ele>
        <time>2021-05-23T11:35:23</time>
      </trkpt>
      <trkpt lat="45.58564" lon="6.05272">
        <ele>1295.8204</ele>
        <time>2021-05-23T11:35:24</time>
      </trkpt>
      <trkpt lat="45.58565" lon="6.05272">
        <ele>1295.8204</ele>
        <time>2021-05-23T11:35:25</time>
      </trkpt>
      <trkpt lat="45.58566" lon="6.05272">
        <ele>1295.8204</ele>
        <time>2021-05-23T11:35:26</time>
      </trkpt>
      <trkpt lat="45.58567" lon="6.05273">
        <ele>1128.4204</ele>
        <time>2021-05-23T11:35:29</time>
      </trkpt>
      <trkpt lat="45.58567" lon="6.05274">
        <ele>1128.4204</ele>
        <time>2021-05-23T11:35:30</time>
      </trkpt>
      <trkpt lat="45.58568" lon="6.05274">
        <ele>1128.4204</ele>
        <time>2021-05-23T11:35:31</time>
      </trkpt>
      <trkpt lat="45.58568" lon="6.05274">
        <ele>1128.4204</ele>
        <time>2021-05-23T11:35:32</time>
      </trkpt>
      <trkpt lat="45.58569" lon="6.05274">
        <ele>1128.4204</ele>
        <time>2021-05-23T11:35:33</time>
      </trkpt>
      <trkpt lat="45.58569" lon="6.05273">
        <ele>1128.4204</ele>
        <time>2021-05-23T11:35:34</time>
      </trkpt>
      <trkpt lat="45.5857" lon="6.05273">
        <ele>1128.4204</ele>
        <time>2021-05-23T11:35:36</time>
      </trkpt>
      <trkpt lat="45.58571" lon="6.05273">
        <ele>1128.4204</ele>
        <time>2021-05-23T11:35:41</time>
      </trkpt>
      <trkpt lat="45.5858" lon="6.05268">
        <ele>1312.4204</ele>
        <time>2021-05-23T11:35:51</time>
      </trkpt>
      <trkpt lat="45.58582" lon="6.05268">
        <ele>1312.4204</ele>
        <time>2021-05-23T11:35:55</time>
      </trkpt>
      <trkpt lat="45.58582" lon="6.05267">
        <ele>1312.4204</ele>
        <time>2021-05-23T11:35:56</time>
      </trkpt>
      <trkpt lat="45.58583" lon="6.05267">
        <ele>1312.4204</ele>
        <time>2021-05-23T11:35:57</time>
      </trkpt>
      <trkpt lat="45.58584" lon="6.05267">
        <ele>1312.4204</ele>
        <time>2021-05-23T11:35:58</time>
      </trkpt>
      <trkpt lat="45.58585" lon="6.05267">
        <ele>1312.4204</ele>
        <time>2021-05-23T11:35:59</time>
      </trkpt>
      <trkpt lat="45.58586" lon="6.05268">
        <ele>1312.4204</ele>
        <time>2021-05-23T11:36:00</time>
      </trkpt>
      <trkpt lat="45.58587" lon="6.05268">
        <ele>1312.4204</ele>
        <time>2021-05-23T11:36:01</time>
      </trkpt>
      <trkpt lat="45.58589" lon="6.05267">
        <ele>1312.4204</ele>
        <time>2021-05-23T11:36:02</time>
      </trkpt>
      <trkpt lat="45.5859" lon="6.05266">
        <ele>1312.4204</ele>
        <time>2021-05-23T11:36:03</time>
      </trkpt>
      <trkpt lat="45.58591" lon="6.05264">
        <ele>1312.4204</ele>
        <time>2021-05-23T11:36:05</time>
      </trkpt>
      <trkpt lat="45.58594" lon="6.05261">
        <ele>1312.4204</ele>
        <time>2021-05-23T11:36:08</time>
      </trkpt>
      <trkpt lat="45.58595" lon="6.05261">
        <ele>1312.4204</ele>
        <time>2021-05-23T11:36:09</time>
      </trkpt>
      <trkpt lat="45.58596" lon="6.05261">
        <ele>1312.4204</ele>
        <time>2021-05-23T11:36:10</time>
      </trkpt>
      <trkpt lat="45.58599" lon="6.05261">
        <ele>1312.4204</ele>
        <time>2021-05-23T11:36:14</time>
      </trkpt>
      <trkpt lat="45.586" lon="6.05261">
        <ele>1312.4204</ele>
        <time>2021-05-23T11:36:15</time>
      </trkpt>
      <trkpt lat="45.58602" lon="6.0526">
        <ele>1312.4204</ele>
        <time>2021-05-23T11:36:17</time>
      </trkpt>
      <trkpt lat="45.58602" lon="6.0526">
        <ele>1312.4204</ele>
        <time>2021-05-23T11:36:18</time>
      </trkpt>
      <trkpt lat="45.58603" lon="6.0526">
        <ele>1312.4204</ele>
        <time>2021-05-23T11:36:20</time>
      </trkpt>
      <trkpt lat="45.58604" lon="6.05259">
        <ele>1312.4204</ele>
        <time>2021-05-23T11:36:22</time>
      </trkpt>
      <trkpt lat="45.58604" lon="6.05259">
        <ele>1312.4204</ele>
        <time>2021-05-23T11:36:23</time>
      </trkpt>
      <trkpt lat="45.58605" lon="6.05259">
        <ele>1312.4204</ele>
        <time>2021-05-23T11:36:24</time>
      </trkpt>
      <trkpt lat="45.58608" lon="6.05257">
        <ele>1315.7205</ele>
        <time>2021-05-23T11:36:38</time>
      </trkpt>
      <trkpt lat="45.58608" lon="6.05257">
        <ele>1315.7205</ele>
        <time>2021-05-23T11:36:39</time>
      </trkpt>
      <trkpt lat="45.58609" lon="6.05257">
        <ele>1315.7205</ele>
        <time>2021-05-23T11:36:40</time>
      </trkpt>
      <trkpt lat="45.58611" lon="6.05256">
        <ele>1315.7205</ele>
        <time>2021-05-23T11:36:42</time>
      </trkpt>
      <trkpt lat="45.58614" lon="6.05253">
        <ele>1315.7205</ele>
        <time>2021-05-23T11:36:45</time>
      </trkpt>
      <trkpt lat="45.58617" lon="6.05251">
        <ele>1315.7205</ele>
        <time>2021-05-23T11:36:47</time>
      </trkpt>
      <trkpt lat="45.58619" lon="6.0525">
        <ele>1315.7205</ele>
        <time>2021-05-23T11:36:49</time>
      </trkpt>
      <trkpt lat="45.5862" lon="6.0525">
        <ele>1315.7205</ele>
        <time>2021-05-23T11:36:50</time>
      </trkpt>
      <trkpt lat="45.58621" lon="6.05249">
        <ele>1315.7205</ele>
        <time>2021-05-23T11:36:51</time>
      </trkpt>
      <trkpt lat="45.58625" lon="6.05248">
        <ele>1315.7205</ele>
        <time>2021-05-23T11:36:54</time>
      </trkpt>
      <trkpt lat="45.58627" lon="6.05248">
        <ele>1315.7205</ele>
        <time>2021-05-23T11:36:58</time>
      </trkpt>
      <trkpt lat="45.58628" lon="6.05248">
        <ele>1315.7205</ele>
        <time>2021-05-23T11:36:59</time>
      </trkpt>
      <trkpt lat="45.58644" lon="6.05247">
        <ele>1315.7205</ele>
        <time>2021-05-23T11:37:30</time>
      </trkpt>
      <trkpt lat="45.58646" lon="6.05248">
        <ele>1314.2205</ele>
        <time>2021-05-23T11:37:43</time>
      </trkpt>
      <trkpt lat="45.58646" lon="6.05248">
        <ele>1314.2205</ele>
        <time>2021-05-23T11:37:44</time>
      </trkpt>
      <trkpt lat="45.58653" lon="6.05248">
        <ele>1314.2205</ele>
        <time>2021-05-23T11:37:54</time>
      </trkpt>
      <trkpt lat="45.58654" lon="6.05247">
        <ele>1314.2205</ele>
        <time>2021-05-23T11:37:55</time>
      </trkpt>
      <trkpt lat="45.58656" lon="6.05245">
        <ele>1314.2205</ele>
        <time>2021-05-23T11:38:02</time>
      </trkpt>
      <trkpt lat="45.58657" lon="6.05244">
        <ele>1314.2205</ele>
        <time>2021-05-23T11:38:03</time>
      </trkpt>
      <trkpt lat="45.58657" lon="6.05243">
        <ele>1314.2205</ele>
        <time>2021-05-23T11:38:04</time>
      </trkpt>
      <trkpt lat="45.58657" lon="6.05241">
        <ele>1314.2205</ele>
        <time>2021-05-23T11:38:05</time>
      </trkpt>
      <trkpt lat="45.58658" lon="6.05241">
        <ele>1314.2205</ele>
        <time>2021-05-23T11:38:06</time>
      </trkpt>
      <trkpt lat="45.58659" lon="6.05239">
        <ele>1314.2205</ele>
        <time>2021-05-23T11:38:12</time>
      </trkpt>
      <trkpt lat="45.5866" lon="6.05238">
        <ele>1314.2205</ele>
        <time>2021-05-23T11:38:13</time>
      </trkpt>
      <trkpt lat="45.58665" lon="6.05238">
        <ele>1319.8204</ele>
        <time>2021-05-23T11:38:26</time>
      </trkpt>
      <trkpt lat="45.58665" lon="6.05237">
        <ele>1319.8204</ele>
        <time>2021-05-23T11:38:27</time>
      </trkpt>
      <trkpt lat="45.58668" lon="6.05237">
        <ele>1322.2205</ele>
        <time>2021-05-23T11:38:33</time>
      </trkpt>
      <trkpt lat="45.58669" lon="6.05236">
        <ele>1322.2205</ele>
        <time>2021-05-23T11:38:34</time>
      </trkpt>
      <trkpt lat="45.58673" lon="6.05236">
        <ele>1322.2205</ele>
        <time>2021-05-23T11:38:44</time>
      </trkpt>
      <trkpt lat="45.58675" lon="6.05234">
        <ele>1322.2205</ele>
        <time>2021-05-23T11:38:46</time>
      </trkpt>
      <trkpt lat="45.58677" lon="6.05234">
        <ele>1322.2205</ele>
        <time>2021-05-23T11:38:51</time>
      </trkpt>
      <trkpt lat="45.58679" lon="6.05233">
        <ele>1322.2205</ele>
        <time>2021-05-23T11:38:52</time>
      </trkpt>
      <trkpt lat="45.5868" lon="6.05232">
        <ele>1322.2205</ele>
        <time>2021-05-23T11:38:53</time>
      </trkpt>
      <trkpt lat="45.58681" lon="6.05231">
        <ele>1322.2205</ele>
        <time>2021-05-23T11:38:54</time>
      </trkpt>
      <trkpt lat="45.58687" lon="6.0523">
        <ele>1322.2205</ele>
        <time>2021-05-23T11:39:09</time>
      </trkpt>
      <trkpt lat="45.58688" lon="6.0523">
        <ele>1322.2205</ele>
        <time>2021-05-23T11:39:10</time>
      </trkpt>
      <trkpt lat="45.58689" lon="6.05229">
        <ele>1322.2205</ele>
        <time>2021-05-23T11:39:12</time>
      </trkpt>
      <trkpt lat="45.5869" lon="6.05229">
        <ele>1322.2205</ele>
        <time>2021-05-23T11:39:13</time>
      </trkpt>
      <trkpt lat="45.58694" lon="6.05228">
        <ele>1322.2205</ele>
        <time>2021-05-23T11:39:25</time>
      </trkpt>
      <trkpt lat="45.58695" lon="6.05228">
        <ele>1322.2205</ele>
        <time>2021-05-23T11:39:26</time>
      </trkpt>
      <trkpt lat="45.58696" lon="6.05228">
        <ele>1322.2205</ele>
        <time>2021-05-23T11:39:27</time>
      </trkpt>
      <trkpt lat="45.58698" lon="6.05228">
        <ele>1322.2205</ele>
        <time>2021-05-23T11:39:30</time>
      </trkpt>
      <trkpt lat="45.58698" lon="6.05229">
        <ele>1322.2205</ele>
        <time>2021-05-23T11:39:31</time>
      </trkpt>
      <trkpt lat="45.587" lon="6.05229">
        <ele>1322.2205</ele>
        <time>2021-05-23T11:39:33</time>
      </trkpt>
      <trkpt lat="45.58703" lon="6.05228">
        <ele>1322.2205</ele>
        <time>2021-05-23T11:39:35</time>
      </trkpt>
      <trkpt lat="45.58705" lon="6.05228">
        <ele>1322.2205</ele>
        <time>2021-05-23T11:39:36</time>
      </trkpt>
      <trkpt lat="45.58707" lon="6.05227">
        <ele>1322.2205</ele>
        <time>2021-05-23T11:39:37</time>
      </trkpt>
      <trkpt lat="45.58709" lon="6.05226">
        <ele>1322.2205</ele>
        <time>2021-05-23T11:39:38</time>
      </trkpt>
      <trkpt lat="45.58713" lon="6.05226">
        <ele>1322.2205</ele>
        <time>2021-05-23T11:39:49</time>
      </trkpt>
      <trkpt lat="45.58716" lon="6.05225">
        <ele>1322.2205</ele>
        <time>2021-05-23T11:39:52</time>
      </trkpt>
      <trkpt lat="45.58718" lon="6.05224">
        <ele>1322.2205</ele>
        <time>2021-05-23T11:39:54</time>
      </trkpt>
      <trkpt lat="45.58718" lon="6.05224">
        <ele>1322.2205</ele>
        <time>2021-05-23T11:39:55</time>
      </trkpt>
      <trkpt lat="45.5872" lon="6.05224">
        <ele>1322.2205</ele>
        <time>2021-05-23T11:39:57</time>
      </trkpt>
      <trkpt lat="45.58722" lon="6.05224">
        <ele>1322.2205</ele>
        <time>2021-05-23T11:39:58</time>
      </trkpt>
      <trkpt lat="45.58723" lon="6.05223">
        <ele>1322.2205</ele>
        <time>2021-05-23T11:39:59</time>
      </trkpt>
      <trkpt lat="45.5873" lon="6.05223">
        <ele>1322.2205</ele>
        <time>2021-05-23T11:40:05</time>
      </trkpt>
      <trkpt lat="45.58732" lon="6.05224">
        <ele>1322.2205</ele>
        <time>2021-05-23T11:40:09</time>
      </trkpt>
      <trkpt lat="45.58735" lon="6.05226">
        <ele>1322.2205</ele>
        <time>2021-05-23T11:40:23</time>
      </trkpt>
      <trkpt lat="45.58735" lon="6.05225">
        <ele>1322.2205</ele>
        <time>2021-05-23T11:40:24</time>
      </trkpt>
      <trkpt lat="45.58736" lon="6.05225">
        <ele>1322.2205</ele>
        <time>2021-05-23T11:40:25</time>
      </trkpt>
      <trkpt lat="45.58737" lon="6.05225">
        <ele>1322.2205</ele>
        <time>2021-05-23T11:40:26</time>
      </trkpt>
      <trkpt lat="45.5874" lon="6.05225">
        <ele>1338.1205</ele>
        <time>2021-05-23T11:40:31</time>
      </trkpt>
      <trkpt lat="45.58742" lon="6.05225">
        <ele>1338.1205</ele>
        <time>2021-05-23T11:40:35</time>
      </trkpt>
      <trkpt lat="45.58743" lon="6.05225">
        <ele>1338.1205</ele>
        <time>2021-05-23T11:40:36</time>
      </trkpt>
      <trkpt lat="45.58748" lon="6.05225">
        <ele>1338.1205</ele>
        <time>2021-05-23T11:40:47</time>
      </trkpt>
      <trkpt lat="45.58749" lon="6.05226">
        <ele>1338.1205</ele>
        <time>2021-05-23T11:40:49</time>
      </trkpt>
      <trkpt lat="45.58752" lon="6.05226">
        <ele>1340.3204</ele>
        <time>2021-05-23T11:40:55</time>
      </trkpt>
      <trkpt lat="45.58753" lon="6.05228">
        <ele>1340.3204</ele>
        <time>2021-05-23T11:40:56</time>
      </trkpt>
      <trkpt lat="45.58754" lon="6.0523">
        <ele>1340.3204</ele>
        <time>2021-05-23T11:40:57</time>
      </trkpt>
      <trkpt lat="45.58755" lon="6.0523">
        <ele>1340.3204</ele>
        <time>2021-05-23T11:40:59</time>
      </trkpt>
      <trkpt lat="45.58756" lon="6.0523">
        <ele>1340.3204</ele>
        <time>2021-05-23T11:41:00</time>
      </trkpt>
      <trkpt lat="45.58756" lon="6.0523">
        <ele>1344.1205</ele>
        <time>2021-05-23T11:41:01</time>
      </trkpt>
      <trkpt lat="45.58757" lon="6.0523">
        <ele>1344.1205</ele>
        <time>2021-05-23T11:41:03</time>
      </trkpt>
      <trkpt lat="45.58759" lon="6.05231">
        <ele>1344.1205</ele>
        <time>2021-05-23T11:41:05</time>
      </trkpt>
      <trkpt lat="45.5876" lon="6.05231">
        <ele>1344.1205</ele>
        <time>2021-05-23T11:41:06</time>
      </trkpt>
      <trkpt lat="45.58762" lon="6.05231">
        <ele>1344.1205</ele>
        <time>2021-05-23T11:41:08</time>
      </trkpt>
      <trkpt lat="45.58762" lon="6.05231">
        <ele>1344.1205</ele>
        <time>2021-05-23T11:41:10</time>
      </trkpt>
      <trkpt lat="45.58763" lon="6.05231">
        <ele>1342.5537</ele>
        <time>2021-05-23T11:41:11</time>
      </trkpt>
      <trkpt lat="45.58764" lon="6.0523">
        <ele>1342.5537</ele>
        <time>2021-05-23T11:41:12</time>
      </trkpt>
      <trkpt lat="45.5877" lon="6.05232">
        <ele>1342.5537</ele>
        <time>2021-05-23T11:41:23</time>
      </trkpt>
      <trkpt lat="45.58771" lon="6.05233">
        <ele>1342.5537</ele>
        <time>2021-05-23T11:41:24</time>
      </trkpt>
      <trkpt lat="45.58772" lon="6.05233">
        <ele>1342.5537</ele>
        <time>2021-05-23T11:41:25</time>
      </trkpt>
      <trkpt lat="45.58773" lon="6.05233">
        <ele>1342.5537</ele>
        <time>2021-05-23T11:41:26</time>
      </trkpt>
      <trkpt lat="45.58774" lon="6.05233">
        <ele>1342.5537</ele>
        <time>2021-05-23T11:41:27</time>
      </trkpt>
      <trkpt lat="45.58776" lon="6.05233">
        <ele>1342.5537</ele>
        <time>2021-05-23T11:41:28</time>
      </trkpt>
      <trkpt lat="45.58783" lon="6.05234">
        <ele>1339.3204</ele>
        <time>2021-05-23T11:41:40</time>
      </trkpt>
      <trkpt lat="45.58784" lon="6.05235">
        <ele>1337.1205</ele>
        <time>2021-05-23T11:41:41</time>
      </trkpt>
      <trkpt lat="45.58789" lon="6.05238">
        <ele>1337.0204</ele>
        <time>2021-05-23T11:41:53</time>
      </trkpt>
      <trkpt lat="45.5879" lon="6.05238">
        <ele>1337.0204</ele>
        <time>2021-05-23T11:41:54</time>
      </trkpt>
      <trkpt lat="45.58791" lon="6.05239">
        <ele>1337.0204</ele>
        <time>2021-05-23T11:41:55</time>
      </trkpt>
      <trkpt lat="45.58794" lon="6.0524">
        <ele>1337.0204</ele>
        <time>2021-05-23T11:41:57</time>
      </trkpt>
      <trkpt lat="45.58799" lon="6.05241">
        <ele>1336.2205</ele>
        <time>2021-05-23T11:42:07</time>
      </trkpt>
      <trkpt lat="45.58801" lon="6.05242">
        <ele>1336.2205</ele>
        <time>2021-05-23T11:42:09</time>
      </trkpt>
      <trkpt lat="45.58802" lon="6.05242">
        <ele>1336.2205</ele>
        <time>2021-05-23T11:42:10</time>
      </trkpt>
      <trkpt lat="45.58804" lon="6.05243">
        <ele>1336.2205</ele>
        <time>2021-05-23T11:42:12</time>
      </trkpt>
      <trkpt lat="45.58805" lon="6.05243">
        <ele>1336.2205</ele>
        <time>2021-05-23T11:42:13</time>
      </trkpt>
      <trkpt lat="45.58806" lon="6.05243">
        <ele>1336.2205</ele>
        <time>2021-05-23T11:42:14</time>
      </trkpt>
      <trkpt lat="45.58808" lon="6.05243">
        <ele>1336.2205</ele>
        <time>2021-05-23T11:42:15</time>
      </trkpt>
      <trkpt lat="45.58809" lon="6.05243">
        <ele>1336.2205</ele>
        <time>2021-05-23T11:42:16</time>
      </trkpt>
      <trkpt lat="45.5881" lon="6.05243">
        <ele>1336.2205</ele>
        <time>2021-05-23T11:42:17</time>
      </trkpt>
      <trkpt lat="45.58812" lon="6.05244">
        <ele>1336.2205</ele>
        <time>2021-05-23T11:42:18</time>
      </trkpt>
      <trkpt lat="45.58821" lon="6.05245">
        <ele>1336.2205</ele>
        <time>2021-05-23T11:42:35</time>
      </trkpt>
      <trkpt lat="45.58821" lon="6.05245">
        <ele>1336.2205</ele>
        <time>2021-05-23T11:42:36</time>
      </trkpt>
      <trkpt lat="45.58822" lon="6.05245">
        <ele>1336.2205</ele>
        <time>2021-05-23T11:42:37</time>
      </trkpt>
      <trkpt lat="45.58822" lon="6.05245">
        <ele>1336.2205</ele>
        <time>2021-05-23T11:42:38</time>
      </trkpt>
      <trkpt lat="45.58823" lon="6.05245">
        <ele>1336.2205</ele>
        <time>2021-05-23T11:42:39</time>
      </trkpt>
      <trkpt lat="45.58824" lon="6.05245">
        <ele>1336.2205</ele>
        <time>2021-05-23T11:42:40</time>
      </trkpt>
      <trkpt lat="45.58825" lon="6.05244">
        <ele>1336.2205</ele>
        <time>2021-05-23T11:42:45</time>
      </trkpt>
      <trkpt lat="45.58826" lon="6.05244">
        <ele>1336.2205</ele>
        <time>2021-05-23T11:42:46</time>
      </trkpt>
      <trkpt lat="45.58827" lon="6.05243">
        <ele>1336.2205</ele>
        <time>2021-05-23T11:42:47</time>
      </trkpt>
      <trkpt lat="45.58827" lon="6.05242">
        <ele>1336.2205</ele>
        <time>2021-05-23T11:42:48</time>
      </trkpt>
      <trkpt lat="45.58828" lon="6.05241">
        <ele>1336.2205</ele>
        <time>2021-05-23T11:42:49</time>
      </trkpt>
      <trkpt lat="45.58828" lon="6.05239">
        <ele>1336.2205</ele>
        <time>2021-05-23T11:42:50</time>
      </trkpt>
      <trkpt lat="45.58829" lon="6.05239">
        <ele>1336.2205</ele>
        <time>2021-05-23T11:42:52</time>
      </trkpt>
      <trkpt lat="45.5883" lon="6.0524">
        <ele>1204.1205</ele>
        <time>2021-05-23T11:43:13</time>
      </trkpt>
      <trkpt lat="45.58831" lon="6.05238">
        <ele>1204.1205</ele>
        <time>2021-05-23T11:43:15</time>
      </trkpt>
      <trkpt lat="45.58832" lon="6.05239">
        <ele>1204.1205</ele>
        <time>2021-05-23T11:43:16</time>
      </trkpt>
      <trkpt lat="45.58832" lon="6.05239">
        <ele>1204.1205</ele>
        <time>2021-05-23T11:43:20</time>
      </trkpt>
      <trkpt lat="45.58833" lon="6.0524">
        <ele>1204.1205</ele>
        <time>2021-05-23T11:43:21</time>
      </trkpt>
      <trkpt lat="45.58832" lon="6.0524">
        <ele>1310.0204</ele>
        <time>2021-05-23T11:43:22</time>
      </trkpt>
      <trkpt lat="45.58831" lon="6.05241">
        <ele>1340.1205</ele>
        <time>2021-05-23T11:43:55</time>
      </trkpt>
      <trkpt lat="45.58831" lon="6.05241">
        <ele>1340.1205</ele>
        <time>2021-05-23T11:45:10</time>
      </trkpt>
      <trkpt lat="45.58831" lon="6.05241">
        <ele>1280.1205</ele>
        <time>2021-05-23T11:45:40</time>
      </trkpt>
      <trkpt lat="45.58833" lon="6.0524">
        <ele>1280.1205</ele>
        <time>2021-05-23T11:49:10</time>
      </trkpt>
      <trkpt lat="45.58836" lon="6.05241">
        <ele>1339.0204</ele>
        <time>2021-05-23T11:49:43</time>
      </trkpt>
      <trkpt lat="45.58836" lon="6.05241">
        <ele>1330.5204</ele>
        <time>2021-05-23T11:50:16</time>
      </trkpt>
      <trkpt lat="45.58836" lon="6.05241">
        <ele>1331.6205</ele>
        <time>2021-05-23T11:50:49</time>
      </trkpt>
      <trkpt lat="45.58836" lon="6.05241">
        <ele>1331.6205</ele>
        <time>2021-05-23T11:51:19</time>
      </trkpt>
      <trkpt lat="45.58836" lon="6.05241">
        <ele>1331.6205</ele>
        <time>2021-05-23T11:51:49</time>
      </trkpt>
      <trkpt lat="45.58836" lon="6.05241">
        <ele>1339.1205</ele>
        <time>2021-05-23T11:52:20</time>
      </trkpt>
      <trkpt lat="45.58836" lon="6.05241">
        <ele>1339.1205</ele>
        <time>2021-05-23T11:52:58</time>
      </trkpt>
      <trkpt lat="45.58836" lon="6.05241">
        <ele>1339.1205</ele>
        <time>2021-05-23T11:53:28</time>
      </trkpt>
      <trkpt lat="45.58836" lon="6.05241">
        <ele>1339.1205</ele>
        <time>2021-05-23T11:54:07</time>
      </trkpt>
      <trkpt lat="45.58836" lon="6.05241">
        <ele>1339.0204</ele>
        <time>2021-05-23T11:56:39</time>
      </trkpt>
      <trkpt lat="45.58835" lon="6.0524">
        <ele>1339.0204</ele>
        <time>2021-05-23T11:56:41</time>
      </trkpt>
      <trkpt lat="45.58835" lon="6.05239">
        <ele>1339.0204</ele>
        <time>2021-05-23T11:56:42</time>
      </trkpt>
      <trkpt lat="45.58835" lon="6.05238">
        <ele>1339.2205</ele>
        <time>2021-05-23T11:57:02</time>
      </trkpt>
      <trkpt lat="45.58835" lon="6.05239">
        <ele>1339.2205</ele>
        <time>2021-05-23T11:57:04</time>
      </trkpt>
      <trkpt lat="45.58836" lon="6.05239">
        <ele>1339.2205</ele>
        <time>2021-05-23T11:57:05</time>
      </trkpt>
      <trkpt lat="45.58836" lon="6.0524">
        <ele>1339.2205</ele>
        <time>2021-05-23T11:57:06</time>
      </trkpt>
      <trkpt lat="45.58836" lon="6.05241">
        <ele>1339.2205</ele>
        <time>2021-05-23T11:57:08</time>
      </trkpt>
      <trkpt lat="45.58835" lon="6.0524">
        <ele>1339.5204</ele>
        <time>2021-05-23T11:57:10</time>
      </trkpt>
      <trkpt lat="45.58836" lon="6.05241">
        <ele>1339.5204</ele>
        <time>2021-05-23T11:57:11</time>
      </trkpt>
      <trkpt lat="45.58836" lon="6.05241">
        <ele>1339.5204</ele>
        <time>2021-05-23T11:57:12</time>
      </trkpt>
      <trkpt lat="45.58837" lon="6.05242">
        <ele>1339.5204</ele>
        <time>2021-05-23T11:57:13</time>
      </trkpt>
      <trkpt lat="45.58837" lon="6.05243">
        <ele>1339.5204</ele>
        <time>2021-05-23T11:57:14</time>
      </trkpt>
      <trkpt lat="45.58838" lon="6.05245">
        <ele>1339.5204</ele>
        <time>2021-05-23T11:57:16</time>
      </trkpt>
      <trkpt lat="45.58839" lon="6.05245">
        <ele>1339.5204</ele>
        <time>2021-05-23T11:57:17</time>
      </trkpt>
      <trkpt lat="45.58839" lon="6.05245">
        <ele>1339.5204</ele>
        <time>2021-05-23T11:57:18</time>
      </trkpt>
      <trkpt lat="45.5884" lon="6.05243">
        <ele>1339.5204</ele>
        <time>2021-05-23T11:57:21</time>
      </trkpt>
      <trkpt lat="45.5884" lon="6.05242">
        <ele>1339.5204</ele>
        <time>2021-05-23T11:57:33</time>
      </trkpt>
      <trkpt lat="45.58841" lon="6.05243">
        <ele>1339.5204</ele>
        <time>2021-05-23T11:57:34</time>
      </trkpt>
      <trkpt lat="45.58843" lon="6.05245">
        <ele>1339.5204</ele>
        <time>2021-05-23T11:57:37</time>
      </trkpt>
      <trkpt lat="45.58844" lon="6.05247">
        <ele>1340.3204</ele>
        <time>2021-05-23T11:57:41</time>
      </trkpt>
      <trkpt lat="45.58845" lon="6.05247">
        <ele>1340.3204</ele>
        <time>2021-05-23T11:57:42</time>
      </trkpt>
      <trkpt lat="45.58845" lon="6.05247">
        <ele>1340.3204</ele>
        <time>2021-05-23T11:57:43</time>
      </trkpt>
      <trkpt lat="45.58847" lon="6.05247">
        <ele>1340.3204</ele>
        <time>2021-05-23T11:57:46</time>
      </trkpt>
      <trkpt lat="45.5885" lon="6.05246">
        <ele>1340.3204</ele>
        <time>2021-05-23T11:57:51</time>
      </trkpt>
      <trkpt lat="45.58851" lon="6.05246">
        <ele>1340.3204</ele>
        <time>2021-05-23T11:57:53</time>
      </trkpt>
      <trkpt lat="45.58855" lon="6.05248">
        <ele>1340.3204</ele>
        <time>2021-05-23T11:58:01</time>
      </trkpt>
      <trkpt lat="45.58855" lon="6.05247">
        <ele>1340.3204</ele>
        <time>2021-05-23T11:58:02</time>
      </trkpt>
      <trkpt lat="45.58856" lon="6.05247">
        <ele>1340.3204</ele>
        <time>2021-05-23T11:58:04</time>
      </trkpt>
      <trkpt lat="45.58857" lon="6.05247">
        <ele>1340.3204</ele>
        <time>2021-05-23T11:58:06</time>
      </trkpt>
      <trkpt lat="45.58857" lon="6.05248">
        <ele>1340.3204</ele>
        <time>2021-05-23T11:58:07</time>
      </trkpt>
      <trkpt lat="45.5886" lon="6.05249">
        <ele>1340.3204</ele>
        <time>2021-05-23T11:58:11</time>
      </trkpt>
      <trkpt lat="45.58867" lon="6.05248">
        <ele>1340.3204</ele>
        <time>2021-05-23T11:58:22</time>
      </trkpt>
      <trkpt lat="45.58871" lon="6.05247">
        <ele>1340.3204</ele>
        <time>2021-05-23T11:58:27</time>
      </trkpt>
      <trkpt lat="45.58874" lon="6.05247">
        <ele>1340.3204</ele>
        <time>2021-05-23T11:58:31</time>
      </trkpt>
      <trkpt lat="45.58891" lon="6.05246">
        <ele>1340.3204</ele>
        <time>2021-05-23T11:58:52</time>
      </trkpt>
      <trkpt lat="45.58894" lon="6.05245">
        <ele>1340.3204</ele>
        <time>2021-05-23T11:58:56</time>
      </trkpt>
      <trkpt lat="45.58896" lon="6.05244">
        <ele>1340.3204</ele>
        <time>2021-05-23T11:59:00</time>
      </trkpt>
      <trkpt lat="45.589" lon="6.05244">
        <ele>1340.3204</ele>
        <time>2021-05-23T11:59:06</time>
      </trkpt>
      <trkpt lat="45.58905" lon="6.05245">
        <ele>1340.3204</ele>
        <time>2021-05-23T11:59:13</time>
      </trkpt>
      <trkpt lat="45.58906" lon="6.05245">
        <ele>1340.3204</ele>
        <time>2021-05-23T11:59:16</time>
      </trkpt>
      <trkpt lat="45.58906" lon="6.05246">
        <ele>1340.3204</ele>
        <time>2021-05-23T11:59:20</time>
      </trkpt>
      <trkpt lat="45.58909" lon="6.05247">
        <ele>1340.3204</ele>
        <time>2021-05-23T11:59:23</time>
      </trkpt>
      <trkpt lat="45.58914" lon="6.05247">
        <ele>1351.8204</ele>
        <time>2021-05-23T11:59:29</time>
      </trkpt>
      <trkpt lat="45.58916" lon="6.05246">
        <ele>1351.8204</ele>
        <time>2021-05-23T11:59:32</time>
      </trkpt>
      <trkpt lat="45.58916" lon="6.05246">
        <ele>1351.8204</ele>
        <time>2021-05-23T11:59:33</time>
      </trkpt>
      <trkpt lat="45.58921" lon="6.05251">
        <ele>1354.1538</ele>
        <time>2021-05-23T11:59:39</time>
      </trkpt>
      <trkpt lat="45.5893" lon="6.05252">
        <ele>1354.6205</ele>
        <time>2021-05-23T11:59:50</time>
      </trkpt>
      <trkpt lat="45.58938" lon="6.05254">
        <ele>1351.7205</ele>
        <time>2021-05-23T12:00:00</time>
      </trkpt>
      <trkpt lat="45.58941" lon="6.05254">
        <ele>1351.7205</ele>
        <time>2021-05-23T12:00:05</time>
      </trkpt>
      <trkpt lat="45.58941" lon="6.05254">
        <ele>1351.7205</ele>
        <time>2021-05-23T12:00:06</time>
      </trkpt>
      <trkpt lat="45.58941" lon="6.05254">
        <ele>1351.7205</ele>
        <time>2021-05-23T12:00:08</time>
      </trkpt>
      <trkpt lat="45.58941" lon="6.05254">
        <ele>1353.2205</ele>
        <time>2021-05-23T12:00:09</time>
      </trkpt>
      <trkpt lat="45.58942" lon="6.05254">
        <ele>1353.2205</ele>
        <time>2021-05-23T12:00:12</time>
      </trkpt>
      <trkpt lat="45.58943" lon="6.05254">
        <ele>1353.2205</ele>
        <time>2021-05-23T12:00:14</time>
      </trkpt>
      <trkpt lat="45.58944" lon="6.05254">
        <ele>1353.2205</ele>
        <time>2021-05-23T12:00:15</time>
      </trkpt>
      <trkpt lat="45.58946" lon="6.05254">
        <ele>1353.2205</ele>
        <time>2021-05-23T12:00:17</time>
      </trkpt>
      <trkpt lat="45.58951" lon="6.05256">
        <ele>1354.1205</ele>
        <time>2021-05-23T12:00:25</time>
      </trkpt>
      <trkpt lat="45.58952" lon="6.05256">
        <ele>1354.1205</ele>
        <time>2021-05-23T12:00:27</time>
      </trkpt>
      <trkpt lat="45.58964" lon="6.05261">
        <ele>1354.8204</ele>
        <time>2021-05-23T12:00:42</time>
      </trkpt>
      <trkpt lat="45.58966" lon="6.05263">
        <ele>1354.8204</ele>
        <time>2021-05-23T12:00:45</time>
      </trkpt>
      <trkpt lat="45.58987" lon="6.05268">
        <ele>1359.6205</ele>
        <time>2021-05-23T12:01:10</time>
      </trkpt>
      <trkpt lat="45.59004" lon="6.05263">
        <ele>1361.9204</ele>
        <time>2021-05-23T12:01:34</time>
      </trkpt>
      <trkpt lat="45.59006" lon="6.05264">
        <ele>1361.9204</ele>
        <time>2021-05-23T12:01:37</time>
      </trkpt>
      <trkpt lat="45.59009" lon="6.05265">
        <ele>1359.7205</ele>
        <time>2021-05-23T12:01:41</time>
      </trkpt>
      <trkpt lat="45.59019" lon="6.05271">
        <ele>1359.3204</ele>
        <time>2021-05-23T12:01:55</time>
      </trkpt>
      <trkpt lat="45.59019" lon="6.05271">
        <ele>1359.3204</ele>
        <time>2021-05-23T12:01:56</time>
      </trkpt>
      <trkpt lat="45.5902" lon="6.05272">
        <ele>1359.3204</ele>
        <time>2021-05-23T12:01:58</time>
      </trkpt>
      <trkpt lat="45.59025" lon="6.05272">
        <ele>1362.9204</ele>
        <time>2021-05-23T12:02:03</time>
      </trkpt>
      <trkpt lat="45.59034" lon="6.05277">
        <ele>1364.6205</ele>
        <time>2021-05-23T12:02:14</time>
      </trkpt>
      <trkpt lat="45.59035" lon="6.05277">
        <ele>1364.6205</ele>
        <time>2021-05-23T12:02:15</time>
      </trkpt>
      <trkpt lat="45.59037" lon="6.05276">
        <ele>1364.1205</ele>
        <time>2021-05-23T12:02:19</time>
      </trkpt>
      <trkpt lat="45.59042" lon="6.05276">
        <ele>1364.4204</ele>
        <time>2021-05-23T12:02:29</time>
      </trkpt>
      <trkpt lat="45.59045" lon="6.05276">
        <ele>1364.4204</ele>
        <time>2021-05-23T12:02:32</time>
      </trkpt>
      <trkpt lat="45.59051" lon="6.05274">
        <ele>1364.4204</ele>
        <time>2021-05-23T12:02:38</time>
      </trkpt>
      <trkpt lat="45.59063" lon="6.05276">
        <ele>1361.8204</ele>
        <time>2021-05-23T12:02:52</time>
      </trkpt>
      <trkpt lat="45.59063" lon="6.05276">
        <ele>1361.8204</ele>
        <time>2021-05-23T12:02:53</time>
      </trkpt>
      <trkpt lat="45.59064" lon="6.05276">
        <ele>1361.8204</ele>
        <time>2021-05-23T12:02:54</time>
      </trkpt>
      <trkpt lat="45.59072" lon="6.05278">
        <ele>1361.9204</ele>
        <time>2021-05-23T12:03:04</time>
      </trkpt>
      <trkpt lat="45.59076" lon="6.05278">
        <ele>1360.9204</ele>
        <time>2021-05-23T12:03:09</time>
      </trkpt>
      <trkpt lat="45.59079" lon="6.05279">
        <ele>1360.9204</ele>
        <time>2021-05-23T12:03:13</time>
      </trkpt>
      <trkpt lat="45.59084" lon="6.0528">
        <ele>1360.6205</ele>
        <time>2021-05-23T12:03:22</time>
      </trkpt>
      <trkpt lat="45.59085" lon="6.0528">
        <ele>1360.6205</ele>
        <time>2021-05-23T12:03:23</time>
      </trkpt>
      <trkpt lat="45.59087" lon="6.05281">
        <ele>1360.6205</ele>
        <time>2021-05-23T12:03:27</time>
      </trkpt>
      <trkpt lat="45.59096" lon="6.05282">
        <ele>1363.3204</ele>
        <time>2021-05-23T12:03:39</time>
      </trkpt>
      <trkpt lat="45.59099" lon="6.05281">
        <ele>1363.3204</ele>
        <time>2021-05-23T12:03:43</time>
      </trkpt>
      <trkpt lat="45.59101" lon="6.05282">
        <ele>1363.3204</ele>
        <time>2021-05-23T12:03:45</time>
      </trkpt>
      <trkpt lat="45.59103" lon="6.05283">
        <ele>1363.3204</ele>
        <time>2021-05-23T12:03:47</time>
      </trkpt>
      <trkpt lat="45.59108" lon="6.05286">
        <ele>1363.3204</ele>
        <time>2021-05-23T12:03:56</time>
      </trkpt>
      <trkpt lat="45.59113" lon="6.05287">
        <ele>1365.1205</ele>
        <time>2021-05-23T12:04:03</time>
      </trkpt>
      <trkpt lat="45.59124" lon="6.05288">
        <ele>1365.4204</ele>
        <time>2021-05-23T12:04:19</time>
      </trkpt>
      <trkpt lat="45.59127" lon="6.0529">
        <ele>1365.4204</ele>
        <time>2021-05-23T12:04:23</time>
      </trkpt>
      <trkpt lat="45.59128" lon="6.05291">
        <ele>1365.4204</ele>
        <time>2021-05-23T12:04:25</time>
      </trkpt>
      <trkpt lat="45.59129" lon="6.05292">
        <ele>1369.3204</ele>
        <time>2021-05-23T12:04:44</time>
      </trkpt>
      <trkpt lat="45.5913" lon="6.05291">
        <ele>1369.3204</ele>
        <time>2021-05-23T12:04:46</time>
      </trkpt>
      <trkpt lat="45.59131" lon="6.05292">
        <ele>1371.1205</ele>
        <time>2021-05-23T12:05:05</time>
      </trkpt>
      <trkpt lat="45.59134" lon="6.05293">
        <ele>1371.8204</ele>
        <time>2021-05-23T12:05:10</time>
      </trkpt>
      <trkpt lat="45.59135" lon="6.05291">
        <ele>1371.8204</ele>
        <time>2021-05-23T12:05:16</time>
      </trkpt>
      <trkpt lat="45.59138" lon="6.05292">
        <ele>1370.8204</ele>
        <time>2021-05-23T12:05:20</time>
      </trkpt>
      <trkpt lat="45.59145" lon="6.05293">
        <ele>1370.8204</ele>
        <time>2021-05-23T12:05:28</time>
      </trkpt>
      <trkpt lat="45.59149" lon="6.0529">
        <ele>1373.5204</ele>
        <time>2021-05-23T12:05:32</time>
      </trkpt>
      <trkpt lat="45.59152" lon="6.0529">
        <ele>1373.5204</ele>
        <time>2021-05-23T12:05:36</time>
      </trkpt>
      <trkpt lat="45.59159" lon="6.05297">
        <ele>1372.1205</ele>
        <time>2021-05-23T12:05:48</time>
      </trkpt>
      <trkpt lat="45.5916" lon="6.05297">
        <ele>1374.2205</ele>
        <time>2021-05-23T12:06:13</time>
      </trkpt>
      <trkpt lat="45.59162" lon="6.05297">
        <ele>1374.2205</ele>
        <time>2021-05-23T12:06:16</time>
      </trkpt>
      <trkpt lat="45.59165" lon="6.05297">
        <ele>1374.2205</ele>
        <time>2021-05-23T12:06:20</time>
      </trkpt>
      <trkpt lat="45.59168" lon="6.05296">
        <ele>1374.2205</ele>
        <time>2021-05-23T12:06:24</time>
      </trkpt>
      <trkpt lat="45.59176" lon="6.05299">
        <ele>1376.1205</ele>
        <time>2021-05-23T12:06:36</time>
      </trkpt>
      <trkpt lat="45.5918" lon="6.053">
        <ele>1375.3204</ele>
        <time>2021-05-23T12:06:40</time>
      </trkpt>
      <trkpt lat="45.59181" lon="6.05301">
        <ele>1375.3204</ele>
        <time>2021-05-23T12:06:42</time>
      </trkpt>
      <trkpt lat="45.59201" lon="6.05306">
        <ele>1378.9204</ele>
        <time>2021-05-23T12:07:08</time>
      </trkpt>
      <trkpt lat="45.59207" lon="6.05305">
        <ele>1376.7205</ele>
        <time>2021-05-23T12:07:16</time>
      </trkpt>
      <trkpt lat="45.59209" lon="6.05307">
        <ele>1376.7205</ele>
        <time>2021-05-23T12:07:18</time>
      </trkpt>
      <trkpt lat="45.59212" lon="6.05307">
        <ele>1377.7205</ele>
        <time>2021-05-23T12:07:22</time>
      </trkpt>
      <trkpt lat="45.59218" lon="6.05305">
        <ele>1377.7205</ele>
        <time>2021-05-23T12:07:28</time>
      </trkpt>
      <trkpt lat="45.59224" lon="6.05307">
        <ele>1378.5204</ele>
        <time>2021-05-23T12:07:36</time>
      </trkpt>
      <trkpt lat="45.59228" lon="6.05306">
        <ele>1377.5204</ele>
        <time>2021-05-23T12:07:40</time>
      </trkpt>
      <trkpt lat="45.59242" lon="6.05317">
        <ele>1377.7205</ele>
        <time>2021-05-23T12:08:00</time>
      </trkpt>
      <trkpt lat="45.59242" lon="6.05317">
        <ele>1377.7205</ele>
        <time>2021-05-23T12:08:01</time>
      </trkpt>
      <trkpt lat="45.59243" lon="6.05316">
        <ele>1377.7205</ele>
        <time>2021-05-23T12:08:02</time>
      </trkpt>
      <trkpt lat="45.59245" lon="6.05318">
        <ele>1377.7205</ele>
        <time>2021-05-23T12:08:05</time>
      </trkpt>
      <trkpt lat="45.59247" lon="6.05318">
        <ele>1377.7205</ele>
        <time>2021-05-23T12:08:07</time>
      </trkpt>
      <trkpt lat="45.59257" lon="6.05317">
        <ele>1377.7205</ele>
        <time>2021-05-23T12:08:17</time>
      </trkpt>
      <trkpt lat="45.59259" lon="6.05318">
        <ele>1377.7205</ele>
        <time>2021-05-23T12:08:19</time>
      </trkpt>
      <trkpt lat="45.59265" lon="6.05323">
        <ele>1377.7205</ele>
        <time>2021-05-23T12:08:37</time>
      </trkpt>
      <trkpt lat="45.59265" lon="6.05324">
        <ele>1377.7205</ele>
        <time>2021-05-23T12:08:38</time>
      </trkpt>
      <trkpt lat="45.59267" lon="6.05324">
        <ele>1382.7205</ele>
        <time>2021-05-23T12:08:40</time>
      </trkpt>
      <trkpt lat="45.59268" lon="6.05324">
        <ele>1382.7205</ele>
        <time>2021-05-23T12:08:41</time>
      </trkpt>
      <trkpt lat="45.59269" lon="6.05324">
        <ele>1382.7205</ele>
        <time>2021-05-23T12:08:42</time>
      </trkpt>
      <trkpt lat="45.5927" lon="6.05324">
        <ele>1382.7205</ele>
        <time>2021-05-23T12:08:44</time>
      </trkpt>
      <trkpt lat="45.59273" lon="6.05324">
        <ele>1382.7205</ele>
        <time>2021-05-23T12:08:48</time>
      </trkpt>
      <trkpt lat="45.59273" lon="6.05324">
        <ele>1383.0204</ele>
        <time>2021-05-23T12:08:49</time>
      </trkpt>
      <trkpt lat="45.59274" lon="6.05325">
        <ele>1383.0204</ele>
        <time>2021-05-23T12:08:51</time>
      </trkpt>
      <trkpt lat="45.59274" lon="6.05325">
        <ele>1383.0204</ele>
        <time>2021-05-23T12:08:52</time>
      </trkpt>
      <trkpt lat="45.59275" lon="6.05324">
        <ele>1383.0204</ele>
        <time>2021-05-23T12:08:55</time>
      </trkpt>
      <trkpt lat="45.59276" lon="6.05324">
        <ele>1382.3204</ele>
        <time>2021-05-23T12:09:00</time>
      </trkpt>
      <trkpt lat="45.59278" lon="6.05324">
        <ele>1382.3204</ele>
        <time>2021-05-23T12:09:02</time>
      </trkpt>
      <trkpt lat="45.59284" lon="6.05326">
        <ele>1382.3204</ele>
        <time>2021-05-23T12:09:17</time>
      </trkpt>
      <trkpt lat="45.59285" lon="6.05327">
        <ele>1382.3204</ele>
        <time>2021-05-23T12:09:18</time>
      </trkpt>
      <trkpt lat="45.59292" lon="6.05328">
        <ele>1381.5204</ele>
        <time>2021-05-23T12:09:26</time>
      </trkpt>
      <trkpt lat="45.59292" lon="6.05328">
        <ele>1381.5204</ele>
        <time>2021-05-23T12:09:27</time>
      </trkpt>
      <trkpt lat="45.59293" lon="6.05328">
        <ele>1381.5204</ele>
        <time>2021-05-23T12:09:28</time>
      </trkpt>
      <trkpt lat="45.59297" lon="6.0533">
        <ele>1378.9204</ele>
        <time>2021-05-23T12:09:34</time>
      </trkpt>
      <trkpt lat="45.59312" lon="6.05335">
        <ele>1385.6205</ele>
        <time>2021-05-23T12:09:51</time>
      </trkpt>
      <trkpt lat="45.59313" lon="6.05335">
        <ele>1385.6205</ele>
        <time>2021-05-23T12:09:52</time>
      </trkpt>
      <trkpt lat="45.59316" lon="6.05335">
        <ele>1385.6205</ele>
        <time>2021-05-23T12:09:54</time>
      </trkpt>
      <trkpt lat="45.59319" lon="6.05335">
        <ele>1385.6205</ele>
        <time>2021-05-23T12:09:57</time>
      </trkpt>
      <trkpt lat="45.59322" lon="6.05336">
        <ele>1385.2205</ele>
        <time>2021-05-23T12:10:00</time>
      </trkpt>
      <trkpt lat="45.59325" lon="6.05337">
        <ele>1385.2205</ele>
        <time>2021-05-23T12:10:03</time>
      </trkpt>
      <trkpt lat="45.59329" lon="6.05338">
        <ele>1385.2205</ele>
        <time>2021-05-23T12:10:10</time>
      </trkpt>
      <trkpt lat="45.5933" lon="6.05337">
        <ele>1385.2205</ele>
        <time>2021-05-23T12:10:14</time>
      </trkpt>
      <trkpt lat="45.5933" lon="6.05337">
        <ele>1385.2205</ele>
        <time>2021-05-23T12:10:15</time>
      </trkpt>
      <trkpt lat="45.59331" lon="6.05337">
        <ele>1379.7205</ele>
        <time>2021-05-23T12:10:19</time>
      </trkpt>
      <trkpt lat="45.59332" lon="6.05337">
        <ele>1379.7205</ele>
        <time>2021-05-23T12:10:20</time>
      </trkpt>
      <trkpt lat="45.59333" lon="6.05337">
        <ele>1379.7205</ele>
        <time>2021-05-23T12:10:21</time>
      </trkpt>
      <trkpt lat="45.59355" lon="6.05343">
        <ele>1380.2205</ele>
        <time>2021-05-23T12:10:43</time>
      </trkpt>
      <trkpt lat="45.59358" lon="6.05343">
        <ele>1380.2205</ele>
        <time>2021-05-23T12:10:46</time>
      </trkpt>
      <trkpt lat="45.59362" lon="6.05343">
        <ele>1379.2205</ele>
        <time>2021-05-23T12:10:50</time>
      </trkpt>
      <trkpt lat="45.59364" lon="6.05344">
        <ele>1379.2205</ele>
        <time>2021-05-23T12:10:53</time>
      </trkpt>
      <trkpt lat="45.59368" lon="6.05345">
        <ele>1379.2205</ele>
        <time>2021-05-23T12:10:58</time>
      </trkpt>
      <trkpt lat="45.59372" lon="6.05346">
        <ele>1383.1205</ele>
        <time>2021-05-23T12:11:02</time>
      </trkpt>
      <trkpt lat="45.59377" lon="6.05347">
        <ele>1383.5204</ele>
        <time>2021-05-23T12:11:10</time>
      </trkpt>
      <trkpt lat="45.59378" lon="6.05347">
        <ele>1383.5204</ele>
        <time>2021-05-23T12:11:11</time>
      </trkpt>
      <trkpt lat="45.59382" lon="6.05346">
        <ele>1383.5204</ele>
        <time>2021-05-23T12:11:15</time>
      </trkpt>
      <trkpt lat="45.59391" lon="6.05349">
        <ele>1385.2205</ele>
        <time>2021-05-23T12:11:26</time>
      </trkpt>
      <trkpt lat="45.59399" lon="6.0535">
        <ele>1383.6205</ele>
        <time>2021-05-23T12:11:36</time>
      </trkpt>
      <trkpt lat="45.59409" lon="6.05355">
        <ele>1383.4204</ele>
        <time>2021-05-23T12:11:52</time>
      </trkpt>
      <trkpt lat="45.5941" lon="6.05355">
        <ele>1383.4204</ele>
        <time>2021-05-23T12:11:53</time>
      </trkpt>
      <trkpt lat="45.5941" lon="6.05355">
        <ele>1383.4204</ele>
        <time>2021-05-23T12:11:56</time>
      </trkpt>
      <trkpt lat="45.59411" lon="6.05355">
        <ele>1383.4204</ele>
        <time>2021-05-23T12:11:57</time>
      </trkpt>
      <trkpt lat="45.59413" lon="6.05357">
        <ele>1388.1205</ele>
        <time>2021-05-23T12:12:00</time>
      </trkpt>
      <trkpt lat="45.59414" lon="6.05357">
        <ele>1388.1205</ele>
        <time>2021-05-23T12:12:01</time>
      </trkpt>
      <trkpt lat="45.59415" lon="6.05356">
        <ele>1388.1205</ele>
        <time>2021-05-23T12:12:02</time>
      </trkpt>
      <trkpt lat="45.59417" lon="6.05356">
        <ele>1388.1205</ele>
        <time>2021-05-23T12:12:03</time>
      </trkpt>
      <trkpt lat="45.59418" lon="6.05356">
        <ele>1388.1205</ele>
        <time>2021-05-23T12:12:04</time>
      </trkpt>
      <trkpt lat="45.59423" lon="6.05356">
        <ele>1389.9204</ele>
        <time>2021-05-23T12:12:10</time>
      </trkpt>
      <trkpt lat="45.59424" lon="6.05357">
        <ele>1389.9204</ele>
        <time>2021-05-23T12:12:11</time>
      </trkpt>
      <trkpt lat="45.59426" lon="6.05357">
        <ele>1389.9204</ele>
        <time>2021-05-23T12:12:13</time>
      </trkpt>
      <trkpt lat="45.59426" lon="6.05357">
        <ele>1389.9204</ele>
        <time>2021-05-23T12:12:14</time>
      </trkpt>
      <trkpt lat="45.59442" lon="6.05367">
        <ele>1389.7205</ele>
        <time>2021-05-23T12:12:36</time>
      </trkpt>
      <trkpt lat="45.59444" lon="6.05369">
        <ele>1389.7205</ele>
        <time>2021-05-23T12:12:38</time>
      </trkpt>
      <trkpt lat="45.59445" lon="6.05369">
        <ele>1389.8871</ele>
        <time>2021-05-23T12:12:39</time>
      </trkpt>
      <trkpt lat="45.59447" lon="6.0537">
        <ele>1389.8871</ele>
        <time>2021-05-23T12:12:42</time>
      </trkpt>
      <trkpt lat="45.59449" lon="6.0537">
        <ele>1389.8871</ele>
        <time>2021-05-23T12:12:44</time>
      </trkpt>
      <trkpt lat="45.5945" lon="6.05371">
        <ele>1389.8871</ele>
        <time>2021-05-23T12:12:45</time>
      </trkpt>
      <trkpt lat="45.5945" lon="6.05371">
        <ele>1389.8871</ele>
        <time>2021-05-23T12:12:46</time>
      </trkpt>
      <trkpt lat="45.59451" lon="6.05372">
        <ele>1389.8871</ele>
        <time>2021-05-23T12:12:47</time>
      </trkpt>
      <trkpt lat="45.59452" lon="6.05373">
        <ele>1389.8871</ele>
        <time>2021-05-23T12:12:48</time>
      </trkpt>
      <trkpt lat="45.59454" lon="6.05376">
        <ele>1386.9204</ele>
        <time>2021-05-23T12:12:52</time>
      </trkpt>
      <trkpt lat="45.59455" lon="6.05376">
        <ele>1386.9204</ele>
        <time>2021-05-23T12:12:55</time>
      </trkpt>
      <trkpt lat="45.59455" lon="6.05376">
        <ele>1386.9204</ele>
        <time>2021-05-23T12:12:56</time>
      </trkpt>
      <trkpt lat="45.59463" lon="6.05378">
        <ele>1389.4204</ele>
        <time>2021-05-23T12:13:08</time>
      </trkpt>
      <trkpt lat="45.59466" lon="6.0538">
        <ele>1389.4204</ele>
        <time>2021-05-23T12:13:18</time>
      </trkpt>
      <trkpt lat="45.59466" lon="6.0538">
        <ele>1389.4204</ele>
        <time>2021-05-23T12:13:19</time>
      </trkpt>
      <trkpt lat="45.59468" lon="6.05379">
        <ele>1389.4204</ele>
        <time>2021-05-23T12:13:21</time>
      </trkpt>
      <trkpt lat="45.59475" lon="6.05385">
        <ele>1389.4204</ele>
        <time>2021-05-23T12:13:30</time>
      </trkpt>
      <trkpt lat="45.59488" lon="6.05385">
        <ele>1389.4204</ele>
        <time>2021-05-23T12:14:00</time>
      </trkpt>
      <trkpt lat="45.5949" lon="6.05385">
        <ele>1389.4204</ele>
        <time>2021-05-23T12:14:04</time>
      </trkpt>
      <trkpt lat="45.5949" lon="6.05385">
        <ele>1389.4204</ele>
        <time>2021-05-23T12:14:05</time>
      </trkpt>
      <trkpt lat="45.59495" lon="6.05384">
        <ele>1389.4204</ele>
        <time>2021-05-23T12:14:26</time>
      </trkpt>
      <trkpt lat="45.59497" lon="6.05383">
        <ele>1383.4204</ele>
        <time>2021-05-23T12:14:30</time>
      </trkpt>
      <trkpt lat="45.59498" lon="6.05383">
        <ele>1383.4204</ele>
        <time>2021-05-23T12:14:32</time>
      </trkpt>
      <trkpt lat="45.59505" lon="6.05384">
        <ele>1382.8204</ele>
        <time>2021-05-23T12:14:40</time>
      </trkpt>
      <trkpt lat="45.59507" lon="6.05383">
        <ele>1382.8204</ele>
        <time>2021-05-23T12:14:43</time>
      </trkpt>
      <trkpt lat="45.59507" lon="6.05383">
        <ele>1382.8204</ele>
        <time>2021-05-23T12:14:44</time>
      </trkpt>
      <trkpt lat="45.59509" lon="6.05382">
        <ele>1382.8204</ele>
        <time>2021-05-23T12:14:47</time>
      </trkpt>
      <trkpt lat="45.59511" lon="6.05382">
        <ele>1382.5204</ele>
        <time>2021-05-23T12:14:49</time>
      </trkpt>
      <trkpt lat="45.59513" lon="6.05382">
        <ele>1382.5204</ele>
        <time>2021-05-23T12:14:51</time>
      </trkpt>
      <trkpt lat="45.59515" lon="6.05382">
        <ele>1382.5204</ele>
        <time>2021-05-23T12:14:52</time>
      </trkpt>
      <trkpt lat="45.59516" lon="6.05383">
        <ele>1382.5204</ele>
        <time>2021-05-23T12:14:53</time>
      </trkpt>
      <trkpt lat="45.59518" lon="6.05384">
        <ele>1382.5204</ele>
        <time>2021-05-23T12:14:55</time>
      </trkpt>
      <trkpt lat="45.59521" lon="6.05389">
        <ele>1382.5204</ele>
        <time>2021-05-23T12:14:59</time>
      </trkpt>
      <trkpt lat="45.59525" lon="6.05391">
        <ele>1382.5204</ele>
        <time>2021-05-23T12:15:02</time>
      </trkpt>
      <trkpt lat="45.59528" lon="6.05393">
        <ele>1382.5204</ele>
        <time>2021-05-23T12:15:06</time>
      </trkpt>
      <trkpt lat="45.59531" lon="6.05393">
        <ele>1382.5204</ele>
        <time>2021-05-23T12:15:18</time>
      </trkpt>
      <trkpt lat="45.59541" lon="6.05398">
        <ele>1382.5204</ele>
        <time>2021-05-23T12:15:29</time>
      </trkpt>
      <trkpt lat="45.59543" lon="6.05399">
        <ele>1382.5204</ele>
        <time>2021-05-23T12:15:31</time>
      </trkpt>
      <trkpt lat="45.59551" lon="6.05403">
        <ele>1382.5204</ele>
        <time>2021-05-23T12:15:43</time>
      </trkpt>
      <trkpt lat="45.59565" lon="6.05409">
        <ele>1377.8204</ele>
        <time>2021-05-23T12:16:05</time>
      </trkpt>
      <trkpt lat="45.59565" lon="6.05408">
        <ele>1377.8204</ele>
        <time>2021-05-23T12:16:06</time>
      </trkpt>
      <trkpt lat="45.59566" lon="6.05409">
        <ele>1377.8204</ele>
        <time>2021-05-23T12:16:09</time>
      </trkpt>
      <trkpt lat="45.59567" lon="6.05409">
        <ele>1377.8204</ele>
        <time>2021-05-23T12:16:16</time>
      </trkpt>
      <trkpt lat="45.5957" lon="6.05409">
        <ele>1377.8204</ele>
        <time>2021-05-23T12:16:18</time>
      </trkpt>
      <trkpt lat="45.59572" lon="6.05409">
        <ele>1377.8204</ele>
        <time>2021-05-23T12:16:20</time>
      </trkpt>
      <trkpt lat="45.59574" lon="6.0541">
        <ele>1377.8204</ele>
        <time>2021-05-23T12:16:21</time>
      </trkpt>
      <trkpt lat="45.5958" lon="6.05412">
        <ele>1377.8204</ele>
        <time>2021-05-23T12:16:28</time>
      </trkpt>
      <trkpt lat="45.59582" lon="6.05412">
        <ele>1383.7205</ele>
        <time>2021-05-23T12:16:33</time>
      </trkpt>
      <trkpt lat="45.59597" lon="6.0541">
        <ele>1383.7205</ele>
        <time>2021-05-23T12:16:48</time>
      </trkpt>
      <trkpt lat="45.59602" lon="6.05411">
        <ele>1381.0204</ele>
        <time>2021-05-23T12:16:53</time>
      </trkpt>
      <trkpt lat="45.59613" lon="6.0541">
        <ele>1381.0204</ele>
        <time>2021-05-23T12:17:09</time>
      </trkpt>
      <trkpt lat="45.5962" lon="6.05411">
        <ele>1381.0204</ele>
        <time>2021-05-23T12:17:20</time>
      </trkpt>
      <trkpt lat="45.59634" lon="6.05419">
        <ele>1381.7205</ele>
        <time>2021-05-23T12:17:38</time>
      </trkpt>
      <trkpt lat="45.59637" lon="6.0542">
        <ele>1384.0204</ele>
        <time>2021-05-23T12:17:41</time>
      </trkpt>
      <trkpt lat="45.59638" lon="6.05421">
        <ele>1384.0204</ele>
        <time>2021-05-23T12:17:48</time>
      </trkpt>
      <trkpt lat="45.5964" lon="6.05424">
        <ele>1377.987</ele>
        <time>2021-05-23T12:17:53</time>
      </trkpt>
      <trkpt lat="45.59641" lon="6.05424">
        <ele>1377.987</ele>
        <time>2021-05-23T12:17:54</time>
      </trkpt>
      <trkpt lat="45.59643" lon="6.05426">
        <ele>1377.987</ele>
        <time>2021-05-23T12:17:56</time>
      </trkpt>
      <trkpt lat="45.59657" lon="6.05437">
        <ele>1376.1205</ele>
        <time>2021-05-23T12:18:16</time>
      </trkpt>
      <trkpt lat="45.59659" lon="6.05436">
        <ele>1376.1205</ele>
        <time>2021-05-23T12:18:18</time>
      </trkpt>
      <trkpt lat="45.59664" lon="6.05442">
        <ele>1376.1205</ele>
        <time>2021-05-23T12:18:25</time>
      </trkpt>
      <trkpt lat="45.59671" lon="6.05443">
        <ele>1376.1205</ele>
        <time>2021-05-23T12:18:32</time>
      </trkpt>
      <trkpt lat="45.59675" lon="6.05442">
        <ele>1376.1205</ele>
        <time>2021-05-23T12:18:36</time>
      </trkpt>
      <trkpt lat="45.59675" lon="6.05442">
        <ele>1376.1205</ele>
        <time>2021-05-23T12:18:37</time>
      </trkpt>
      <trkpt lat="45.59675" lon="6.05442">
        <ele>1376.1205</ele>
        <time>2021-05-23T12:18:38</time>
      </trkpt>
      <trkpt lat="45.59676" lon="6.05442">
        <ele>1378.5204</ele>
        <time>2021-05-23T12:18:39</time>
      </trkpt>
      <trkpt lat="45.59682" lon="6.05447">
        <ele>1378.5204</ele>
        <time>2021-05-23T12:18:50</time>
      </trkpt>
      <trkpt lat="45.59683" lon="6.05448">
        <ele>1378.5204</ele>
        <time>2021-05-23T12:18:52</time>
      </trkpt>
      <trkpt lat="45.59684" lon="6.05448">
        <ele>1378.5204</ele>
        <time>2021-05-23T12:18:53</time>
      </trkpt>
      <trkpt lat="45.59684" lon="6.05449">
        <ele>1378.5204</ele>
        <time>2021-05-23T12:18:54</time>
      </trkpt>
      <trkpt lat="45.59686" lon="6.05451">
        <ele>1378.5204</ele>
        <time>2021-05-23T12:18:57</time>
      </trkpt>
      <trkpt lat="45.59689" lon="6.05454">
        <ele>1380.4204</ele>
        <time>2021-05-23T12:19:00</time>
      </trkpt>
      <trkpt lat="45.59695" lon="6.05457">
        <ele>1380.4204</ele>
        <time>2021-05-23T12:19:08</time>
      </trkpt>
      <trkpt lat="45.59695" lon="6.05458">
        <ele>1380.4204</ele>
        <time>2021-05-23T12:19:09</time>
      </trkpt>
      <trkpt lat="45.59696" lon="6.05458">
        <ele>1380.4204</ele>
        <time>2021-05-23T12:19:11</time>
      </trkpt>
      <trkpt lat="45.59698" lon="6.0546">
        <ele>1379.0204</ele>
        <time>2021-05-23T12:19:21</time>
      </trkpt>
      <trkpt lat="45.59699" lon="6.05461">
        <ele>1379.0204</ele>
        <time>2021-05-23T12:19:22</time>
      </trkpt>
      <trkpt lat="45.597" lon="6.05463">
        <ele>1379.0204</ele>
        <time>2021-05-23T12:19:24</time>
      </trkpt>
      <trkpt lat="45.59703" lon="6.05464">
        <ele>1379.0204</ele>
        <time>2021-05-23T12:19:28</time>
      </trkpt>
      <trkpt lat="45.59705" lon="6.05463">
        <ele>1380.5204</ele>
        <time>2021-05-23T12:19:42</time>
      </trkpt>
      <trkpt lat="45.59705" lon="6.05471">
        <ele>1378.8204</ele>
        <time>2021-05-23T12:19:52</time>
      </trkpt>
      <trkpt lat="45.59706" lon="6.05475">
        <ele>1381.0204</ele>
        <time>2021-05-23T12:20:20</time>
      </trkpt>
      <trkpt lat="45.59706" lon="6.05475">
        <ele>1381.0204</ele>
        <time>2021-05-23T12:20:21</time>
      </trkpt>
      <trkpt lat="45.59706" lon="6.05477">
        <ele>1380.7205</ele>
        <time>2021-05-23T12:20:34</time>
      </trkpt>
      <trkpt lat="45.59707" lon="6.05477">
        <ele>1380.7205</ele>
        <time>2021-05-23T12:20:35</time>
      </trkpt>
      <trkpt lat="45.59707" lon="6.05478">
        <ele>1374.2205</ele>
        <time>2021-05-23T12:21:24</time>
      </trkpt>
      <trkpt lat="45.59707" lon="6.05478">
        <ele>1374.9204</ele>
        <time>2021-05-23T12:21:55</time>
      </trkpt>
      <trkpt lat="45.59707" lon="6.05478">
        <ele>1374.9204</ele>
        <time>2021-05-23T12:22:25</time>
      </trkpt>
      <trkpt lat="45.59707" lon="6.05478">
        <ele>1374.9204</ele>
        <time>2021-05-23T12:22:55</time>
      </trkpt>
      <trkpt lat="45.59708" lon="6.05479">
        <ele>1374.9204</ele>
        <time>2021-05-23T12:23:20</time>
      </trkpt>
      <trkpt lat="45.59708" lon="6.05479">
        <ele>1374.9204</ele>
        <time>2021-05-23T12:23:21</time>
      </trkpt>
      <trkpt lat="45.59707" lon="6.05479">
        <ele>1374.9204</ele>
        <time>2021-05-23T12:23:22</time>
      </trkpt>
      <trkpt lat="45.59708" lon="6.0548">
        <ele>1374.9204</ele>
        <time>2021-05-23T12:23:55</time>
      </trkpt>
      <trkpt lat="45.59708" lon="6.0548">
        <ele>1374.9204</ele>
        <time>2021-05-23T12:24:26</time>
      </trkpt>
      <trkpt lat="45.59708" lon="6.0548">
        <ele>1375.5204</ele>
        <time>2021-05-23T12:24:56</time>
      </trkpt>
      <trkpt lat="45.59707" lon="6.0548">
        <ele>1375.5204</ele>
        <time>2021-05-23T12:24:59</time>
      </trkpt>
      <trkpt lat="45.59707" lon="6.0548">
        <ele>1375.5204</ele>
        <time>2021-05-23T12:25:00</time>
      </trkpt>
      <trkpt lat="45.59707" lon="6.05479">
        <ele>1373.9204</ele>
        <time>2021-05-23T12:25:22</time>
      </trkpt>
      <trkpt lat="45.59708" lon="6.05478">
        <ele>1373.9204</ele>
        <time>2021-05-23T12:25:23</time>
      </trkpt>
      <trkpt lat="45.59708" lon="6.05478">
        <ele>1373.9204</ele>
        <time>2021-05-23T12:25:24</time>
      </trkpt>
      <trkpt lat="45.5971" lon="6.05477">
        <ele>1374.0204</ele>
        <time>2021-05-23T12:25:37</time>
      </trkpt>
      <trkpt lat="45.59712" lon="6.05475">
        <ele>1374.0204</ele>
        <time>2021-05-23T12:25:39</time>
      </trkpt>
      <trkpt lat="45.59714" lon="6.05474">
        <ele>1374.0204</ele>
        <time>2021-05-23T12:25:40</time>
      </trkpt>
      <trkpt lat="45.59719" lon="6.05471">
        <ele>1375.0204</ele>
        <time>2021-05-23T12:25:44</time>
      </trkpt>
      <trkpt lat="45.59723" lon="6.05471">
        <ele>1375.0204</ele>
        <time>2021-05-23T12:25:58</time>
      </trkpt>
      <trkpt lat="45.59724" lon="6.0547">
        <ele>1375.0204</ele>
        <time>2021-05-23T12:25:59</time>
      </trkpt>
      <trkpt lat="45.59725" lon="6.05468">
        <ele>1375.7205</ele>
        <time>2021-05-23T12:26:11</time>
      </trkpt>
      <trkpt lat="45.59726" lon="6.05468">
        <ele>1378.1205</ele>
        <time>2021-05-23T12:26:12</time>
      </trkpt>
      <trkpt lat="45.59728" lon="6.05471">
        <ele>1378.1205</ele>
        <time>2021-05-23T12:26:19</time>
      </trkpt>
      <trkpt lat="45.59728" lon="6.0547">
        <ele>1378.1205</ele>
        <time>2021-05-23T12:26:20</time>
      </trkpt>
      <trkpt lat="45.5973" lon="6.0547">
        <ele>1378.1205</ele>
        <time>2021-05-23T12:26:22</time>
      </trkpt>
      <trkpt lat="45.59734" lon="6.05471">
        <ele>1378.1205</ele>
        <time>2021-05-23T12:26:26</time>
      </trkpt>
      <trkpt lat="45.59736" lon="6.05469">
        <ele>1378.1205</ele>
        <time>2021-05-23T12:26:28</time>
      </trkpt>
      <trkpt lat="45.59738" lon="6.05469">
        <ele>1378.1205</ele>
        <time>2021-05-23T12:26:30</time>
      </trkpt>
      <trkpt lat="45.59739" lon="6.05468">
        <ele>1378.1205</ele>
        <time>2021-05-23T12:26:31</time>
      </trkpt>
      <trkpt lat="45.5974" lon="6.05469">
        <ele>1378.1205</ele>
        <time>2021-05-23T12:26:32</time>
      </trkpt>
      <trkpt lat="45.59742" lon="6.05469">
        <ele>1378.1205</ele>
        <time>2021-05-23T12:26:33</time>
      </trkpt>
      <trkpt lat="45.59744" lon="6.05472">
        <ele>1378.1205</ele>
        <time>2021-05-23T12:26:37</time>
      </trkpt>
      <trkpt lat="45.59746" lon="6.05473">
        <ele>1378.1205</ele>
        <time>2021-05-23T12:26:39</time>
      </trkpt>
      <trkpt lat="45.59748" lon="6.05473">
        <ele>1378.1205</ele>
        <time>2021-05-23T12:26:42</time>
      </trkpt>
      <trkpt lat="45.5975" lon="6.05473">
        <ele>1378.1205</ele>
        <time>2021-05-23T12:26:44</time>
      </trkpt>
      <trkpt lat="45.59751" lon="6.05472">
        <ele>1378.1205</ele>
        <time>2021-05-23T12:26:45</time>
      </trkpt>
      <trkpt lat="45.59752" lon="6.05472">
        <ele>1378.1205</ele>
        <time>2021-05-23T12:26:47</time>
      </trkpt>
      <trkpt lat="45.59752" lon="6.05472">
        <ele>1378.1205</ele>
        <time>2021-05-23T12:26:48</time>
      </trkpt>
      <trkpt lat="45.59753" lon="6.05472">
        <ele>1382.4204</ele>
        <time>2021-05-23T12:26:52</time>
      </trkpt>
      <trkpt lat="45.59754" lon="6.05472">
        <ele>1382.4204</ele>
        <time>2021-05-23T12:26:53</time>
      </trkpt>
      <trkpt lat="45.59755" lon="6.05473">
        <ele>1382.4204</ele>
        <time>2021-05-23T12:26:54</time>
      </trkpt>
      <trkpt lat="45.59761" lon="6.05476">
        <ele>1381.987</ele>
        <time>2021-05-23T12:27:03</time>
      </trkpt>
      <trkpt lat="45.59762" lon="6.05476">
        <ele>1381.987</ele>
        <time>2021-05-23T12:27:04</time>
      </trkpt>
      <trkpt lat="45.59768" lon="6.05478">
        <ele>1381.6205</ele>
        <time>2021-05-23T12:27:13</time>
      </trkpt>
      <trkpt lat="45.59769" lon="6.05477">
        <ele>1381.6205</ele>
        <time>2021-05-23T12:27:15</time>
      </trkpt>
      <trkpt lat="45.5977" lon="6.05477">
        <ele>1381.6205</ele>
        <time>2021-05-23T12:27:20</time>
      </trkpt>
      <trkpt lat="45.59773" lon="6.05477">
        <ele>1381.6205</ele>
        <time>2021-05-23T12:27:23</time>
      </trkpt>
      <trkpt lat="45.59776" lon="6.05475">
        <ele>1381.6205</ele>
        <time>2021-05-23T12:27:25</time>
      </trkpt>
      <trkpt lat="45.59777" lon="6.05474">
        <ele>1381.6205</ele>
        <time>2021-05-23T12:27:26</time>
      </trkpt>
      <trkpt lat="45.5978" lon="6.05475">
        <ele>1381.6205</ele>
        <time>2021-05-23T12:27:29</time>
      </trkpt>
      <trkpt lat="45.59781" lon="6.05475">
        <ele>1381.6205</ele>
        <time>2021-05-23T12:27:30</time>
      </trkpt>
      <trkpt lat="45.59783" lon="6.05475">
        <ele>1381.9204</ele>
        <time>2021-05-23T12:27:33</time>
      </trkpt>
      <trkpt lat="45.59785" lon="6.05475">
        <ele>1381.9204</ele>
        <time>2021-05-23T12:27:38</time>
      </trkpt>
      <trkpt lat="45.59786" lon="6.05476">
        <ele>1381.9204</ele>
        <time>2021-05-23T12:27:39</time>
      </trkpt>
      <trkpt lat="45.59787" lon="6.05476">
        <ele>1381.9204</ele>
        <time>2021-05-23T12:27:40</time>
      </trkpt>
      <trkpt lat="45.5979" lon="6.05477">
        <ele>1381.9204</ele>
        <time>2021-05-23T12:27:43</time>
      </trkpt>
      <trkpt lat="45.59792" lon="6.05478">
        <ele>1381.9204</ele>
        <time>2021-05-23T12:27:45</time>
      </trkpt>
      <trkpt lat="45.59793" lon="6.05479">
        <ele>1381.9204</ele>
        <time>2021-05-23T12:27:46</time>
      </trkpt>
      <trkpt lat="45.59794" lon="6.05479">
        <ele>1381.9204</ele>
        <time>2021-05-23T12:27:47</time>
      </trkpt>
      <trkpt lat="45.59795" lon="6.05478">
        <ele>1381.9204</ele>
        <time>2021-05-23T12:27:48</time>
      </trkpt>
      <trkpt lat="45.59795" lon="6.05478">
        <ele>1381.9204</ele>
        <time>2021-05-23T12:27:49</time>
      </trkpt>
      <trkpt lat="45.59796" lon="6.05478">
        <ele>1381.9204</ele>
        <time>2021-05-23T12:27:50</time>
      </trkpt>
      <trkpt lat="45.59802" lon="6.05487">
        <ele>1381.9204</ele>
        <time>2021-05-23T12:28:04</time>
      </trkpt>
      <trkpt lat="45.59804" lon="6.0549">
        <ele>1381.9204</ele>
        <time>2021-05-23T12:28:14</time>
      </trkpt>
      <trkpt lat="45.59805" lon="6.05493">
        <ele>1381.9204</ele>
        <time>2021-05-23T12:28:17</time>
      </trkpt>
      <trkpt lat="45.59807" lon="6.05495">
        <ele>1381.9204</ele>
        <time>2021-05-23T12:28:21</time>
      </trkpt>
      <trkpt lat="45.59808" lon="6.05496">
        <ele>1381.9204</ele>
        <time>2021-05-23T12:28:22</time>
      </trkpt>
      <trkpt lat="45.59809" lon="6.05497">
        <ele>1381.9204</ele>
        <time>2021-05-23T12:28:24</time>
      </trkpt>
      <trkpt lat="45.5981" lon="6.05498">
        <ele>1381.9204</ele>
        <time>2021-05-23T12:28:25</time>
      </trkpt>
      <trkpt lat="45.5981" lon="6.05498">
        <ele>1381.9204</ele>
        <time>2021-05-23T12:28:26</time>
      </trkpt>
      <trkpt lat="45.59811" lon="6.05498">
        <ele>1381.9204</ele>
        <time>2021-05-23T12:28:27</time>
      </trkpt>
      <trkpt lat="45.59812" lon="6.05498">
        <ele>1381.9204</ele>
        <time>2021-05-23T12:28:28</time>
      </trkpt>
      <trkpt lat="45.59815" lon="6.05497">
        <ele>1381.9204</ele>
        <time>2021-05-23T12:28:31</time>
      </trkpt>
      <trkpt lat="45.59817" lon="6.05495">
        <ele>1381.9204</ele>
        <time>2021-05-23T12:28:48</time>
      </trkpt>
      <trkpt lat="45.59817" lon="6.05496">
        <ele>1381.9204</ele>
        <time>2021-05-23T12:28:49</time>
      </trkpt>
      <trkpt lat="45.59819" lon="6.05498">
        <ele>1376.7205</ele>
        <time>2021-05-23T12:29:19</time>
      </trkpt>
      <trkpt lat="45.59818" lon="6.05499">
        <ele>1378.8204</ele>
        <time>2021-05-23T12:29:25</time>
      </trkpt>
      <trkpt lat="45.59812" lon="6.05505">
        <ele>1378.8204</ele>
        <time>2021-05-23T12:29:36</time>
      </trkpt>
      <trkpt lat="45.59812" lon="6.05506">
        <ele>1378.8204</ele>
        <time>2021-05-23T12:29:38</time>
      </trkpt>
      <trkpt lat="45.59812" lon="6.05508">
        <ele>1378.8204</ele>
        <time>2021-05-23T12:29:40</time>
      </trkpt>
      <trkpt lat="45.59811" lon="6.05508">
        <ele>1378.8204</ele>
        <time>2021-05-23T12:29:47</time>
      </trkpt>
      <trkpt lat="45.59811" lon="6.05507">
        <ele>1378.8204</ele>
        <time>2021-05-23T12:29:48</time>
      </trkpt>
      <trkpt lat="45.5981" lon="6.05507">
        <ele>1378.8204</ele>
        <time>2021-05-23T12:29:56</time>
      </trkpt>
      <trkpt lat="45.59809" lon="6.05507">
        <ele>1378.8204</ele>
        <time>2021-05-23T12:29:57</time>
      </trkpt>
      <trkpt lat="45.59808" lon="6.05511">
        <ele>1376.5204</ele>
        <time>2021-05-23T12:30:27</time>
      </trkpt>
      <trkpt lat="45.59808" lon="6.0551">
        <ele>1376.5204</ele>
        <time>2021-05-23T12:30:35</time>
      </trkpt>
      <trkpt lat="45.59808" lon="6.05508">
        <ele>1376.5204</ele>
        <time>2021-05-23T12:30:36</time>
      </trkpt>
      <trkpt lat="45.59808" lon="6.05507">
        <ele>1376.5204</ele>
        <time>2021-05-23T12:30:41</time>
      </trkpt>
      <trkpt lat="45.59807" lon="6.05506">
        <ele>1376.4204</ele>
        <time>2021-05-23T12:30:42</time>
      </trkpt>
      <trkpt lat="45.59806" lon="6.05506">
        <ele>1376.4204</ele>
        <time>2021-05-23T12:30:43</time>
      </trkpt>
      <trkpt lat="45.59805" lon="6.05505">
        <ele>1376.4204</ele>
        <time>2021-05-23T12:30:44</time>
      </trkpt>
      <trkpt lat="45.59805" lon="6.05505">
        <ele>1376.4204</ele>
        <time>2021-05-23T12:30:45</time>
      </trkpt>
      <trkpt lat="45.59804" lon="6.05504">
        <ele>1376.4204</ele>
        <time>2021-05-23T12:30:46</time>
      </trkpt>
      <trkpt lat="45.59803" lon="6.05502">
        <ele>1376.4204</ele>
        <time>2021-05-23T12:30:47</time>
      </trkpt>
      <trkpt lat="45.59801" lon="6.05501">
        <ele>1376.0204</ele>
        <time>2021-05-23T12:31:17</time>
      </trkpt>
      <trkpt lat="45.59801" lon="6.05501">
        <ele>1376.0204</ele>
        <time>2021-05-23T12:31:47</time>
      </trkpt>
      <trkpt lat="45.598" lon="6.05501">
        <ele>1376.0204</ele>
        <time>2021-05-23T12:31:55</time>
      </trkpt>
      <trkpt lat="45.59799" lon="6.05501">
        <ele>1376.0204</ele>
        <time>2021-05-23T12:31:56</time>
      </trkpt>
      <trkpt lat="45.59795" lon="6.05499">
        <ele>1376.0204</ele>
        <time>2021-05-23T12:32:09</time>
      </trkpt>
      <trkpt lat="45.59795" lon="6.05499">
        <ele>1376.0204</ele>
        <time>2021-05-23T12:32:10</time>
      </trkpt>
      <trkpt lat="45.59794" lon="6.05499">
        <ele>1376.0204</ele>
        <time>2021-05-23T12:32:12</time>
      </trkpt>
      <trkpt lat="45.59793" lon="6.05498">
        <ele>1376.0204</ele>
        <time>2021-05-23T12:32:13</time>
      </trkpt>
      <trkpt lat="45.59793" lon="6.05498">
        <ele>1376.0204</ele>
        <time>2021-05-23T12:32:17</time>
      </trkpt>
      <trkpt lat="45.59792" lon="6.05499">
        <ele>1376.0204</ele>
        <time>2021-05-23T12:32:18</time>
      </trkpt>
      <trkpt lat="45.59792" lon="6.055">
        <ele>1376.0204</ele>
        <time>2021-05-23T12:32:19</time>
      </trkpt>
      <trkpt lat="45.59791" lon="6.055">
        <ele>1376.0204</ele>
        <time>2021-05-23T12:32:20</time>
      </trkpt>
      <trkpt lat="45.59789" lon="6.05499">
        <ele>1373.6205</ele>
        <time>2021-05-23T12:32:47</time>
      </trkpt>
      <trkpt lat="45.59787" lon="6.05499">
        <ele>1373.6205</ele>
        <time>2021-05-23T12:32:48</time>
      </trkpt>
      <trkpt lat="45.59786" lon="6.05499">
        <ele>1373.6205</ele>
        <time>2021-05-23T12:32:50</time>
      </trkpt>
      <trkpt lat="45.59785" lon="6.05499">
        <ele>1373.6205</ele>
        <time>2021-05-23T12:32:51</time>
      </trkpt>
      <trkpt lat="45.59784" lon="6.05499">
        <ele>1373.0872</ele>
        <time>2021-05-23T12:32:53</time>
      </trkpt>
      <trkpt lat="45.59782" lon="6.05499">
        <ele>1373.0872</ele>
        <time>2021-05-23T12:32:58</time>
      </trkpt>
      <trkpt lat="45.59782" lon="6.05499">
        <ele>1373.0872</ele>
        <time>2021-05-23T12:32:59</time>
      </trkpt>
      <trkpt lat="45.59783" lon="6.05498">
        <ele>1373.0872</ele>
        <time>2021-05-23T12:33:00</time>
      </trkpt>
      <trkpt lat="45.59782" lon="6.05498">
        <ele>1373.0872</ele>
        <time>2021-05-23T12:33:01</time>
      </trkpt>
      <trkpt lat="45.59779" lon="6.05495">
        <ele>1377.2871</ele>
        <time>2021-05-23T12:33:31</time>
      </trkpt>
      <trkpt lat="45.59779" lon="6.05493">
        <ele>1377.1205</ele>
        <time>2021-05-23T12:33:32</time>
      </trkpt>
      <trkpt lat="45.59778" lon="6.05492">
        <ele>1377.1205</ele>
        <time>2021-05-23T12:33:33</time>
      </trkpt>
      <trkpt lat="45.59778" lon="6.05491">
        <ele>1377.1205</ele>
        <time>2021-05-23T12:33:34</time>
      </trkpt>
      <trkpt lat="45.59778" lon="6.05493">
        <ele>1376.3204</ele>
        <time>2021-05-23T12:33:46</time>
      </trkpt>
      <trkpt lat="45.59777" lon="6.05493">
        <ele>1376.3204</ele>
        <time>2021-05-23T12:33:47</time>
      </trkpt>
      <trkpt lat="45.59776" lon="6.05496">
        <ele>1376.4204</ele>
        <time>2021-05-23T12:39:56</time>
      </trkpt>
      <trkpt lat="45.59776" lon="6.05496">
        <ele>1376.4204</ele>
        <time>2021-05-23T12:40:26</time>
      </trkpt>
      <trkpt lat="45.59775" lon="6.05496">
        <ele>1376.4204</ele>
        <time>2021-05-23T12:40:32</time>
      </trkpt>
      <trkpt lat="45.59775" lon="6.05496">
        <ele>1376.4204</ele>
        <time>2021-05-23T12:40:33</time>
      </trkpt>
      <trkpt lat="45.59773" lon="6.05493">
        <ele>1376.4204</ele>
        <time>2021-05-23T12:40:43</time>
      </trkpt>
      <trkpt lat="45.59773" lon="6.05492">
        <ele>1376.4204</ele>
        <time>2021-05-23T12:40:44</time>
      </trkpt>
      <trkpt lat="45.59772" lon="6.05491">
        <ele>1376.4204</ele>
        <time>2021-05-23T12:40:51</time>
      </trkpt>
      <trkpt lat="45.5977" lon="6.05489">
        <ele>1376.4204</ele>
        <time>2021-05-23T12:40:56</time>
      </trkpt>
      <trkpt lat="45.5977" lon="6.05489">
        <ele>1376.4204</ele>
        <time>2021-05-23T12:40:57</time>
      </trkpt>
      <trkpt lat="45.5977" lon="6.05489">
        <ele>1376.4204</ele>
        <time>2021-05-23T12:40:58</time>
      </trkpt>
      <trkpt lat="45.59769" lon="6.05487">
        <ele>1375.6205</ele>
        <time>2021-05-23T12:41:15</time>
      </trkpt>
      <trkpt lat="45.59769" lon="6.05487">
        <ele>1375.6205</ele>
        <time>2021-05-23T12:41:16</time>
      </trkpt>
      <trkpt lat="45.59769" lon="6.05486">
        <ele>1375.6205</ele>
        <time>2021-05-23T12:41:19</time>
      </trkpt>
      <trkpt lat="45.59769" lon="6.05486">
        <ele>1375.6205</ele>
        <time>2021-05-23T12:41:20</time>
      </trkpt>
      <trkpt lat="45.59772" lon="6.05484">
        <ele>1375.1205</ele>
        <time>2021-05-23T12:41:24</time>
      </trkpt>
      <trkpt lat="45.59772" lon="6.05483">
        <ele>1375.1205</ele>
        <time>2021-05-23T12:41:26</time>
      </trkpt>
      <trkpt lat="45.59772" lon="6.05483">
        <ele>1375.1205</ele>
        <time>2021-05-23T12:41:27</time>
      </trkpt>
      <trkpt lat="45.59774" lon="6.05479">
        <ele>1375.1205</ele>
        <time>2021-05-23T12:41:31</time>
      </trkpt>
      <trkpt lat="45.59775" lon="6.05477">
        <ele>1377.9204</ele>
        <time>2021-05-23T12:41:36</time>
      </trkpt>
      <trkpt lat="45.59775" lon="6.05476">
        <ele>1378.4204</ele>
        <time>2021-05-23T12:41:48</time>
      </trkpt>
      <trkpt lat="45.59775" lon="6.05476">
        <ele>1378.4204</ele>
        <time>2021-05-23T12:41:51</time>
      </trkpt>
      <trkpt lat="45.59774" lon="6.05476">
        <ele>1378.4204</ele>
        <time>2021-05-23T12:41:52</time>
      </trkpt>
      <trkpt lat="45.59774" lon="6.05476">
        <ele>1378.4204</ele>
        <time>2021-05-23T12:41:53</time>
      </trkpt>
      <trkpt lat="45.59774" lon="6.05472">
        <ele>1378.4204</ele>
        <time>2021-05-23T12:41:56</time>
      </trkpt>
      <trkpt lat="45.59774" lon="6.05471">
        <ele>1378.4204</ele>
        <time>2021-05-23T12:41:57</time>
      </trkpt>
      <trkpt lat="45.59777" lon="6.0547">
        <ele>1377.4204</ele>
        <time>2021-05-23T12:42:02</time>
      </trkpt>
      <trkpt lat="45.59778" lon="6.0547">
        <ele>1377.4204</ele>
        <time>2021-05-23T12:42:06</time>
      </trkpt>
      <trkpt lat="45.59778" lon="6.0547">
        <ele>1377.4204</ele>
        <time>2021-05-23T12:42:07</time>
      </trkpt>
      <trkpt lat="45.59779" lon="6.05471">
        <ele>1377.4204</ele>
        <time>2021-05-23T12:42:11</time>
      </trkpt>
      <trkpt lat="45.5978" lon="6.05472">
        <ele>1376.3204</ele>
        <time>2021-05-23T12:42:12</time>
      </trkpt>
      <trkpt lat="45.59786" lon="6.05471">
        <ele>1380.3204</ele>
        <time>2021-05-23T12:42:22</time>
      </trkpt>
      <trkpt lat="45.59786" lon="6.05472">
        <ele>1380.3204</ele>
        <time>2021-05-23T12:42:25</time>
      </trkpt>
      <trkpt lat="45.59788" lon="6.05474">
        <ele>1380.3204</ele>
        <time>2021-05-23T12:42:27</time>
      </trkpt>
      <trkpt lat="45.59792" lon="6.05474">
        <ele>1378.7205</ele>
        <time>2021-05-23T12:42:32</time>
      </trkpt>
      <trkpt lat="45.59793" lon="6.05474">
        <ele>1378.7205</ele>
        <time>2021-05-23T12:42:34</time>
      </trkpt>
      <trkpt lat="45.59794" lon="6.05474">
        <ele>1378.7205</ele>
        <time>2021-05-23T12:42:35</time>
      </trkpt>
      <trkpt lat="45.59795" lon="6.05475">
        <ele>1378.7205</ele>
        <time>2021-05-23T12:42:38</time>
      </trkpt>
      <trkpt lat="45.59795" lon="6.05475">
        <ele>1378.7205</ele>
        <time>2021-05-23T12:42:39</time>
      </trkpt>
      <trkpt lat="45.59796" lon="6.05476">
        <ele>1382.9204</ele>
        <time>2021-05-23T12:42:42</time>
      </trkpt>
      <trkpt lat="45.59797" lon="6.05477">
        <ele>1382.9204</ele>
        <time>2021-05-23T12:42:44</time>
      </trkpt>
      <trkpt lat="45.59803" lon="6.05481">
        <ele>1382.9204</ele>
        <time>2021-05-23T12:42:50</time>
      </trkpt>
      <trkpt lat="45.59804" lon="6.05482">
        <ele>1384.3204</ele>
        <time>2021-05-23T12:42:52</time>
      </trkpt>
      <trkpt lat="45.59804" lon="6.05482">
        <ele>1384.3204</ele>
        <time>2021-05-23T12:42:54</time>
      </trkpt>
      <trkpt lat="45.59804" lon="6.05482">
        <ele>1384.3204</ele>
        <time>2021-05-23T12:42:55</time>
      </trkpt>
      <trkpt lat="45.59805" lon="6.05482">
        <ele>1384.3204</ele>
        <time>2021-05-23T12:42:56</time>
      </trkpt>
      <trkpt lat="45.59806" lon="6.05482">
        <ele>1384.3204</ele>
        <time>2021-05-23T12:42:58</time>
      </trkpt>
      <trkpt lat="45.59811" lon="6.05482">
        <ele>1381.4204</ele>
        <time>2021-05-23T12:43:04</time>
      </trkpt>
      <trkpt lat="45.59811" lon="6.05482">
        <ele>1381.4204</ele>
        <time>2021-05-23T12:43:06</time>
      </trkpt>
      <trkpt lat="45.59813" lon="6.05482">
        <ele>1381.4204</ele>
        <time>2021-05-23T12:43:08</time>
      </trkpt>
      <trkpt lat="45.59816" lon="6.05484">
        <ele>1380.5204</ele>
        <time>2021-05-23T12:43:12</time>
      </trkpt>
      <trkpt lat="45.59816" lon="6.05484">
        <ele>1380.5204</ele>
        <time>2021-05-23T12:43:13</time>
      </trkpt>
      <trkpt lat="45.59818" lon="6.05485">
        <ele>1380.5204</ele>
        <time>2021-05-23T12:43:16</time>
      </trkpt>
      <trkpt lat="45.59819" lon="6.05486">
        <ele>1380.5204</ele>
        <time>2021-05-23T12:43:19</time>
      </trkpt>
      <trkpt lat="45.5982" lon="6.05486">
        <ele>1380.5204</ele>
        <time>2021-05-23T12:43:20</time>
      </trkpt>
      <trkpt lat="45.59823" lon="6.05487">
        <ele>1380.8204</ele>
        <time>2021-05-23T12:43:24</time>
      </trkpt>
      <trkpt lat="45.59835" lon="6.05486">
        <ele>1383.6205</ele>
        <time>2021-05-23T12:43:54</time>
      </trkpt>
      <trkpt lat="45.59836" lon="6.05486">
        <ele>1383.6205</ele>
        <time>2021-05-23T12:43:56</time>
      </trkpt>
      <trkpt lat="45.59837" lon="6.05486">
        <ele>1383.6205</ele>
        <time>2021-05-23T12:43:57</time>
      </trkpt>
      <trkpt lat="45.5984" lon="6.05485">
        <ele>1383.6205</ele>
        <time>2021-05-23T12:44:00</time>
      </trkpt>
      <trkpt lat="45.59846" lon="6.05488">
        <ele>1384.6205</ele>
        <time>2021-05-23T12:44:18</time>
      </trkpt>
      <trkpt lat="45.59848" lon="6.05489">
        <ele>1384.6205</ele>
        <time>2021-05-23T12:44:19</time>
      </trkpt>
      <trkpt lat="45.5985" lon="6.0549">
        <ele>1384.6205</ele>
        <time>2021-05-23T12:44:21</time>
      </trkpt>
      <trkpt lat="45.59855" lon="6.05492">
        <ele>1377.7205</ele>
        <time>2021-05-23T12:44:28</time>
      </trkpt>
      <trkpt lat="45.59856" lon="6.05493">
        <ele>1377.7205</ele>
        <time>2021-05-23T12:44:31</time>
      </trkpt>
      <trkpt lat="45.59857" lon="6.05494">
        <ele>1383.3204</ele>
        <time>2021-05-23T12:44:33</time>
      </trkpt>
      <trkpt lat="45.59859" lon="6.05496">
        <ele>1383.3204</ele>
        <time>2021-05-23T12:44:37</time>
      </trkpt>
      <trkpt lat="45.5986" lon="6.05497">
        <ele>1383.3204</ele>
        <time>2021-05-23T12:44:40</time>
      </trkpt>
      <trkpt lat="45.5986" lon="6.05497">
        <ele>1383.3204</ele>
        <time>2021-05-23T12:44:41</time>
      </trkpt>
      <trkpt lat="45.59861" lon="6.05498">
        <ele>1381.3204</ele>
        <time>2021-05-23T12:44:43</time>
      </trkpt>
      <trkpt lat="45.59862" lon="6.05498">
        <ele>1381.3204</ele>
        <time>2021-05-23T12:44:45</time>
      </trkpt>
      <trkpt lat="45.59863" lon="6.05499">
        <ele>1381.3204</ele>
        <time>2021-05-23T12:44:47</time>
      </trkpt>
      <trkpt lat="45.59866" lon="6.05499">
        <ele>1381.3204</ele>
        <time>2021-05-23T12:44:51</time>
      </trkpt>
      <trkpt lat="45.59868" lon="6.055">
        <ele>1384.2205</ele>
        <time>2021-05-23T12:44:53</time>
      </trkpt>
      <trkpt lat="45.59871" lon="6.05499">
        <ele>1384.2205</ele>
        <time>2021-05-23T12:44:56</time>
      </trkpt>
      <trkpt lat="45.5988" lon="6.05499">
        <ele>1382.6205</ele>
        <time>2021-05-23T12:45:08</time>
      </trkpt>
      <trkpt lat="45.59883" lon="6.05499">
        <ele>1380.3204</ele>
        <time>2021-05-23T12:45:12</time>
      </trkpt>
      <trkpt lat="45.59884" lon="6.05498">
        <ele>1380.3204</ele>
        <time>2021-05-23T12:45:14</time>
      </trkpt>
      <trkpt lat="45.59885" lon="6.05498">
        <ele>1380.3204</ele>
        <time>2021-05-23T12:45:16</time>
      </trkpt>
      <trkpt lat="45.59885" lon="6.05498">
        <ele>1380.3204</ele>
        <time>2021-05-23T12:45:17</time>
      </trkpt>
      <trkpt lat="45.59887" lon="6.05498">
        <ele>1380.3204</ele>
        <time>2021-05-23T12:45:19</time>
      </trkpt>
      <trkpt lat="45.59888" lon="6.05498">
        <ele>1380.3204</ele>
        <time>2021-05-23T12:45:21</time>
      </trkpt>
      <trkpt lat="45.59889" lon="6.05498">
        <ele>1382.6205</ele>
        <time>2021-05-23T12:45:22</time>
      </trkpt>
      <trkpt lat="45.5989" lon="6.05498">
        <ele>1382.6205</ele>
        <time>2021-05-23T12:45:25</time>
      </trkpt>
      <trkpt lat="45.59892" lon="6.05498">
        <ele>1382.6205</ele>
        <time>2021-05-23T12:45:27</time>
      </trkpt>
      <trkpt lat="45.59894" lon="6.055">
        <ele>1382.6205</ele>
        <time>2021-05-23T12:45:30</time>
      </trkpt>
      <trkpt lat="45.59897" lon="6.05503">
        <ele>1377.1205</ele>
        <time>2021-05-23T12:45:36</time>
      </trkpt>
      <trkpt lat="45.59897" lon="6.05503">
        <ele>1377.1205</ele>
        <time>2021-05-23T12:45:37</time>
      </trkpt>
      <trkpt lat="45.59898" lon="6.05504">
        <ele>1377.1205</ele>
        <time>2021-05-23T12:45:41</time>
      </trkpt>
      <trkpt lat="45.59899" lon="6.05504">
        <ele>1380.2205</ele>
        <time>2021-05-23T12:45:42</time>
      </trkpt>
      <trkpt lat="45.59899" lon="6.05504">
        <ele>1380.2205</ele>
        <time>2021-05-23T12:45:43</time>
      </trkpt>
      <trkpt lat="45.5991" lon="6.05508">
        <ele>1380.8204</ele>
        <time>2021-05-23T12:45:55</time>
      </trkpt>
      <trkpt lat="45.5991" lon="6.05509">
        <ele>1380.8204</ele>
        <time>2021-05-23T12:45:56</time>
      </trkpt>
      <trkpt lat="45.59921" lon="6.05513">
        <ele>1379.4204</ele>
        <time>2021-05-23T12:46:13</time>
      </trkpt>
      <trkpt lat="45.59921" lon="6.05514">
        <ele>1379.4204</ele>
        <time>2021-05-23T12:46:14</time>
      </trkpt>
      <trkpt lat="45.59926" lon="6.05517">
        <ele>1379.4204</ele>
        <time>2021-05-23T12:46:19</time>
      </trkpt>
      <trkpt lat="45.59928" lon="6.05518">
        <ele>1379.4204</ele>
        <time>2021-05-23T12:46:21</time>
      </trkpt>
      <trkpt lat="45.5993" lon="6.0552">
        <ele>1379.2205</ele>
        <time>2021-05-23T12:46:25</time>
      </trkpt>
      <trkpt lat="45.59931" lon="6.0552">
        <ele>1379.2205</ele>
        <time>2021-05-23T12:46:26</time>
      </trkpt>
      <trkpt lat="45.59938" lon="6.05522">
        <ele>1387.9204</ele>
        <time>2021-05-23T12:46:34</time>
      </trkpt>
      <trkpt lat="45.59941" lon="6.05525">
        <ele>1387.9204</ele>
        <time>2021-05-23T12:46:38</time>
      </trkpt>
      <trkpt lat="45.59941" lon="6.05525">
        <ele>1387.9204</ele>
        <time>2021-05-23T12:46:39</time>
      </trkpt>
      <trkpt lat="45.59942" lon="6.05525">
        <ele>1387.9204</ele>
        <time>2021-05-23T12:46:40</time>
      </trkpt>
      <trkpt lat="45.59949" lon="6.05533">
        <ele>1394.2205</ele>
        <time>2021-05-23T12:46:49</time>
      </trkpt>
      <trkpt lat="45.5995" lon="6.05534">
        <ele>1394.2205</ele>
        <time>2021-05-23T12:46:51</time>
      </trkpt>
      <trkpt lat="45.5995" lon="6.05535">
        <ele>1391.5204</ele>
        <time>2021-05-23T12:46:52</time>
      </trkpt>
      <trkpt lat="45.59955" lon="6.05537">
        <ele>1391.5204</ele>
        <time>2021-05-23T12:46:59</time>
      </trkpt>
      <trkpt lat="45.59961" lon="6.0554">
        <ele>1394.8204</ele>
        <time>2021-05-23T12:47:06</time>
      </trkpt>
      <trkpt lat="45.59961" lon="6.05541">
        <ele>1394.8204</ele>
        <time>2021-05-23T12:47:07</time>
      </trkpt>
      <trkpt lat="45.59964" lon="6.05543">
        <ele>1394.8204</ele>
        <time>2021-05-23T12:47:09</time>
      </trkpt>
      <trkpt lat="45.59965" lon="6.05544">
        <ele>1394.8204</ele>
        <time>2021-05-23T12:47:10</time>
      </trkpt>
      <trkpt lat="45.59967" lon="6.05545">
        <ele>1388.4204</ele>
        <time>2021-05-23T12:47:13</time>
      </trkpt>
      <trkpt lat="45.59967" lon="6.05546">
        <ele>1388.4204</ele>
        <time>2021-05-23T12:47:14</time>
      </trkpt>
      <trkpt lat="45.5997" lon="6.05547">
        <ele>1388.4204</ele>
        <time>2021-05-23T12:47:17</time>
      </trkpt>
      <trkpt lat="45.59971" lon="6.05548">
        <ele>1388.4204</ele>
        <time>2021-05-23T12:47:18</time>
      </trkpt>
      <trkpt lat="45.59971" lon="6.0555">
        <ele>1388.4204</ele>
        <time>2021-05-23T12:47:20</time>
      </trkpt>
      <trkpt lat="45.59971" lon="6.0555">
        <ele>1388.4204</ele>
        <time>2021-05-23T12:47:21</time>
      </trkpt>
      <trkpt lat="45.59972" lon="6.05551">
        <ele>1393.2205</ele>
        <time>2021-05-23T12:47:22</time>
      </trkpt>
      <trkpt lat="45.59973" lon="6.05551">
        <ele>1393.2205</ele>
        <time>2021-05-23T12:47:23</time>
      </trkpt>
      <trkpt lat="45.59974" lon="6.05551">
        <ele>1393.2205</ele>
        <time>2021-05-23T12:47:24</time>
      </trkpt>
      <trkpt lat="45.59974" lon="6.05551">
        <ele>1393.2205</ele>
        <time>2021-05-23T12:47:25</time>
      </trkpt>
      <trkpt lat="45.59978" lon="6.0555">
        <ele>1393.2205</ele>
        <time>2021-05-23T12:47:29</time>
      </trkpt>
      <trkpt lat="45.59979" lon="6.0555">
        <ele>1393.2205</ele>
        <time>2021-05-23T12:47:30</time>
      </trkpt>
      <trkpt lat="45.5998" lon="6.0555">
        <ele>1393.2205</ele>
        <time>2021-05-23T12:47:31</time>
      </trkpt>
      <trkpt lat="45.59981" lon="6.0555">
        <ele>1391.3204</ele>
        <time>2021-05-23T12:47:32</time>
      </trkpt>
      <trkpt lat="45.59981" lon="6.0555">
        <ele>1391.3204</ele>
        <time>2021-05-23T12:47:33</time>
      </trkpt>
      <trkpt lat="45.59982" lon="6.0555">
        <ele>1391.3204</ele>
        <time>2021-05-23T12:47:37</time>
      </trkpt>
      <trkpt lat="45.59984" lon="6.05551">
        <ele>1391.3204</ele>
        <time>2021-05-23T12:47:40</time>
      </trkpt>
      <trkpt lat="45.59985" lon="6.05551">
        <ele>1391.3204</ele>
        <time>2021-05-23T12:47:41</time>
      </trkpt>
      <trkpt lat="45.59985" lon="6.05552">
        <ele>1385.6205</ele>
        <time>2021-05-23T12:47:42</time>
      </trkpt>
      <trkpt lat="45.59986" lon="6.05552">
        <ele>1385.6205</ele>
        <time>2021-05-23T12:47:44</time>
      </trkpt>
      <trkpt lat="45.59987" lon="6.05553">
        <ele>1385.6205</ele>
        <time>2021-05-23T12:47:46</time>
      </trkpt>
      <trkpt lat="45.59991" lon="6.05554">
        <ele>1387.1205</ele>
        <time>2021-05-23T12:48:06</time>
      </trkpt>
      <trkpt lat="45.59992" lon="6.05554">
        <ele>1387.1205</ele>
        <time>2021-05-23T12:48:07</time>
      </trkpt>
      <trkpt lat="45.59993" lon="6.05555">
        <ele>1387.1205</ele>
        <time>2021-05-23T12:48:10</time>
      </trkpt>
      <trkpt lat="45.59995" lon="6.05555">
        <ele>1387.1205</ele>
        <time>2021-05-23T12:48:11</time>
      </trkpt>
      <trkpt lat="45.59996" lon="6.05556">
        <ele>1388.7205</ele>
        <time>2021-05-23T12:48:13</time>
      </trkpt>
      <trkpt lat="45.59997" lon="6.05556">
        <ele>1388.7205</ele>
        <time>2021-05-23T12:48:17</time>
      </trkpt>
      <trkpt lat="45.59999" lon="6.05557">
        <ele>1388.7205</ele>
        <time>2021-05-23T12:48:20</time>
      </trkpt>
      <trkpt lat="45.60001" lon="6.05558">
        <ele>1392.1205</ele>
        <time>2021-05-23T12:48:22</time>
      </trkpt>
      <trkpt lat="45.60002" lon="6.05559">
        <ele>1392.1205</ele>
        <time>2021-05-23T12:48:23</time>
      </trkpt>
      <trkpt lat="45.60003" lon="6.0556">
        <ele>1392.1205</ele>
        <time>2021-05-23T12:48:25</time>
      </trkpt>
      <trkpt lat="45.60004" lon="6.05561">
        <ele>1392.1205</ele>
        <time>2021-05-23T12:48:26</time>
      </trkpt>
      <trkpt lat="45.60004" lon="6.05563">
        <ele>1392.1205</ele>
        <time>2021-05-23T12:48:28</time>
      </trkpt>
      <trkpt lat="45.60005" lon="6.05563">
        <ele>1392.1205</ele>
        <time>2021-05-23T12:48:29</time>
      </trkpt>
      <trkpt lat="45.60005" lon="6.05564">
        <ele>1392.1205</ele>
        <time>2021-05-23T12:48:30</time>
      </trkpt>
      <trkpt lat="45.60006" lon="6.05565">
        <ele>1392.1205</ele>
        <time>2021-05-23T12:48:31</time>
      </trkpt>
      <trkpt lat="45.60008" lon="6.05567">
        <ele>1388.2205</ele>
        <time>2021-05-23T12:48:33</time>
      </trkpt>
      <trkpt lat="45.60009" lon="6.05567">
        <ele>1388.2205</ele>
        <time>2021-05-23T12:48:34</time>
      </trkpt>
      <trkpt lat="45.60012" lon="6.0557">
        <ele>1388.2205</ele>
        <time>2021-05-23T12:48:37</time>
      </trkpt>
      <trkpt lat="45.60014" lon="6.05572">
        <ele>1388.2205</ele>
        <time>2021-05-23T12:48:40</time>
      </trkpt>
      <trkpt lat="45.60015" lon="6.05572">
        <ele>1388.2205</ele>
        <time>2021-05-23T12:48:41</time>
      </trkpt>
      <trkpt lat="45.60015" lon="6.05573">
        <ele>1389.0204</ele>
        <time>2021-05-23T12:48:42</time>
      </trkpt>
      <trkpt lat="45.60016" lon="6.05573">
        <ele>1389.0204</ele>
        <time>2021-05-23T12:48:43</time>
      </trkpt>
      <trkpt lat="45.60033" lon="6.05585">
        <ele>1392.1205</ele>
        <time>2021-05-23T12:49:11</time>
      </trkpt>
      <trkpt lat="45.60034" lon="6.05585">
        <ele>1390.3204</ele>
        <time>2021-05-23T12:49:12</time>
      </trkpt>
      <trkpt lat="45.60036" lon="6.05587">
        <ele>1390.3204</ele>
        <time>2021-05-23T12:49:15</time>
      </trkpt>
      <trkpt lat="45.60038" lon="6.05588">
        <ele>1390.3204</ele>
        <time>2021-05-23T12:49:16</time>
      </trkpt>
      <trkpt lat="45.60038" lon="6.05588">
        <ele>1390.3204</ele>
        <time>2021-05-23T12:49:17</time>
      </trkpt>
      <trkpt lat="45.6004" lon="6.0559">
        <ele>1390.3204</ele>
        <time>2021-05-23T12:49:20</time>
      </trkpt>
      <trkpt lat="45.60041" lon="6.05592">
        <ele>1396.0204</ele>
        <time>2021-05-23T12:49:22</time>
      </trkpt>
      <trkpt lat="45.60041" lon="6.05593">
        <ele>1396.0204</ele>
        <time>2021-05-23T12:49:23</time>
      </trkpt>
      <trkpt lat="45.60042" lon="6.05596">
        <ele>1396.0204</ele>
        <time>2021-05-23T12:49:27</time>
      </trkpt>
      <trkpt lat="45.60042" lon="6.05596">
        <ele>1396.0204</ele>
        <time>2021-05-23T12:49:28</time>
      </trkpt>
      <trkpt lat="45.60043" lon="6.05595">
        <ele>1396.0204</ele>
        <time>2021-05-23T12:49:29</time>
      </trkpt>
      <trkpt lat="45.60044" lon="6.05593">
        <ele>1396.0204</ele>
        <time>2021-05-23T12:49:31</time>
      </trkpt>
      <trkpt lat="45.60045" lon="6.05593">
        <ele>1396.2205</ele>
        <time>2021-05-23T12:49:32</time>
      </trkpt>
      <trkpt lat="45.60046" lon="6.05593">
        <ele>1396.2205</ele>
        <time>2021-05-23T12:49:33</time>
      </trkpt>
      <trkpt lat="45.60046" lon="6.05594">
        <ele>1396.2205</ele>
        <time>2021-05-23T12:49:34</time>
      </trkpt>
      <trkpt lat="45.60048" lon="6.05595">
        <ele>1396.2205</ele>
        <time>2021-05-23T12:49:37</time>
      </trkpt>
      <trkpt lat="45.6005" lon="6.05595">
        <ele>1390.5204</ele>
        <time>2021-05-23T12:49:43</time>
      </trkpt>
      <trkpt lat="45.60051" lon="6.05595">
        <ele>1390.5204</ele>
        <time>2021-05-23T12:49:45</time>
      </trkpt>
      <trkpt lat="45.60052" lon="6.05595">
        <ele>1390.5204</ele>
        <time>2021-05-23T12:49:47</time>
      </trkpt>
      <trkpt lat="45.60053" lon="6.05596">
        <ele>1390.5204</ele>
        <time>2021-05-23T12:49:49</time>
      </trkpt>
      <trkpt lat="45.60055" lon="6.05599">
        <ele>1393.1871</ele>
        <time>2021-05-23T12:49:54</time>
      </trkpt>
      <trkpt lat="45.60056" lon="6.05599">
        <ele>1393.1871</ele>
        <time>2021-05-23T12:49:56</time>
      </trkpt>
      <trkpt lat="45.60057" lon="6.056">
        <ele>1393.1871</ele>
        <time>2021-05-23T12:49:57</time>
      </trkpt>
      <trkpt lat="45.60057" lon="6.056">
        <ele>1393.1871</ele>
        <time>2021-05-23T12:49:58</time>
      </trkpt>
      <trkpt lat="45.60059" lon="6.056">
        <ele>1393.1871</ele>
        <time>2021-05-23T12:50:01</time>
      </trkpt>
      <trkpt lat="45.60065" lon="6.056">
        <ele>1396.2205</ele>
        <time>2021-05-23T12:50:09</time>
      </trkpt>
      <trkpt lat="45.60068" lon="6.05602">
        <ele>1396.3204</ele>
        <time>2021-05-23T12:50:14</time>
      </trkpt>
      <trkpt lat="45.60069" lon="6.05603">
        <ele>1396.3204</ele>
        <time>2021-05-23T12:50:15</time>
      </trkpt>
      <trkpt lat="45.60069" lon="6.05603">
        <ele>1396.3204</ele>
        <time>2021-05-23T12:50:16</time>
      </trkpt>
      <trkpt lat="45.60071" lon="6.05604">
        <ele>1396.3204</ele>
        <time>2021-05-23T12:50:18</time>
      </trkpt>
      <trkpt lat="45.60072" lon="6.05604">
        <ele>1396.3204</ele>
        <time>2021-05-23T12:50:20</time>
      </trkpt>
      <trkpt lat="45.60077" lon="6.05607">
        <ele>1397.2205</ele>
        <time>2021-05-23T12:50:26</time>
      </trkpt>
      <trkpt lat="45.60078" lon="6.05607">
        <ele>1397.2205</ele>
        <time>2021-05-23T12:50:28</time>
      </trkpt>
      <trkpt lat="45.60079" lon="6.05608">
        <ele>1397.2205</ele>
        <time>2021-05-23T12:50:29</time>
      </trkpt>
      <trkpt lat="45.6008" lon="6.05608">
        <ele>1397.2205</ele>
        <time>2021-05-23T12:50:31</time>
      </trkpt>
      <trkpt lat="45.60081" lon="6.05608">
        <ele>1394.9204</ele>
        <time>2021-05-23T12:50:32</time>
      </trkpt>
      <trkpt lat="45.60083" lon="6.05608">
        <ele>1394.9204</ele>
        <time>2021-05-23T12:50:35</time>
      </trkpt>
      <trkpt lat="45.60084" lon="6.05608">
        <ele>1394.9204</ele>
        <time>2021-05-23T12:50:36</time>
      </trkpt>
      <trkpt lat="45.60086" lon="6.05609">
        <ele>1394.9204</ele>
        <time>2021-05-23T12:50:38</time>
      </trkpt>
      <trkpt lat="45.60087" lon="6.05609">
        <ele>1394.9204</ele>
        <time>2021-05-23T12:50:40</time>
      </trkpt>
      <trkpt lat="45.60088" lon="6.0561">
        <ele>1394.9204</ele>
        <time>2021-05-23T12:50:41</time>
      </trkpt>
      <trkpt lat="45.60088" lon="6.0561">
        <ele>1393.3204</ele>
        <time>2021-05-23T12:50:42</time>
      </trkpt>
      <trkpt lat="45.60089" lon="6.0561">
        <ele>1393.3204</ele>
        <time>2021-05-23T12:50:44</time>
      </trkpt>
      <trkpt lat="45.60089" lon="6.05611">
        <ele>1393.3204</ele>
        <time>2021-05-23T12:50:46</time>
      </trkpt>
      <trkpt lat="45.6009" lon="6.05611">
        <ele>1393.3204</ele>
        <time>2021-05-23T12:50:47</time>
      </trkpt>
      <trkpt lat="45.6009" lon="6.05612">
        <ele>1393.3204</ele>
        <time>2021-05-23T12:50:48</time>
      </trkpt>
      <trkpt lat="45.60091" lon="6.05612">
        <ele>1393.3204</ele>
        <time>2021-05-23T12:50:49</time>
      </trkpt>
      <trkpt lat="45.60092" lon="6.05613">
        <ele>1393.3204</ele>
        <time>2021-05-23T12:50:50</time>
      </trkpt>
      <trkpt lat="45.60095" lon="6.05613">
        <ele>1393.3204</ele>
        <time>2021-05-23T12:50:53</time>
      </trkpt>
      <trkpt lat="45.60096" lon="6.05613">
        <ele>1393.3204</ele>
        <time>2021-05-23T12:50:54</time>
      </trkpt>
      <trkpt lat="45.60097" lon="6.05613">
        <ele>1393.3204</ele>
        <time>2021-05-23T12:50:55</time>
      </trkpt>
      <trkpt lat="45.60098" lon="6.05614">
        <ele>1393.3204</ele>
        <time>2021-05-23T12:50:56</time>
      </trkpt>
      <trkpt lat="45.60101" lon="6.05616">
        <ele>1393.3204</ele>
        <time>2021-05-23T12:51:00</time>
      </trkpt>
      <trkpt lat="45.60102" lon="6.05616">
        <ele>1400.2205</ele>
        <time>2021-05-23T12:51:03</time>
      </trkpt>
      <trkpt lat="45.60104" lon="6.05618">
        <ele>1400.2205</ele>
        <time>2021-05-23T12:51:06</time>
      </trkpt>
      <trkpt lat="45.60106" lon="6.05619">
        <ele>1400.2205</ele>
        <time>2021-05-23T12:51:10</time>
      </trkpt>
      <trkpt lat="45.60107" lon="6.05618">
        <ele>1406.0204</ele>
        <time>2021-05-23T12:51:12</time>
      </trkpt>
      <trkpt lat="45.60107" lon="6.05619">
        <ele>1406.0204</ele>
        <time>2021-05-23T12:51:13</time>
      </trkpt>
      <trkpt lat="45.6011" lon="6.0562">
        <ele>1406.0204</ele>
        <time>2021-05-23T12:51:16</time>
      </trkpt>
      <trkpt lat="45.60111" lon="6.0562">
        <ele>1406.0204</ele>
        <time>2021-05-23T12:51:17</time>
      </trkpt>
      <trkpt lat="45.60114" lon="6.05619">
        <ele>1402.6205</ele>
        <time>2021-05-23T12:51:22</time>
      </trkpt>
      <trkpt lat="45.60114" lon="6.05619">
        <ele>1402.6205</ele>
        <time>2021-05-23T12:51:23</time>
      </trkpt>
      <trkpt lat="45.60117" lon="6.0562">
        <ele>1402.6205</ele>
        <time>2021-05-23T12:51:28</time>
      </trkpt>
      <trkpt lat="45.60118" lon="6.05621">
        <ele>1402.6205</ele>
        <time>2021-05-23T12:51:30</time>
      </trkpt>
      <trkpt lat="45.6012" lon="6.05622">
        <ele>1398.5204</ele>
        <time>2021-05-23T12:51:32</time>
      </trkpt>
      <trkpt lat="45.60122" lon="6.05623">
        <ele>1398.5204</ele>
        <time>2021-05-23T12:51:37</time>
      </trkpt>
      <trkpt lat="45.60124" lon="6.05625">
        <ele>1398.5204</ele>
        <time>2021-05-23T12:51:40</time>
      </trkpt>
      <trkpt lat="45.60125" lon="6.05625">
        <ele>1398.5204</ele>
        <time>2021-05-23T12:51:41</time>
      </trkpt>
      <trkpt lat="45.60127" lon="6.05627">
        <ele>1401.5872</ele>
        <time>2021-05-23T12:51:43</time>
      </trkpt>
      <trkpt lat="45.60128" lon="6.05628">
        <ele>1401.5872</ele>
        <time>2021-05-23T12:51:45</time>
      </trkpt>
      <trkpt lat="45.6013" lon="6.05628">
        <ele>1401.5872</ele>
        <time>2021-05-23T12:51:47</time>
      </trkpt>
      <trkpt lat="45.6013" lon="6.05628">
        <ele>1401.5872</ele>
        <time>2021-05-23T12:51:48</time>
      </trkpt>
      <trkpt lat="45.60131" lon="6.05628">
        <ele>1401.5872</ele>
        <time>2021-05-23T12:51:49</time>
      </trkpt>
      <trkpt lat="45.60132" lon="6.05627">
        <ele>1401.5872</ele>
        <time>2021-05-23T12:51:50</time>
      </trkpt>
      <trkpt lat="45.60133" lon="6.05626">
        <ele>1406.9204</ele>
        <time>2021-05-23T12:51:54</time>
      </trkpt>
      <trkpt lat="45.60133" lon="6.05626">
        <ele>1406.9204</ele>
        <time>2021-05-23T12:51:55</time>
      </trkpt>
      <trkpt lat="45.60134" lon="6.05626">
        <ele>1406.9204</ele>
        <time>2021-05-23T12:51:56</time>
      </trkpt>
      <trkpt lat="45.60135" lon="6.05626">
        <ele>1406.9204</ele>
        <time>2021-05-23T12:51:57</time>
      </trkpt>
      <trkpt lat="45.60135" lon="6.05626">
        <ele>1406.9204</ele>
        <time>2021-05-23T12:51:58</time>
      </trkpt>
      <trkpt lat="45.60137" lon="6.05628">
        <ele>1406.9204</ele>
        <time>2021-05-23T12:52:00</time>
      </trkpt>
      <trkpt lat="45.60138" lon="6.05628">
        <ele>1406.9204</ele>
        <time>2021-05-23T12:52:01</time>
      </trkpt>
      <trkpt lat="45.60139" lon="6.05629">
        <ele>1404.2205</ele>
        <time>2021-05-23T12:52:03</time>
      </trkpt>
      <trkpt lat="45.60141" lon="6.05629">
        <ele>1404.2205</ele>
        <time>2021-05-23T12:52:05</time>
      </trkpt>
      <trkpt lat="45.60142" lon="6.05629">
        <ele>1404.2205</ele>
        <time>2021-05-23T12:52:06</time>
      </trkpt>
      <trkpt lat="45.60143" lon="6.05629">
        <ele>1404.2205</ele>
        <time>2021-05-23T12:52:08</time>
      </trkpt>
      <trkpt lat="45.60145" lon="6.05628">
        <ele>1404.2205</ele>
        <time>2021-05-23T12:52:10</time>
      </trkpt>
      <trkpt lat="45.60145" lon="6.05629">
        <ele>1404.2205</ele>
        <time>2021-05-23T12:52:11</time>
      </trkpt>
      <trkpt lat="45.60146" lon="6.05629">
        <ele>1408.8204</ele>
        <time>2021-05-23T12:52:12</time>
      </trkpt>
      <trkpt lat="45.60147" lon="6.0563">
        <ele>1408.8204</ele>
        <time>2021-05-23T12:52:13</time>
      </trkpt>
      <trkpt lat="45.60147" lon="6.05631">
        <ele>1408.8204</ele>
        <time>2021-05-23T12:52:14</time>
      </trkpt>
      <trkpt lat="45.6015" lon="6.05633">
        <ele>1408.8204</ele>
        <time>2021-05-23T12:52:20</time>
      </trkpt>
      <trkpt lat="45.6015" lon="6.05634">
        <ele>1408.8204</ele>
        <time>2021-05-23T12:52:21</time>
      </trkpt>
      <trkpt lat="45.60152" lon="6.05634">
        <ele>1404.6205</ele>
        <time>2021-05-23T12:52:51</time>
      </trkpt>
      <trkpt lat="45.60152" lon="6.05635">
        <ele>1404.7205</ele>
        <time>2021-05-23T12:52:57</time>
      </trkpt>
      <trkpt lat="45.60152" lon="6.05635">
        <ele>1404.7205</ele>
        <time>2021-05-23T12:52:58</time>
      </trkpt>
      <trkpt lat="45.60155" lon="6.05641">
        <ele>1404.7205</ele>
        <time>2021-05-23T12:53:31</time>
      </trkpt>
      <trkpt lat="45.60155" lon="6.0564">
        <ele>1414.0204</ele>
        <time>2021-05-23T12:53:50</time>
      </trkpt>
      <trkpt lat="45.60155" lon="6.05639">
        <ele>1414.0204</ele>
        <time>2021-05-23T12:53:51</time>
      </trkpt>
      <trkpt lat="45.60156" lon="6.05638">
        <ele>1414.0204</ele>
        <time>2021-05-23T12:53:52</time>
      </trkpt>
      <trkpt lat="45.60156" lon="6.05637">
        <ele>1414.0204</ele>
        <time>2021-05-23T12:53:53</time>
      </trkpt>
      <trkpt lat="45.60157" lon="6.05637">
        <ele>1414.0204</ele>
        <time>2021-05-23T12:53:54</time>
      </trkpt>
      <trkpt lat="45.60158" lon="6.05636">
        <ele>1413.7205</ele>
        <time>2021-05-23T12:53:55</time>
      </trkpt>
      <trkpt lat="45.60159" lon="6.05633">
        <ele>1413.7205</ele>
        <time>2021-05-23T12:54:01</time>
      </trkpt>
      <trkpt lat="45.60159" lon="6.05633">
        <ele>1413.7205</ele>
        <time>2021-05-23T12:54:02</time>
      </trkpt>
      <trkpt lat="45.60159" lon="6.05632">
        <ele>1413.7205</ele>
        <time>2021-05-23T12:54:03</time>
      </trkpt>
      <trkpt lat="45.6016" lon="6.05632">
        <ele>1413.7205</ele>
        <time>2021-05-23T12:54:04</time>
      </trkpt>
      <trkpt lat="45.60162" lon="6.05628">
        <ele>1413.7205</ele>
        <time>2021-05-23T12:54:21</time>
      </trkpt>
      <trkpt lat="45.60163" lon="6.05627">
        <ele>1413.7205</ele>
        <time>2021-05-23T12:54:23</time>
      </trkpt>
      <trkpt lat="45.60165" lon="6.05622">
        <ele>1413.7205</ele>
        <time>2021-05-23T12:54:40</time>
      </trkpt>
      <trkpt lat="45.60164" lon="6.05621">
        <ele>1413.7205</ele>
        <time>2021-05-23T12:54:41</time>
      </trkpt>
      <trkpt lat="45.60163" lon="6.05618">
        <ele>1413.7205</ele>
        <time>2021-05-23T12:54:48</time>
      </trkpt>
      <trkpt lat="45.60162" lon="6.05615">
        <ele>1413.7205</ele>
        <time>2021-05-23T12:54:51</time>
      </trkpt>
      <trkpt lat="45.60162" lon="6.05614">
        <ele>1413.7205</ele>
        <time>2021-05-23T12:54:52</time>
      </trkpt>
      <trkpt lat="45.60162" lon="6.05613">
        <ele>1413.7205</ele>
        <time>2021-05-23T12:54:53</time>
      </trkpt>
      <trkpt lat="45.60163" lon="6.0561">
        <ele>1412.6205</ele>
        <time>2021-05-23T12:54:58</time>
      </trkpt>
      <trkpt lat="45.60163" lon="6.05609">
        <ele>1412.6205</ele>
        <time>2021-05-23T12:54:59</time>
      </trkpt>
      <trkpt lat="45.60161" lon="6.05589">
        <ele>1418.5204</ele>
        <time>2021-05-23T12:55:18</time>
      </trkpt>
      <trkpt lat="45.60161" lon="6.05586">
        <ele>1418.5204</ele>
        <time>2021-05-23T12:55:19</time>
      </trkpt>
      <trkpt lat="45.60161" lon="6.05585">
        <ele>1418.5204</ele>
        <time>2021-05-23T12:55:20</time>
      </trkpt>
      <trkpt lat="45.60161" lon="6.05583">
        <ele>1418.5204</ele>
        <time>2021-05-23T12:55:22</time>
      </trkpt>
      <trkpt lat="45.60161" lon="6.05582">
        <ele>1414.4204</ele>
        <time>2021-05-23T12:55:25</time>
      </trkpt>
      <trkpt lat="45.60161" lon="6.05581">
        <ele>1414.4204</ele>
        <time>2021-05-23T12:55:26</time>
      </trkpt>
      <trkpt lat="45.60162" lon="6.05581">
        <ele>1414.4204</ele>
        <time>2021-05-23T12:55:31</time>
      </trkpt>
      <trkpt lat="45.6016" lon="6.05577">
        <ele>1412.9204</ele>
        <time>2021-05-23T12:55:39</time>
      </trkpt>
      <trkpt lat="45.60159" lon="6.05576">
        <ele>1412.9204</ele>
        <time>2021-05-23T12:55:40</time>
      </trkpt>
      <trkpt lat="45.60159" lon="6.05576">
        <ele>1412.9204</ele>
        <time>2021-05-23T12:55:41</time>
      </trkpt>
      <trkpt lat="45.60158" lon="6.05573">
        <ele>1414.3204</ele>
        <time>2021-05-23T12:55:51</time>
      </trkpt>
      <trkpt lat="45.60158" lon="6.05566">
        <ele>1415.2205</ele>
        <time>2021-05-23T12:55:57</time>
      </trkpt>
      <trkpt lat="45.60158" lon="6.0556">
        <ele>1415.2205</ele>
        <time>2021-05-23T12:56:04</time>
      </trkpt>
      <trkpt lat="45.60158" lon="6.0556">
        <ele>1416.5204</ele>
        <time>2021-05-23T12:56:05</time>
      </trkpt>
      <trkpt lat="45.60158" lon="6.05559">
        <ele>1416.5204</ele>
        <time>2021-05-23T12:56:06</time>
      </trkpt>
      <trkpt lat="45.60158" lon="6.05559">
        <ele>1416.5204</ele>
        <time>2021-05-23T12:56:07</time>
      </trkpt>
      <trkpt lat="45.60159" lon="6.05558">
        <ele>1416.5204</ele>
        <time>2021-05-23T12:56:08</time>
      </trkpt>
      <trkpt lat="45.60161" lon="6.05556">
        <ele>1420.4204</ele>
        <time>2021-05-23T12:56:38</time>
      </trkpt>
      <trkpt lat="45.60162" lon="6.05556">
        <ele>1420.4204</ele>
        <time>2021-05-23T12:56:42</time>
      </trkpt>
      <trkpt lat="45.60164" lon="6.05555">
        <ele>1420.4204</ele>
        <time>2021-05-23T12:56:44</time>
      </trkpt>
      <trkpt lat="45.60166" lon="6.05555">
        <ele>1420.7205</ele>
        <time>2021-05-23T12:56:46</time>
      </trkpt>
      <trkpt lat="45.60166" lon="6.05555">
        <ele>1420.7205</ele>
        <time>2021-05-23T12:56:48</time>
      </trkpt>
      <trkpt lat="45.60166" lon="6.05557">
        <ele>1420.7205</ele>
        <time>2021-05-23T12:56:52</time>
      </trkpt>
      <trkpt lat="45.60169" lon="6.05559">
        <ele>1422.7205</ele>
        <time>2021-05-23T12:56:55</time>
      </trkpt>
      <trkpt lat="45.60173" lon="6.05557">
        <ele>1422.7205</ele>
        <time>2021-05-23T12:57:02</time>
      </trkpt>
      <trkpt lat="45.60174" lon="6.05558">
        <ele>1423.6205</ele>
        <time>2021-05-23T12:57:09</time>
      </trkpt>
      <trkpt lat="45.60176" lon="6.05558">
        <ele>1423.6205</ele>
        <time>2021-05-23T12:57:10</time>
      </trkpt>
      <trkpt lat="45.60177" lon="6.05558">
        <ele>1423.6205</ele>
        <time>2021-05-23T12:57:11</time>
      </trkpt>
      <trkpt lat="45.60179" lon="6.0556">
        <ele>1425.1205</ele>
        <time>2021-05-23T12:57:15</time>
      </trkpt>
      <trkpt lat="45.60179" lon="6.0556">
        <ele>1425.1205</ele>
        <time>2021-05-23T12:57:17</time>
      </trkpt>
      <trkpt lat="45.60184" lon="6.05564">
        <ele>1421.8204</ele>
        <time>2021-05-23T12:57:40</time>
      </trkpt>
      <trkpt lat="45.60185" lon="6.05565">
        <ele>1421.8204</ele>
        <time>2021-05-23T12:57:42</time>
      </trkpt>
      <trkpt lat="45.60186" lon="6.05566">
        <ele>1421.8204</ele>
        <time>2021-05-23T12:57:44</time>
      </trkpt>
      <trkpt lat="45.60187" lon="6.05566">
        <ele>1421.6205</ele>
        <time>2021-05-23T12:57:45</time>
      </trkpt>
      <trkpt lat="45.60188" lon="6.05566">
        <ele>1421.6205</ele>
        <time>2021-05-23T12:57:47</time>
      </trkpt>
      <trkpt lat="45.60191" lon="6.05566">
        <ele>1421.6205</ele>
        <time>2021-05-23T12:57:52</time>
      </trkpt>
      <trkpt lat="45.60192" lon="6.05566">
        <ele>1421.6205</ele>
        <time>2021-05-23T12:57:53</time>
      </trkpt>
      <trkpt lat="45.60197" lon="6.05566">
        <ele>1421.9204</ele>
        <time>2021-05-23T12:57:57</time>
      </trkpt>
      <trkpt lat="45.602" lon="6.05567">
        <ele>1416.8204</ele>
        <time>2021-05-23T12:58:10</time>
      </trkpt>
      <trkpt lat="45.60202" lon="6.05567">
        <ele>1416.8204</ele>
        <time>2021-05-23T12:58:12</time>
      </trkpt>
      <trkpt lat="45.60202" lon="6.05566">
        <ele>1416.8204</ele>
        <time>2021-05-23T12:58:13</time>
      </trkpt>
      <trkpt lat="45.60209" lon="6.05563">
        <ele>1415.5537</ele>
        <time>2021-05-23T12:58:21</time>
      </trkpt>
      <trkpt lat="45.60212" lon="6.05561">
        <ele>1416.487</ele>
        <time>2021-05-23T12:58:36</time>
      </trkpt>
      <trkpt lat="45.60213" lon="6.0556">
        <ele>1416.487</ele>
        <time>2021-05-23T12:58:37</time>
      </trkpt>
      <trkpt lat="45.60214" lon="6.0556">
        <ele>1416.487</ele>
        <time>2021-05-23T12:58:38</time>
      </trkpt>
      <trkpt lat="45.60217" lon="6.05558">
        <ele>1416.487</ele>
        <time>2021-05-23T12:58:41</time>
      </trkpt>
      <trkpt lat="45.60219" lon="6.05558">
        <ele>1416.487</ele>
        <time>2021-05-23T12:58:42</time>
      </trkpt>
      <trkpt lat="45.60227" lon="6.05558">
        <ele>1423.3204</ele>
        <time>2021-05-23T12:58:59</time>
      </trkpt>
      <trkpt lat="45.60228" lon="6.05558">
        <ele>1423.3204</ele>
        <time>2021-05-23T12:59:00</time>
      </trkpt>
      <trkpt lat="45.60229" lon="6.05558">
        <ele>1423.3204</ele>
        <time>2021-05-23T12:59:01</time>
      </trkpt>
      <trkpt lat="45.6023" lon="6.05557">
        <ele>1423.3204</ele>
        <time>2021-05-23T12:59:02</time>
      </trkpt>
      <trkpt lat="45.60231" lon="6.05556">
        <ele>1423.3204</ele>
        <time>2021-05-23T12:59:03</time>
      </trkpt>
      <trkpt lat="45.60232" lon="6.05556">
        <ele>1423.3204</ele>
        <time>2021-05-23T12:59:04</time>
      </trkpt>
      <trkpt lat="45.60233" lon="6.05557">
        <ele>1424.1205</ele>
        <time>2021-05-23T12:59:05</time>
      </trkpt>
      <trkpt lat="45.60235" lon="6.05558">
        <ele>1424.1205</ele>
        <time>2021-05-23T12:59:07</time>
      </trkpt>
      <trkpt lat="45.60238" lon="6.05559">
        <ele>1424.1205</ele>
        <time>2021-05-23T12:59:10</time>
      </trkpt>
      <trkpt lat="45.60241" lon="6.05559">
        <ele>1419.7205</ele>
        <time>2021-05-23T12:59:26</time>
      </trkpt>
      <trkpt lat="45.60241" lon="6.05559">
        <ele>1419.7205</ele>
        <time>2021-05-23T12:59:27</time>
      </trkpt>
      <trkpt lat="45.60247" lon="6.0556">
        <ele>1420.3204</ele>
        <time>2021-05-23T12:59:42</time>
      </trkpt>
      <trkpt lat="45.60248" lon="6.0556">
        <ele>1420.3204</ele>
        <time>2021-05-23T12:59:43</time>
      </trkpt>
      <trkpt lat="45.60248" lon="6.0556">
        <ele>1420.3204</ele>
        <time>2021-05-23T12:59:44</time>
      </trkpt>
      <trkpt lat="45.60249" lon="6.05559">
        <ele>1420.7205</ele>
        <time>2021-05-23T12:59:45</time>
      </trkpt>
      <trkpt lat="45.60251" lon="6.05559">
        <ele>1420.7205</ele>
        <time>2021-05-23T12:59:46</time>
      </trkpt>
      <trkpt lat="45.60253" lon="6.0556">
        <ele>1420.7205</ele>
        <time>2021-05-23T12:59:50</time>
      </trkpt>
      <trkpt lat="45.60254" lon="6.0556">
        <ele>1420.7205</ele>
        <time>2021-05-23T12:59:51</time>
      </trkpt>
      <trkpt lat="45.60254" lon="6.05561">
        <ele>1420.7205</ele>
        <time>2021-05-23T12:59:52</time>
      </trkpt>
      <trkpt lat="45.60256" lon="6.05561">
        <ele>1420.7205</ele>
        <time>2021-05-23T12:59:53</time>
      </trkpt>
      <trkpt lat="45.6026" lon="6.05563">
        <ele>1422.5204</ele>
        <time>2021-05-23T12:59:58</time>
      </trkpt>
      <trkpt lat="45.60263" lon="6.05564">
        <ele>1422.5204</ele>
        <time>2021-05-23T13:00:00</time>
      </trkpt>
      <trkpt lat="45.60266" lon="6.05563">
        <ele>1422.5204</ele>
        <time>2021-05-23T13:00:04</time>
      </trkpt>
      <trkpt lat="45.60268" lon="6.05561">
        <ele>1423.3538</ele>
        <time>2021-05-23T13:00:07</time>
      </trkpt>
      <trkpt lat="45.60272" lon="6.05561">
        <ele>1423.3538</ele>
        <time>2021-05-23T13:00:11</time>
      </trkpt>
      <trkpt lat="45.60273" lon="6.05562">
        <ele>1423.3538</ele>
        <time>2021-05-23T13:00:13</time>
      </trkpt>
      <trkpt lat="45.60276" lon="6.05565">
        <ele>1423.0204</ele>
        <time>2021-05-23T13:00:18</time>
      </trkpt>
      <trkpt lat="45.60278" lon="6.05565">
        <ele>1423.0204</ele>
        <time>2021-05-23T13:00:19</time>
      </trkpt>
      <trkpt lat="45.60279" lon="6.05566">
        <ele>1423.0204</ele>
        <time>2021-05-23T13:00:21</time>
      </trkpt>
      <trkpt lat="45.60279" lon="6.05567">
        <ele>1423.0204</ele>
        <time>2021-05-23T13:00:22</time>
      </trkpt>
      <trkpt lat="45.6028" lon="6.05568">
        <ele>1423.0204</ele>
        <time>2021-05-23T13:00:23</time>
      </trkpt>
      <trkpt lat="45.60281" lon="6.05569">
        <ele>1423.0204</ele>
        <time>2021-05-23T13:00:24</time>
      </trkpt>
      <trkpt lat="45.60282" lon="6.05572">
        <ele>1422.4204</ele>
        <time>2021-05-23T13:00:29</time>
      </trkpt>
      <trkpt lat="45.60282" lon="6.05572">
        <ele>1422.4204</ele>
        <time>2021-05-23T13:00:30</time>
      </trkpt>
      <trkpt lat="45.60282" lon="6.05572">
        <ele>1422.4204</ele>
        <time>2021-05-23T13:00:31</time>
      </trkpt>
      <trkpt lat="45.60284" lon="6.05572">
        <ele>1420.7205</ele>
        <time>2021-05-23T13:00:35</time>
      </trkpt>
      <trkpt lat="45.60285" lon="6.05573">
        <ele>1420.7205</ele>
        <time>2021-05-23T13:00:37</time>
      </trkpt>
      <trkpt lat="45.60285" lon="6.05574">
        <ele>1422.9204</ele>
        <time>2021-05-23T13:00:45</time>
      </trkpt>
      <trkpt lat="45.60289" lon="6.05578">
        <ele>1422.9204</ele>
        <time>2021-05-23T13:00:51</time>
      </trkpt>
      <trkpt lat="45.6029" lon="6.05578">
        <ele>1422.9204</ele>
        <time>2021-05-23T13:00:54</time>
      </trkpt>
      <trkpt lat="45.60291" lon="6.05579">
        <ele>1424.6205</ele>
        <time>2021-05-23T13:00:55</time>
      </trkpt>
      <trkpt lat="45.60293" lon="6.05579">
        <ele>1424.6205</ele>
        <time>2021-05-23T13:01:03</time>
      </trkpt>
      <trkpt lat="45.60298" lon="6.0558">
        <ele>1427.0204</ele>
        <time>2021-05-23T13:01:09</time>
      </trkpt>
      <trkpt lat="45.60299" lon="6.05581">
        <ele>1427.0204</ele>
        <time>2021-05-23T13:01:11</time>
      </trkpt>
      <trkpt lat="45.60299" lon="6.0558">
        <ele>1427.0204</ele>
        <time>2021-05-23T13:01:12</time>
      </trkpt>
      <trkpt lat="45.60302" lon="6.05582">
        <ele>1425.1205</ele>
        <time>2021-05-23T13:01:31</time>
      </trkpt>
      <trkpt lat="45.60302" lon="6.05582">
        <ele>1425.1205</ele>
        <time>2021-05-23T13:01:32</time>
      </trkpt>
      <trkpt lat="45.60302" lon="6.0558">
        <ele>1424.9204</ele>
        <time>2021-05-23T13:02:02</time>
      </trkpt>
      <trkpt lat="45.60302" lon="6.05581">
        <ele>1423.9537</ele>
        <time>2021-05-23T13:02:32</time>
      </trkpt>
      <trkpt lat="45.60302" lon="6.05581">
        <ele>1423.9537</ele>
        <time>2021-05-23T13:03:02</time>
      </trkpt>
      <trkpt lat="45.60302" lon="6.05581">
        <ele>1424.3204</ele>
        <time>2021-05-23T13:03:32</time>
      </trkpt>
      <trkpt lat="45.60302" lon="6.05581">
        <ele>1424.4204</ele>
        <time>2021-05-23T13:04:02</time>
      </trkpt>
      <trkpt lat="45.60302" lon="6.05581">
        <ele>1424.5204</ele>
        <time>2021-05-23T13:04:32</time>
      </trkpt>
      <trkpt lat="45.60301" lon="6.05581">
        <ele>1424.5204</ele>
        <time>2021-05-23T13:04:55</time>
      </trkpt>
      <trkpt lat="45.60301" lon="6.05581">
        <ele>1424.5204</ele>
        <time>2021-05-23T13:04:58</time>
      </trkpt>
      <trkpt lat="45.60301" lon="6.05582">
        <ele>1424.5204</ele>
        <time>2021-05-23T13:05:00</time>
      </trkpt>
      <trkpt lat="45.60302" lon="6.05582">
        <ele>1424.5204</ele>
        <time>2021-05-23T13:05:01</time>
      </trkpt>
      <trkpt lat="45.60304" lon="6.05581">
        <ele>1424.5204</ele>
        <time>2021-05-23T13:05:10</time>
      </trkpt>
      <trkpt lat="45.60305" lon="6.0558">
        <ele>1424.5204</ele>
        <time>2021-05-23T13:05:11</time>
      </trkpt>
      <trkpt lat="45.60306" lon="6.0558">
        <ele>1424.5204</ele>
        <time>2021-05-23T13:05:13</time>
      </trkpt>
      <trkpt lat="45.60307" lon="6.05581">
        <ele>1424.5204</ele>
        <time>2021-05-23T13:05:14</time>
      </trkpt>
      <trkpt lat="45.60308" lon="6.05583">
        <ele>1424.2871</ele>
        <time>2021-05-23T13:05:16</time>
      </trkpt>
      <trkpt lat="45.60308" lon="6.05583">
        <ele>1424.2871</ele>
        <time>2021-05-23T13:05:17</time>
      </trkpt>
      <trkpt lat="45.60309" lon="6.05584">
        <ele>1424.2871</ele>
        <time>2021-05-23T13:05:18</time>
      </trkpt>
      <trkpt lat="45.6031" lon="6.05584">
        <ele>1424.2871</ele>
        <time>2021-05-23T13:05:21</time>
      </trkpt>
      <trkpt lat="45.6031" lon="6.05584">
        <ele>1424.2871</ele>
        <time>2021-05-23T13:05:22</time>
      </trkpt>
      <trkpt lat="45.60312" lon="6.05585">
        <ele>1422.5204</ele>
        <time>2021-05-23T13:05:26</time>
      </trkpt>
      <trkpt lat="45.60312" lon="6.05585">
        <ele>1422.5204</ele>
        <time>2021-05-23T13:05:27</time>
      </trkpt>
      <trkpt lat="45.60312" lon="6.05586">
        <ele>1422.5204</ele>
        <time>2021-05-23T13:05:28</time>
      </trkpt>
      <trkpt lat="45.60313" lon="6.05587">
        <ele>1422.5204</ele>
        <time>2021-05-23T13:05:29</time>
      </trkpt>
      <trkpt lat="45.60313" lon="6.05588">
        <ele>1422.5204</ele>
        <time>2021-05-23T13:05:30</time>
      </trkpt>
      <trkpt lat="45.60314" lon="6.05588">
        <ele>1422.5204</ele>
        <time>2021-05-23T13:05:31</time>
      </trkpt>
      <trkpt lat="45.60314" lon="6.05588">
        <ele>1423.9204</ele>
        <time>2021-05-23T13:05:38</time>
      </trkpt>
      <trkpt lat="45.60314" lon="6.05588">
        <ele>1423.9204</ele>
        <time>2021-05-23T13:05:39</time>
      </trkpt>
      <trkpt lat="45.60314" lon="6.05589">
        <ele>1423.9204</ele>
        <time>2021-05-23T13:05:40</time>
      </trkpt>
      <trkpt lat="45.60318" lon="6.05588">
        <ele>1426.1205</ele>
        <time>2021-05-23T13:05:47</time>
      </trkpt>
      <trkpt lat="45.60324" lon="6.05591">
        <ele>1427.8204</ele>
        <time>2021-05-23T13:05:57</time>
      </trkpt>
      <trkpt lat="45.60325" lon="6.05592">
        <ele>1427.8204</ele>
        <time>2021-05-23T13:05:58</time>
      </trkpt>
      <trkpt lat="45.60328" lon="6.05597">
        <ele>1424.7205</ele>
        <time>2021-05-23T13:06:05</time>
      </trkpt>
      <trkpt lat="45.60329" lon="6.05598">
        <ele>1424.7205</ele>
        <time>2021-05-23T13:06:08</time>
      </trkpt>
      <trkpt lat="45.6033" lon="6.056">
        <ele>1424.7205</ele>
        <time>2021-05-23T13:06:11</time>
      </trkpt>
      <trkpt lat="45.6033" lon="6.056">
        <ele>1424.7205</ele>
        <time>2021-05-23T13:06:12</time>
      </trkpt>
      <trkpt lat="45.60331" lon="6.056">
        <ele>1424.7205</ele>
        <time>2021-05-23T13:06:14</time>
      </trkpt>
      <trkpt lat="45.60332" lon="6.05601">
        <ele>1425.2538</ele>
        <time>2021-05-23T13:06:16</time>
      </trkpt>
      <trkpt lat="45.60332" lon="6.05601">
        <ele>1425.2538</ele>
        <time>2021-05-23T13:06:22</time>
      </trkpt>
      <trkpt lat="45.60332" lon="6.05602">
        <ele>1425.2538</ele>
        <time>2021-05-23T13:06:24</time>
      </trkpt>
      <trkpt lat="45.60332" lon="6.05602">
        <ele>1426.4204</ele>
        <time>2021-05-23T13:06:25</time>
      </trkpt>
      <trkpt lat="45.60332" lon="6.05602">
        <ele>1426.4204</ele>
        <time>2021-05-23T13:06:26</time>
      </trkpt>
      <trkpt lat="45.60333" lon="6.05604">
        <ele>1426.4204</ele>
        <time>2021-05-23T13:06:31</time>
      </trkpt>
      <trkpt lat="45.60333" lon="6.05604">
        <ele>1426.4204</ele>
        <time>2021-05-23T13:06:32</time>
      </trkpt>
      <trkpt lat="45.60333" lon="6.05605">
        <ele>1426.7205</ele>
        <time>2021-05-23T13:06:35</time>
      </trkpt>
      <trkpt lat="45.60334" lon="6.05607">
        <ele>1426.7205</ele>
        <time>2021-05-23T13:06:36</time>
      </trkpt>
      <trkpt lat="45.60336" lon="6.05609">
        <ele>1426.7205</ele>
        <time>2021-05-23T13:06:40</time>
      </trkpt>
      <trkpt lat="45.60336" lon="6.05612">
        <ele>1425.9204</ele>
        <time>2021-05-23T13:07:15</time>
      </trkpt>
      <trkpt lat="45.60337" lon="6.05612">
        <ele>1426.0204</ele>
        <time>2021-05-23T13:07:25</time>
      </trkpt>
      <trkpt lat="45.60337" lon="6.05613">
        <ele>1426.0204</ele>
        <time>2021-05-23T13:07:26</time>
      </trkpt>
      <trkpt lat="45.60337" lon="6.05612">
        <ele>1426.0204</ele>
        <time>2021-05-23T13:07:27</time>
      </trkpt>
      <trkpt lat="45.60337" lon="6.05612">
        <ele>1426.0204</ele>
        <time>2021-05-23T13:07:28</time>
      </trkpt>
      <trkpt lat="45.60336" lon="6.05611">
        <ele>1426.0204</ele>
        <time>2021-05-23T13:07:29</time>
      </trkpt>
      <trkpt lat="45.60336" lon="6.05611">
        <ele>1426.0204</ele>
        <time>2021-05-23T13:07:30</time>
      </trkpt>
      <trkpt lat="45.60335" lon="6.0561">
        <ele>1426.0204</ele>
        <time>2021-05-23T13:07:34</time>
      </trkpt>
      <trkpt lat="45.60336" lon="6.0561">
        <ele>1425.9204</ele>
        <time>2021-05-23T13:07:37</time>
      </trkpt>
      <trkpt lat="45.60338" lon="6.0561">
        <ele>1425.9204</ele>
        <time>2021-05-23T13:07:39</time>
      </trkpt>
      <trkpt lat="45.60338" lon="6.05609">
        <ele>1425.9204</ele>
        <time>2021-05-23T13:07:40</time>
      </trkpt>
      <trkpt lat="45.60339" lon="6.05609">
        <ele>1425.9204</ele>
        <time>2021-05-23T13:07:41</time>
      </trkpt>
      <trkpt lat="45.6034" lon="6.0561">
        <ele>1426.3204</ele>
        <time>2021-05-23T13:07:47</time>
      </trkpt>
      <trkpt lat="45.6034" lon="6.05608">
        <ele>1426.3204</ele>
        <time>2021-05-23T13:07:50</time>
      </trkpt>
      <trkpt lat="45.6034" lon="6.05608">
        <ele>1426.3204</ele>
        <time>2021-05-23T13:07:53</time>
      </trkpt>
      <trkpt lat="45.60341" lon="6.05607">
        <ele>1428.0204</ele>
        <time>2021-05-23T13:07:55</time>
      </trkpt>
      <trkpt lat="45.60345" lon="6.05606">
        <ele>1429.2205</ele>
        <time>2021-05-23T13:08:15</time>
      </trkpt>
      <trkpt lat="45.60346" lon="6.05607">
        <ele>1429.2205</ele>
        <time>2021-05-23T13:08:16</time>
      </trkpt>
      <trkpt lat="45.60352" lon="6.05611">
        <ele>1429.2205</ele>
        <time>2021-05-23T13:08:22</time>
      </trkpt>
      <trkpt lat="45.60354" lon="6.05611">
        <ele>1425.0204</ele>
        <time>2021-05-23T13:08:31</time>
      </trkpt>
      <trkpt lat="45.60357" lon="6.05613">
        <ele>1425.0204</ele>
        <time>2021-05-23T13:08:34</time>
      </trkpt>
      <trkpt lat="45.60357" lon="6.05613">
        <ele>1425.6205</ele>
        <time>2021-05-23T13:08:35</time>
      </trkpt>
      <trkpt lat="45.60358" lon="6.05613">
        <ele>1425.6205</ele>
        <time>2021-05-23T13:08:36</time>
      </trkpt>
      <trkpt lat="45.60367" lon="6.05617">
        <ele>1422.7205</ele>
        <time>2021-05-23T13:09:22</time>
      </trkpt>
      <trkpt lat="45.60367" lon="6.05616">
        <ele>1422.7205</ele>
        <time>2021-05-23T13:09:23</time>
      </trkpt>
      <trkpt lat="45.60368" lon="6.05615">
        <ele>1422.7205</ele>
        <time>2021-05-23T13:09:25</time>
      </trkpt>
      <trkpt lat="45.60368" lon="6.05614">
        <ele>1422.7205</ele>
        <time>2021-05-23T13:09:26</time>
      </trkpt>
      <trkpt lat="45.60368" lon="6.05613">
        <ele>1425.3204</ele>
        <time>2021-05-23T13:10:11</time>
      </trkpt>
      <trkpt lat="45.60368" lon="6.05613">
        <ele>1424.2205</ele>
        <time>2021-05-23T13:10:41</time>
      </trkpt>
      <trkpt lat="45.60368" lon="6.05613">
        <ele>1424.3204</ele>
        <time>2021-05-23T13:11:15</time>
      </trkpt>
      <trkpt lat="45.60368" lon="6.05613">
        <ele>1424.4204</ele>
        <time>2021-05-23T13:11:50</time>
      </trkpt>
      <trkpt lat="45.60368" lon="6.05613">
        <ele>1424.5204</ele>
        <time>2021-05-23T13:12:20</time>
      </trkpt>
      <trkpt lat="45.60368" lon="6.05613">
        <ele>1424.6205</ele>
        <time>2021-05-23T13:12:50</time>
      </trkpt>
      <trkpt lat="45.60368" lon="6.05613">
        <ele>1424.7205</ele>
        <time>2021-05-23T13:13:21</time>
      </trkpt>
      <trkpt lat="45.60368" lon="6.05613">
        <ele>1424.9204</ele>
        <time>2021-05-23T13:13:51</time>
      </trkpt>
      <trkpt lat="45.60368" lon="6.05613">
        <ele>1425.0204</ele>
        <time>2021-05-23T13:14:21</time>
      </trkpt>
      <trkpt lat="45.60368" lon="6.05614">
        <ele>1425.0204</ele>
        <time>2021-05-23T13:14:51</time>
      </trkpt>
      <trkpt lat="45.60368" lon="6.05614">
        <ele>1425.0204</ele>
        <time>2021-05-23T13:15:21</time>
      </trkpt>
      <trkpt lat="45.60368" lon="6.05614">
        <ele>1424.8204</ele>
        <time>2021-05-23T13:15:51</time>
      </trkpt>
      <trkpt lat="45.60368" lon="6.05614">
        <ele>1425.1205</ele>
        <time>2021-05-23T13:16:21</time>
      </trkpt>
      <trkpt lat="45.60368" lon="6.05614">
        <ele>1425.2205</ele>
        <time>2021-05-23T13:16:52</time>
      </trkpt>
      <trkpt lat="45.60368" lon="6.05614">
        <ele>1425.2205</ele>
        <time>2021-05-23T13:17:22</time>
      </trkpt>
      <trkpt lat="45.60369" lon="6.05613">
        <ele>1425.3204</ele>
        <time>2021-05-23T13:17:44</time>
      </trkpt>
      <trkpt lat="45.60369" lon="6.05613">
        <ele>1425.3204</ele>
        <time>2021-05-23T13:17:45</time>
      </trkpt>
      <trkpt lat="45.60371" lon="6.05614">
        <ele>1425.3204</ele>
        <time>2021-05-23T13:17:54</time>
      </trkpt>
      <trkpt lat="45.60371" lon="6.05615">
        <ele>1425.3204</ele>
        <time>2021-05-23T13:17:55</time>
      </trkpt>
      <trkpt lat="45.60372" lon="6.05615">
        <ele>1425.3204</ele>
        <time>2021-05-23T13:18:00</time>
      </trkpt>
      <trkpt lat="45.60373" lon="6.05615">
        <ele>1426.8204</ele>
        <time>2021-05-23T13:18:01</time>
      </trkpt>
      <trkpt lat="45.60373" lon="6.05615">
        <ele>1426.8204</ele>
        <time>2021-05-23T13:18:03</time>
      </trkpt>
      <trkpt lat="45.60374" lon="6.05614">
        <ele>1426.8204</ele>
        <time>2021-05-23T13:18:04</time>
      </trkpt>
      <trkpt lat="45.60375" lon="6.05614">
        <ele>1426.8204</ele>
        <time>2021-05-23T13:18:08</time>
      </trkpt>
      <trkpt lat="45.60375" lon="6.05614">
        <ele>1426.8204</ele>
        <time>2021-05-23T13:18:09</time>
      </trkpt>
      <trkpt lat="45.60378" lon="6.05613">
        <ele>1429.2205</ele>
        <time>2021-05-23T13:18:26</time>
      </trkpt>
      <trkpt lat="45.60379" lon="6.05613">
        <ele>1429.2205</ele>
        <time>2021-05-23T13:18:27</time>
      </trkpt>
      <trkpt lat="45.6038" lon="6.05613">
        <ele>1429.2205</ele>
        <time>2021-05-23T13:18:28</time>
      </trkpt>
      <trkpt lat="45.60383" lon="6.05613">
        <ele>1431.0204</ele>
        <time>2021-05-23T13:18:31</time>
      </trkpt>
      <trkpt lat="45.60383" lon="6.05613">
        <ele>1431.0204</ele>
        <time>2021-05-23T13:18:32</time>
      </trkpt>
      <trkpt lat="45.60384" lon="6.05613">
        <ele>1431.0204</ele>
        <time>2021-05-23T13:18:33</time>
      </trkpt>
      <trkpt lat="45.60385" lon="6.05614">
        <ele>1431.0204</ele>
        <time>2021-05-23T13:18:34</time>
      </trkpt>
      <trkpt lat="45.6039" lon="6.05615">
        <ele>1431.0204</ele>
        <time>2021-05-23T13:18:46</time>
      </trkpt>
      <trkpt lat="45.60392" lon="6.05615">
        <ele>1431.0204</ele>
        <time>2021-05-23T13:18:49</time>
      </trkpt>
      <trkpt lat="45.60393" lon="6.05615">
        <ele>1431.0204</ele>
        <time>2021-05-23T13:18:51</time>
      </trkpt>
      <trkpt lat="45.60395" lon="6.05614">
        <ele>1431.0204</ele>
        <time>2021-05-23T13:18:53</time>
      </trkpt>
      <trkpt lat="45.60397" lon="6.05613">
        <ele>1431.0204</ele>
        <time>2021-05-23T13:18:55</time>
      </trkpt>
      <trkpt lat="45.604" lon="6.05613">
        <ele>1432.1205</ele>
        <time>2021-05-23T13:19:04</time>
      </trkpt>
      <trkpt lat="45.60401" lon="6.05613">
        <ele>1432.1205</ele>
        <time>2021-05-23T13:19:05</time>
      </trkpt>
      <trkpt lat="45.60404" lon="6.05612">
        <ele>1432.1205</ele>
        <time>2021-05-23T13:19:11</time>
      </trkpt>
      <trkpt lat="45.60406" lon="6.05611">
        <ele>1432.1205</ele>
        <time>2021-05-23T13:19:14</time>
      </trkpt>
      <trkpt lat="45.60407" lon="6.05612">
        <ele>1432.1205</ele>
        <time>2021-05-23T13:19:18</time>
      </trkpt>
      <trkpt lat="45.60407" lon="6.0561">
        <ele>1432.1205</ele>
        <time>2021-05-23T13:19:19</time>
      </trkpt>
      <trkpt lat="45.60409" lon="6.05609">
        <ele>1433.6205</ele>
        <time>2021-05-23T13:19:24</time>
      </trkpt>
      <trkpt lat="45.6041" lon="6.05606">
        <ele>1433.6205</ele>
        <time>2021-05-23T13:19:28</time>
      </trkpt>
      <trkpt lat="45.60413" lon="6.05606">
        <ele>1433.6205</ele>
        <time>2021-05-23T13:19:36</time>
      </trkpt>
      <trkpt lat="45.60415" lon="6.05607">
        <ele>1433.6205</ele>
        <time>2021-05-23T13:19:40</time>
      </trkpt>
      <trkpt lat="45.60416" lon="6.05606">
        <ele>1434.0204</ele>
        <time>2021-05-23T13:19:41</time>
      </trkpt>
      <trkpt lat="45.60417" lon="6.05606">
        <ele>1434.0204</ele>
        <time>2021-05-23T13:19:42</time>
      </trkpt>
      <trkpt lat="45.60419" lon="6.05606">
        <ele>1433.2205</ele>
        <time>2021-05-23T13:19:59</time>
      </trkpt>
      <trkpt lat="45.6042" lon="6.05606">
        <ele>1433.2205</ele>
        <time>2021-05-23T13:20:00</time>
      </trkpt>
      <trkpt lat="45.60421" lon="6.05606">
        <ele>1435.2205</ele>
        <time>2021-05-23T13:20:03</time>
      </trkpt>
      <trkpt lat="45.60421" lon="6.05606">
        <ele>1435.2205</ele>
        <time>2021-05-23T13:20:04</time>
      </trkpt>
      <trkpt lat="45.60422" lon="6.05608">
        <ele>1437.6205</ele>
        <time>2021-05-23T13:20:12</time>
      </trkpt>
      <trkpt lat="45.60422" lon="6.05608">
        <ele>1437.6205</ele>
        <time>2021-05-23T13:20:13</time>
      </trkpt>
      <trkpt lat="45.60423" lon="6.0561">
        <ele>1437.6205</ele>
        <time>2021-05-23T13:20:15</time>
      </trkpt>
      <trkpt lat="45.60423" lon="6.05611">
        <ele>1437.6205</ele>
        <time>2021-05-23T13:20:16</time>
      </trkpt>
      <trkpt lat="45.60423" lon="6.05613">
        <ele>1437.6205</ele>
        <time>2021-05-23T13:20:17</time>
      </trkpt>
      <trkpt lat="45.60424" lon="6.05613">
        <ele>1437.6205</ele>
        <time>2021-05-23T13:20:18</time>
      </trkpt>
      <trkpt lat="45.60424" lon="6.05615">
        <ele>1437.6205</ele>
        <time>2021-05-23T13:20:36</time>
      </trkpt>
      <trkpt lat="45.60424" lon="6.05616">
        <ele>1437.6205</ele>
        <time>2021-05-23T13:20:37</time>
      </trkpt>
      <trkpt lat="45.60425" lon="6.05616">
        <ele>1437.6205</ele>
        <time>2021-05-23T13:20:38</time>
      </trkpt>
      <trkpt lat="45.60425" lon="6.05617">
        <ele>1437.6205</ele>
        <time>2021-05-23T13:20:39</time>
      </trkpt>
      <trkpt lat="45.60424" lon="6.0562">
        <ele>1437.6205</ele>
        <time>2021-05-23T13:20:42</time>
      </trkpt>
      <trkpt lat="45.60425" lon="6.05622">
        <ele>1437.6205</ele>
        <time>2021-05-23T13:21:23</time>
      </trkpt>
      <trkpt lat="45.60424" lon="6.05622">
        <ele>1437.6205</ele>
        <time>2021-05-23T13:21:32</time>
      </trkpt>
      <trkpt lat="45.60424" lon="6.05622">
        <ele>1437.6205</ele>
        <time>2021-05-23T13:21:33</time>
      </trkpt>
      <trkpt lat="45.60427" lon="6.05621">
        <ele>1439.4204</ele>
        <time>2021-05-23T13:21:49</time>
      </trkpt>
      <trkpt lat="45.60426" lon="6.0562">
        <ele>1439.4204</ele>
        <time>2021-05-23T13:21:50</time>
      </trkpt>
      <trkpt lat="45.60426" lon="6.0562">
        <ele>1439.0204</ele>
        <time>2021-05-23T13:21:51</time>
      </trkpt>
      <trkpt lat="45.60426" lon="6.05619">
        <ele>1439.0204</ele>
        <time>2021-05-23T13:21:52</time>
      </trkpt>
      <trkpt lat="45.60426" lon="6.05617">
        <ele>1439.0204</ele>
        <time>2021-05-23T13:21:54</time>
      </trkpt>
      <trkpt lat="45.60426" lon="6.05617">
        <ele>1439.0204</ele>
        <time>2021-05-23T13:21:55</time>
      </trkpt>
      <trkpt lat="45.60426" lon="6.05616">
        <ele>1439.0204</ele>
        <time>2021-05-23T13:21:57</time>
      </trkpt>
      <trkpt lat="45.60426" lon="6.05615">
        <ele>1439.0204</ele>
        <time>2021-05-23T13:21:58</time>
      </trkpt>
      <trkpt lat="45.60426" lon="6.05615">
        <ele>1439.0204</ele>
        <time>2021-05-23T13:22:00</time>
      </trkpt>
      <trkpt lat="45.60427" lon="6.05615">
        <ele>1440.6205</ele>
        <time>2021-05-23T13:22:01</time>
      </trkpt>
      <trkpt lat="45.60427" lon="6.05616">
        <ele>1440.6205</ele>
        <time>2021-05-23T13:22:05</time>
      </trkpt>
      <trkpt lat="45.60427" lon="6.05616">
        <ele>1440.6205</ele>
        <time>2021-05-23T13:22:06</time>
      </trkpt>
      <trkpt lat="45.60429" lon="6.05617">
        <ele>1439.4204</ele>
        <time>2021-05-23T13:22:12</time>
      </trkpt>
      <trkpt lat="45.6043" lon="6.05616">
        <ele>1439.4204</ele>
        <time>2021-05-23T13:22:14</time>
      </trkpt>
      <trkpt lat="45.60431" lon="6.05616">
        <ele>1439.4204</ele>
        <time>2021-05-23T13:22:15</time>
      </trkpt>
      <trkpt lat="45.60432" lon="6.05615">
        <ele>1439.4204</ele>
        <time>2021-05-23T13:22:16</time>
      </trkpt>
      <trkpt lat="45.60433" lon="6.05615">
        <ele>1439.4204</ele>
        <time>2021-05-23T13:22:17</time>
      </trkpt>
      <trkpt lat="45.60433" lon="6.05614">
        <ele>1439.4204</ele>
        <time>2021-05-23T13:22:18</time>
      </trkpt>
      <trkpt lat="45.60434" lon="6.05614">
        <ele>1439.4204</ele>
        <time>2021-05-23T13:22:19</time>
      </trkpt>
      <trkpt lat="45.60435" lon="6.05613">
        <ele>1439.2205</ele>
        <time>2021-05-23T13:22:21</time>
      </trkpt>
      <trkpt lat="45.60436" lon="6.05613">
        <ele>1439.2205</ele>
        <time>2021-05-23T13:22:22</time>
      </trkpt>
      <trkpt lat="45.60437" lon="6.05612">
        <ele>1439.2205</ele>
        <time>2021-05-23T13:22:23</time>
      </trkpt>
      <trkpt lat="45.60437" lon="6.05612">
        <ele>1439.2205</ele>
        <time>2021-05-23T13:22:25</time>
      </trkpt>
      <trkpt lat="45.60438" lon="6.05611">
        <ele>1439.2205</ele>
        <time>2021-05-23T13:22:26</time>
      </trkpt>
      <trkpt lat="45.60438" lon="6.0561">
        <ele>1439.2205</ele>
        <time>2021-05-23T13:22:28</time>
      </trkpt>
      <trkpt lat="45.60438" lon="6.0561">
        <ele>1439.2205</ele>
        <time>2021-05-23T13:22:29</time>
      </trkpt>
      <trkpt lat="45.60439" lon="6.0561">
        <ele>1439.2205</ele>
        <time>2021-05-23T13:22:30</time>
      </trkpt>
      <trkpt lat="45.60443" lon="6.05616">
        <ele>1445.4204</ele>
        <time>2021-05-23T13:22:54</time>
      </trkpt>
      <trkpt lat="45.60443" lon="6.05616">
        <ele>1445.4204</ele>
        <time>2021-05-23T13:22:55</time>
      </trkpt>
      <trkpt lat="45.60443" lon="6.05618">
        <ele>1445.4204</ele>
        <time>2021-05-23T13:23:10</time>
      </trkpt>
      <trkpt lat="45.60444" lon="6.05618">
        <ele>1445.4204</ele>
        <time>2021-05-23T13:23:11</time>
      </trkpt>
      <trkpt lat="45.60445" lon="6.05618">
        <ele>1445.4204</ele>
        <time>2021-05-23T13:23:12</time>
      </trkpt>
      <trkpt lat="45.60446" lon="6.05618">
        <ele>1445.4204</ele>
        <time>2021-05-23T13:23:13</time>
      </trkpt>
      <trkpt lat="45.60447" lon="6.05617">
        <ele>1445.4204</ele>
        <time>2021-05-23T13:23:14</time>
      </trkpt>
      <trkpt lat="45.60449" lon="6.05616">
        <ele>1445.4204</ele>
        <time>2021-05-23T13:23:16</time>
      </trkpt>
      <trkpt lat="45.6045" lon="6.05616">
        <ele>1445.4204</ele>
        <time>2021-05-23T13:23:17</time>
      </trkpt>
      <trkpt lat="45.60451" lon="6.05616">
        <ele>1445.4204</ele>
        <time>2021-05-23T13:23:20</time>
      </trkpt>
      <trkpt lat="45.60452" lon="6.05616">
        <ele>1447.3204</ele>
        <time>2021-05-23T13:23:23</time>
      </trkpt>
      <trkpt lat="45.60453" lon="6.05617">
        <ele>1447.3204</ele>
        <time>2021-05-23T13:23:24</time>
      </trkpt>
      <trkpt lat="45.60455" lon="6.05619">
        <ele>1447.3204</ele>
        <time>2021-05-23T13:23:29</time>
      </trkpt>
      <trkpt lat="45.60456" lon="6.05618">
        <ele>1446.7205</ele>
        <time>2021-05-23T13:23:31</time>
      </trkpt>
      <trkpt lat="45.60459" lon="6.05617">
        <ele>1446.7205</ele>
        <time>2021-05-23T13:23:34</time>
      </trkpt>
      <trkpt lat="45.60459" lon="6.05616">
        <ele>1446.7205</ele>
        <time>2021-05-23T13:23:35</time>
      </trkpt>
      <trkpt lat="45.6046" lon="6.05617">
        <ele>1446.7205</ele>
        <time>2021-05-23T13:23:36</time>
      </trkpt>
      <trkpt lat="45.60461" lon="6.05618">
        <ele>1446.7205</ele>
        <time>2021-05-23T13:23:39</time>
      </trkpt>
      <trkpt lat="45.60461" lon="6.0562">
        <ele>1448.7205</ele>
        <time>2021-05-23T13:23:41</time>
      </trkpt>
      <trkpt lat="45.60461" lon="6.05623">
        <ele>1450.2205</ele>
        <time>2021-05-23T13:23:51</time>
      </trkpt>
      <trkpt lat="45.60469" lon="6.05627">
        <ele>1450.2205</ele>
        <time>2021-05-23T13:24:00</time>
      </trkpt>
      <trkpt lat="45.6047" lon="6.05627">
        <ele>1449.8204</ele>
        <time>2021-05-23T13:24:03</time>
      </trkpt>
      <trkpt lat="45.60472" lon="6.05627">
        <ele>1449.8204</ele>
        <time>2021-05-23T13:24:06</time>
      </trkpt>
      <trkpt lat="45.60473" lon="6.05626">
        <ele>1449.8204</ele>
        <time>2021-05-23T13:24:08</time>
      </trkpt>
      <trkpt lat="45.60474" lon="6.05626">
        <ele>1449.8204</ele>
        <time>2021-05-23T13:24:10</time>
      </trkpt>
      <trkpt lat="45.60481" lon="6.05625">
        <ele>1449.1205</ele>
        <time>2021-05-23T13:24:27</time>
      </trkpt>
      <trkpt lat="45.60482" lon="6.05625">
        <ele>1449.1205</ele>
        <time>2021-05-23T13:24:28</time>
      </trkpt>
      <trkpt lat="45.60483" lon="6.05625">
        <ele>1449.0204</ele>
        <time>2021-05-23T13:24:31</time>
      </trkpt>
      <trkpt lat="45.60483" lon="6.05625">
        <ele>1449.0204</ele>
        <time>2021-05-23T13:24:32</time>
      </trkpt>
      <trkpt lat="45.60494" lon="6.05624">
        <ele>1450.4537</ele>
        <time>2021-05-23T13:24:48</time>
      </trkpt>
      <trkpt lat="45.60494" lon="6.05623">
        <ele>1450.4537</ele>
        <time>2021-05-23T13:24:49</time>
      </trkpt>
      <trkpt lat="45.60495" lon="6.05624">
        <ele>1450.4537</ele>
        <time>2021-05-23T13:24:50</time>
      </trkpt>
      <trkpt lat="45.60495" lon="6.05624">
        <ele>1451.8204</ele>
        <time>2021-05-23T13:24:51</time>
      </trkpt>
      <trkpt lat="45.60496" lon="6.05626">
        <ele>1453.6205</ele>
        <time>2021-05-23T13:25:02</time>
      </trkpt>
      <trkpt lat="45.60497" lon="6.05627">
        <ele>1453.6205</ele>
        <time>2021-05-23T13:25:05</time>
      </trkpt>
      <trkpt lat="45.60498" lon="6.05627">
        <ele>1453.6205</ele>
        <time>2021-05-23T13:25:09</time>
      </trkpt>
      <trkpt lat="45.60499" lon="6.05627">
        <ele>1453.6205</ele>
        <time>2021-05-23T13:25:10</time>
      </trkpt>
      <trkpt lat="45.605" lon="6.05628">
        <ele>1454.4204</ele>
        <time>2021-05-23T13:25:11</time>
      </trkpt>
      <trkpt lat="45.60503" lon="6.05627">
        <ele>1454.4204</ele>
        <time>2021-05-23T13:25:15</time>
      </trkpt>
      <trkpt lat="45.60504" lon="6.05627">
        <ele>1454.4204</ele>
        <time>2021-05-23T13:25:16</time>
      </trkpt>
      <trkpt lat="45.60505" lon="6.05627">
        <ele>1454.4204</ele>
        <time>2021-05-23T13:25:20</time>
      </trkpt>
      <trkpt lat="45.60507" lon="6.05626">
        <ele>1452.8204</ele>
        <time>2021-05-23T13:25:22</time>
      </trkpt>
      <trkpt lat="45.60509" lon="6.05624">
        <ele>1452.8204</ele>
        <time>2021-05-23T13:25:25</time>
      </trkpt>
      <trkpt lat="45.6051" lon="6.05623">
        <ele>1452.8204</ele>
        <time>2021-05-23T13:25:28</time>
      </trkpt>
      <trkpt lat="45.6051" lon="6.05622">
        <ele>1452.8204</ele>
        <time>2021-05-23T13:25:29</time>
      </trkpt>
      <trkpt lat="45.60511" lon="6.05622">
        <ele>1452.8204</ele>
        <time>2021-05-23T13:25:30</time>
      </trkpt>
      <trkpt lat="45.60513" lon="6.05622">
        <ele>1454.5204</ele>
        <time>2021-05-23T13:25:32</time>
      </trkpt>
      <trkpt lat="45.60514" lon="6.05621">
        <ele>1454.5204</ele>
        <time>2021-05-23T13:25:40</time>
      </trkpt>
      <trkpt lat="45.60515" lon="6.05621">
        <ele>1453.8204</ele>
        <time>2021-05-23T13:25:41</time>
      </trkpt>
      <trkpt lat="45.60517" lon="6.0562">
        <ele>1453.8204</ele>
        <time>2021-05-23T13:25:45</time>
      </trkpt>
      <trkpt lat="45.6052" lon="6.05619">
        <ele>1453.0204</ele>
        <time>2021-05-23T13:25:55</time>
      </trkpt>
      <trkpt lat="45.60521" lon="6.05619">
        <ele>1453.0204</ele>
        <time>2021-05-23T13:25:56</time>
      </trkpt>
      <trkpt lat="45.60522" lon="6.05619">
        <ele>1453.0204</ele>
        <time>2021-05-23T13:25:57</time>
      </trkpt>
      <trkpt lat="45.60522" lon="6.05619">
        <ele>1453.0204</ele>
        <time>2021-05-23T13:25:58</time>
      </trkpt>
      <trkpt lat="45.60524" lon="6.0562">
        <ele>1453.0204</ele>
        <time>2021-05-23T13:26:00</time>
      </trkpt>
      <trkpt lat="45.60525" lon="6.05621">
        <ele>1454.4204</ele>
        <time>2021-05-23T13:26:01</time>
      </trkpt>
      <trkpt lat="45.60527" lon="6.05621">
        <ele>1454.4204</ele>
        <time>2021-05-23T13:26:08</time>
      </trkpt>
      <trkpt lat="45.60528" lon="6.05621">
        <ele>1454.4204</ele>
        <time>2021-05-23T13:26:09</time>
      </trkpt>
      <trkpt lat="45.60529" lon="6.05622">
        <ele>1454.4204</ele>
        <time>2021-05-23T13:26:10</time>
      </trkpt>
      <trkpt lat="45.60531" lon="6.05622">
        <ele>1454.4204</ele>
        <time>2021-05-23T13:26:16</time>
      </trkpt>
      <trkpt lat="45.60532" lon="6.05623">
        <ele>1454.4204</ele>
        <time>2021-05-23T13:26:17</time>
      </trkpt>
      <trkpt lat="45.60533" lon="6.05624">
        <ele>1454.4204</ele>
        <time>2021-05-23T13:26:18</time>
      </trkpt>
      <trkpt lat="45.60535" lon="6.05625">
        <ele>1454.5204</ele>
        <time>2021-05-23T13:26:21</time>
      </trkpt>
      <trkpt lat="45.60538" lon="6.05626">
        <ele>1454.5204</ele>
        <time>2021-05-23T13:26:24</time>
      </trkpt>
      <trkpt lat="45.60541" lon="6.05624">
        <ele>1454.5204</ele>
        <time>2021-05-23T13:26:47</time>
      </trkpt>
      <trkpt lat="45.60542" lon="6.05623">
        <ele>1454.5204</ele>
        <time>2021-05-23T13:26:48</time>
      </trkpt>
      <trkpt lat="45.60542" lon="6.05622">
        <ele>1454.5204</ele>
        <time>2021-05-23T13:26:49</time>
      </trkpt>
      <trkpt lat="45.60542" lon="6.05621">
        <ele>1454.5204</ele>
        <time>2021-05-23T13:26:50</time>
      </trkpt>
      <trkpt lat="45.60545" lon="6.0562">
        <ele>1456.7205</ele>
        <time>2021-05-23T13:27:00</time>
      </trkpt>
      <trkpt lat="45.60546" lon="6.05619">
        <ele>1458.1205</ele>
        <time>2021-05-23T13:27:01</time>
      </trkpt>
      <trkpt lat="45.60546" lon="6.05619">
        <ele>1458.1205</ele>
        <time>2021-05-23T13:27:02</time>
      </trkpt>
      <trkpt lat="45.60547" lon="6.0562">
        <ele>1458.1205</ele>
        <time>2021-05-23T13:27:03</time>
      </trkpt>
      <trkpt lat="45.60548" lon="6.05622">
        <ele>1458.1205</ele>
        <time>2021-05-23T13:27:05</time>
      </trkpt>
      <trkpt lat="45.60562" lon="6.05619">
        <ele>1459.3204</ele>
        <time>2021-05-23T13:27:24</time>
      </trkpt>
      <trkpt lat="45.60562" lon="6.05619">
        <ele>1459.3204</ele>
        <time>2021-05-23T13:27:25</time>
      </trkpt>
      <trkpt lat="45.60567" lon="6.05619">
        <ele>1461.0204</ele>
        <time>2021-05-23T13:27:33</time>
      </trkpt>
      <trkpt lat="45.60568" lon="6.05618">
        <ele>1461.0204</ele>
        <time>2021-05-23T13:27:34</time>
      </trkpt>
      <trkpt lat="45.60569" lon="6.05617">
        <ele>1461.0204</ele>
        <time>2021-05-23T13:27:36</time>
      </trkpt>
      <trkpt lat="45.6057" lon="6.05617">
        <ele>1461.0204</ele>
        <time>2021-05-23T13:27:37</time>
      </trkpt>
      <trkpt lat="45.60571" lon="6.05616">
        <ele>1461.0204</ele>
        <time>2021-05-23T13:27:39</time>
      </trkpt>
      <trkpt lat="45.60571" lon="6.05616">
        <ele>1461.0204</ele>
        <time>2021-05-23T13:27:40</time>
      </trkpt>
      <trkpt lat="45.60571" lon="6.05616">
        <ele>1463.6205</ele>
        <time>2021-05-23T13:27:42</time>
      </trkpt>
      <trkpt lat="45.60571" lon="6.05616">
        <ele>1463.6205</ele>
        <time>2021-05-23T13:27:43</time>
      </trkpt>
      <trkpt lat="45.60571" lon="6.05616">
        <ele>1463.6205</ele>
        <time>2021-05-23T13:27:44</time>
      </trkpt>
      <trkpt lat="45.60572" lon="6.05615">
        <ele>1463.6205</ele>
        <time>2021-05-23T13:27:47</time>
      </trkpt>
      <trkpt lat="45.60572" lon="6.05615">
        <ele>1463.6205</ele>
        <time>2021-05-23T13:27:48</time>
      </trkpt>
      <trkpt lat="45.60573" lon="6.05615">
        <ele>1463.6205</ele>
        <time>2021-05-23T13:27:49</time>
      </trkpt>
      <trkpt lat="45.60573" lon="6.05615">
        <ele>1463.6205</ele>
        <time>2021-05-23T13:27:50</time>
      </trkpt>
      <trkpt lat="45.60574" lon="6.05616">
        <ele>1463.1205</ele>
        <time>2021-05-23T13:27:51</time>
      </trkpt>
      <trkpt lat="45.60576" lon="6.05618">
        <ele>1463.1205</ele>
        <time>2021-05-23T13:27:54</time>
      </trkpt>
      <trkpt lat="45.60579" lon="6.05621">
        <ele>1463.1205</ele>
        <time>2021-05-23T13:28:00</time>
      </trkpt>
      <trkpt lat="45.60579" lon="6.05623">
        <ele>1463.1205</ele>
        <time>2021-05-23T13:28:30</time>
      </trkpt>
      <trkpt lat="45.60581" lon="6.05626">
        <ele>1459.1205</ele>
        <time>2021-05-23T13:28:31</time>
      </trkpt>
      <trkpt lat="45.60583" lon="6.05633">
        <ele>1459.1205</ele>
        <time>2021-05-23T13:28:33</time>
      </trkpt>
      <trkpt lat="45.60583" lon="6.05634">
        <ele>1459.1205</ele>
        <time>2021-05-23T13:28:34</time>
      </trkpt>
      <trkpt lat="45.60583" lon="6.05634">
        <ele>1459.1205</ele>
        <time>2021-05-23T13:28:35</time>
      </trkpt>
      <trkpt lat="45.60583" lon="6.05634">
        <ele>1459.1205</ele>
        <time>2021-05-23T13:28:36</time>
      </trkpt>
      <trkpt lat="45.60584" lon="6.05634">
        <ele>1459.1205</ele>
        <time>2021-05-23T13:28:37</time>
      </trkpt>
      <trkpt lat="45.60584" lon="6.05636">
        <ele>1459.2205</ele>
        <time>2021-05-23T13:28:45</time>
      </trkpt>
      <trkpt lat="45.60583" lon="6.05637">
        <ele>1459.2205</ele>
        <time>2021-05-23T13:28:46</time>
      </trkpt>
      <trkpt lat="45.60585" lon="6.05638">
        <ele>1460.6205</ele>
        <time>2021-05-23T13:29:01</time>
      </trkpt>
      <trkpt lat="45.60585" lon="6.05638">
        <ele>1460.6205</ele>
        <time>2021-05-23T13:29:02</time>
      </trkpt>
      <trkpt lat="45.60586" lon="6.05638">
        <ele>1460.6205</ele>
        <time>2021-05-23T13:29:03</time>
      </trkpt>
      <trkpt lat="45.60587" lon="6.05638">
        <ele>1460.6205</ele>
        <time>2021-05-23T13:29:04</time>
      </trkpt>
      <trkpt lat="45.60589" lon="6.05638">
        <ele>1460.6205</ele>
        <time>2021-05-23T13:29:06</time>
      </trkpt>
      <trkpt lat="45.6059" lon="6.05638">
        <ele>1460.6205</ele>
        <time>2021-05-23T13:29:09</time>
      </trkpt>
      <trkpt lat="45.60593" lon="6.0564">
        <ele>1461.2205</ele>
        <time>2021-05-23T13:29:14</time>
      </trkpt>
      <trkpt lat="45.60595" lon="6.05641">
        <ele>1461.2205</ele>
        <time>2021-05-23T13:29:40</time>
      </trkpt>
      <trkpt lat="45.60596" lon="6.0564">
        <ele>1456.7205</ele>
        <time>2021-05-23T13:29:41</time>
      </trkpt>
      <trkpt lat="45.60597" lon="6.05639">
        <ele>1456.7205</ele>
        <time>2021-05-23T13:29:42</time>
      </trkpt>
      <trkpt lat="45.60597" lon="6.05639">
        <ele>1456.7205</ele>
        <time>2021-05-23T13:29:43</time>
      </trkpt>
      <trkpt lat="45.60598" lon="6.05639">
        <ele>1456.7205</ele>
        <time>2021-05-23T13:29:44</time>
      </trkpt>
      <trkpt lat="45.60599" lon="6.0564">
        <ele>1456.7205</ele>
        <time>2021-05-23T13:29:45</time>
      </trkpt>
      <trkpt lat="45.60601" lon="6.05641">
        <ele>1456.7205</ele>
        <time>2021-05-23T13:29:47</time>
      </trkpt>
      <trkpt lat="45.60601" lon="6.05641">
        <ele>1456.7205</ele>
        <time>2021-05-23T13:29:48</time>
      </trkpt>
      <trkpt lat="45.60602" lon="6.05642">
        <ele>1456.7205</ele>
        <time>2021-05-23T13:29:49</time>
      </trkpt>
      <trkpt lat="45.60603" lon="6.05642">
        <ele>1456.7205</ele>
        <time>2021-05-23T13:29:50</time>
      </trkpt>
      <trkpt lat="45.60604" lon="6.05642">
        <ele>1455.2205</ele>
        <time>2021-05-23T13:29:51</time>
      </trkpt>
      <trkpt lat="45.60607" lon="6.05642">
        <ele>1457.3204</ele>
        <time>2021-05-23T13:30:08</time>
      </trkpt>
      <trkpt lat="45.60609" lon="6.05643">
        <ele>1457.3204</ele>
        <time>2021-05-23T13:30:10</time>
      </trkpt>
      <trkpt lat="45.6061" lon="6.05643">
        <ele>1459.9204</ele>
        <time>2021-05-23T13:30:11</time>
      </trkpt>
      <trkpt lat="45.6061" lon="6.05643">
        <ele>1459.9204</ele>
        <time>2021-05-23T13:30:12</time>
      </trkpt>
      <trkpt lat="45.60611" lon="6.05642">
        <ele>1459.9204</ele>
        <time>2021-05-23T13:30:13</time>
      </trkpt>
      <trkpt lat="45.60612" lon="6.05642">
        <ele>1459.9204</ele>
        <time>2021-05-23T13:30:14</time>
      </trkpt>
      <trkpt lat="45.60615" lon="6.05642">
        <ele>1459.9204</ele>
        <time>2021-05-23T13:30:17</time>
      </trkpt>
      <trkpt lat="45.60619" lon="6.05639">
        <ele>1461.1205</ele>
        <time>2021-05-23T13:30:22</time>
      </trkpt>
      <trkpt lat="45.6062" lon="6.05638">
        <ele>1461.1205</ele>
        <time>2021-05-23T13:30:23</time>
      </trkpt>
      <trkpt lat="45.60622" lon="6.05639">
        <ele>1461.1205</ele>
        <time>2021-05-23T13:30:29</time>
      </trkpt>
      <trkpt lat="45.60623" lon="6.05638">
        <ele>1462.5204</ele>
        <time>2021-05-23T13:30:31</time>
      </trkpt>
      <trkpt lat="45.60624" lon="6.05638">
        <ele>1462.5204</ele>
        <time>2021-05-23T13:30:32</time>
      </trkpt>
      <trkpt lat="45.60625" lon="6.05638">
        <ele>1462.5204</ele>
        <time>2021-05-23T13:30:33</time>
      </trkpt>
      <trkpt lat="45.60626" lon="6.05639">
        <ele>1462.5204</ele>
        <time>2021-05-23T13:30:34</time>
      </trkpt>
      <trkpt lat="45.60627" lon="6.05638">
        <ele>1462.5204</ele>
        <time>2021-05-23T13:30:35</time>
      </trkpt>
      <trkpt lat="45.60628" lon="6.05638">
        <ele>1462.5204</ele>
        <time>2021-05-23T13:30:36</time>
      </trkpt>
      <trkpt lat="45.60631" lon="6.05637">
        <ele>1462.5204</ele>
        <time>2021-05-23T13:30:38</time>
      </trkpt>
      <trkpt lat="45.60644" lon="6.05636">
        <ele>1461.1205</ele>
        <time>2021-05-23T13:30:51</time>
      </trkpt>
      <trkpt lat="45.60648" lon="6.05637">
        <ele>1461.1205</ele>
        <time>2021-05-23T13:30:58</time>
      </trkpt>
      <trkpt lat="45.60649" lon="6.05639">
        <ele>1461.1205</ele>
        <time>2021-05-23T13:31:00</time>
      </trkpt>
      <trkpt lat="45.6065" lon="6.05641">
        <ele>1461.9204</ele>
        <time>2021-05-23T13:31:01</time>
      </trkpt>
      <trkpt lat="45.6065" lon="6.05644">
        <ele>1461.9204</ele>
        <time>2021-05-23T13:31:03</time>
      </trkpt>
      <trkpt lat="45.6065" lon="6.05645">
        <ele>1461.9204</ele>
        <time>2021-05-23T13:31:04</time>
      </trkpt>
      <trkpt lat="45.60651" lon="6.05646">
        <ele>1461.9204</ele>
        <time>2021-05-23T13:31:05</time>
      </trkpt>
      <trkpt lat="45.60651" lon="6.05647">
        <ele>1461.9204</ele>
        <time>2021-05-23T13:31:06</time>
      </trkpt>
      <trkpt lat="45.60652" lon="6.05648">
        <ele>1461.9204</ele>
        <time>2021-05-23T13:31:07</time>
      </trkpt>
      <trkpt lat="45.60655" lon="6.05649">
        <ele>1461.9204</ele>
        <time>2021-05-23T13:31:10</time>
      </trkpt>
      <trkpt lat="45.60657" lon="6.05649">
        <ele>1461.9204</ele>
        <time>2021-05-23T13:31:11</time>
      </trkpt>
      <trkpt lat="45.60659" lon="6.05649">
        <ele>1461.9204</ele>
        <time>2021-05-23T13:31:13</time>
      </trkpt>
      <trkpt lat="45.60661" lon="6.05649">
        <ele>1461.9204</ele>
        <time>2021-05-23T13:31:14</time>
      </trkpt>
      <trkpt lat="45.60663" lon="6.05649">
        <ele>1461.9204</ele>
        <time>2021-05-23T13:31:16</time>
      </trkpt>
      <trkpt lat="45.60667" lon="6.05651">
        <ele>1461.9204</ele>
        <time>2021-05-23T13:31:20</time>
      </trkpt>
      <trkpt lat="45.60669" lon="6.05652">
        <ele>1463.3204</ele>
        <time>2021-05-23T13:31:21</time>
      </trkpt>
      <trkpt lat="45.60672" lon="6.05649">
        <ele>1463.3204</ele>
        <time>2021-05-23T13:31:23</time>
      </trkpt>
      <trkpt lat="45.60673" lon="6.05649">
        <ele>1463.3204</ele>
        <time>2021-05-23T13:31:24</time>
      </trkpt>
      <trkpt lat="45.60682" lon="6.05649">
        <ele>1465.7205</ele>
        <time>2021-05-23T13:31:34</time>
      </trkpt>
      <trkpt lat="45.60687" lon="6.05652">
        <ele>1465.7205</ele>
        <time>2021-05-23T13:31:40</time>
      </trkpt>
      <trkpt lat="45.60688" lon="6.05654">
        <ele>1465.7205</ele>
        <time>2021-05-23T13:31:43</time>
      </trkpt>
      <trkpt lat="45.60688" lon="6.05655">
        <ele>1465.7205</ele>
        <time>2021-05-23T13:31:46</time>
      </trkpt>
      <trkpt lat="45.60689" lon="6.05659">
        <ele>1465.7205</ele>
        <time>2021-05-23T13:31:50</time>
      </trkpt>
      <trkpt lat="45.6069" lon="6.05661">
        <ele>1467.4204</ele>
        <time>2021-05-23T13:31:51</time>
      </trkpt>
      <trkpt lat="45.60691" lon="6.05661">
        <ele>1467.4204</ele>
        <time>2021-05-23T13:31:52</time>
      </trkpt>
      <trkpt lat="45.60694" lon="6.05661">
        <ele>1467.4204</ele>
        <time>2021-05-23T13:31:55</time>
      </trkpt>
      <trkpt lat="45.60697" lon="6.0566">
        <ele>1467.4204</ele>
        <time>2021-05-23T13:31:57</time>
      </trkpt>
      <trkpt lat="45.60698" lon="6.0566">
        <ele>1467.4204</ele>
        <time>2021-05-23T13:31:58</time>
      </trkpt>
      <trkpt lat="45.60699" lon="6.05661">
        <ele>1467.4204</ele>
        <time>2021-05-23T13:32:00</time>
      </trkpt>
      <trkpt lat="45.607" lon="6.0566">
        <ele>1459.1205</ele>
        <time>2021-05-23T13:32:01</time>
      </trkpt>
      <trkpt lat="45.60702" lon="6.05659">
        <ele>1459.1205</ele>
        <time>2021-05-23T13:32:03</time>
      </trkpt>
      <trkpt lat="45.60703" lon="6.05659">
        <ele>1459.1205</ele>
        <time>2021-05-23T13:32:04</time>
      </trkpt>
      <trkpt lat="45.60703" lon="6.05659">
        <ele>1459.1205</ele>
        <time>2021-05-23T13:32:05</time>
      </trkpt>
      <trkpt lat="45.60704" lon="6.0566">
        <ele>1459.1205</ele>
        <time>2021-05-23T13:32:06</time>
      </trkpt>
      <trkpt lat="45.60707" lon="6.0566">
        <ele>1459.1205</ele>
        <time>2021-05-23T13:32:09</time>
      </trkpt>
      <trkpt lat="45.60708" lon="6.05661">
        <ele>1459.1205</ele>
        <time>2021-05-23T13:32:10</time>
      </trkpt>
      <trkpt lat="45.60709" lon="6.05661">
        <ele>1456.6205</ele>
        <time>2021-05-23T13:32:12</time>
      </trkpt>
      <trkpt lat="45.6071" lon="6.05661">
        <ele>1456.6205</ele>
        <time>2021-05-23T13:32:13</time>
      </trkpt>
      <trkpt lat="45.6071" lon="6.05661">
        <ele>1456.6205</ele>
        <time>2021-05-23T13:32:14</time>
      </trkpt>
      <trkpt lat="45.60711" lon="6.05661">
        <ele>1456.6205</ele>
        <time>2021-05-23T13:32:17</time>
      </trkpt>
      <trkpt lat="45.60712" lon="6.05661">
        <ele>1456.6205</ele>
        <time>2021-05-23T13:32:18</time>
      </trkpt>
      <trkpt lat="45.60712" lon="6.05661">
        <ele>1456.6205</ele>
        <time>2021-05-23T13:32:19</time>
      </trkpt>
      <trkpt lat="45.60716" lon="6.05663">
        <ele>1455.9204</ele>
        <time>2021-05-23T13:32:29</time>
      </trkpt>
      <trkpt lat="45.60717" lon="6.05663">
        <ele>1455.9204</ele>
        <time>2021-05-23T13:32:30</time>
      </trkpt>
      <trkpt lat="45.60718" lon="6.05663">
        <ele>1456.6205</ele>
        <time>2021-05-23T13:32:31</time>
      </trkpt>
      <trkpt lat="45.60722" lon="6.05664">
        <ele>1456.6205</ele>
        <time>2021-05-23T13:32:34</time>
      </trkpt>
      <trkpt lat="45.60723" lon="6.05665">
        <ele>1456.6205</ele>
        <time>2021-05-23T13:32:35</time>
      </trkpt>
      <trkpt lat="45.60728" lon="6.05672">
        <ele>1455.7205</ele>
        <time>2021-05-23T13:32:43</time>
      </trkpt>
      <trkpt lat="45.60729" lon="6.05673">
        <ele>1455.7205</ele>
        <time>2021-05-23T13:32:44</time>
      </trkpt>
      <trkpt lat="45.60732" lon="6.05674">
        <ele>1455.7205</ele>
        <time>2021-05-23T13:32:48</time>
      </trkpt>
      <trkpt lat="45.60733" lon="6.05677">
        <ele>1455.7205</ele>
        <time>2021-05-23T13:32:50</time>
      </trkpt>
      <trkpt lat="45.60734" lon="6.0568">
        <ele>1456.1205</ele>
        <time>2021-05-23T13:32:52</time>
      </trkpt>
      <trkpt lat="45.60735" lon="6.05682">
        <ele>1456.1205</ele>
        <time>2021-05-23T13:32:56</time>
      </trkpt>
      <trkpt lat="45.6074" lon="6.05687">
        <ele>1457.4204</ele>
        <time>2021-05-23T13:33:02</time>
      </trkpt>
      <trkpt lat="45.60741" lon="6.05688">
        <ele>1457.4204</ele>
        <time>2021-05-23T13:33:03</time>
      </trkpt>
      <trkpt lat="45.60743" lon="6.05689">
        <ele>1457.4204</ele>
        <time>2021-05-23T13:33:05</time>
      </trkpt>
      <trkpt lat="45.60744" lon="6.0569">
        <ele>1457.4204</ele>
        <time>2021-05-23T13:33:06</time>
      </trkpt>
      <trkpt lat="45.60746" lon="6.0569">
        <ele>1457.4204</ele>
        <time>2021-05-23T13:33:07</time>
      </trkpt>
      <trkpt lat="45.60747" lon="6.0569">
        <ele>1457.4204</ele>
        <time>2021-05-23T13:33:08</time>
      </trkpt>
      <trkpt lat="45.60748" lon="6.0569">
        <ele>1457.4204</ele>
        <time>2021-05-23T13:33:09</time>
      </trkpt>
      <trkpt lat="45.6075" lon="6.05689">
        <ele>1457.4204</ele>
        <time>2021-05-23T13:33:10</time>
      </trkpt>
      <trkpt lat="45.60751" lon="6.0569">
        <ele>1457.4204</ele>
        <time>2021-05-23T13:33:11</time>
      </trkpt>
      <trkpt lat="45.60752" lon="6.0569">
        <ele>1457.4204</ele>
        <time>2021-05-23T13:33:12</time>
      </trkpt>
      <trkpt lat="45.60754" lon="6.05691">
        <ele>1457.4204</ele>
        <time>2021-05-23T13:33:13</time>
      </trkpt>
      <trkpt lat="45.60755" lon="6.05691">
        <ele>1457.4204</ele>
        <time>2021-05-23T13:33:14</time>
      </trkpt>
      <trkpt lat="45.60756" lon="6.05691">
        <ele>1457.4204</ele>
        <time>2021-05-23T13:33:15</time>
      </trkpt>
      <trkpt lat="45.60757" lon="6.05691">
        <ele>1457.4204</ele>
        <time>2021-05-23T13:33:16</time>
      </trkpt>
      <trkpt lat="45.60757" lon="6.05691">
        <ele>1457.4204</ele>
        <time>2021-05-23T13:33:17</time>
      </trkpt>
      <trkpt lat="45.60758" lon="6.05691">
        <ele>1457.4204</ele>
        <time>2021-05-23T13:33:18</time>
      </trkpt>
      <trkpt lat="45.60758" lon="6.05692">
        <ele>1457.4204</ele>
        <time>2021-05-23T13:33:19</time>
      </trkpt>
      <trkpt lat="45.60759" lon="6.05692">
        <ele>1457.4204</ele>
        <time>2021-05-23T13:33:20</time>
      </trkpt>
      <trkpt lat="45.60761" lon="6.05692">
        <ele>1457.5204</ele>
        <time>2021-05-23T13:33:22</time>
      </trkpt>
      <trkpt lat="45.60761" lon="6.05692">
        <ele>1457.5204</ele>
        <time>2021-05-23T13:33:23</time>
      </trkpt>
      <trkpt lat="45.60765" lon="6.05695">
        <ele>1457.5204</ele>
        <time>2021-05-23T13:33:27</time>
      </trkpt>
      <trkpt lat="45.60765" lon="6.05697">
        <ele>1457.5204</ele>
        <time>2021-05-23T13:33:28</time>
      </trkpt>
      <trkpt lat="45.60766" lon="6.05699">
        <ele>1457.5204</ele>
        <time>2021-05-23T13:33:29</time>
      </trkpt>
      <trkpt lat="45.60771" lon="6.0571">
        <ele>1448.1205</ele>
        <time>2021-05-23T13:33:36</time>
      </trkpt>
      <trkpt lat="45.60772" lon="6.05712">
        <ele>1448.1205</ele>
        <time>2021-05-23T13:33:37</time>
      </trkpt>
      <trkpt lat="45.60773" lon="6.05715">
        <ele>1448.1205</ele>
        <time>2021-05-23T13:33:40</time>
      </trkpt>
      <trkpt lat="45.60773" lon="6.05718">
        <ele>1450.4204</ele>
        <time>2021-05-23T13:33:43</time>
      </trkpt>
      <trkpt lat="45.60772" lon="6.05719">
        <ele>1450.4204</ele>
        <time>2021-05-23T13:33:46</time>
      </trkpt>
      <trkpt lat="45.60772" lon="6.05721">
        <ele>1451.7205</ele>
        <time>2021-05-23T13:33:52</time>
      </trkpt>
      <trkpt lat="45.60778" lon="6.05733">
        <ele>1451.4204</ele>
        <time>2021-05-23T13:34:04</time>
      </trkpt>
      <trkpt lat="45.60779" lon="6.05734">
        <ele>1451.4204</ele>
        <time>2021-05-23T13:34:05</time>
      </trkpt>
      <trkpt lat="45.60781" lon="6.0574">
        <ele>1451.4204</ele>
        <time>2021-05-23T13:34:10</time>
      </trkpt>
      <trkpt lat="45.60781" lon="6.05741">
        <ele>1451.4204</ele>
        <time>2021-05-23T13:34:11</time>
      </trkpt>
      <trkpt lat="45.60782" lon="6.05742">
        <ele>1451.4204</ele>
        <time>2021-05-23T13:34:12</time>
      </trkpt>
      <trkpt lat="45.60782" lon="6.05742">
        <ele>1451.4204</ele>
        <time>2021-05-23T13:34:13</time>
      </trkpt>
      <trkpt lat="45.60783" lon="6.05743">
        <ele>1451.4204</ele>
        <time>2021-05-23T13:34:14</time>
      </trkpt>
      <trkpt lat="45.60783" lon="6.05743">
        <ele>1451.4204</ele>
        <time>2021-05-23T13:34:15</time>
      </trkpt>
      <trkpt lat="45.60784" lon="6.05744">
        <ele>1451.4204</ele>
        <time>2021-05-23T13:34:16</time>
      </trkpt>
      <trkpt lat="45.60785" lon="6.05745">
        <ele>1451.4204</ele>
        <time>2021-05-23T13:34:17</time>
      </trkpt>
      <trkpt lat="45.60786" lon="6.05745">
        <ele>1451.4204</ele>
        <time>2021-05-23T13:34:19</time>
      </trkpt>
      <trkpt lat="45.60789" lon="6.05746">
        <ele>1448.6205</ele>
        <time>2021-05-23T13:34:24</time>
      </trkpt>
      <trkpt lat="45.6079" lon="6.05746">
        <ele>1448.6205</ele>
        <time>2021-05-23T13:34:25</time>
      </trkpt>
      <trkpt lat="45.60791" lon="6.05748">
        <ele>1448.6205</ele>
        <time>2021-05-23T13:34:28</time>
      </trkpt>
      <trkpt lat="45.60799" lon="6.05759">
        <ele>1436.7205</ele>
        <time>2021-05-23T13:34:41</time>
      </trkpt>
      <trkpt lat="45.60801" lon="6.05757">
        <ele>1436.7205</ele>
        <time>2021-05-23T13:34:45</time>
      </trkpt>
      <trkpt lat="45.60802" lon="6.05758">
        <ele>1436.7205</ele>
        <time>2021-05-23T13:34:47</time>
      </trkpt>
      <trkpt lat="45.60804" lon="6.05758">
        <ele>1436.7205</ele>
        <time>2021-05-23T13:34:51</time>
      </trkpt>
      <trkpt lat="45.60808" lon="6.0576">
        <ele>1436.7205</ele>
        <time>2021-05-23T13:34:54</time>
      </trkpt>
      <trkpt lat="45.6081" lon="6.0576">
        <ele>1436.7205</ele>
        <time>2021-05-23T13:34:55</time>
      </trkpt>
      <trkpt lat="45.60811" lon="6.0576">
        <ele>1436.7205</ele>
        <time>2021-05-23T13:34:56</time>
      </trkpt>
      <trkpt lat="45.60812" lon="6.0576">
        <ele>1436.7205</ele>
        <time>2021-05-23T13:34:57</time>
      </trkpt>
      <trkpt lat="45.60813" lon="6.0576">
        <ele>1436.7205</ele>
        <time>2021-05-23T13:34:58</time>
      </trkpt>
      <trkpt lat="45.60814" lon="6.0576">
        <ele>1436.7205</ele>
        <time>2021-05-23T13:34:59</time>
      </trkpt>
      <trkpt lat="45.60816" lon="6.05761">
        <ele>1427.8204</ele>
        <time>2021-05-23T13:35:29</time>
      </trkpt>
      <trkpt lat="45.60817" lon="6.05761">
        <ele>1428.3204</ele>
        <time>2021-05-23T13:35:40</time>
      </trkpt>
      <trkpt lat="45.60817" lon="6.05761">
        <ele>1428.8204</ele>
        <time>2021-05-23T13:35:41</time>
      </trkpt>
      <trkpt lat="45.60818" lon="6.05761">
        <ele>1428.8204</ele>
        <time>2021-05-23T13:35:42</time>
      </trkpt>
      <trkpt lat="45.60819" lon="6.05761">
        <ele>1428.8204</ele>
        <time>2021-05-23T13:35:43</time>
      </trkpt>
      <trkpt lat="45.60821" lon="6.05762">
        <ele>1428.8204</ele>
        <time>2021-05-23T13:35:45</time>
      </trkpt>
      <trkpt lat="45.60821" lon="6.05762">
        <ele>1428.8204</ele>
        <time>2021-05-23T13:35:46</time>
      </trkpt>
      <trkpt lat="45.60822" lon="6.05762">
        <ele>1428.8204</ele>
        <time>2021-05-23T13:35:47</time>
      </trkpt>
      <trkpt lat="45.60822" lon="6.05763">
        <ele>1428.8204</ele>
        <time>2021-05-23T13:35:48</time>
      </trkpt>
      <trkpt lat="45.60823" lon="6.05764">
        <ele>1428.8204</ele>
        <time>2021-05-23T13:35:49</time>
      </trkpt>
      <trkpt lat="45.60824" lon="6.05766">
        <ele>1428.1205</ele>
        <time>2021-05-23T13:35:51</time>
      </trkpt>
      <trkpt lat="45.60825" lon="6.05767">
        <ele>1428.1205</ele>
        <time>2021-05-23T13:35:52</time>
      </trkpt>
      <trkpt lat="45.60826" lon="6.05767">
        <ele>1428.1205</ele>
        <time>2021-05-23T13:35:53</time>
      </trkpt>
      <trkpt lat="45.60826" lon="6.05768">
        <ele>1428.1205</ele>
        <time>2021-05-23T13:35:55</time>
      </trkpt>
      <trkpt lat="45.60827" lon="6.05768">
        <ele>1428.1205</ele>
        <time>2021-05-23T13:35:56</time>
      </trkpt>
      <trkpt lat="45.60828" lon="6.05768">
        <ele>1428.1205</ele>
        <time>2021-05-23T13:35:57</time>
      </trkpt>
      <trkpt lat="45.60836" lon="6.05775">
        <ele>1424.8204</ele>
        <time>2021-05-23T13:36:07</time>
      </trkpt>
      <trkpt lat="45.60837" lon="6.05775">
        <ele>1424.8204</ele>
        <time>2021-05-23T13:36:09</time>
      </trkpt>
      <trkpt lat="45.60838" lon="6.05776">
        <ele>1424.8204</ele>
        <time>2021-05-23T13:36:10</time>
      </trkpt>
      <trkpt lat="45.6084" lon="6.05778">
        <ele>1424.8204</ele>
        <time>2021-05-23T13:36:14</time>
      </trkpt>
      <trkpt lat="45.60842" lon="6.05781">
        <ele>1423.2205</ele>
        <time>2021-05-23T13:36:17</time>
      </trkpt>
      <trkpt lat="45.60843" lon="6.05781">
        <ele>1423.2205</ele>
        <time>2021-05-23T13:36:18</time>
      </trkpt>
      <trkpt lat="45.60846" lon="6.0578">
        <ele>1423.2205</ele>
        <time>2021-05-23T13:36:20</time>
      </trkpt>
      <trkpt lat="45.60848" lon="6.05781">
        <ele>1423.2205</ele>
        <time>2021-05-23T13:36:23</time>
      </trkpt>
      <trkpt lat="45.60849" lon="6.05781">
        <ele>1423.2205</ele>
        <time>2021-05-23T13:36:24</time>
      </trkpt>
      <trkpt lat="45.6085" lon="6.05783">
        <ele>1426.5204</ele>
        <time>2021-05-23T13:36:26</time>
      </trkpt>
      <trkpt lat="45.60851" lon="6.05784">
        <ele>1426.5204</ele>
        <time>2021-05-23T13:36:27</time>
      </trkpt>
      <trkpt lat="45.60853" lon="6.05786">
        <ele>1426.5204</ele>
        <time>2021-05-23T13:36:29</time>
      </trkpt>
      <trkpt lat="45.60854" lon="6.05787">
        <ele>1426.5204</ele>
        <time>2021-05-23T13:36:31</time>
      </trkpt>
      <trkpt lat="45.60854" lon="6.05788">
        <ele>1426.5204</ele>
        <time>2021-05-23T13:36:32</time>
      </trkpt>
      <trkpt lat="45.60855" lon="6.05788">
        <ele>1426.5204</ele>
        <time>2021-05-23T13:36:33</time>
      </trkpt>
      <trkpt lat="45.60856" lon="6.05788">
        <ele>1426.5204</ele>
        <time>2021-05-23T13:36:34</time>
      </trkpt>
      <trkpt lat="45.60856" lon="6.05788">
        <ele>1425.9204</ele>
        <time>2021-05-23T13:36:35</time>
      </trkpt>
      <trkpt lat="45.60858" lon="6.05788">
        <ele>1425.9204</ele>
        <time>2021-05-23T13:36:37</time>
      </trkpt>
      <trkpt lat="45.6086" lon="6.05787">
        <ele>1425.9204</ele>
        <time>2021-05-23T13:36:39</time>
      </trkpt>
      <trkpt lat="45.60861" lon="6.05788">
        <ele>1425.9204</ele>
        <time>2021-05-23T13:36:40</time>
      </trkpt>
      <trkpt lat="45.60864" lon="6.05788">
        <ele>1425.9204</ele>
        <time>2021-05-23T13:36:44</time>
      </trkpt>
      <trkpt lat="45.60866" lon="6.05789">
        <ele>1425.4204</ele>
        <time>2021-05-23T13:36:47</time>
      </trkpt>
      <trkpt lat="45.60867" lon="6.05789">
        <ele>1425.4204</ele>
        <time>2021-05-23T13:36:48</time>
      </trkpt>
      <trkpt lat="45.60868" lon="6.05789">
        <ele>1425.4204</ele>
        <time>2021-05-23T13:36:49</time>
      </trkpt>
      <trkpt lat="45.60868" lon="6.05789">
        <ele>1425.4204</ele>
        <time>2021-05-23T13:36:50</time>
      </trkpt>
      <trkpt lat="45.60869" lon="6.05788">
        <ele>1425.4204</ele>
        <time>2021-05-23T13:36:51</time>
      </trkpt>
      <trkpt lat="45.6087" lon="6.05788">
        <ele>1425.4204</ele>
        <time>2021-05-23T13:36:52</time>
      </trkpt>
      <trkpt lat="45.6087" lon="6.05788">
        <ele>1425.4204</ele>
        <time>2021-05-23T13:36:53</time>
      </trkpt>
      <trkpt lat="45.60871" lon="6.05789">
        <ele>1425.4204</ele>
        <time>2021-05-23T13:36:54</time>
      </trkpt>
      <trkpt lat="45.60874" lon="6.0579">
        <ele>1420.4204</ele>
        <time>2021-05-23T13:37:01</time>
      </trkpt>
      <trkpt lat="45.60876" lon="6.05789">
        <ele>1420.4204</ele>
        <time>2021-05-23T13:37:04</time>
      </trkpt>
      <trkpt lat="45.60876" lon="6.0579">
        <ele>1419.7205</ele>
        <time>2021-05-23T13:37:05</time>
      </trkpt>
      <trkpt lat="45.60877" lon="6.0579">
        <ele>1419.7205</ele>
        <time>2021-05-23T13:37:06</time>
      </trkpt>
      <trkpt lat="45.60877" lon="6.0579">
        <ele>1419.7205</ele>
        <time>2021-05-23T13:37:07</time>
      </trkpt>
      <trkpt lat="45.60881" lon="6.05793">
        <ele>1419.7205</ele>
        <time>2021-05-23T13:37:11</time>
      </trkpt>
      <trkpt lat="45.60882" lon="6.05793">
        <ele>1419.7205</ele>
        <time>2021-05-23T13:37:12</time>
      </trkpt>
      <trkpt lat="45.60883" lon="6.05794">
        <ele>1419.7205</ele>
        <time>2021-05-23T13:37:13</time>
      </trkpt>
      <trkpt lat="45.60884" lon="6.05795">
        <ele>1419.7205</ele>
        <time>2021-05-23T13:37:14</time>
      </trkpt>
      <trkpt lat="45.60886" lon="6.05796">
        <ele>1418.5204</ele>
        <time>2021-05-23T13:37:16</time>
      </trkpt>
      <trkpt lat="45.60887" lon="6.05796">
        <ele>1418.5204</ele>
        <time>2021-05-23T13:37:17</time>
      </trkpt>
      <trkpt lat="45.60888" lon="6.05797">
        <ele>1418.5204</ele>
        <time>2021-05-23T13:37:18</time>
      </trkpt>
      <trkpt lat="45.60898" lon="6.05809">
        <ele>1416.7205</ele>
        <time>2021-05-23T13:37:30</time>
      </trkpt>
      <trkpt lat="45.60898" lon="6.05809">
        <ele>1416.7205</ele>
        <time>2021-05-23T13:37:31</time>
      </trkpt>
      <trkpt lat="45.609" lon="6.05809">
        <ele>1416.7205</ele>
        <time>2021-05-23T13:37:33</time>
      </trkpt>
      <trkpt lat="45.60901" lon="6.05809">
        <ele>1416.7205</ele>
        <time>2021-05-23T13:37:34</time>
      </trkpt>
      <trkpt lat="45.60902" lon="6.05809">
        <ele>1413.5204</ele>
        <time>2021-05-23T13:37:35</time>
      </trkpt>
      <trkpt lat="45.60903" lon="6.05809">
        <ele>1413.5204</ele>
        <time>2021-05-23T13:37:36</time>
      </trkpt>
      <trkpt lat="45.6091" lon="6.05809">
        <ele>1413.5204</ele>
        <time>2021-05-23T13:37:41</time>
      </trkpt>
      <trkpt lat="45.60914" lon="6.0581">
        <ele>1407.6205</ele>
        <time>2021-05-23T13:37:46</time>
      </trkpt>
      <trkpt lat="45.60914" lon="6.0581">
        <ele>1407.6205</ele>
        <time>2021-05-23T13:37:48</time>
      </trkpt>
      <trkpt lat="45.60917" lon="6.05814">
        <ele>1407.6205</ele>
        <time>2021-05-23T13:37:53</time>
      </trkpt>
      <trkpt lat="45.60917" lon="6.05815">
        <ele>1407.6205</ele>
        <time>2021-05-23T13:37:54</time>
      </trkpt>
      <trkpt lat="45.60918" lon="6.05816">
        <ele>1407.3204</ele>
        <time>2021-05-23T13:37:55</time>
      </trkpt>
      <trkpt lat="45.60919" lon="6.05816">
        <ele>1407.3204</ele>
        <time>2021-05-23T13:37:56</time>
      </trkpt>
      <trkpt lat="45.6092" lon="6.05816">
        <ele>1407.3204</ele>
        <time>2021-05-23T13:37:57</time>
      </trkpt>
      <trkpt lat="45.60923" lon="6.05816">
        <ele>1407.3204</ele>
        <time>2021-05-23T13:37:59</time>
      </trkpt>
      <trkpt lat="45.60926" lon="6.05818">
        <ele>1407.3204</ele>
        <time>2021-05-23T13:38:03</time>
      </trkpt>
      <trkpt lat="45.60926" lon="6.05819">
        <ele>1407.3204</ele>
        <time>2021-05-23T13:38:04</time>
      </trkpt>
      <trkpt lat="45.60927" lon="6.05821">
        <ele>1407.2205</ele>
        <time>2021-05-23T13:38:06</time>
      </trkpt>
      <trkpt lat="45.60928" lon="6.05822">
        <ele>1407.2205</ele>
        <time>2021-05-23T13:38:07</time>
      </trkpt>
      <trkpt lat="45.60929" lon="6.05822">
        <ele>1407.2205</ele>
        <time>2021-05-23T13:38:08</time>
      </trkpt>
      <trkpt lat="45.6093" lon="6.05825">
        <ele>1407.2205</ele>
        <time>2021-05-23T13:38:11</time>
      </trkpt>
      <trkpt lat="45.60931" lon="6.05826">
        <ele>1407.2205</ele>
        <time>2021-05-23T13:38:12</time>
      </trkpt>
      <trkpt lat="45.60931" lon="6.05826">
        <ele>1407.2205</ele>
        <time>2021-05-23T13:38:13</time>
      </trkpt>
      <trkpt lat="45.60933" lon="6.05825">
        <ele>1405.2205</ele>
        <time>2021-05-23T13:38:15</time>
      </trkpt>
      <trkpt lat="45.60934" lon="6.05826">
        <ele>1405.2205</ele>
        <time>2021-05-23T13:38:17</time>
      </trkpt>
      <trkpt lat="45.60935" lon="6.05827">
        <ele>1405.2205</ele>
        <time>2021-05-23T13:38:19</time>
      </trkpt>
      <trkpt lat="45.60937" lon="6.0583">
        <ele>1405.2205</ele>
        <time>2021-05-23T13:38:21</time>
      </trkpt>
      <trkpt lat="45.60939" lon="6.05832">
        <ele>1405.2205</ele>
        <time>2021-05-23T13:38:24</time>
      </trkpt>
      <trkpt lat="45.6094" lon="6.05832">
        <ele>1405.9204</ele>
        <time>2021-05-23T13:38:25</time>
      </trkpt>
      <trkpt lat="45.60942" lon="6.05832">
        <ele>1405.9204</ele>
        <time>2021-05-23T13:38:27</time>
      </trkpt>
      <trkpt lat="45.60943" lon="6.05833">
        <ele>1405.9204</ele>
        <time>2021-05-23T13:38:28</time>
      </trkpt>
      <trkpt lat="45.60944" lon="6.05833">
        <ele>1405.9204</ele>
        <time>2021-05-23T13:38:29</time>
      </trkpt>
      <trkpt lat="45.60944" lon="6.05835">
        <ele>1405.9204</ele>
        <time>2021-05-23T13:38:30</time>
      </trkpt>
      <trkpt lat="45.60945" lon="6.05835">
        <ele>1405.9204</ele>
        <time>2021-05-23T13:38:31</time>
      </trkpt>
      <trkpt lat="45.60946" lon="6.05836">
        <ele>1405.9204</ele>
        <time>2021-05-23T13:38:32</time>
      </trkpt>
      <trkpt lat="45.60947" lon="6.05837">
        <ele>1405.9204</ele>
        <time>2021-05-23T13:38:33</time>
      </trkpt>
      <trkpt lat="45.6095" lon="6.05841">
        <ele>1403.0204</ele>
        <time>2021-05-23T13:38:37</time>
      </trkpt>
      <trkpt lat="45.6095" lon="6.05842">
        <ele>1403.0204</ele>
        <time>2021-05-23T13:38:38</time>
      </trkpt>
      <trkpt lat="45.60952" lon="6.05841">
        <ele>1403.0204</ele>
        <time>2021-05-23T13:38:42</time>
      </trkpt>
      <trkpt lat="45.60954" lon="6.05841">
        <ele>1403.0204</ele>
        <time>2021-05-23T13:38:44</time>
      </trkpt>
      <trkpt lat="45.60956" lon="6.05841">
        <ele>1400.2205</ele>
        <time>2021-05-23T13:38:49</time>
      </trkpt>
      <trkpt lat="45.60957" lon="6.05842">
        <ele>1400.2205</ele>
        <time>2021-05-23T13:38:50</time>
      </trkpt>
      <trkpt lat="45.60959" lon="6.05842">
        <ele>1400.2205</ele>
        <time>2021-05-23T13:38:52</time>
      </trkpt>
      <trkpt lat="45.6096" lon="6.05842">
        <ele>1400.2205</ele>
        <time>2021-05-23T13:38:53</time>
      </trkpt>
      <trkpt lat="45.60962" lon="6.05842">
        <ele>1398.4204</ele>
        <time>2021-05-23T13:38:55</time>
      </trkpt>
      <trkpt lat="45.60963" lon="6.05843">
        <ele>1398.4204</ele>
        <time>2021-05-23T13:38:56</time>
      </trkpt>
      <trkpt lat="45.60968" lon="6.05845">
        <ele>1398.4204</ele>
        <time>2021-05-23T13:39:00</time>
      </trkpt>
      <trkpt lat="45.60969" lon="6.05845">
        <ele>1398.4204</ele>
        <time>2021-05-23T13:39:01</time>
      </trkpt>
      <trkpt lat="45.6097" lon="6.05845">
        <ele>1398.4204</ele>
        <time>2021-05-23T13:39:02</time>
      </trkpt>
      <trkpt lat="45.60971" lon="6.05845">
        <ele>1398.4204</ele>
        <time>2021-05-23T13:39:03</time>
      </trkpt>
      <trkpt lat="45.60972" lon="6.05846">
        <ele>1398.4204</ele>
        <time>2021-05-23T13:39:04</time>
      </trkpt>
      <trkpt lat="45.60974" lon="6.05847">
        <ele>1397.6205</ele>
        <time>2021-05-23T13:39:06</time>
      </trkpt>
      <trkpt lat="45.60976" lon="6.05847">
        <ele>1397.6205</ele>
        <time>2021-05-23T13:39:07</time>
      </trkpt>
      <trkpt lat="45.60982" lon="6.05848">
        <ele>1397.6205</ele>
        <time>2021-05-23T13:39:11</time>
      </trkpt>
      <trkpt lat="45.60983" lon="6.05848">
        <ele>1397.6205</ele>
        <time>2021-05-23T13:39:12</time>
      </trkpt>
      <trkpt lat="45.60985" lon="6.05848">
        <ele>1394.5872</ele>
        <time>2021-05-23T13:39:15</time>
      </trkpt>
      <trkpt lat="45.60986" lon="6.05849">
        <ele>1394.5872</ele>
        <time>2021-05-23T13:39:16</time>
      </trkpt>
      <trkpt lat="45.60988" lon="6.05849">
        <ele>1394.5872</ele>
        <time>2021-05-23T13:39:18</time>
      </trkpt>
      <trkpt lat="45.60989" lon="6.0585">
        <ele>1394.5872</ele>
        <time>2021-05-23T13:39:19</time>
      </trkpt>
      <trkpt lat="45.60991" lon="6.05852">
        <ele>1394.5872</ele>
        <time>2021-05-23T13:39:21</time>
      </trkpt>
      <trkpt lat="45.60993" lon="6.05854">
        <ele>1394.5872</ele>
        <time>2021-05-23T13:39:23</time>
      </trkpt>
      <trkpt lat="45.60994" lon="6.05855">
        <ele>1394.5872</ele>
        <time>2021-05-23T13:39:24</time>
      </trkpt>
      <trkpt lat="45.60995" lon="6.05855">
        <ele>1394.5872</ele>
        <time>2021-05-23T13:39:25</time>
      </trkpt>
      <trkpt lat="45.60996" lon="6.05855">
        <ele>1394.5872</ele>
        <time>2021-05-23T13:39:26</time>
      </trkpt>
      <trkpt lat="45.60997" lon="6.05856">
        <ele>1394.5872</ele>
        <time>2021-05-23T13:39:27</time>
      </trkpt>
      <trkpt lat="45.60997" lon="6.05856">
        <ele>1394.5872</ele>
        <time>2021-05-23T13:39:28</time>
      </trkpt>
      <trkpt lat="45.60998" lon="6.05858">
        <ele>1394.5872</ele>
        <time>2021-05-23T13:39:30</time>
      </trkpt>
      <trkpt lat="45.60999" lon="6.0586">
        <ele>1394.5872</ele>
        <time>2021-05-23T13:39:32</time>
      </trkpt>
      <trkpt lat="45.61" lon="6.05861">
        <ele>1394.5872</ele>
        <time>2021-05-23T13:39:33</time>
      </trkpt>
      <trkpt lat="45.61001" lon="6.05862">
        <ele>1394.5872</ele>
        <time>2021-05-23T13:39:34</time>
      </trkpt>
      <trkpt lat="45.61002" lon="6.05862">
        <ele>1394.5872</ele>
        <time>2021-05-23T13:39:35</time>
      </trkpt>
      <trkpt lat="45.61003" lon="6.05862">
        <ele>1394.5872</ele>
        <time>2021-05-23T13:39:36</time>
      </trkpt>
      <trkpt lat="45.61004" lon="6.05862">
        <ele>1394.5872</ele>
        <time>2021-05-23T13:39:38</time>
      </trkpt>
      <trkpt lat="45.61005" lon="6.05862">
        <ele>1394.5872</ele>
        <time>2021-05-23T13:39:39</time>
      </trkpt>
      <trkpt lat="45.61006" lon="6.05862">
        <ele>1394.5872</ele>
        <time>2021-05-23T13:39:40</time>
      </trkpt>
      <trkpt lat="45.61007" lon="6.05863">
        <ele>1394.5872</ele>
        <time>2021-05-23T13:39:41</time>
      </trkpt>
      <trkpt lat="45.61008" lon="6.05864">
        <ele>1394.5872</ele>
        <time>2021-05-23T13:39:42</time>
      </trkpt>
      <trkpt lat="45.61009" lon="6.05865">
        <ele>1394.5872</ele>
        <time>2021-05-23T13:39:43</time>
      </trkpt>
      <trkpt lat="45.61011" lon="6.05869">
        <ele>1394.5872</ele>
        <time>2021-05-23T13:39:47</time>
      </trkpt>
      <trkpt lat="45.61012" lon="6.05869">
        <ele>1394.5872</ele>
        <time>2021-05-23T13:39:48</time>
      </trkpt>
      <trkpt lat="45.61017" lon="6.05871">
        <ele>1394.5872</ele>
        <time>2021-05-23T13:39:52</time>
      </trkpt>
      <trkpt lat="45.61018" lon="6.05871">
        <ele>1394.5872</ele>
        <time>2021-05-23T13:39:53</time>
      </trkpt>
      <trkpt lat="45.61025" lon="6.05867">
        <ele>1403.8204</ele>
        <time>2021-05-23T13:39:59</time>
      </trkpt>
      <trkpt lat="45.61026" lon="6.05868">
        <ele>1403.8204</ele>
        <time>2021-05-23T13:40:00</time>
      </trkpt>
      <trkpt lat="45.61026" lon="6.05869">
        <ele>1403.8204</ele>
        <time>2021-05-23T13:40:02</time>
      </trkpt>
      <trkpt lat="45.61027" lon="6.05869">
        <ele>1403.8204</ele>
        <time>2021-05-23T13:40:04</time>
      </trkpt>
      <trkpt lat="45.61029" lon="6.05869">
        <ele>1402.0204</ele>
        <time>2021-05-23T13:40:05</time>
      </trkpt>
      <trkpt lat="45.61029" lon="6.05869">
        <ele>1402.0204</ele>
        <time>2021-05-23T13:40:06</time>
      </trkpt>
      <trkpt lat="45.6103" lon="6.05868">
        <ele>1402.0204</ele>
        <time>2021-05-23T13:40:07</time>
      </trkpt>
      <trkpt lat="45.61032" lon="6.05868">
        <ele>1402.0204</ele>
        <time>2021-05-23T13:40:09</time>
      </trkpt>
      <trkpt lat="45.61035" lon="6.05868">
        <ele>1397.4204</ele>
        <time>2021-05-23T13:40:16</time>
      </trkpt>
      <trkpt lat="45.61036" lon="6.05869">
        <ele>1397.4204</ele>
        <time>2021-05-23T13:40:17</time>
      </trkpt>
      <trkpt lat="45.61036" lon="6.05869">
        <ele>1397.4204</ele>
        <time>2021-05-23T13:40:18</time>
      </trkpt>
      <trkpt lat="45.61037" lon="6.05871">
        <ele>1397.4204</ele>
        <time>2021-05-23T13:40:20</time>
      </trkpt>
      <trkpt lat="45.61038" lon="6.05871">
        <ele>1397.4204</ele>
        <time>2021-05-23T13:40:21</time>
      </trkpt>
      <trkpt lat="45.61039" lon="6.05873">
        <ele>1397.4204</ele>
        <time>2021-05-23T13:40:22</time>
      </trkpt>
      <trkpt lat="45.6104" lon="6.05873">
        <ele>1397.4204</ele>
        <time>2021-05-23T13:40:23</time>
      </trkpt>
      <trkpt lat="45.61041" lon="6.05875">
        <ele>1397.4204</ele>
        <time>2021-05-23T13:40:24</time>
      </trkpt>
      <trkpt lat="45.61042" lon="6.05876">
        <ele>1397.3204</ele>
        <time>2021-05-23T13:40:25</time>
      </trkpt>
      <trkpt lat="45.61042" lon="6.05877">
        <ele>1397.3204</ele>
        <time>2021-05-23T13:40:26</time>
      </trkpt>
      <trkpt lat="45.61042" lon="6.05877">
        <ele>1397.3204</ele>
        <time>2021-05-23T13:40:27</time>
      </trkpt>
      <trkpt lat="45.61043" lon="6.05878">
        <ele>1397.3204</ele>
        <time>2021-05-23T13:40:28</time>
      </trkpt>
      <trkpt lat="45.61044" lon="6.05879">
        <ele>1397.3204</ele>
        <time>2021-05-23T13:40:30</time>
      </trkpt>
      <trkpt lat="45.61045" lon="6.05879">
        <ele>1397.3204</ele>
        <time>2021-05-23T13:40:31</time>
      </trkpt>
      <trkpt lat="45.61045" lon="6.05879">
        <ele>1397.3204</ele>
        <time>2021-05-23T13:40:32</time>
      </trkpt>
      <trkpt lat="45.61051" lon="6.05883">
        <ele>1400.3204</ele>
        <time>2021-05-23T13:40:42</time>
      </trkpt>
      <trkpt lat="45.61052" lon="6.05885">
        <ele>1400.3204</ele>
        <time>2021-05-23T13:40:44</time>
      </trkpt>
      <trkpt lat="45.61055" lon="6.05892">
        <ele>1399.8204</ele>
        <time>2021-05-23T13:40:49</time>
      </trkpt>
      <trkpt lat="45.61063" lon="6.05895">
        <ele>1401.0204</ele>
        <time>2021-05-23T13:40:58</time>
      </trkpt>
      <trkpt lat="45.61067" lon="6.05896">
        <ele>1401.0204</ele>
        <time>2021-05-23T13:41:02</time>
      </trkpt>
      <trkpt lat="45.61068" lon="6.05897">
        <ele>1401.0204</ele>
        <time>2021-05-23T13:41:04</time>
      </trkpt>
      <trkpt lat="45.61072" lon="6.05904">
        <ele>1397.9204</ele>
        <time>2021-05-23T13:41:10</time>
      </trkpt>
      <trkpt lat="45.61075" lon="6.05907">
        <ele>1394.2205</ele>
        <time>2021-05-23T13:41:15</time>
      </trkpt>
      <trkpt lat="45.61077" lon="6.0591">
        <ele>1391.8204</ele>
        <time>2021-05-23T13:41:26</time>
      </trkpt>
      <trkpt lat="45.61077" lon="6.05911">
        <ele>1391.8204</ele>
        <time>2021-05-23T13:41:27</time>
      </trkpt>
      <trkpt lat="45.61079" lon="6.05913">
        <ele>1391.8204</ele>
        <time>2021-05-23T13:41:29</time>
      </trkpt>
      <trkpt lat="45.61079" lon="6.05914">
        <ele>1391.8204</ele>
        <time>2021-05-23T13:41:30</time>
      </trkpt>
      <trkpt lat="45.6108" lon="6.05915">
        <ele>1391.8204</ele>
        <time>2021-05-23T13:41:31</time>
      </trkpt>
      <trkpt lat="45.61082" lon="6.05918">
        <ele>1391.5204</ele>
        <time>2021-05-23T13:41:35</time>
      </trkpt>
      <trkpt lat="45.61082" lon="6.05919">
        <ele>1391.5204</ele>
        <time>2021-05-23T13:41:36</time>
      </trkpt>
      <trkpt lat="45.61089" lon="6.05925">
        <ele>1393.7205</ele>
        <time>2021-05-23T13:41:46</time>
      </trkpt>
      <trkpt lat="45.6109" lon="6.05926">
        <ele>1393.7205</ele>
        <time>2021-05-23T13:41:50</time>
      </trkpt>
      <trkpt lat="45.61095" lon="6.05935">
        <ele>1389.2205</ele>
        <time>2021-05-23T13:42:02</time>
      </trkpt>
      <trkpt lat="45.61096" lon="6.05935">
        <ele>1389.2205</ele>
        <time>2021-05-23T13:42:03</time>
      </trkpt>
      <trkpt lat="45.61097" lon="6.05936">
        <ele>1389.2205</ele>
        <time>2021-05-23T13:42:04</time>
      </trkpt>
      <trkpt lat="45.61098" lon="6.05936">
        <ele>1389.2205</ele>
        <time>2021-05-23T13:42:05</time>
      </trkpt>
      <trkpt lat="45.611" lon="6.05936">
        <ele>1389.2205</ele>
        <time>2021-05-23T13:42:07</time>
      </trkpt>
      <trkpt lat="45.611" lon="6.05937">
        <ele>1389.2205</ele>
        <time>2021-05-23T13:42:08</time>
      </trkpt>
      <trkpt lat="45.61101" lon="6.0594">
        <ele>1389.2205</ele>
        <time>2021-05-23T13:42:10</time>
      </trkpt>
      <trkpt lat="45.61102" lon="6.05942">
        <ele>1389.2205</ele>
        <time>2021-05-23T13:42:11</time>
      </trkpt>
      <trkpt lat="45.61103" lon="6.05945">
        <ele>1389.2205</ele>
        <time>2021-05-23T13:42:13</time>
      </trkpt>
      <trkpt lat="45.61104" lon="6.05947">
        <ele>1381.9204</ele>
        <time>2021-05-23T13:42:15</time>
      </trkpt>
      <trkpt lat="45.61105" lon="6.05952">
        <ele>1381.9204</ele>
        <time>2021-05-23T13:42:20</time>
      </trkpt>
      <trkpt lat="45.61107" lon="6.05953">
        <ele>1382.6205</ele>
        <time>2021-05-23T13:42:28</time>
      </trkpt>
      <trkpt lat="45.61107" lon="6.05954">
        <ele>1382.6205</ele>
        <time>2021-05-23T13:42:29</time>
      </trkpt>
      <trkpt lat="45.61109" lon="6.05958">
        <ele>1382.6205</ele>
        <time>2021-05-23T13:42:32</time>
      </trkpt>
      <trkpt lat="45.61112" lon="6.05965">
        <ele>1382.3204</ele>
        <time>2021-05-23T13:42:38</time>
      </trkpt>
      <trkpt lat="45.61114" lon="6.05969">
        <ele>1382.3204</ele>
        <time>2021-05-23T13:42:42</time>
      </trkpt>
      <trkpt lat="45.61114" lon="6.05973">
        <ele>1382.3204</ele>
        <time>2021-05-23T13:42:44</time>
      </trkpt>
      <trkpt lat="45.6112" lon="6.05978">
        <ele>1377.8204</ele>
        <time>2021-05-23T13:42:55</time>
      </trkpt>
      <trkpt lat="45.61121" lon="6.05978">
        <ele>1377.8204</ele>
        <time>2021-05-23T13:42:56</time>
      </trkpt>
      <trkpt lat="45.61122" lon="6.05978">
        <ele>1377.8204</ele>
        <time>2021-05-23T13:42:57</time>
      </trkpt>
      <trkpt lat="45.61123" lon="6.05979">
        <ele>1377.8204</ele>
        <time>2021-05-23T13:42:59</time>
      </trkpt>
      <trkpt lat="45.61124" lon="6.0598">
        <ele>1377.8204</ele>
        <time>2021-05-23T13:43:01</time>
      </trkpt>
      <trkpt lat="45.61125" lon="6.05981">
        <ele>1377.8204</ele>
        <time>2021-05-23T13:43:04</time>
      </trkpt>
      <trkpt lat="45.61128" lon="6.05999">
        <ele>1370.4204</ele>
        <time>2021-05-23T13:43:17</time>
      </trkpt>
      <trkpt lat="45.61129" lon="6.06">
        <ele>1370.4204</ele>
        <time>2021-05-23T13:43:22</time>
      </trkpt>
      <trkpt lat="45.61128" lon="6.06005">
        <ele>1370.4204</ele>
        <time>2021-05-23T13:43:27</time>
      </trkpt>
      <trkpt lat="45.61127" lon="6.06005">
        <ele>1370.4204</ele>
        <time>2021-05-23T13:43:28</time>
      </trkpt>
      <trkpt lat="45.61124" lon="6.06007">
        <ele>1370.0204</ele>
        <time>2021-05-23T13:43:35</time>
      </trkpt>
      <trkpt lat="45.61124" lon="6.06007">
        <ele>1370.0204</ele>
        <time>2021-05-23T13:43:36</time>
      </trkpt>
      <trkpt lat="45.61123" lon="6.06007">
        <ele>1370.0204</ele>
        <time>2021-05-23T13:43:39</time>
      </trkpt>
      <trkpt lat="45.61123" lon="6.06008">
        <ele>1367.6205</ele>
        <time>2021-05-23T13:43:50</time>
      </trkpt>
      <trkpt lat="45.61123" lon="6.06008">
        <ele>1367.6205</ele>
        <time>2021-05-23T13:43:51</time>
      </trkpt>
      <trkpt lat="45.61124" lon="6.0601">
        <ele>1365.9204</ele>
        <time>2021-05-23T13:43:55</time>
      </trkpt>
      <trkpt lat="45.61124" lon="6.06012">
        <ele>1365.9204</ele>
        <time>2021-05-23T13:43:56</time>
      </trkpt>
      <trkpt lat="45.61124" lon="6.06014">
        <ele>1365.9204</ele>
        <time>2021-05-23T13:43:57</time>
      </trkpt>
      <trkpt lat="45.61124" lon="6.06017">
        <ele>1365.9204</ele>
        <time>2021-05-23T13:43:59</time>
      </trkpt>
      <trkpt lat="45.61124" lon="6.06018">
        <ele>1365.9204</ele>
        <time>2021-05-23T13:44:00</time>
      </trkpt>
      <trkpt lat="45.61125" lon="6.06019">
        <ele>1365.9204</ele>
        <time>2021-05-23T13:44:02</time>
      </trkpt>
      <trkpt lat="45.61126" lon="6.0602">
        <ele>1365.9204</ele>
        <time>2021-05-23T13:44:03</time>
      </trkpt>
      <trkpt lat="45.61127" lon="6.06021">
        <ele>1362.2205</ele>
        <time>2021-05-23T13:44:07</time>
      </trkpt>
      <trkpt lat="45.61131" lon="6.06023">
        <ele>1353.4204</ele>
        <time>2021-05-23T13:44:26</time>
      </trkpt>
      <trkpt lat="45.61132" lon="6.06023">
        <ele>1353.4204</ele>
        <time>2021-05-23T13:44:27</time>
      </trkpt>
      <trkpt lat="45.61132" lon="6.06025">
        <ele>1353.4204</ele>
        <time>2021-05-23T13:44:28</time>
      </trkpt>
      <trkpt lat="45.61132" lon="6.06026">
        <ele>1353.4204</ele>
        <time>2021-05-23T13:44:29</time>
      </trkpt>
      <trkpt lat="45.61134" lon="6.0603">
        <ele>1353.4204</ele>
        <time>2021-05-23T13:44:33</time>
      </trkpt>
      <trkpt lat="45.61134" lon="6.06031">
        <ele>1353.4204</ele>
        <time>2021-05-23T13:44:34</time>
      </trkpt>
      <trkpt lat="45.61135" lon="6.06031">
        <ele>1353.0204</ele>
        <time>2021-05-23T13:44:36</time>
      </trkpt>
      <trkpt lat="45.61136" lon="6.06032">
        <ele>1353.0204</ele>
        <time>2021-05-23T13:44:37</time>
      </trkpt>
      <trkpt lat="45.61137" lon="6.06035">
        <ele>1353.0204</ele>
        <time>2021-05-23T13:44:38</time>
      </trkpt>
      <trkpt lat="45.61137" lon="6.06036">
        <ele>1353.0204</ele>
        <time>2021-05-23T13:44:39</time>
      </trkpt>
      <trkpt lat="45.61138" lon="6.06037">
        <ele>1353.0204</ele>
        <time>2021-05-23T13:44:40</time>
      </trkpt>
      <trkpt lat="45.61139" lon="6.06039">
        <ele>1353.0204</ele>
        <time>2021-05-23T13:44:43</time>
      </trkpt>
      <trkpt lat="45.61141" lon="6.06043">
        <ele>1351.1205</ele>
        <time>2021-05-23T13:44:47</time>
      </trkpt>
      <trkpt lat="45.61142" lon="6.06043">
        <ele>1351.1205</ele>
        <time>2021-05-23T13:44:48</time>
      </trkpt>
      <trkpt lat="45.61144" lon="6.06047">
        <ele>1351.1205</ele>
        <time>2021-05-23T13:44:52</time>
      </trkpt>
      <trkpt lat="45.61144" lon="6.06048">
        <ele>1351.1205</ele>
        <time>2021-05-23T13:44:53</time>
      </trkpt>
      <trkpt lat="45.61148" lon="6.06053">
        <ele>1340.8204</ele>
        <time>2021-05-23T13:45:00</time>
      </trkpt>
      <trkpt lat="45.61149" lon="6.06056">
        <ele>1333.8204</ele>
        <time>2021-05-23T13:45:30</time>
      </trkpt>
      <trkpt lat="45.61149" lon="6.06057">
        <ele>1333.7205</ele>
        <time>2021-05-23T13:46:03</time>
      </trkpt>
      <trkpt lat="45.61149" lon="6.06057">
        <ele>1333.2205</ele>
        <time>2021-05-23T13:46:34</time>
      </trkpt>
      <trkpt lat="45.61149" lon="6.06057">
        <ele>1333.2205</ele>
        <time>2021-05-23T13:46:51</time>
      </trkpt>
      <trkpt lat="45.61149" lon="6.06056">
        <ele>1333.2205</ele>
        <time>2021-05-23T13:46:52</time>
      </trkpt>
      <trkpt lat="45.61149" lon="6.06056">
        <ele>1333.2205</ele>
        <time>2021-05-23T13:46:53</time>
      </trkpt>
      <trkpt lat="45.61149" lon="6.06056">
        <ele>1333.2205</ele>
        <time>2021-05-23T13:46:54</time>
      </trkpt>
      <trkpt lat="45.61149" lon="6.06058">
        <ele>1333.3204</ele>
        <time>2021-05-23T13:46:57</time>
      </trkpt>
      <trkpt lat="45.61149" lon="6.06058">
        <ele>1333.3204</ele>
        <time>2021-05-23T13:46:58</time>
      </trkpt>
      <trkpt lat="45.6115" lon="6.0606">
        <ele>1330.9204</ele>
        <time>2021-05-23T13:47:14</time>
      </trkpt>
      <trkpt lat="45.6115" lon="6.0606">
        <ele>1332.6205</ele>
        <time>2021-05-23T13:47:15</time>
      </trkpt>
      <trkpt lat="45.61151" lon="6.06061">
        <ele>1332.6205</ele>
        <time>2021-05-23T13:47:18</time>
      </trkpt>
      <trkpt lat="45.61153" lon="6.06061">
        <ele>1332.6205</ele>
        <time>2021-05-23T13:47:19</time>
      </trkpt>
      <trkpt lat="45.61154" lon="6.06062">
        <ele>1332.6205</ele>
        <time>2021-05-23T13:47:20</time>
      </trkpt>
      <trkpt lat="45.61156" lon="6.06062">
        <ele>1332.6205</ele>
        <time>2021-05-23T13:47:23</time>
      </trkpt>
      <trkpt lat="45.61156" lon="6.06064">
        <ele>1332.6205</ele>
        <time>2021-05-23T13:47:24</time>
      </trkpt>
      <trkpt lat="45.61157" lon="6.06066">
        <ele>1333.4204</ele>
        <time>2021-05-23T13:47:27</time>
      </trkpt>
      <trkpt lat="45.61157" lon="6.06066">
        <ele>1333.4204</ele>
        <time>2021-05-23T13:47:28</time>
      </trkpt>
      <trkpt lat="45.61158" lon="6.06067">
        <ele>1333.4204</ele>
        <time>2021-05-23T13:47:29</time>
      </trkpt>
      <trkpt lat="45.61159" lon="6.06068">
        <ele>1333.4204</ele>
        <time>2021-05-23T13:47:31</time>
      </trkpt>
      <trkpt lat="45.6116" lon="6.06069">
        <ele>1333.4204</ele>
        <time>2021-05-23T13:47:32</time>
      </trkpt>
      <trkpt lat="45.61161" lon="6.0607">
        <ele>1333.4204</ele>
        <time>2021-05-23T13:47:33</time>
      </trkpt>
      <trkpt lat="45.61161" lon="6.06071">
        <ele>1333.4204</ele>
        <time>2021-05-23T13:47:34</time>
      </trkpt>
      <trkpt lat="45.61162" lon="6.06072">
        <ele>1331.3204</ele>
        <time>2021-05-23T13:47:35</time>
      </trkpt>
      <trkpt lat="45.61163" lon="6.06074">
        <ele>1331.3204</ele>
        <time>2021-05-23T13:47:36</time>
      </trkpt>
      <trkpt lat="45.61164" lon="6.06076">
        <ele>1331.3204</ele>
        <time>2021-05-23T13:47:39</time>
      </trkpt>
      <trkpt lat="45.61164" lon="6.06077">
        <ele>1331.3204</ele>
        <time>2021-05-23T13:47:40</time>
      </trkpt>
      <trkpt lat="45.61164" lon="6.06079">
        <ele>1331.3204</ele>
        <time>2021-05-23T13:47:41</time>
      </trkpt>
      <trkpt lat="45.61164" lon="6.06081">
        <ele>1331.3204</ele>
        <time>2021-05-23T13:47:43</time>
      </trkpt>
      <trkpt lat="45.61164" lon="6.06082">
        <ele>1331.3204</ele>
        <time>2021-05-23T13:47:44</time>
      </trkpt>
      <trkpt lat="45.61169" lon="6.06093">
        <ele>1336.1205</ele>
        <time>2021-05-23T13:47:55</time>
      </trkpt>
      <trkpt lat="45.61169" lon="6.06093">
        <ele>1336.1205</ele>
        <time>2021-05-23T13:47:56</time>
      </trkpt>
      <trkpt lat="45.61171" lon="6.06096">
        <ele>1336.1205</ele>
        <time>2021-05-23T13:47:59</time>
      </trkpt>
      <trkpt lat="45.61172" lon="6.06096">
        <ele>1336.1205</ele>
        <time>2021-05-23T13:48:01</time>
      </trkpt>
      <trkpt lat="45.61173" lon="6.06105">
        <ele>1331.9204</ele>
        <time>2021-05-23T13:48:12</time>
      </trkpt>
      <trkpt lat="45.61173" lon="6.06107">
        <ele>1331.9204</ele>
        <time>2021-05-23T13:48:13</time>
      </trkpt>
      <trkpt lat="45.61172" lon="6.0611">
        <ele>1328.8204</ele>
        <time>2021-05-23T13:48:15</time>
      </trkpt>
      <trkpt lat="45.61172" lon="6.06113">
        <ele>1328.8204</ele>
        <time>2021-05-23T13:48:17</time>
      </trkpt>
      <trkpt lat="45.61173" lon="6.06115">
        <ele>1328.8204</ele>
        <time>2021-05-23T13:48:18</time>
      </trkpt>
      <trkpt lat="45.61174" lon="6.06118">
        <ele>1328.8204</ele>
        <time>2021-05-23T13:48:20</time>
      </trkpt>
      <trkpt lat="45.61174" lon="6.06119">
        <ele>1328.8204</ele>
        <time>2021-05-23T13:48:21</time>
      </trkpt>
      <trkpt lat="45.61175" lon="6.06121">
        <ele>1328.8204</ele>
        <time>2021-05-23T13:48:22</time>
      </trkpt>
      <trkpt lat="45.61175" lon="6.06122">
        <ele>1328.8204</ele>
        <time>2021-05-23T13:48:23</time>
      </trkpt>
      <trkpt lat="45.61176" lon="6.06123">
        <ele>1328.8204</ele>
        <time>2021-05-23T13:48:24</time>
      </trkpt>
      <trkpt lat="45.61176" lon="6.06124">
        <ele>1328.1205</ele>
        <time>2021-05-23T13:48:25</time>
      </trkpt>
      <trkpt lat="45.61177" lon="6.06125">
        <ele>1328.1205</ele>
        <time>2021-05-23T13:48:27</time>
      </trkpt>
      <trkpt lat="45.61177" lon="6.06126">
        <ele>1328.1205</ele>
        <time>2021-05-23T13:48:28</time>
      </trkpt>
      <trkpt lat="45.61177" lon="6.06128">
        <ele>1328.1205</ele>
        <time>2021-05-23T13:48:30</time>
      </trkpt>
      <trkpt lat="45.61177" lon="6.06129">
        <ele>1328.1205</ele>
        <time>2021-05-23T13:48:33</time>
      </trkpt>
      <trkpt lat="45.61178" lon="6.06129">
        <ele>1328.1205</ele>
        <time>2021-05-23T13:48:34</time>
      </trkpt>
      <trkpt lat="45.61178" lon="6.0613">
        <ele>1327.3204</ele>
        <time>2021-05-23T13:48:35</time>
      </trkpt>
      <trkpt lat="45.61181" lon="6.0613">
        <ele>1327.3204</ele>
        <time>2021-05-23T13:48:38</time>
      </trkpt>
      <trkpt lat="45.61182" lon="6.0613">
        <ele>1327.3204</ele>
        <time>2021-05-23T13:48:39</time>
      </trkpt>
      <trkpt lat="45.61182" lon="6.06129">
        <ele>1327.3204</ele>
        <time>2021-05-23T13:48:40</time>
      </trkpt>
      <trkpt lat="45.61183" lon="6.0613">
        <ele>1327.3204</ele>
        <time>2021-05-23T13:48:42</time>
      </trkpt>
      <trkpt lat="45.61185" lon="6.06132">
        <ele>1323.7205</ele>
        <time>2021-05-23T13:48:45</time>
      </trkpt>
      <trkpt lat="45.61185" lon="6.06133">
        <ele>1323.7205</ele>
        <time>2021-05-23T13:48:47</time>
      </trkpt>
      <trkpt lat="45.61192" lon="6.06139">
        <ele>1318.9204</ele>
        <time>2021-05-23T13:48:57</time>
      </trkpt>
      <trkpt lat="45.61192" lon="6.06139">
        <ele>1318.9204</ele>
        <time>2021-05-23T13:48:58</time>
      </trkpt>
      <trkpt lat="45.61196" lon="6.06143">
        <ele>1318.9204</ele>
        <time>2021-05-23T13:49:03</time>
      </trkpt>
      <trkpt lat="45.61194" lon="6.06145">
        <ele>1314.0204</ele>
        <time>2021-05-23T13:49:05</time>
      </trkpt>
      <trkpt lat="45.61194" lon="6.06145">
        <ele>1314.0204</ele>
        <time>2021-05-23T13:49:06</time>
      </trkpt>
      <trkpt lat="45.61193" lon="6.06146">
        <ele>1314.0204</ele>
        <time>2021-05-23T13:49:07</time>
      </trkpt>
      <trkpt lat="45.61193" lon="6.06146">
        <ele>1314.0204</ele>
        <time>2021-05-23T13:49:10</time>
      </trkpt>
      <trkpt lat="45.61193" lon="6.06147">
        <ele>1314.0204</ele>
        <time>2021-05-23T13:49:11</time>
      </trkpt>
      <trkpt lat="45.61193" lon="6.06147">
        <ele>1314.0204</ele>
        <time>2021-05-23T13:49:12</time>
      </trkpt>
      <trkpt lat="45.61193" lon="6.06149">
        <ele>1312.5204</ele>
        <time>2021-05-23T13:49:15</time>
      </trkpt>
      <trkpt lat="45.61193" lon="6.06149">
        <ele>1312.5204</ele>
        <time>2021-05-23T13:49:16</time>
      </trkpt>
      <trkpt lat="45.61196" lon="6.06148">
        <ele>1312.5204</ele>
        <time>2021-05-23T13:49:20</time>
      </trkpt>
      <trkpt lat="45.61197" lon="6.06147">
        <ele>1312.5204</ele>
        <time>2021-05-23T13:49:21</time>
      </trkpt>
      <trkpt lat="45.61198" lon="6.06147">
        <ele>1312.5204</ele>
        <time>2021-05-23T13:49:23</time>
      </trkpt>
      <trkpt lat="45.61198" lon="6.06147">
        <ele>1312.5204</ele>
        <time>2021-05-23T13:49:24</time>
      </trkpt>
      <trkpt lat="45.61198" lon="6.06148">
        <ele>1312.9204</ele>
        <time>2021-05-23T13:49:25</time>
      </trkpt>
      <trkpt lat="45.61199" lon="6.06149">
        <ele>1312.9204</ele>
        <time>2021-05-23T13:49:27</time>
      </trkpt>
      <trkpt lat="45.61199" lon="6.06149">
        <ele>1312.9204</ele>
        <time>2021-05-23T13:49:28</time>
      </trkpt>
      <trkpt lat="45.61199" lon="6.0615">
        <ele>1312.9204</ele>
        <time>2021-05-23T13:49:29</time>
      </trkpt>
      <trkpt lat="45.61199" lon="6.06151">
        <ele>1312.9204</ele>
        <time>2021-05-23T13:49:30</time>
      </trkpt>
      <trkpt lat="45.612" lon="6.06153">
        <ele>1312.9204</ele>
        <time>2021-05-23T13:49:34</time>
      </trkpt>
      <trkpt lat="45.612" lon="6.06156">
        <ele>1306.6205</ele>
        <time>2021-05-23T13:49:37</time>
      </trkpt>
      <trkpt lat="45.61201" lon="6.06157">
        <ele>1306.6205</ele>
        <time>2021-05-23T13:49:38</time>
      </trkpt>
      <trkpt lat="45.61203" lon="6.06162">
        <ele>1306.6205</ele>
        <time>2021-05-23T13:49:41</time>
      </trkpt>
      <trkpt lat="45.61226" lon="6.06176">
        <ele>1306.4204</ele>
        <time>2021-05-23T13:50:11</time>
      </trkpt>
      <trkpt lat="45.61238" lon="6.06185">
        <ele>1307.4204</ele>
        <time>2021-05-23T13:50:23</time>
      </trkpt>
      <trkpt lat="45.6124" lon="6.06188">
        <ele>1306.7205</ele>
        <time>2021-05-23T13:50:29</time>
      </trkpt>
      <trkpt lat="45.61241" lon="6.06189">
        <ele>1306.7205</ele>
        <time>2021-05-23T13:50:31</time>
      </trkpt>
      <trkpt lat="45.61242" lon="6.06189">
        <ele>1306.7205</ele>
        <time>2021-05-23T13:50:32</time>
      </trkpt>
      <trkpt lat="45.61242" lon="6.0619">
        <ele>1306.7205</ele>
        <time>2021-05-23T13:50:33</time>
      </trkpt>
      <trkpt lat="45.61243" lon="6.06191">
        <ele>1306.7205</ele>
        <time>2021-05-23T13:50:34</time>
      </trkpt>
      <trkpt lat="45.61244" lon="6.06191">
        <ele>1306.4204</ele>
        <time>2021-05-23T13:50:36</time>
      </trkpt>
      <trkpt lat="45.61246" lon="6.06193">
        <ele>1306.4204</ele>
        <time>2021-05-23T13:50:40</time>
      </trkpt>
      <trkpt lat="45.61247" lon="6.06195">
        <ele>1304.3204</ele>
        <time>2021-05-23T13:50:45</time>
      </trkpt>
      <trkpt lat="45.61247" lon="6.06196">
        <ele>1304.3204</ele>
        <time>2021-05-23T13:50:46</time>
      </trkpt>
      <trkpt lat="45.61248" lon="6.06198">
        <ele>1304.3204</ele>
        <time>2021-05-23T13:50:50</time>
      </trkpt>
      <trkpt lat="45.61252" lon="6.06202">
        <ele>1304.3204</ele>
        <time>2021-05-23T13:50:54</time>
      </trkpt>
      <trkpt lat="45.61253" lon="6.06203">
        <ele>1303.4204</ele>
        <time>2021-05-23T13:50:55</time>
      </trkpt>
      <trkpt lat="45.61253" lon="6.06204">
        <ele>1303.4204</ele>
        <time>2021-05-23T13:50:56</time>
      </trkpt>
      <trkpt lat="45.61256" lon="6.06207">
        <ele>1303.4204</ele>
        <time>2021-05-23T13:51:01</time>
      </trkpt>
      <trkpt lat="45.61257" lon="6.06208">
        <ele>1303.4204</ele>
        <time>2021-05-23T13:51:02</time>
      </trkpt>
      <trkpt lat="45.61258" lon="6.06208">
        <ele>1303.4204</ele>
        <time>2021-05-23T13:51:03</time>
      </trkpt>
      <trkpt lat="45.61259" lon="6.0621">
        <ele>1298.1205</ele>
        <time>2021-05-23T13:51:06</time>
      </trkpt>
      <trkpt lat="45.61261" lon="6.06214">
        <ele>1298.1205</ele>
        <time>2021-05-23T13:51:09</time>
      </trkpt>
      <trkpt lat="45.61261" lon="6.06215">
        <ele>1298.1205</ele>
        <time>2021-05-23T13:51:10</time>
      </trkpt>
      <trkpt lat="45.61262" lon="6.06218">
        <ele>1298.1205</ele>
        <time>2021-05-23T13:51:12</time>
      </trkpt>
      <trkpt lat="45.61262" lon="6.06218">
        <ele>1298.1205</ele>
        <time>2021-05-23T13:51:13</time>
      </trkpt>
      <trkpt lat="45.61273" lon="6.0623">
        <ele>1295.5204</ele>
        <time>2021-05-23T13:51:24</time>
      </trkpt>
      <trkpt lat="45.61273" lon="6.06231">
        <ele>1295.8204</ele>
        <time>2021-05-23T13:51:25</time>
      </trkpt>
      <trkpt lat="45.61274" lon="6.06232">
        <ele>1295.8204</ele>
        <time>2021-05-23T13:51:26</time>
      </trkpt>
      <trkpt lat="45.61275" lon="6.06234">
        <ele>1295.8204</ele>
        <time>2021-05-23T13:51:28</time>
      </trkpt>
      <trkpt lat="45.61276" lon="6.06237">
        <ele>1295.8204</ele>
        <time>2021-05-23T13:51:33</time>
      </trkpt>
      <trkpt lat="45.61279" lon="6.06241">
        <ele>1293.8204</ele>
        <time>2021-05-23T13:51:38</time>
      </trkpt>
      <trkpt lat="45.61281" lon="6.06241">
        <ele>1293.8204</ele>
        <time>2021-05-23T13:51:42</time>
      </trkpt>
      <trkpt lat="45.61281" lon="6.06241">
        <ele>1293.8204</ele>
        <time>2021-05-23T13:51:43</time>
      </trkpt>
      <trkpt lat="45.61288" lon="6.06242">
        <ele>1292.6205</ele>
        <time>2021-05-23T13:51:52</time>
      </trkpt>
      <trkpt lat="45.61294" lon="6.06246">
        <ele>1286.3204</ele>
        <time>2021-05-23T13:52:01</time>
      </trkpt>
      <trkpt lat="45.61302" lon="6.0625">
        <ele>1287.2205</ele>
        <time>2021-05-23T13:52:10</time>
      </trkpt>
      <trkpt lat="45.61308" lon="6.06252">
        <ele>1286.9204</ele>
        <time>2021-05-23T13:52:16</time>
      </trkpt>
      <trkpt lat="45.61312" lon="6.06255">
        <ele>1286.9204</ele>
        <time>2021-05-23T13:52:20</time>
      </trkpt>
      <trkpt lat="45.61312" lon="6.06256">
        <ele>1286.9204</ele>
        <time>2021-05-23T13:52:21</time>
      </trkpt>
      <trkpt lat="45.61316" lon="6.06259">
        <ele>1285.8538</ele>
        <time>2021-05-23T13:52:26</time>
      </trkpt>
      <trkpt lat="45.61317" lon="6.0626">
        <ele>1285.8538</ele>
        <time>2021-05-23T13:52:29</time>
      </trkpt>
      <trkpt lat="45.61321" lon="6.06257">
        <ele>1287.3204</ele>
        <time>2021-05-23T13:52:37</time>
      </trkpt>
      <trkpt lat="45.61323" lon="6.06257">
        <ele>1287.3204</ele>
        <time>2021-05-23T13:52:40</time>
      </trkpt>
      <trkpt lat="45.61323" lon="6.06257">
        <ele>1287.3204</ele>
        <time>2021-05-23T13:52:41</time>
      </trkpt>
      <trkpt lat="45.61324" lon="6.06258">
        <ele>1287.3204</ele>
        <time>2021-05-23T13:52:42</time>
      </trkpt>
      <trkpt lat="45.61325" lon="6.06258">
        <ele>1287.3204</ele>
        <time>2021-05-23T13:52:44</time>
      </trkpt>
      <trkpt lat="45.61328" lon="6.0626">
        <ele>1288.3204</ele>
        <time>2021-05-23T13:52:48</time>
      </trkpt>
      <trkpt lat="45.61329" lon="6.06262">
        <ele>1288.3204</ele>
        <time>2021-05-23T13:52:52</time>
      </trkpt>
      <trkpt lat="45.6133" lon="6.06264">
        <ele>1288.3204</ele>
        <time>2021-05-23T13:52:54</time>
      </trkpt>
      <trkpt lat="45.61331" lon="6.06266">
        <ele>1288.0204</ele>
        <time>2021-05-23T13:52:55</time>
      </trkpt>
      <trkpt lat="45.61332" lon="6.06269">
        <ele>1288.0204</ele>
        <time>2021-05-23T13:52:57</time>
      </trkpt>
      <trkpt lat="45.61333" lon="6.06271">
        <ele>1288.0204</ele>
        <time>2021-05-23T13:52:58</time>
      </trkpt>
      <trkpt lat="45.61335" lon="6.06273">
        <ele>1288.0204</ele>
        <time>2021-05-23T13:52:59</time>
      </trkpt>
      <trkpt lat="45.61335" lon="6.06276">
        <ele>1288.0204</ele>
        <time>2021-05-23T13:53:00</time>
      </trkpt>
      <trkpt lat="45.61336" lon="6.06278">
        <ele>1288.0204</ele>
        <time>2021-05-23T13:53:01</time>
      </trkpt>
      <trkpt lat="45.61336" lon="6.0628">
        <ele>1288.0204</ele>
        <time>2021-05-23T13:53:02</time>
      </trkpt>
      <trkpt lat="45.61337" lon="6.06281">
        <ele>1288.0204</ele>
        <time>2021-05-23T13:53:03</time>
      </trkpt>
      <trkpt lat="45.61338" lon="6.06282">
        <ele>1288.0204</ele>
        <time>2021-05-23T13:53:04</time>
      </trkpt>
      <trkpt lat="45.6134" lon="6.06286">
        <ele>1288.1205</ele>
        <time>2021-05-23T13:53:07</time>
      </trkpt>
      <trkpt lat="45.61343" lon="6.06288">
        <ele>1288.1205</ele>
        <time>2021-05-23T13:53:09</time>
      </trkpt>
      <trkpt lat="45.6135" lon="6.06298">
        <ele>1287.5204</ele>
        <time>2021-05-23T13:53:19</time>
      </trkpt>
      <trkpt lat="45.61351" lon="6.06299">
        <ele>1287.5204</ele>
        <time>2021-05-23T13:53:20</time>
      </trkpt>
      <trkpt lat="45.61353" lon="6.06306">
        <ele>1284.4204</ele>
        <time>2021-05-23T13:53:28</time>
      </trkpt>
      <trkpt lat="45.61355" lon="6.06309">
        <ele>1284.4204</ele>
        <time>2021-05-23T13:53:30</time>
      </trkpt>
      <trkpt lat="45.61355" lon="6.0631">
        <ele>1284.4204</ele>
        <time>2021-05-23T13:53:31</time>
      </trkpt>
      <trkpt lat="45.61356" lon="6.06312">
        <ele>1284.4204</ele>
        <time>2021-05-23T13:53:32</time>
      </trkpt>
      <trkpt lat="45.61357" lon="6.06314">
        <ele>1284.4204</ele>
        <time>2021-05-23T13:53:33</time>
      </trkpt>
      <trkpt lat="45.61359" lon="6.06316">
        <ele>1284.4204</ele>
        <time>2021-05-23T13:53:34</time>
      </trkpt>
      <trkpt lat="45.61361" lon="6.06319">
        <ele>1280.5204</ele>
        <time>2021-05-23T13:53:36</time>
      </trkpt>
      <trkpt lat="45.61362" lon="6.06319">
        <ele>1280.5204</ele>
        <time>2021-05-23T13:53:37</time>
      </trkpt>
      <trkpt lat="45.61364" lon="6.06323">
        <ele>1280.5204</ele>
        <time>2021-05-23T13:53:41</time>
      </trkpt>
      <trkpt lat="45.61365" lon="6.06326">
        <ele>1280.5204</ele>
        <time>2021-05-23T13:53:43</time>
      </trkpt>
      <trkpt lat="45.61366" lon="6.06328">
        <ele>1279.8204</ele>
        <time>2021-05-23T13:53:46</time>
      </trkpt>
      <trkpt lat="45.61369" lon="6.06331">
        <ele>1279.8204</ele>
        <time>2021-05-23T13:53:49</time>
      </trkpt>
      <trkpt lat="45.61371" lon="6.06334">
        <ele>1279.8204</ele>
        <time>2021-05-23T13:53:52</time>
      </trkpt>
      <trkpt lat="45.61372" lon="6.06335">
        <ele>1279.8204</ele>
        <time>2021-05-23T13:53:54</time>
      </trkpt>
      <trkpt lat="45.6138" lon="6.06339">
        <ele>1276.5204</ele>
        <time>2021-05-23T13:54:04</time>
      </trkpt>
      <trkpt lat="45.61381" lon="6.06342">
        <ele>1274.6205</ele>
        <time>2021-05-23T13:54:10</time>
      </trkpt>
      <trkpt lat="45.61382" lon="6.06342">
        <ele>1274.6205</ele>
        <time>2021-05-23T13:54:11</time>
      </trkpt>
      <trkpt lat="45.61383" lon="6.06343">
        <ele>1274.6205</ele>
        <time>2021-05-23T13:54:12</time>
      </trkpt>
      <trkpt lat="45.61385" lon="6.06344">
        <ele>1270.7205</ele>
        <time>2021-05-23T13:54:15</time>
      </trkpt>
      <trkpt lat="45.61385" lon="6.06345">
        <ele>1270.7205</ele>
        <time>2021-05-23T13:54:16</time>
      </trkpt>
      <trkpt lat="45.61386" lon="6.06346">
        <ele>1270.7205</ele>
        <time>2021-05-23T13:54:17</time>
      </trkpt>
      <trkpt lat="45.61392" lon="6.06353">
        <ele>1270.7205</ele>
        <time>2021-05-23T13:54:22</time>
      </trkpt>
      <trkpt lat="45.61393" lon="6.06354">
        <ele>1270.7205</ele>
        <time>2021-05-23T13:54:23</time>
      </trkpt>
      <trkpt lat="45.61395" lon="6.06355">
        <ele>1270.7205</ele>
        <time>2021-05-23T13:54:24</time>
      </trkpt>
      <trkpt lat="45.61398" lon="6.0636">
        <ele>1271.5204</ele>
        <time>2021-05-23T13:54:28</time>
      </trkpt>
      <trkpt lat="45.61399" lon="6.06363">
        <ele>1271.5204</ele>
        <time>2021-05-23T13:54:31</time>
      </trkpt>
      <trkpt lat="45.614" lon="6.06364">
        <ele>1271.5204</ele>
        <time>2021-05-23T13:54:34</time>
      </trkpt>
      <trkpt lat="45.61401" lon="6.06364">
        <ele>1267.1205</ele>
        <time>2021-05-23T13:54:36</time>
      </trkpt>
      <trkpt lat="45.61401" lon="6.06364">
        <ele>1267.1205</ele>
        <time>2021-05-23T13:54:41</time>
      </trkpt>
      <trkpt lat="45.61401" lon="6.06365">
        <ele>1267.1205</ele>
        <time>2021-05-23T13:54:42</time>
      </trkpt>
      <trkpt lat="45.61401" lon="6.06366">
        <ele>1267.1205</ele>
        <time>2021-05-23T13:54:43</time>
      </trkpt>
      <trkpt lat="45.61403" lon="6.06371">
        <ele>1266.5204</ele>
        <time>2021-05-23T13:54:47</time>
      </trkpt>
      <trkpt lat="45.61409" lon="6.06377">
        <ele>1264.9204</ele>
        <time>2021-05-23T13:54:55</time>
      </trkpt>
      <trkpt lat="45.61411" lon="6.06379">
        <ele>1264.9204</ele>
        <time>2021-05-23T13:54:57</time>
      </trkpt>
      <trkpt lat="45.61415" lon="6.06382">
        <ele>1264.9204</ele>
        <time>2021-05-23T13:55:01</time>
      </trkpt>
      <trkpt lat="45.61416" lon="6.06385">
        <ele>1264.9204</ele>
        <time>2021-05-23T13:55:02</time>
      </trkpt>
      <trkpt lat="45.61422" lon="6.06401">
        <ele>1263.1205</ele>
        <time>2021-05-23T13:55:12</time>
      </trkpt>
      <trkpt lat="45.61423" lon="6.06402">
        <ele>1263.1205</ele>
        <time>2021-05-23T13:55:13</time>
      </trkpt>
      <trkpt lat="45.61424" lon="6.06403">
        <ele>1263.1205</ele>
        <time>2021-05-23T13:55:14</time>
      </trkpt>
      <trkpt lat="45.61425" lon="6.06404">
        <ele>1272.2205</ele>
        <time>2021-05-23T13:55:15</time>
      </trkpt>
      <trkpt lat="45.61432" lon="6.06408">
        <ele>1272.2205</ele>
        <time>2021-05-23T13:55:24</time>
      </trkpt>
      <trkpt lat="45.61434" lon="6.0641">
        <ele>1269.6205</ele>
        <time>2021-05-23T13:55:26</time>
      </trkpt>
      <trkpt lat="45.61434" lon="6.06413">
        <ele>1269.6205</ele>
        <time>2021-05-23T13:55:29</time>
      </trkpt>
      <trkpt lat="45.61435" lon="6.06412">
        <ele>1269.6205</ele>
        <time>2021-05-23T13:55:30</time>
      </trkpt>
      <trkpt lat="45.61436" lon="6.06413">
        <ele>1268.0204</ele>
        <time>2021-05-23T13:55:38</time>
      </trkpt>
      <trkpt lat="45.61437" lon="6.06413">
        <ele>1268.0204</ele>
        <time>2021-05-23T13:55:39</time>
      </trkpt>
      <trkpt lat="45.61439" lon="6.06416">
        <ele>1259.0204</ele>
        <time>2021-05-23T13:55:52</time>
      </trkpt>
      <trkpt lat="45.6144" lon="6.06416">
        <ele>1259.0204</ele>
        <time>2021-05-23T13:55:53</time>
      </trkpt>
      <trkpt lat="45.61439" lon="6.06418">
        <ele>1256.0204</ele>
        <time>2021-05-23T13:57:00</time>
      </trkpt>
      <trkpt lat="45.61439" lon="6.06418">
        <ele>1256.3204</ele>
        <time>2021-05-23T13:58:14</time>
      </trkpt>
      <trkpt lat="45.61439" lon="6.06418">
        <ele>1256.3204</ele>
        <time>2021-05-23T13:58:30</time>
      </trkpt>
      <trkpt lat="45.6144" lon="6.06418">
        <ele>1256.3204</ele>
        <time>2021-05-23T13:58:31</time>
      </trkpt>
      <trkpt lat="45.61439" lon="6.06417">
        <ele>1256.3204</ele>
        <time>2021-05-23T13:58:33</time>
      </trkpt>
      <trkpt lat="45.61438" lon="6.06417">
        <ele>1256.2205</ele>
        <time>2021-05-23T13:58:35</time>
      </trkpt>
      <trkpt lat="45.61437" lon="6.06417">
        <ele>1256.2205</ele>
        <time>2021-05-23T13:58:36</time>
      </trkpt>
      <trkpt lat="45.61435" lon="6.0642">
        <ele>1259.0204</ele>
        <time>2021-05-23T13:59:08</time>
      </trkpt>
      <trkpt lat="45.61434" lon="6.0642">
        <ele>1259.0204</ele>
        <time>2021-05-23T13:59:11</time>
      </trkpt>
      <trkpt lat="45.61434" lon="6.06419">
        <ele>1259.0204</ele>
        <time>2021-05-23T13:59:13</time>
      </trkpt>
      <trkpt lat="45.61435" lon="6.06419">
        <ele>1263.5204</ele>
        <time>2021-05-23T13:59:16</time>
      </trkpt>
      <trkpt lat="45.61435" lon="6.06421">
        <ele>1263.5204</ele>
        <time>2021-05-23T13:59:21</time>
      </trkpt>
      <trkpt lat="45.61435" lon="6.06421">
        <ele>1263.5204</ele>
        <time>2021-05-23T13:59:22</time>
      </trkpt>
      <trkpt lat="45.61433" lon="6.06422">
        <ele>1263.5204</ele>
        <time>2021-05-23T13:59:24</time>
      </trkpt>
      <trkpt lat="45.61432" lon="6.06423">
        <ele>1264.6205</ele>
        <time>2021-05-23T13:59:25</time>
      </trkpt>
      <trkpt lat="45.61431" lon="6.06423">
        <ele>1264.6205</ele>
        <time>2021-05-23T13:59:27</time>
      </trkpt>
      <trkpt lat="45.6143" lon="6.06424">
        <ele>1264.6205</ele>
        <time>2021-05-23T13:59:30</time>
      </trkpt>
      <trkpt lat="45.6143" lon="6.06424">
        <ele>1264.6205</ele>
        <time>2021-05-23T13:59:31</time>
      </trkpt>
      <trkpt lat="45.61429" lon="6.06424">
        <ele>1264.6205</ele>
        <time>2021-05-23T13:59:32</time>
      </trkpt>
      <trkpt lat="45.61429" lon="6.06423">
        <ele>1264.6205</ele>
        <time>2021-05-23T13:59:33</time>
      </trkpt>
      <trkpt lat="45.61429" lon="6.06423">
        <ele>1264.6205</ele>
        <time>2021-05-23T13:59:34</time>
      </trkpt>
      <trkpt lat="45.61429" lon="6.06422">
        <ele>1266.7205</ele>
        <time>2021-05-23T13:59:35</time>
      </trkpt>
      <trkpt lat="45.61428" lon="6.0642">
        <ele>1266.7205</ele>
        <time>2021-05-23T13:59:36</time>
      </trkpt>
      <trkpt lat="45.61427" lon="6.06419">
        <ele>1266.7205</ele>
        <time>2021-05-23T13:59:37</time>
      </trkpt>
      <trkpt lat="45.61425" lon="6.06418">
        <ele>1266.7205</ele>
        <time>2021-05-23T13:59:38</time>
      </trkpt>
      <trkpt lat="45.61423" lon="6.06418">
        <ele>1266.7205</ele>
        <time>2021-05-23T13:59:39</time>
      </trkpt>
      <trkpt lat="45.6142" lon="6.06418">
        <ele>1266.7205</ele>
        <time>2021-05-23T13:59:41</time>
      </trkpt>
      <trkpt lat="45.61419" lon="6.06418">
        <ele>1266.7205</ele>
        <time>2021-05-23T13:59:42</time>
      </trkpt>
      <trkpt lat="45.61415" lon="6.06417">
        <ele>1265.1205</ele>
        <time>2021-05-23T13:59:45</time>
      </trkpt>
      <trkpt lat="45.61413" lon="6.06417">
        <ele>1265.1205</ele>
        <time>2021-05-23T13:59:47</time>
      </trkpt>
      <trkpt lat="45.61412" lon="6.06416">
        <ele>1265.1205</ele>
        <time>2021-05-23T13:59:49</time>
      </trkpt>
      <trkpt lat="45.6141" lon="6.06415">
        <ele>1265.1205</ele>
        <time>2021-05-23T13:59:52</time>
      </trkpt>
      <trkpt lat="45.61409" lon="6.06414">
        <ele>1265.1205</ele>
        <time>2021-05-23T13:59:53</time>
      </trkpt>
      <trkpt lat="45.61409" lon="6.06414">
        <ele>1265.1205</ele>
        <time>2021-05-23T13:59:54</time>
      </trkpt>
      <trkpt lat="45.61407" lon="6.06414">
        <ele>1259.8204</ele>
        <time>2021-05-23T13:59:56</time>
      </trkpt>
      <trkpt lat="45.61402" lon="6.06412">
        <ele>1259.8204</ele>
        <time>2021-05-23T14:00:00</time>
      </trkpt>
      <trkpt lat="45.61392" lon="6.06406">
        <ele>1257.8204</ele>
        <time>2021-05-23T14:00:08</time>
      </trkpt>
      <trkpt lat="45.61388" lon="6.06405">
        <ele>1257.8204</ele>
        <time>2021-05-23T14:00:11</time>
      </trkpt>
      <trkpt lat="45.61387" lon="6.06404">
        <ele>1257.8204</ele>
        <time>2021-05-23T14:00:12</time>
      </trkpt>
      <trkpt lat="45.61386" lon="6.06404">
        <ele>1257.8204</ele>
        <time>2021-05-23T14:00:13</time>
      </trkpt>
      <trkpt lat="45.61386" lon="6.06404">
        <ele>1257.8204</ele>
        <time>2021-05-23T14:00:14</time>
      </trkpt>
      <trkpt lat="45.61385" lon="6.06403">
        <ele>1254.9204</ele>
        <time>2021-05-23T14:00:16</time>
      </trkpt>
      <trkpt lat="45.61382" lon="6.064">
        <ele>1254.9204</ele>
        <time>2021-05-23T14:00:19</time>
      </trkpt>
      <trkpt lat="45.61381" lon="6.06399">
        <ele>1254.9204</ele>
        <time>2021-05-23T14:00:20</time>
      </trkpt>
      <trkpt lat="45.61379" lon="6.06399">
        <ele>1254.9204</ele>
        <time>2021-05-23T14:00:21</time>
      </trkpt>
      <trkpt lat="45.61378" lon="6.06398">
        <ele>1254.9204</ele>
        <time>2021-05-23T14:00:22</time>
      </trkpt>
      <trkpt lat="45.61376" lon="6.06398">
        <ele>1254.9204</ele>
        <time>2021-05-23T14:00:24</time>
      </trkpt>
      <trkpt lat="45.61373" lon="6.06393">
        <ele>1255.9204</ele>
        <time>2021-05-23T14:01:09</time>
      </trkpt>
      <trkpt lat="45.61372" lon="6.06393">
        <ele>1255.9204</ele>
        <time>2021-05-23T14:01:27</time>
      </trkpt>
      <trkpt lat="45.61371" lon="6.06393">
        <ele>1255.9204</ele>
        <time>2021-05-23T14:01:29</time>
      </trkpt>
      <trkpt lat="45.61369" lon="6.06393">
        <ele>1255.9204</ele>
        <time>2021-05-23T14:01:30</time>
      </trkpt>
      <trkpt lat="45.61368" lon="6.06393">
        <ele>1255.9204</ele>
        <time>2021-05-23T14:01:32</time>
      </trkpt>
      <trkpt lat="45.61367" lon="6.06393">
        <ele>1255.9204</ele>
        <time>2021-05-23T14:01:33</time>
      </trkpt>
      <trkpt lat="45.61367" lon="6.06392">
        <ele>1255.9204</ele>
        <time>2021-05-23T14:01:34</time>
      </trkpt>
      <trkpt lat="45.61366" lon="6.06392">
        <ele>1261.1205</ele>
        <time>2021-05-23T14:01:35</time>
      </trkpt>
      <trkpt lat="45.61366" lon="6.06391">
        <ele>1261.1205</ele>
        <time>2021-05-23T14:01:36</time>
      </trkpt>
      <trkpt lat="45.61365" lon="6.06391">
        <ele>1261.1205</ele>
        <time>2021-05-23T14:01:37</time>
      </trkpt>
      <trkpt lat="45.61363" lon="6.06392">
        <ele>1261.1205</ele>
        <time>2021-05-23T14:01:38</time>
      </trkpt>
      <trkpt lat="45.61362" lon="6.06392">
        <ele>1261.1205</ele>
        <time>2021-05-23T14:01:39</time>
      </trkpt>
      <trkpt lat="45.61355" lon="6.06393">
        <ele>1261.1205</ele>
        <time>2021-05-23T14:01:43</time>
      </trkpt>
      <trkpt lat="45.6135" lon="6.06392">
        <ele>1261.0204</ele>
        <time>2021-05-23T14:01:46</time>
      </trkpt>
      <trkpt lat="45.61349" lon="6.06392">
        <ele>1261.0204</ele>
        <time>2021-05-23T14:01:47</time>
      </trkpt>
      <trkpt lat="45.61346" lon="6.0639">
        <ele>1261.0204</ele>
        <time>2021-05-23T14:01:49</time>
      </trkpt>
      <trkpt lat="45.61345" lon="6.06389">
        <ele>1261.0204</ele>
        <time>2021-05-23T14:01:50</time>
      </trkpt>
      <trkpt lat="45.61341" lon="6.06388">
        <ele>1261.0204</ele>
        <time>2021-05-23T14:01:52</time>
      </trkpt>
      <trkpt lat="45.61338" lon="6.06387">
        <ele>1261.0204</ele>
        <time>2021-05-23T14:01:54</time>
      </trkpt>
      <trkpt lat="45.61337" lon="6.06387">
        <ele>1261.7205</ele>
        <time>2021-05-23T14:01:55</time>
      </trkpt>
      <trkpt lat="45.61336" lon="6.06387">
        <ele>1261.7205</ele>
        <time>2021-05-23T14:01:56</time>
      </trkpt>
      <trkpt lat="45.61333" lon="6.06388">
        <ele>1261.7205</ele>
        <time>2021-05-23T14:01:58</time>
      </trkpt>
      <trkpt lat="45.61328" lon="6.06386">
        <ele>1261.7205</ele>
        <time>2021-05-23T14:02:01</time>
      </trkpt>
      <trkpt lat="45.61321" lon="6.06377">
        <ele>1263.5204</ele>
        <time>2021-05-23T14:02:11</time>
      </trkpt>
      <trkpt lat="45.61321" lon="6.06375">
        <ele>1263.5204</ele>
        <time>2021-05-23T14:02:12</time>
      </trkpt>
      <trkpt lat="45.61321" lon="6.06367">
        <ele>1263.6205</ele>
        <time>2021-05-23T14:02:16</time>
      </trkpt>
      <trkpt lat="45.61318" lon="6.06361">
        <ele>1263.6205</ele>
        <time>2021-05-23T14:02:21</time>
      </trkpt>
      <trkpt lat="45.61293" lon="6.06346">
        <ele>1254.3204</ele>
        <time>2021-05-23T14:02:44</time>
      </trkpt>
      <trkpt lat="45.61288" lon="6.06343">
        <ele>1251.7205</ele>
        <time>2021-05-23T14:02:48</time>
      </trkpt>
      <trkpt lat="45.61283" lon="6.06337">
        <ele>1251.7205</ele>
        <time>2021-05-23T14:02:52</time>
      </trkpt>
      <trkpt lat="45.61282" lon="6.06337">
        <ele>1251.7205</ele>
        <time>2021-05-23T14:02:53</time>
      </trkpt>
      <trkpt lat="45.6127" lon="6.0633">
        <ele>1255.4204</ele>
        <time>2021-05-23T14:03:04</time>
      </trkpt>
      <trkpt lat="45.61269" lon="6.0633">
        <ele>1254.6205</ele>
        <time>2021-05-23T14:03:05</time>
      </trkpt>
      <trkpt lat="45.61264" lon="6.06329">
        <ele>1254.6205</ele>
        <time>2021-05-23T14:03:09</time>
      </trkpt>
      <trkpt lat="45.61243" lon="6.06318">
        <ele>1253.2205</ele>
        <time>2021-05-23T14:03:27</time>
      </trkpt>
      <trkpt lat="45.61239" lon="6.06318">
        <ele>1253.2205</ele>
        <time>2021-05-23T14:03:30</time>
      </trkpt>
      <trkpt lat="45.61236" lon="6.06318">
        <ele>1253.2205</ele>
        <time>2021-05-23T14:03:33</time>
      </trkpt>
      <trkpt lat="45.61233" lon="6.06321">
        <ele>1253.3204</ele>
        <time>2021-05-23T14:03:36</time>
      </trkpt>
      <trkpt lat="45.6123" lon="6.06321">
        <ele>1254.8204</ele>
        <time>2021-05-23T14:03:51</time>
      </trkpt>
      <trkpt lat="45.6123" lon="6.06321">
        <ele>1254.8204</ele>
        <time>2021-05-23T14:03:52</time>
      </trkpt>
      <trkpt lat="45.61229" lon="6.06321">
        <ele>1254.8204</ele>
        <time>2021-05-23T14:03:54</time>
      </trkpt>
      <trkpt lat="45.61228" lon="6.0632">
        <ele>1253.1205</ele>
        <time>2021-05-23T14:03:55</time>
      </trkpt>
      <trkpt lat="45.61226" lon="6.0632">
        <ele>1253.1205</ele>
        <time>2021-05-23T14:03:57</time>
      </trkpt>
      <trkpt lat="45.61223" lon="6.06319">
        <ele>1253.1205</ele>
        <time>2021-05-23T14:04:00</time>
      </trkpt>
      <trkpt lat="45.6121" lon="6.06319">
        <ele>1253.2205</ele>
        <time>2021-05-23T14:04:14</time>
      </trkpt>
      <trkpt lat="45.61202" lon="6.06317">
        <ele>1255.1205</ele>
        <time>2021-05-23T14:04:22</time>
      </trkpt>
      <trkpt lat="45.612" lon="6.06315">
        <ele>1255.1205</ele>
        <time>2021-05-23T14:04:28</time>
      </trkpt>
      <trkpt lat="45.61197" lon="6.06315">
        <ele>1255.1205</ele>
        <time>2021-05-23T14:04:31</time>
      </trkpt>
      <trkpt lat="45.61194" lon="6.06316">
        <ele>1255.1205</ele>
        <time>2021-05-23T14:04:34</time>
      </trkpt>
      <trkpt lat="45.61184" lon="6.0632">
        <ele>1249.3204</ele>
        <time>2021-05-23T14:04:44</time>
      </trkpt>
      <trkpt lat="45.61181" lon="6.06319">
        <ele>1246.5204</ele>
        <time>2021-05-23T14:04:49</time>
      </trkpt>
      <trkpt lat="45.61172" lon="6.06319">
        <ele>1245.6205</ele>
        <time>2021-05-23T14:05:01</time>
      </trkpt>
      <trkpt lat="45.61172" lon="6.06318">
        <ele>1245.6205</ele>
        <time>2021-05-23T14:05:02</time>
      </trkpt>
      <trkpt lat="45.61169" lon="6.06317">
        <ele>1245.6205</ele>
        <time>2021-05-23T14:05:04</time>
      </trkpt>
      <trkpt lat="45.61168" lon="6.06317">
        <ele>1244.1205</ele>
        <time>2021-05-23T14:05:05</time>
      </trkpt>
      <trkpt lat="45.61163" lon="6.06316">
        <ele>1244.1205</ele>
        <time>2021-05-23T14:05:12</time>
      </trkpt>
      <trkpt lat="45.61162" lon="6.06316">
        <ele>1244.1205</ele>
        <time>2021-05-23T14:05:13</time>
      </trkpt>
      <trkpt lat="45.6116" lon="6.06316">
        <ele>1242.5204</ele>
        <time>2021-05-23T14:05:15</time>
      </trkpt>
      <trkpt lat="45.6116" lon="6.06316">
        <ele>1242.5204</ele>
        <time>2021-05-23T14:05:16</time>
      </trkpt>
      <trkpt lat="45.61158" lon="6.06316">
        <ele>1242.5204</ele>
        <time>2021-05-23T14:05:18</time>
      </trkpt>
      <trkpt lat="45.61156" lon="6.06315">
        <ele>1242.5204</ele>
        <time>2021-05-23T14:05:20</time>
      </trkpt>
      <trkpt lat="45.61149" lon="6.06311">
        <ele>1240.3204</ele>
        <time>2021-05-23T14:05:26</time>
      </trkpt>
      <trkpt lat="45.61148" lon="6.06311">
        <ele>1240.3204</ele>
        <time>2021-05-23T14:05:27</time>
      </trkpt>
      <trkpt lat="45.61146" lon="6.0631">
        <ele>1240.3204</ele>
        <time>2021-05-23T14:05:29</time>
      </trkpt>
      <trkpt lat="45.61146" lon="6.0631">
        <ele>1240.3204</ele>
        <time>2021-05-23T14:05:30</time>
      </trkpt>
      <trkpt lat="45.61144" lon="6.0631">
        <ele>1240.3204</ele>
        <time>2021-05-23T14:05:31</time>
      </trkpt>
      <trkpt lat="45.61143" lon="6.06309">
        <ele>1240.3204</ele>
        <time>2021-05-23T14:05:32</time>
      </trkpt>
      <trkpt lat="45.61141" lon="6.06308">
        <ele>1240.3204</ele>
        <time>2021-05-23T14:05:33</time>
      </trkpt>
      <trkpt lat="45.6114" lon="6.06307">
        <ele>1240.3204</ele>
        <time>2021-05-23T14:05:34</time>
      </trkpt>
      <trkpt lat="45.61139" lon="6.06306">
        <ele>1244.7205</ele>
        <time>2021-05-23T14:05:35</time>
      </trkpt>
      <trkpt lat="45.61134" lon="6.063">
        <ele>1244.7205</ele>
        <time>2021-05-23T14:05:38</time>
      </trkpt>
      <trkpt lat="45.61131" lon="6.06297">
        <ele>1244.7205</ele>
        <time>2021-05-23T14:05:40</time>
      </trkpt>
      <trkpt lat="45.6113" lon="6.06295">
        <ele>1244.7205</ele>
        <time>2021-05-23T14:05:41</time>
      </trkpt>
      <trkpt lat="45.61127" lon="6.06283">
        <ele>1241.4204</ele>
        <time>2021-05-23T14:05:49</time>
      </trkpt>
      <trkpt lat="45.61124" lon="6.06281">
        <ele>1237.5204</ele>
        <time>2021-05-23T14:05:55</time>
      </trkpt>
      <trkpt lat="45.61123" lon="6.06281">
        <ele>1237.5204</ele>
        <time>2021-05-23T14:05:56</time>
      </trkpt>
      <trkpt lat="45.61123" lon="6.06281">
        <ele>1237.5204</ele>
        <time>2021-05-23T14:06:03</time>
      </trkpt>
      <trkpt lat="45.61121" lon="6.06277">
        <ele>1242.2205</ele>
        <time>2021-05-23T14:06:22</time>
      </trkpt>
      <trkpt lat="45.61118" lon="6.06276">
        <ele>1242.2205</ele>
        <time>2021-05-23T14:06:24</time>
      </trkpt>
      <trkpt lat="45.61113" lon="6.06276">
        <ele>1238.6205</ele>
        <time>2021-05-23T14:06:37</time>
      </trkpt>
      <trkpt lat="45.61113" lon="6.06278">
        <ele>1238.6205</ele>
        <time>2021-05-23T14:06:39</time>
      </trkpt>
      <trkpt lat="45.61112" lon="6.06278">
        <ele>1238.6205</ele>
        <time>2021-05-23T14:06:40</time>
      </trkpt>
      <trkpt lat="45.6111" lon="6.06279">
        <ele>1238.6205</ele>
        <time>2021-05-23T14:06:42</time>
      </trkpt>
      <trkpt lat="45.61109" lon="6.0628">
        <ele>1238.6205</ele>
        <time>2021-05-23T14:06:43</time>
      </trkpt>
      <trkpt lat="45.61109" lon="6.06281">
        <ele>1238.6205</ele>
        <time>2021-05-23T14:06:44</time>
      </trkpt>
      <trkpt lat="45.61108" lon="6.06281">
        <ele>1235.5204</ele>
        <time>2021-05-23T14:06:45</time>
      </trkpt>
      <trkpt lat="45.61107" lon="6.06281">
        <ele>1235.5204</ele>
        <time>2021-05-23T14:06:46</time>
      </trkpt>
      <trkpt lat="45.61106" lon="6.06282">
        <ele>1235.5204</ele>
        <time>2021-05-23T14:06:47</time>
      </trkpt>
      <trkpt lat="45.61106" lon="6.06282">
        <ele>1235.5204</ele>
        <time>2021-05-23T14:06:48</time>
      </trkpt>
      <trkpt lat="45.61104" lon="6.06283">
        <ele>1235.5204</ele>
        <time>2021-05-23T14:06:50</time>
      </trkpt>
      <trkpt lat="45.61103" lon="6.06283">
        <ele>1235.5204</ele>
        <time>2021-05-23T14:06:51</time>
      </trkpt>
      <trkpt lat="45.61101" lon="6.06284">
        <ele>1235.5204</ele>
        <time>2021-05-23T14:06:53</time>
      </trkpt>
      <trkpt lat="45.61101" lon="6.06285">
        <ele>1235.5204</ele>
        <time>2021-05-23T14:06:54</time>
      </trkpt>
      <trkpt lat="45.61101" lon="6.06286">
        <ele>1241.1205</ele>
        <time>2021-05-23T14:06:55</time>
      </trkpt>
      <trkpt lat="45.611" lon="6.06286">
        <ele>1241.1205</ele>
        <time>2021-05-23T14:06:56</time>
      </trkpt>
      <trkpt lat="45.61099" lon="6.06286">
        <ele>1241.1205</ele>
        <time>2021-05-23T14:06:57</time>
      </trkpt>
      <trkpt lat="45.61098" lon="6.06287">
        <ele>1241.1205</ele>
        <time>2021-05-23T14:06:58</time>
      </trkpt>
      <trkpt lat="45.61097" lon="6.06287">
        <ele>1241.1205</ele>
        <time>2021-05-23T14:06:59</time>
      </trkpt>
      <trkpt lat="45.6109" lon="6.06289">
        <ele>1245.6205</ele>
        <time>2021-05-23T14:07:09</time>
      </trkpt>
      <trkpt lat="45.61089" lon="6.06289">
        <ele>1245.6205</ele>
        <time>2021-05-23T14:07:10</time>
      </trkpt>
      <trkpt lat="45.61088" lon="6.06289">
        <ele>1245.6205</ele>
        <time>2021-05-23T14:07:11</time>
      </trkpt>
      <trkpt lat="45.61084" lon="6.06289">
        <ele>1245.6205</ele>
        <time>2021-05-23T14:07:14</time>
      </trkpt>
      <trkpt lat="45.61082" lon="6.0629">
        <ele>1246.2205</ele>
        <time>2021-05-23T14:07:16</time>
      </trkpt>
      <trkpt lat="45.61078" lon="6.06291">
        <ele>1246.2205</ele>
        <time>2021-05-23T14:07:19</time>
      </trkpt>
      <trkpt lat="45.61077" lon="6.06291">
        <ele>1246.2205</ele>
        <time>2021-05-23T14:07:20</time>
      </trkpt>
      <trkpt lat="45.6107" lon="6.06292">
        <ele>1242.5204</ele>
        <time>2021-05-23T14:07:30</time>
      </trkpt>
      <trkpt lat="45.61068" lon="6.06292">
        <ele>1238.7205</ele>
        <time>2021-05-23T14:07:35</time>
      </trkpt>
      <trkpt lat="45.61067" lon="6.06293">
        <ele>1238.7205</ele>
        <time>2021-05-23T14:07:36</time>
      </trkpt>
      <trkpt lat="45.61064" lon="6.06293">
        <ele>1238.7205</ele>
        <time>2021-05-23T14:07:37</time>
      </trkpt>
      <trkpt lat="45.61056" lon="6.06293">
        <ele>1238.7205</ele>
        <time>2021-05-23T14:07:41</time>
      </trkpt>
      <trkpt lat="45.61053" lon="6.06292">
        <ele>1238.7205</ele>
        <time>2021-05-23T14:07:44</time>
      </trkpt>
      <trkpt lat="45.61052" lon="6.06292">
        <ele>1238.1205</ele>
        <time>2021-05-23T14:07:45</time>
      </trkpt>
      <trkpt lat="45.61052" lon="6.06292">
        <ele>1238.1205</ele>
        <time>2021-05-23T14:07:46</time>
      </trkpt>
      <trkpt lat="45.61048" lon="6.06292">
        <ele>1238.1205</ele>
        <time>2021-05-23T14:07:53</time>
      </trkpt>
      <trkpt lat="45.61047" lon="6.06293">
        <ele>1238.1205</ele>
        <time>2021-05-23T14:07:54</time>
      </trkpt>
      <trkpt lat="45.61039" lon="6.06295">
        <ele>1229.0204</ele>
        <time>2021-05-23T14:08:00</time>
      </trkpt>
      <trkpt lat="45.61035" lon="6.06297">
        <ele>1229.0204</ele>
        <time>2021-05-23T14:08:03</time>
      </trkpt>
      <trkpt lat="45.61033" lon="6.06298">
        <ele>1229.0204</ele>
        <time>2021-05-23T14:08:08</time>
      </trkpt>
      <trkpt lat="45.61031" lon="6.06299">
        <ele>1229.0204</ele>
        <time>2021-05-23T14:08:09</time>
      </trkpt>
      <trkpt lat="45.61029" lon="6.06298">
        <ele>1229.0204</ele>
        <time>2021-05-23T14:08:10</time>
      </trkpt>
      <trkpt lat="45.61027" lon="6.06297">
        <ele>1229.0204</ele>
        <time>2021-05-23T14:08:13</time>
      </trkpt>
      <trkpt lat="45.61026" lon="6.06298">
        <ele>1229.0204</ele>
        <time>2021-05-23T14:08:14</time>
      </trkpt>
      <trkpt lat="45.61025" lon="6.06298">
        <ele>1226.5204</ele>
        <time>2021-05-23T14:08:17</time>
      </trkpt>
      <trkpt lat="45.61022" lon="6.06297">
        <ele>1226.5204</ele>
        <time>2021-05-23T14:08:19</time>
      </trkpt>
      <trkpt lat="45.6102" lon="6.06297">
        <ele>1226.5204</ele>
        <time>2021-05-23T14:08:20</time>
      </trkpt>
      <trkpt lat="45.61019" lon="6.06296">
        <ele>1226.5204</ele>
        <time>2021-05-23T14:08:21</time>
      </trkpt>
      <trkpt lat="45.6101" lon="6.06299">
        <ele>1222.4204</ele>
        <time>2021-05-23T14:08:27</time>
      </trkpt>
      <trkpt lat="45.61009" lon="6.063">
        <ele>1222.4204</ele>
        <time>2021-05-23T14:08:28</time>
      </trkpt>
      <trkpt lat="45.61007" lon="6.063">
        <ele>1222.4204</ele>
        <time>2021-05-23T14:08:29</time>
      </trkpt>
      <trkpt lat="45.61006" lon="6.06301">
        <ele>1222.4204</ele>
        <time>2021-05-23T14:08:30</time>
      </trkpt>
      <trkpt lat="45.61003" lon="6.06302">
        <ele>1222.4204</ele>
        <time>2021-05-23T14:08:33</time>
      </trkpt>
      <trkpt lat="45.61002" lon="6.06302">
        <ele>1222.4204</ele>
        <time>2021-05-23T14:08:34</time>
      </trkpt>
      <trkpt lat="45.60999" lon="6.06302">
        <ele>1213.9204</ele>
        <time>2021-05-23T14:08:37</time>
      </trkpt>
      <trkpt lat="45.60997" lon="6.06303">
        <ele>1213.9204</ele>
        <time>2021-05-23T14:08:38</time>
      </trkpt>
      <trkpt lat="45.60996" lon="6.06303">
        <ele>1213.9204</ele>
        <time>2021-05-23T14:08:39</time>
      </trkpt>
      <trkpt lat="45.60994" lon="6.06304">
        <ele>1213.9204</ele>
        <time>2021-05-23T14:08:41</time>
      </trkpt>
      <trkpt lat="45.60988" lon="6.06304">
        <ele>1216.0204</ele>
        <time>2021-05-23T14:08:49</time>
      </trkpt>
      <trkpt lat="45.60987" lon="6.06305">
        <ele>1216.0204</ele>
        <time>2021-05-23T14:08:50</time>
      </trkpt>
      <trkpt lat="45.60984" lon="6.06304">
        <ele>1216.0204</ele>
        <time>2021-05-23T14:08:53</time>
      </trkpt>
      <trkpt lat="45.60983" lon="6.06302">
        <ele>1215.0204</ele>
        <time>2021-05-23T14:08:55</time>
      </trkpt>
      <trkpt lat="45.60982" lon="6.06302">
        <ele>1215.0204</ele>
        <time>2021-05-23T14:08:56</time>
      </trkpt>
      <trkpt lat="45.60979" lon="6.06301">
        <ele>1215.0204</ele>
        <time>2021-05-23T14:08:59</time>
      </trkpt>
      <trkpt lat="45.60977" lon="6.06298">
        <ele>1215.0204</ele>
        <time>2021-05-23T14:09:01</time>
      </trkpt>
      <trkpt lat="45.60975" lon="6.06295">
        <ele>1215.0204</ele>
        <time>2021-05-23T14:09:03</time>
      </trkpt>
      <trkpt lat="45.60973" lon="6.06294">
        <ele>1215.0204</ele>
        <time>2021-05-23T14:09:04</time>
      </trkpt>
      <trkpt lat="45.60969" lon="6.06293">
        <ele>1212.7205</ele>
        <time>2021-05-23T14:09:07</time>
      </trkpt>
      <trkpt lat="45.60967" lon="6.06293">
        <ele>1212.7205</ele>
        <time>2021-05-23T14:09:11</time>
      </trkpt>
      <trkpt lat="45.60966" lon="6.06293">
        <ele>1212.7205</ele>
        <time>2021-05-23T14:09:13</time>
      </trkpt>
      <trkpt lat="45.60964" lon="6.06295">
        <ele>1201.7205</ele>
        <time>2021-05-23T14:09:17</time>
      </trkpt>
      <trkpt lat="45.60963" lon="6.06295">
        <ele>1201.7205</ele>
        <time>2021-05-23T14:09:18</time>
      </trkpt>
      <trkpt lat="45.6096" lon="6.06296">
        <ele>1201.7205</ele>
        <time>2021-05-23T14:09:20</time>
      </trkpt>
      <trkpt lat="45.60955" lon="6.06297">
        <ele>1201.7205</ele>
        <time>2021-05-23T14:09:23</time>
      </trkpt>
      <trkpt lat="45.60948" lon="6.06298">
        <ele>1202.0204</ele>
        <time>2021-05-23T14:09:29</time>
      </trkpt>
      <trkpt lat="45.60947" lon="6.06298">
        <ele>1202.0204</ele>
        <time>2021-05-23T14:09:30</time>
      </trkpt>
      <trkpt lat="45.60946" lon="6.06298">
        <ele>1202.0204</ele>
        <time>2021-05-23T14:09:31</time>
      </trkpt>
      <trkpt lat="45.60945" lon="6.06298">
        <ele>1202.0204</ele>
        <time>2021-05-23T14:09:32</time>
      </trkpt>
      <trkpt lat="45.60944" lon="6.06298">
        <ele>1202.0204</ele>
        <time>2021-05-23T14:09:33</time>
      </trkpt>
      <trkpt lat="45.6094" lon="6.06299">
        <ele>1205.4204</ele>
        <time>2021-05-23T14:09:39</time>
      </trkpt>
      <trkpt lat="45.60939" lon="6.063">
        <ele>1205.4204</ele>
        <time>2021-05-23T14:09:40</time>
      </trkpt>
      <trkpt lat="45.60937" lon="6.063">
        <ele>1205.4204</ele>
        <time>2021-05-23T14:09:41</time>
      </trkpt>
      <trkpt lat="45.60935" lon="6.063">
        <ele>1205.4204</ele>
        <time>2021-05-23T14:09:43</time>
      </trkpt>
      <trkpt lat="45.60934" lon="6.06301">
        <ele>1205.4204</ele>
        <time>2021-05-23T14:09:44</time>
      </trkpt>
      <trkpt lat="45.60933" lon="6.06299">
        <ele>1202.6205</ele>
        <time>2021-05-23T14:09:46</time>
      </trkpt>
      <trkpt lat="45.60931" lon="6.06298">
        <ele>1202.6205</ele>
        <time>2021-05-23T14:09:47</time>
      </trkpt>
      <trkpt lat="45.60929" lon="6.06297">
        <ele>1202.6205</ele>
        <time>2021-05-23T14:09:48</time>
      </trkpt>
      <trkpt lat="45.60926" lon="6.06296">
        <ele>1202.6205</ele>
        <time>2021-05-23T14:09:51</time>
      </trkpt>
      <trkpt lat="45.60926" lon="6.06296">
        <ele>1202.6205</ele>
        <time>2021-05-23T14:09:52</time>
      </trkpt>
      <trkpt lat="45.60921" lon="6.06293">
        <ele>1200.4204</ele>
        <time>2021-05-23T14:09:58</time>
      </trkpt>
      <trkpt lat="45.6092" lon="6.06292">
        <ele>1200.4204</ele>
        <time>2021-05-23T14:09:59</time>
      </trkpt>
      <trkpt lat="45.60919" lon="6.06293">
        <ele>1200.4204</ele>
        <time>2021-05-23T14:10:00</time>
      </trkpt>
      <trkpt lat="45.60915" lon="6.06293">
        <ele>1200.4204</ele>
        <time>2021-05-23T14:10:04</time>
      </trkpt>
      <trkpt lat="45.60914" lon="6.06293">
        <ele>1190.2205</ele>
        <time>2021-05-23T14:10:05</time>
      </trkpt>
      <trkpt lat="45.60913" lon="6.06293">
        <ele>1190.2205</ele>
        <time>2021-05-23T14:10:06</time>
      </trkpt>
      <trkpt lat="45.60911" lon="6.06292">
        <ele>1190.2205</ele>
        <time>2021-05-23T14:10:08</time>
      </trkpt>
      <trkpt lat="45.6091" lon="6.06291">
        <ele>1190.2205</ele>
        <time>2021-05-23T14:10:09</time>
      </trkpt>
      <trkpt lat="45.60908" lon="6.06291">
        <ele>1190.2205</ele>
        <time>2021-05-23T14:10:10</time>
      </trkpt>
      <trkpt lat="45.60903" lon="6.06291">
        <ele>1190.2205</ele>
        <time>2021-05-23T14:10:14</time>
      </trkpt>
      <trkpt lat="45.60895" lon="6.06293">
        <ele>1191.7205</ele>
        <time>2021-05-23T14:10:21</time>
      </trkpt>
      <trkpt lat="45.60893" lon="6.06294">
        <ele>1191.7205</ele>
        <time>2021-05-23T14:10:22</time>
      </trkpt>
      <trkpt lat="45.60891" lon="6.06294">
        <ele>1191.7205</ele>
        <time>2021-05-23T14:10:23</time>
      </trkpt>
      <trkpt lat="45.60889" lon="6.06295">
        <ele>1191.7205</ele>
        <time>2021-05-23T14:10:24</time>
      </trkpt>
      <trkpt lat="45.60883" lon="6.06297">
        <ele>1191.2205</ele>
        <time>2021-05-23T14:10:28</time>
      </trkpt>
      <trkpt lat="45.60881" lon="6.06296">
        <ele>1191.2205</ele>
        <time>2021-05-23T14:10:31</time>
      </trkpt>
      <trkpt lat="45.6088" lon="6.06296">
        <ele>1191.2205</ele>
        <time>2021-05-23T14:10:32</time>
      </trkpt>
      <trkpt lat="45.60877" lon="6.06296">
        <ele>1191.2205</ele>
        <time>2021-05-23T14:10:34</time>
      </trkpt>
      <trkpt lat="45.60873" lon="6.06295">
        <ele>1191.2205</ele>
        <time>2021-05-23T14:10:37</time>
      </trkpt>
      <trkpt lat="45.60859" lon="6.06297">
        <ele>1187.5204</ele>
        <time>2021-05-23T14:10:50</time>
      </trkpt>
      <trkpt lat="45.60857" lon="6.06297">
        <ele>1187.5204</ele>
        <time>2021-05-23T14:10:52</time>
      </trkpt>
      <trkpt lat="45.60851" lon="6.06295">
        <ele>1188.0204</ele>
        <time>2021-05-23T14:10:56</time>
      </trkpt>
      <trkpt lat="45.60839" lon="6.06297">
        <ele>1185.9204</ele>
        <time>2021-05-23T14:11:06</time>
      </trkpt>
      <trkpt lat="45.60838" lon="6.06297">
        <ele>1185.9204</ele>
        <time>2021-05-23T14:11:08</time>
      </trkpt>
      <trkpt lat="45.60837" lon="6.06297">
        <ele>1185.9204</ele>
        <time>2021-05-23T14:11:09</time>
      </trkpt>
      <trkpt lat="45.60834" lon="6.06298">
        <ele>1185.9204</ele>
        <time>2021-05-23T14:11:13</time>
      </trkpt>
      <trkpt lat="45.60834" lon="6.06298">
        <ele>1180.2205</ele>
        <time>2021-05-23T14:11:15</time>
      </trkpt>
      <trkpt lat="45.60833" lon="6.06297">
        <ele>1180.2205</ele>
        <time>2021-05-23T14:11:19</time>
      </trkpt>
      <trkpt lat="45.60833" lon="6.06297">
        <ele>1180.2205</ele>
        <time>2021-05-23T14:11:20</time>
      </trkpt>
      <trkpt lat="45.60831" lon="6.063">
        <ele>1180.2205</ele>
        <time>2021-05-23T14:11:24</time>
      </trkpt>
      <trkpt lat="45.60829" lon="6.06301">
        <ele>1178.9204</ele>
        <time>2021-05-23T14:11:25</time>
      </trkpt>
      <trkpt lat="45.60827" lon="6.063">
        <ele>1178.9204</ele>
        <time>2021-05-23T14:11:26</time>
      </trkpt>
      <trkpt lat="45.60826" lon="6.063">
        <ele>1178.9204</ele>
        <time>2021-05-23T14:11:27</time>
      </trkpt>
      <trkpt lat="45.60824" lon="6.06299">
        <ele>1178.9204</ele>
        <time>2021-05-23T14:11:28</time>
      </trkpt>
      <trkpt lat="45.60816" lon="6.06301">
        <ele>1178.9204</ele>
        <time>2021-05-23T14:11:34</time>
      </trkpt>
      <trkpt lat="45.60814" lon="6.06301">
        <ele>1180.3204</ele>
        <time>2021-05-23T14:11:35</time>
      </trkpt>
      <trkpt lat="45.60813" lon="6.06302">
        <ele>1180.3204</ele>
        <time>2021-05-23T14:11:36</time>
      </trkpt>
      <trkpt lat="45.60809" lon="6.06301">
        <ele>1180.3204</ele>
        <time>2021-05-23T14:11:38</time>
      </trkpt>
      <trkpt lat="45.60806" lon="6.063">
        <ele>1180.3204</ele>
        <time>2021-05-23T14:11:40</time>
      </trkpt>
      <trkpt lat="45.60803" lon="6.06302">
        <ele>1174.1205</ele>
        <time>2021-05-23T14:11:45</time>
      </trkpt>
      <trkpt lat="45.60802" lon="6.06302">
        <ele>1174.1205</ele>
        <time>2021-05-23T14:11:46</time>
      </trkpt>
      <trkpt lat="45.60796" lon="6.06302">
        <ele>1174.1205</ele>
        <time>2021-05-23T14:11:54</time>
      </trkpt>
      <trkpt lat="45.60794" lon="6.06304">
        <ele>1171.4204</ele>
        <time>2021-05-23T14:11:56</time>
      </trkpt>
      <trkpt lat="45.60792" lon="6.06305">
        <ele>1171.4204</ele>
        <time>2021-05-23T14:11:57</time>
      </trkpt>
      <trkpt lat="45.60791" lon="6.06306">
        <ele>1171.4204</ele>
        <time>2021-05-23T14:11:58</time>
      </trkpt>
      <trkpt lat="45.6079" lon="6.06306">
        <ele>1171.4204</ele>
        <time>2021-05-23T14:11:59</time>
      </trkpt>
      <trkpt lat="45.60788" lon="6.06306">
        <ele>1171.4204</ele>
        <time>2021-05-23T14:12:00</time>
      </trkpt>
      <trkpt lat="45.60787" lon="6.06307">
        <ele>1171.4204</ele>
        <time>2021-05-23T14:12:01</time>
      </trkpt>
      <trkpt lat="45.60785" lon="6.06307">
        <ele>1171.4204</ele>
        <time>2021-05-23T14:12:02</time>
      </trkpt>
      <trkpt lat="45.60782" lon="6.06306">
        <ele>1171.4204</ele>
        <time>2021-05-23T14:12:04</time>
      </trkpt>
      <trkpt lat="45.6078" lon="6.06306">
        <ele>1171.0204</ele>
        <time>2021-05-23T14:12:05</time>
      </trkpt>
      <trkpt lat="45.60779" lon="6.06305">
        <ele>1171.0204</ele>
        <time>2021-05-23T14:12:06</time>
      </trkpt>
      <trkpt lat="45.60773" lon="6.06301">
        <ele>1171.0204</ele>
        <time>2021-05-23T14:12:10</time>
      </trkpt>
      <trkpt lat="45.60769" lon="6.06302">
        <ele>1171.0204</ele>
        <time>2021-05-23T14:12:12</time>
      </trkpt>
      <trkpt lat="45.60766" lon="6.063">
        <ele>1170.2205</ele>
        <time>2021-05-23T14:12:15</time>
      </trkpt>
      <trkpt lat="45.60758" lon="6.063">
        <ele>1170.2205</ele>
        <time>2021-05-23T14:12:20</time>
      </trkpt>
      <trkpt lat="45.60756" lon="6.063">
        <ele>1170.2205</ele>
        <time>2021-05-23T14:12:21</time>
      </trkpt>
      <trkpt lat="45.60749" lon="6.06298">
        <ele>1165.1205</ele>
        <time>2021-05-23T14:12:27</time>
      </trkpt>
      <trkpt lat="45.60749" lon="6.06297">
        <ele>1165.1205</ele>
        <time>2021-05-23T14:12:28</time>
      </trkpt>
      <trkpt lat="45.60747" lon="6.06295">
        <ele>1165.1205</ele>
        <time>2021-05-23T14:12:30</time>
      </trkpt>
      <trkpt lat="45.60743" lon="6.06292">
        <ele>1165.1205</ele>
        <time>2021-05-23T14:12:33</time>
      </trkpt>
      <trkpt lat="45.60743" lon="6.06292">
        <ele>1165.1205</ele>
        <time>2021-05-23T14:12:34</time>
      </trkpt>
      <trkpt lat="45.60741" lon="6.06291">
        <ele>1168.1205</ele>
        <time>2021-05-23T14:12:35</time>
      </trkpt>
      <trkpt lat="45.60731" lon="6.06283">
        <ele>1163.5204</ele>
        <time>2021-05-23T14:12:45</time>
      </trkpt>
      <trkpt lat="45.60729" lon="6.06282">
        <ele>1163.5204</ele>
        <time>2021-05-23T14:12:46</time>
      </trkpt>
      <trkpt lat="45.60728" lon="6.0628">
        <ele>1163.5204</ele>
        <time>2021-05-23T14:12:47</time>
      </trkpt>
      <trkpt lat="45.60712" lon="6.06273">
        <ele>1159.5204</ele>
        <time>2021-05-23T14:13:00</time>
      </trkpt>
      <trkpt lat="45.60711" lon="6.06273">
        <ele>1159.5204</ele>
        <time>2021-05-23T14:13:01</time>
      </trkpt>
      <trkpt lat="45.60706" lon="6.06272">
        <ele>1161.8204</ele>
        <time>2021-05-23T14:13:05</time>
      </trkpt>
      <trkpt lat="45.60698" lon="6.06271">
        <ele>1161.8204</ele>
        <time>2021-05-23T14:13:12</time>
      </trkpt>
      <trkpt lat="45.60695" lon="6.06272">
        <ele>1163.7205</ele>
        <time>2021-05-23T14:13:16</time>
      </trkpt>
      <trkpt lat="45.60694" lon="6.06273">
        <ele>1163.7205</ele>
        <time>2021-05-23T14:13:17</time>
      </trkpt>
      <trkpt lat="45.6069" lon="6.06275">
        <ele>1163.7205</ele>
        <time>2021-05-23T14:13:21</time>
      </trkpt>
      <trkpt lat="45.60688" lon="6.06275">
        <ele>1163.7205</ele>
        <time>2021-05-23T14:13:22</time>
      </trkpt>
      <trkpt lat="45.60687" lon="6.06275">
        <ele>1163.7205</ele>
        <time>2021-05-23T14:13:23</time>
      </trkpt>
      <trkpt lat="45.60686" lon="6.06274">
        <ele>1163.7205</ele>
        <time>2021-05-23T14:13:24</time>
      </trkpt>
      <trkpt lat="45.60678" lon="6.06267">
        <ele>1164.4204</ele>
        <time>2021-05-23T14:13:31</time>
      </trkpt>
      <trkpt lat="45.60675" lon="6.06268">
        <ele>1164.4204</ele>
        <time>2021-05-23T14:13:33</time>
      </trkpt>
      <trkpt lat="45.6067" lon="6.06266">
        <ele>1162.5204</ele>
        <time>2021-05-23T14:13:37</time>
      </trkpt>
      <trkpt lat="45.60668" lon="6.06259">
        <ele>1155.7205</ele>
        <time>2021-05-23T14:13:59</time>
      </trkpt>
      <trkpt lat="45.60665" lon="6.06257">
        <ele>1155.7205</ele>
        <time>2021-05-23T14:14:03</time>
      </trkpt>
      <trkpt lat="45.60659" lon="6.06254">
        <ele>1154.0204</ele>
        <time>2021-05-23T14:14:10</time>
      </trkpt>
      <trkpt lat="45.60658" lon="6.06253">
        <ele>1154.0204</ele>
        <time>2021-05-23T14:14:11</time>
      </trkpt>
      <trkpt lat="45.60657" lon="6.06251">
        <ele>1154.0204</ele>
        <time>2021-05-23T14:14:12</time>
      </trkpt>
      <trkpt lat="45.60655" lon="6.0625">
        <ele>1154.0204</ele>
        <time>2021-05-23T14:14:13</time>
      </trkpt>
      <trkpt lat="45.60651" lon="6.06247">
        <ele>1154.8204</ele>
        <time>2021-05-23T14:14:16</time>
      </trkpt>
      <trkpt lat="45.60642" lon="6.06245">
        <ele>1154.8204</ele>
        <time>2021-05-23T14:14:24</time>
      </trkpt>
      <trkpt lat="45.60639" lon="6.06245">
        <ele>1152.0204</ele>
        <time>2021-05-23T14:14:27</time>
      </trkpt>
      <trkpt lat="45.60638" lon="6.06245">
        <ele>1152.0204</ele>
        <time>2021-05-23T14:14:28</time>
      </trkpt>
      <trkpt lat="45.6063" lon="6.06246">
        <ele>1154.6205</ele>
        <time>2021-05-23T14:14:35</time>
      </trkpt>
      <trkpt lat="45.60624" lon="6.06245">
        <ele>1154.6205</ele>
        <time>2021-05-23T14:14:39</time>
      </trkpt>
      <trkpt lat="45.60613" lon="6.06241">
        <ele>1158.1205</ele>
        <time>2021-05-23T14:14:48</time>
      </trkpt>
      <trkpt lat="45.60612" lon="6.06241">
        <ele>1158.1205</ele>
        <time>2021-05-23T14:14:49</time>
      </trkpt>
      <trkpt lat="45.60608" lon="6.06242">
        <ele>1158.1205</ele>
        <time>2021-05-23T14:14:51</time>
      </trkpt>
      <trkpt lat="45.60601" lon="6.06239">
        <ele>1155.9204</ele>
        <time>2021-05-23T14:14:56</time>
      </trkpt>
      <trkpt lat="45.606" lon="6.06238">
        <ele>1155.9204</ele>
        <time>2021-05-23T14:14:57</time>
      </trkpt>
      <trkpt lat="45.60595" lon="6.06231">
        <ele>1155.9204</ele>
        <time>2021-05-23T14:15:02</time>
      </trkpt>
      <trkpt lat="45.6059" lon="6.06229">
        <ele>1156.5204</ele>
        <time>2021-05-23T14:15:06</time>
      </trkpt>
      <trkpt lat="45.60584" lon="6.06227">
        <ele>1156.5204</ele>
        <time>2021-05-23T14:15:11</time>
      </trkpt>
      <trkpt lat="45.60583" lon="6.06226">
        <ele>1156.5204</ele>
        <time>2021-05-23T14:15:12</time>
      </trkpt>
      <trkpt lat="45.60582" lon="6.06226">
        <ele>1156.5204</ele>
        <time>2021-05-23T14:15:13</time>
      </trkpt>
      <trkpt lat="45.60579" lon="6.06222">
        <ele>1153.1205</ele>
        <time>2021-05-23T14:15:17</time>
      </trkpt>
      <trkpt lat="45.60565" lon="6.06214">
        <ele>1153.5204</ele>
        <time>2021-05-23T14:15:32</time>
      </trkpt>
      <trkpt lat="45.60563" lon="6.06214">
        <ele>1153.5204</ele>
        <time>2021-05-23T14:15:34</time>
      </trkpt>
      <trkpt lat="45.60563" lon="6.06214">
        <ele>1149.8204</ele>
        <time>2021-05-23T14:15:35</time>
      </trkpt>
      <trkpt lat="45.60557" lon="6.06209">
        <ele>1149.8204</ele>
        <time>2021-05-23T14:15:43</time>
      </trkpt>
      <trkpt lat="45.60554" lon="6.0621">
        <ele>1150.0204</ele>
        <time>2021-05-23T14:15:45</time>
      </trkpt>
      <trkpt lat="45.60553" lon="6.06211">
        <ele>1150.0204</ele>
        <time>2021-05-23T14:15:46</time>
      </trkpt>
      <trkpt lat="45.6055" lon="6.0621">
        <ele>1150.0204</ele>
        <time>2021-05-23T14:15:50</time>
      </trkpt>
      <trkpt lat="45.60549" lon="6.06208">
        <ele>1145.9204</ele>
        <time>2021-05-23T14:15:59</time>
      </trkpt>
      <trkpt lat="45.60543" lon="6.06206">
        <ele>1145.3204</ele>
        <time>2021-05-23T14:16:06</time>
      </trkpt>
      <trkpt lat="45.60542" lon="6.06205">
        <ele>1145.3204</ele>
        <time>2021-05-23T14:16:07</time>
      </trkpt>
      <trkpt lat="45.60532" lon="6.06204">
        <ele>1145.3204</ele>
        <time>2021-05-23T14:16:14</time>
      </trkpt>
      <trkpt lat="45.60529" lon="6.06205">
        <ele>1141.9204</ele>
        <time>2021-05-23T14:16:16</time>
      </trkpt>
      <trkpt lat="45.60526" lon="6.06205">
        <ele>1141.9204</ele>
        <time>2021-05-23T14:16:18</time>
      </trkpt>
      <trkpt lat="45.60525" lon="6.06205">
        <ele>1141.9204</ele>
        <time>2021-05-23T14:16:19</time>
      </trkpt>
      <trkpt lat="45.60524" lon="6.06205">
        <ele>1141.9204</ele>
        <time>2021-05-23T14:16:20</time>
      </trkpt>
      <trkpt lat="45.60523" lon="6.06204">
        <ele>1141.9204</ele>
        <time>2021-05-23T14:16:21</time>
      </trkpt>
      <trkpt lat="45.60521" lon="6.06203">
        <ele>1141.9204</ele>
        <time>2021-05-23T14:16:23</time>
      </trkpt>
      <trkpt lat="45.6052" lon="6.06202">
        <ele>1141.9204</ele>
        <time>2021-05-23T14:16:24</time>
      </trkpt>
      <trkpt lat="45.60517" lon="6.06202">
        <ele>1146.4204</ele>
        <time>2021-05-23T14:16:26</time>
      </trkpt>
      <trkpt lat="45.60516" lon="6.06202">
        <ele>1146.4204</ele>
        <time>2021-05-23T14:16:27</time>
      </trkpt>
      <trkpt lat="45.60512" lon="6.06202">
        <ele>1146.4204</ele>
        <time>2021-05-23T14:16:29</time>
      </trkpt>
      <trkpt lat="45.60509" lon="6.06199">
        <ele>1146.4204</ele>
        <time>2021-05-23T14:16:32</time>
      </trkpt>
      <trkpt lat="45.60508" lon="6.06199">
        <ele>1146.4204</ele>
        <time>2021-05-23T14:16:33</time>
      </trkpt>
      <trkpt lat="45.60507" lon="6.06198">
        <ele>1146.4204</ele>
        <time>2021-05-23T14:16:34</time>
      </trkpt>
      <trkpt lat="45.60506" lon="6.06197">
        <ele>1149.2205</ele>
        <time>2021-05-23T14:16:35</time>
      </trkpt>
      <trkpt lat="45.60506" lon="6.06197">
        <ele>1149.2205</ele>
        <time>2021-05-23T14:16:36</time>
      </trkpt>
      <trkpt lat="45.60506" lon="6.06195">
        <ele>1149.2205</ele>
        <time>2021-05-23T14:16:37</time>
      </trkpt>
      <trkpt lat="45.605" lon="6.06189">
        <ele>1149.2205</ele>
        <time>2021-05-23T14:16:44</time>
      </trkpt>
      <trkpt lat="45.60491" lon="6.06184">
        <ele>1147.0204</ele>
        <time>2021-05-23T14:16:51</time>
      </trkpt>
      <trkpt lat="45.6049" lon="6.06184">
        <ele>1147.0204</ele>
        <time>2021-05-23T14:16:52</time>
      </trkpt>
      <trkpt lat="45.60488" lon="6.06184">
        <ele>1147.0204</ele>
        <time>2021-05-23T14:16:53</time>
      </trkpt>
      <trkpt lat="45.60487" lon="6.06184">
        <ele>1147.0204</ele>
        <time>2021-05-23T14:16:54</time>
      </trkpt>
      <trkpt lat="45.60486" lon="6.06183">
        <ele>1141.1205</ele>
        <time>2021-05-23T14:16:55</time>
      </trkpt>
      <trkpt lat="45.60484" lon="6.06183">
        <ele>1141.1205</ele>
        <time>2021-05-23T14:16:57</time>
      </trkpt>
      <trkpt lat="45.60483" lon="6.06183">
        <ele>1141.1205</ele>
        <time>2021-05-23T14:16:58</time>
      </trkpt>
      <trkpt lat="45.60481" lon="6.06184">
        <ele>1141.1205</ele>
        <time>2021-05-23T14:16:59</time>
      </trkpt>
      <trkpt lat="45.60479" lon="6.06183">
        <ele>1141.1205</ele>
        <time>2021-05-23T14:17:02</time>
      </trkpt>
      <trkpt lat="45.60478" lon="6.06183">
        <ele>1141.1205</ele>
        <time>2021-05-23T14:17:03</time>
      </trkpt>
      <trkpt lat="45.60477" lon="6.06183">
        <ele>1141.8204</ele>
        <time>2021-05-23T14:17:05</time>
      </trkpt>
      <trkpt lat="45.60476" lon="6.06183">
        <ele>1141.8204</ele>
        <time>2021-05-23T14:17:06</time>
      </trkpt>
      <trkpt lat="45.60475" lon="6.06183">
        <ele>1141.8204</ele>
        <time>2021-05-23T14:17:07</time>
      </trkpt>
      <trkpt lat="45.60468" lon="6.06179">
        <ele>1137.3204</ele>
        <time>2021-05-23T14:17:15</time>
      </trkpt>
      <trkpt lat="45.60467" lon="6.06178">
        <ele>1137.3204</ele>
        <time>2021-05-23T14:17:16</time>
      </trkpt>
      <trkpt lat="45.60463" lon="6.06176">
        <ele>1137.3204</ele>
        <time>2021-05-23T14:17:22</time>
      </trkpt>
      <trkpt lat="45.60462" lon="6.06176">
        <ele>1137.3204</ele>
        <time>2021-05-23T14:17:23</time>
      </trkpt>
      <trkpt lat="45.60459" lon="6.06177">
        <ele>1132.2205</ele>
        <time>2021-05-23T14:17:27</time>
      </trkpt>
      <trkpt lat="45.60458" lon="6.06178">
        <ele>1132.2205</ele>
        <time>2021-05-23T14:17:28</time>
      </trkpt>
      <trkpt lat="45.60457" lon="6.06178">
        <ele>1132.2205</ele>
        <time>2021-05-23T14:17:30</time>
      </trkpt>
      <trkpt lat="45.60456" lon="6.06178">
        <ele>1132.2205</ele>
        <time>2021-05-23T14:17:31</time>
      </trkpt>
      <trkpt lat="45.60455" lon="6.06178">
        <ele>1132.2205</ele>
        <time>2021-05-23T14:17:32</time>
      </trkpt>
      <trkpt lat="45.60453" lon="6.06177">
        <ele>1132.2205</ele>
        <time>2021-05-23T14:17:34</time>
      </trkpt>
      <trkpt lat="45.60452" lon="6.06178">
        <ele>1133.9204</ele>
        <time>2021-05-23T14:17:35</time>
      </trkpt>
      <trkpt lat="45.60452" lon="6.06177">
        <ele>1133.9204</ele>
        <time>2021-05-23T14:17:36</time>
      </trkpt>
      <trkpt lat="45.60449" lon="6.06174">
        <ele>1133.9204</ele>
        <time>2021-05-23T14:17:39</time>
      </trkpt>
      <trkpt lat="45.60448" lon="6.06173">
        <ele>1133.9204</ele>
        <time>2021-05-23T14:17:43</time>
      </trkpt>
      <trkpt lat="45.60448" lon="6.06172">
        <ele>1133.9204</ele>
        <time>2021-05-23T14:17:44</time>
      </trkpt>
      <trkpt lat="45.60447" lon="6.06172">
        <ele>1130.5204</ele>
        <time>2021-05-23T14:17:45</time>
      </trkpt>
      <trkpt lat="45.60446" lon="6.06172">
        <ele>1130.5204</ele>
        <time>2021-05-23T14:17:46</time>
      </trkpt>
      <trkpt lat="45.60445" lon="6.06172">
        <ele>1130.5204</ele>
        <time>2021-05-23T14:17:48</time>
      </trkpt>
      <trkpt lat="45.60444" lon="6.06172">
        <ele>1130.5204</ele>
        <time>2021-05-23T14:17:49</time>
      </trkpt>
      <trkpt lat="45.6044" lon="6.0617">
        <ele>1130.5204</ele>
        <time>2021-05-23T14:17:54</time>
      </trkpt>
      <trkpt lat="45.60439" lon="6.06169">
        <ele>1126.4204</ele>
        <time>2021-05-23T14:17:55</time>
      </trkpt>
      <trkpt lat="45.60438" lon="6.06169">
        <ele>1126.4204</ele>
        <time>2021-05-23T14:17:56</time>
      </trkpt>
      <trkpt lat="45.60437" lon="6.06171">
        <ele>1126.4204</ele>
        <time>2021-05-23T14:17:57</time>
      </trkpt>
      <trkpt lat="45.60436" lon="6.06172">
        <ele>1126.4204</ele>
        <time>2021-05-23T14:17:58</time>
      </trkpt>
      <trkpt lat="45.60435" lon="6.06173">
        <ele>1126.4204</ele>
        <time>2021-05-23T14:17:59</time>
      </trkpt>
      <trkpt lat="45.60434" lon="6.06173">
        <ele>1126.4204</ele>
        <time>2021-05-23T14:18:00</time>
      </trkpt>
      <trkpt lat="45.60424" lon="6.06178">
        <ele>1124.2205</ele>
        <time>2021-05-23T14:18:12</time>
      </trkpt>
      <trkpt lat="45.60423" lon="6.06179">
        <ele>1124.2205</ele>
        <time>2021-05-23T14:18:13</time>
      </trkpt>
      <trkpt lat="45.60423" lon="6.0618">
        <ele>1124.2205</ele>
        <time>2021-05-23T14:18:14</time>
      </trkpt>
      <trkpt lat="45.6042" lon="6.06181">
        <ele>1125.3204</ele>
        <time>2021-05-23T14:18:17</time>
      </trkpt>
      <trkpt lat="45.6042" lon="6.06181">
        <ele>1125.3204</ele>
        <time>2021-05-23T14:18:18</time>
      </trkpt>
      <trkpt lat="45.60419" lon="6.06182">
        <ele>1125.3204</ele>
        <time>2021-05-23T14:18:19</time>
      </trkpt>
      <trkpt lat="45.60418" lon="6.06183">
        <ele>1125.3204</ele>
        <time>2021-05-23T14:18:20</time>
      </trkpt>
      <trkpt lat="45.60417" lon="6.06183">
        <ele>1125.3204</ele>
        <time>2021-05-23T14:18:22</time>
      </trkpt>
      <trkpt lat="45.60409" lon="6.06178">
        <ele>1122.2205</ele>
        <time>2021-05-23T14:18:33</time>
      </trkpt>
      <trkpt lat="45.60404" lon="6.06178">
        <ele>1123.8204</ele>
        <time>2021-05-23T14:18:39</time>
      </trkpt>
      <trkpt lat="45.60402" lon="6.06176">
        <ele>1123.8204</ele>
        <time>2021-05-23T14:18:42</time>
      </trkpt>
      <trkpt lat="45.604" lon="6.06172">
        <ele>1123.8204</ele>
        <time>2021-05-23T14:18:44</time>
      </trkpt>
      <trkpt lat="45.60388" lon="6.06167">
        <ele>1118.3204</ele>
        <time>2021-05-23T14:18:52</time>
      </trkpt>
      <trkpt lat="45.60385" lon="6.06165">
        <ele>1118.3204</ele>
        <time>2021-05-23T14:18:54</time>
      </trkpt>
      <trkpt lat="45.60376" lon="6.06158">
        <ele>1112.9204</ele>
        <time>2021-05-23T14:19:02</time>
      </trkpt>
      <trkpt lat="45.60373" lon="6.06158">
        <ele>1109.3204</ele>
        <time>2021-05-23T14:19:05</time>
      </trkpt>
      <trkpt lat="45.60372" lon="6.06159">
        <ele>1109.3204</ele>
        <time>2021-05-23T14:19:14</time>
      </trkpt>
      <trkpt lat="45.60371" lon="6.06158">
        <ele>1105.5204</ele>
        <time>2021-05-23T14:19:15</time>
      </trkpt>
      <trkpt lat="45.6037" lon="6.06157">
        <ele>1105.5204</ele>
        <time>2021-05-23T14:19:16</time>
      </trkpt>
      <trkpt lat="45.60368" lon="6.06156">
        <ele>1105.5204</ele>
        <time>2021-05-23T14:19:19</time>
      </trkpt>
      <trkpt lat="45.60362" lon="6.06156">
        <ele>1105.5204</ele>
        <time>2021-05-23T14:19:23</time>
      </trkpt>
      <trkpt lat="45.60353" lon="6.0615">
        <ele>1105.6205</ele>
        <time>2021-05-23T14:19:32</time>
      </trkpt>
      <trkpt lat="45.60352" lon="6.0615">
        <ele>1105.6205</ele>
        <time>2021-05-23T14:19:33</time>
      </trkpt>
      <trkpt lat="45.60352" lon="6.06149">
        <ele>1105.6205</ele>
        <time>2021-05-23T14:19:34</time>
      </trkpt>
      <trkpt lat="45.60351" lon="6.06147">
        <ele>1103.7205</ele>
        <time>2021-05-23T14:19:36</time>
      </trkpt>
      <trkpt lat="45.60349" lon="6.06146">
        <ele>1103.7205</ele>
        <time>2021-05-23T14:19:40</time>
      </trkpt>
      <trkpt lat="45.60342" lon="6.06143">
        <ele>1100.7205</ele>
        <time>2021-05-23T14:19:47</time>
      </trkpt>
      <trkpt lat="45.60338" lon="6.06143">
        <ele>1100.7205</ele>
        <time>2021-05-23T14:19:54</time>
      </trkpt>
      <trkpt lat="45.60337" lon="6.06143">
        <ele>1098.9204</ele>
        <time>2021-05-23T14:19:55</time>
      </trkpt>
      <trkpt lat="45.60329" lon="6.06144">
        <ele>1098.2205</ele>
        <time>2021-05-23T14:20:05</time>
      </trkpt>
      <trkpt lat="45.60329" lon="6.06144">
        <ele>1098.2205</ele>
        <time>2021-05-23T14:20:06</time>
      </trkpt>
      <trkpt lat="45.60328" lon="6.06144">
        <ele>1098.2205</ele>
        <time>2021-05-23T14:20:07</time>
      </trkpt>
      <trkpt lat="45.60327" lon="6.06146">
        <ele>1098.2205</ele>
        <time>2021-05-23T14:20:13</time>
      </trkpt>
      <trkpt lat="45.60326" lon="6.06146">
        <ele>1098.2205</ele>
        <time>2021-05-23T14:20:14</time>
      </trkpt>
      <trkpt lat="45.60325" lon="6.06147">
        <ele>1098.1205</ele>
        <time>2021-05-23T14:20:15</time>
      </trkpt>
      <trkpt lat="45.60314" lon="6.06146">
        <ele>1098.1205</ele>
        <time>2021-05-23T14:20:21</time>
      </trkpt>
      <trkpt lat="45.60311" lon="6.06146">
        <ele>1098.1205</ele>
        <time>2021-05-23T14:20:22</time>
      </trkpt>
      <trkpt lat="45.60309" lon="6.06145">
        <ele>1098.1205</ele>
        <time>2021-05-23T14:20:23</time>
      </trkpt>
      <trkpt lat="45.60307" lon="6.06145">
        <ele>1098.1205</ele>
        <time>2021-05-23T14:20:24</time>
      </trkpt>
      <trkpt lat="45.60306" lon="6.06144">
        <ele>1101.1205</ele>
        <time>2021-05-23T14:20:25</time>
      </trkpt>
      <trkpt lat="45.60303" lon="6.06143">
        <ele>1101.1205</ele>
        <time>2021-05-23T14:20:26</time>
      </trkpt>
      <trkpt lat="45.60301" lon="6.06142">
        <ele>1101.1205</ele>
        <time>2021-05-23T14:20:28</time>
      </trkpt>
      <trkpt lat="45.60298" lon="6.06143">
        <ele>1101.1205</ele>
        <time>2021-05-23T14:20:30</time>
      </trkpt>
      <trkpt lat="45.60298" lon="6.06143">
        <ele>1101.1205</ele>
        <time>2021-05-23T14:20:31</time>
      </trkpt>
      <trkpt lat="45.60295" lon="6.06142">
        <ele>1101.1205</ele>
        <time>2021-05-23T14:20:34</time>
      </trkpt>
      <trkpt lat="45.60294" lon="6.06141">
        <ele>1088.2205</ele>
        <time>2021-05-23T14:20:38</time>
      </trkpt>
      <trkpt lat="45.60294" lon="6.06141">
        <ele>1088.2205</ele>
        <time>2021-05-23T14:20:39</time>
      </trkpt>
      <trkpt lat="45.60293" lon="6.0614">
        <ele>1088.2205</ele>
        <time>2021-05-23T14:20:40</time>
      </trkpt>
      <trkpt lat="45.60289" lon="6.06142">
        <ele>1088.2205</ele>
        <time>2021-05-23T14:20:44</time>
      </trkpt>
      <trkpt lat="45.60284" lon="6.06141">
        <ele>1083.8204</ele>
        <time>2021-05-23T14:20:48</time>
      </trkpt>
      <trkpt lat="45.60281" lon="6.06139">
        <ele>1083.8204</ele>
        <time>2021-05-23T14:20:51</time>
      </trkpt>
      <trkpt lat="45.6028" lon="6.06139">
        <ele>1083.8204</ele>
        <time>2021-05-23T14:20:52</time>
      </trkpt>
      <trkpt lat="45.60279" lon="6.06138">
        <ele>1083.8204</ele>
        <time>2021-05-23T14:20:53</time>
      </trkpt>
      <trkpt lat="45.60271" lon="6.06132">
        <ele>1085.1205</ele>
        <time>2021-05-23T14:21:04</time>
      </trkpt>
      <trkpt lat="45.6027" lon="6.06132">
        <ele>1081.1205</ele>
        <time>2021-05-23T14:21:07</time>
      </trkpt>
      <trkpt lat="45.60269" lon="6.06133">
        <ele>1081.1205</ele>
        <time>2021-05-23T14:21:10</time>
      </trkpt>
      <trkpt lat="45.60269" lon="6.06134">
        <ele>1081.1205</ele>
        <time>2021-05-23T14:21:11</time>
      </trkpt>
      <trkpt lat="45.60268" lon="6.06135">
        <ele>1075.0204</ele>
        <time>2021-05-23T14:21:15</time>
      </trkpt>
      <trkpt lat="45.60268" lon="6.06135">
        <ele>1075.0204</ele>
        <time>2021-05-23T14:21:16</time>
      </trkpt>
      <trkpt lat="45.60267" lon="6.06136">
        <ele>1075.0204</ele>
        <time>2021-05-23T14:21:17</time>
      </trkpt>
      <trkpt lat="45.60266" lon="6.06135">
        <ele>1075.0204</ele>
        <time>2021-05-23T14:21:19</time>
      </trkpt>
      <trkpt lat="45.60266" lon="6.06135">
        <ele>1075.0204</ele>
        <time>2021-05-23T14:21:20</time>
      </trkpt>
      <trkpt lat="45.60269" lon="6.06141">
        <ele>1075.0204</ele>
        <time>2021-05-23T14:21:24</time>
      </trkpt>
      <trkpt lat="45.60269" lon="6.06141">
        <ele>1068.3204</ele>
        <time>2021-05-23T14:21:25</time>
      </trkpt>
      <trkpt lat="45.6027" lon="6.06145">
        <ele>1068.3204</ele>
        <time>2021-05-23T14:21:27</time>
      </trkpt>
      <trkpt lat="45.6027" lon="6.06152">
        <ele>1068.3204</ele>
        <time>2021-05-23T14:21:32</time>
      </trkpt>
      <trkpt lat="45.6027" lon="6.06155">
        <ele>1068.3204</ele>
        <time>2021-05-23T14:21:33</time>
      </trkpt>
      <trkpt lat="45.60271" lon="6.06157">
        <ele>1068.3204</ele>
        <time>2021-05-23T14:21:34</time>
      </trkpt>
      <trkpt lat="45.60271" lon="6.06159">
        <ele>1074.6205</ele>
        <time>2021-05-23T14:21:35</time>
      </trkpt>
      <trkpt lat="45.60272" lon="6.06165">
        <ele>1074.6205</ele>
        <time>2021-05-23T14:21:41</time>
      </trkpt>
      <trkpt lat="45.60273" lon="6.06167">
        <ele>1074.6205</ele>
        <time>2021-05-23T14:21:43</time>
      </trkpt>
      <trkpt lat="45.60273" lon="6.06168">
        <ele>1074.6205</ele>
        <time>2021-05-23T14:21:44</time>
      </trkpt>
      <trkpt lat="45.60274" lon="6.06169">
        <ele>1072.8204</ele>
        <time>2021-05-23T14:21:45</time>
      </trkpt>
      <trkpt lat="45.60275" lon="6.06169">
        <ele>1072.8204</ele>
        <time>2021-05-23T14:21:46</time>
      </trkpt>
      <trkpt lat="45.60277" lon="6.06172">
        <ele>1072.8204</ele>
        <time>2021-05-23T14:21:51</time>
      </trkpt>
      <trkpt lat="45.60278" lon="6.06173">
        <ele>1072.8204</ele>
        <time>2021-05-23T14:21:52</time>
      </trkpt>
      <trkpt lat="45.6028" lon="6.06174">
        <ele>1072.8204</ele>
        <time>2021-05-23T14:21:53</time>
      </trkpt>
      <trkpt lat="45.60283" lon="6.06176">
        <ele>1074.8204</ele>
        <time>2021-05-23T14:21:58</time>
      </trkpt>
      <trkpt lat="45.60284" lon="6.06178">
        <ele>1074.8204</ele>
        <time>2021-05-23T14:21:59</time>
      </trkpt>
      <trkpt lat="45.60286" lon="6.06182">
        <ele>1074.8204</ele>
        <time>2021-05-23T14:22:03</time>
      </trkpt>
      <trkpt lat="45.60286" lon="6.06183">
        <ele>1074.8204</ele>
        <time>2021-05-23T14:22:04</time>
      </trkpt>
      <trkpt lat="45.60287" lon="6.06184">
        <ele>1060.6205</ele>
        <time>2021-05-23T14:22:05</time>
      </trkpt>
      <trkpt lat="45.60287" lon="6.06184">
        <ele>1060.6205</ele>
        <time>2021-05-23T14:22:06</time>
      </trkpt>
      <trkpt lat="45.60287" lon="6.06184">
        <ele>1060.6205</ele>
        <time>2021-05-23T14:22:07</time>
      </trkpt>
      <trkpt lat="45.60287" lon="6.06184">
        <ele>1060.6205</ele>
        <time>2021-05-23T14:22:08</time>
      </trkpt>
      <trkpt lat="45.60288" lon="6.06184">
        <ele>1060.6205</ele>
        <time>2021-05-23T14:22:09</time>
      </trkpt>
      <trkpt lat="45.60288" lon="6.06183">
        <ele>1060.6205</ele>
        <time>2021-05-23T14:22:11</time>
      </trkpt>
      <trkpt lat="45.60288" lon="6.06185">
        <ele>1060.6205</ele>
        <time>2021-05-23T14:22:12</time>
      </trkpt>
      <trkpt lat="45.60288" lon="6.06186">
        <ele>1060.6205</ele>
        <time>2021-05-23T14:22:13</time>
      </trkpt>
      <trkpt lat="45.60287" lon="6.06187">
        <ele>1060.6205</ele>
        <time>2021-05-23T14:22:14</time>
      </trkpt>
      <trkpt lat="45.60287" lon="6.06189">
        <ele>1052.7205</ele>
        <time>2021-05-23T14:22:16</time>
      </trkpt>
      <trkpt lat="45.60287" lon="6.0619">
        <ele>1052.7205</ele>
        <time>2021-05-23T14:22:17</time>
      </trkpt>
      <trkpt lat="45.60287" lon="6.0619">
        <ele>1052.7205</ele>
        <time>2021-05-23T14:22:18</time>
      </trkpt>
      <trkpt lat="45.60286" lon="6.06191">
        <ele>1052.7205</ele>
        <time>2021-05-23T14:22:19</time>
      </trkpt>
      <trkpt lat="45.60286" lon="6.06191">
        <ele>1052.7205</ele>
        <time>2021-05-23T14:22:20</time>
      </trkpt>
      <trkpt lat="45.60286" lon="6.06191">
        <ele>1052.7205</ele>
        <time>2021-05-23T14:22:21</time>
      </trkpt>
      <trkpt lat="45.60283" lon="6.06192">
        <ele>1050.7205</ele>
        <time>2021-05-23T14:22:28</time>
      </trkpt>
      <trkpt lat="45.60282" lon="6.06194">
        <ele>1050.7205</ele>
        <time>2021-05-23T14:22:29</time>
      </trkpt>
      <trkpt lat="45.60281" lon="6.06195">
        <ele>1050.7205</ele>
        <time>2021-05-23T14:22:31</time>
      </trkpt>
      <trkpt lat="45.6028" lon="6.06197">
        <ele>1050.7205</ele>
        <time>2021-05-23T14:22:32</time>
      </trkpt>
      <trkpt lat="45.6028" lon="6.06198">
        <ele>1050.7205</ele>
        <time>2021-05-23T14:22:34</time>
      </trkpt>
      <trkpt lat="45.60279" lon="6.06198">
        <ele>1049.3204</ele>
        <time>2021-05-23T14:22:35</time>
      </trkpt>
      <trkpt lat="45.60277" lon="6.062">
        <ele>1045.9204</ele>
        <time>2021-05-23T14:23:14</time>
      </trkpt>
      <trkpt lat="45.60276" lon="6.062">
        <ele>1046.9537</ele>
        <time>2021-05-23T14:23:36</time>
      </trkpt>
      <trkpt lat="45.60276" lon="6.062">
        <ele>1046.9537</ele>
        <time>2021-05-23T14:23:37</time>
      </trkpt>
      <trkpt lat="45.60276" lon="6.062">
        <ele>1046.9537</ele>
        <time>2021-05-23T14:23:38</time>
      </trkpt>
      <trkpt lat="45.60276" lon="6.06201">
        <ele>1046.9537</ele>
        <time>2021-05-23T14:23:39</time>
      </trkpt>
      <trkpt lat="45.60274" lon="6.06204">
        <ele>1046.9537</ele>
        <time>2021-05-23T14:23:41</time>
      </trkpt>
      <trkpt lat="45.60273" lon="6.06205">
        <ele>1046.9537</ele>
        <time>2021-05-23T14:23:42</time>
      </trkpt>
      <trkpt lat="45.60272" lon="6.06207">
        <ele>1046.9537</ele>
        <time>2021-05-23T14:23:43</time>
      </trkpt>
      <trkpt lat="45.60267" lon="6.06209">
        <ele>1047.0204</ele>
        <time>2021-05-23T14:23:46</time>
      </trkpt>
      <trkpt lat="45.60266" lon="6.0621">
        <ele>1047.0204</ele>
        <time>2021-05-23T14:23:47</time>
      </trkpt>
      <trkpt lat="45.60265" lon="6.0621">
        <ele>1047.0204</ele>
        <time>2021-05-23T14:23:48</time>
      </trkpt>
      <trkpt lat="45.60259" lon="6.06209">
        <ele>1047.0204</ele>
        <time>2021-05-23T14:23:52</time>
      </trkpt>
      <trkpt lat="45.60255" lon="6.06209">
        <ele>1049.8204</ele>
        <time>2021-05-23T14:23:55</time>
      </trkpt>
      <trkpt lat="45.60244" lon="6.06207">
        <ele>1049.8204</ele>
        <time>2021-05-23T14:24:03</time>
      </trkpt>
      <trkpt lat="45.60224" lon="6.06203">
        <ele>1046.0204</ele>
        <time>2021-05-23T14:24:21</time>
      </trkpt>
      <trkpt lat="45.60215" lon="6.06201">
        <ele>1043.987</ele>
        <time>2021-05-23T14:24:29</time>
      </trkpt>
      <trkpt lat="45.60214" lon="6.062">
        <ele>1043.987</ele>
        <time>2021-05-23T14:24:32</time>
      </trkpt>
      <trkpt lat="45.60209" lon="6.062">
        <ele>1043.6205</ele>
        <time>2021-05-23T14:24:36</time>
      </trkpt>
      <trkpt lat="45.60208" lon="6.06199">
        <ele>1043.6205</ele>
        <time>2021-05-23T14:24:37</time>
      </trkpt>
      <trkpt lat="45.60207" lon="6.06199">
        <ele>1043.6205</ele>
        <time>2021-05-23T14:24:38</time>
      </trkpt>
      <trkpt lat="45.60204" lon="6.06198">
        <ele>1043.6205</ele>
        <time>2021-05-23T14:24:41</time>
      </trkpt>
      <trkpt lat="45.60203" lon="6.06198">
        <ele>1043.6205</ele>
        <time>2021-05-23T14:24:42</time>
      </trkpt>
      <trkpt lat="45.60198" lon="6.06196">
        <ele>1043.3204</ele>
        <time>2021-05-23T14:24:46</time>
      </trkpt>
      <trkpt lat="45.60198" lon="6.06196">
        <ele>1043.3204</ele>
        <time>2021-05-23T14:24:47</time>
      </trkpt>
      <trkpt lat="45.60197" lon="6.06196">
        <ele>1043.3204</ele>
        <time>2021-05-23T14:24:48</time>
      </trkpt>
      <trkpt lat="45.60189" lon="6.06199">
        <ele>1045.2205</ele>
        <time>2021-05-23T14:24:57</time>
      </trkpt>
      <trkpt lat="45.60189" lon="6.062">
        <ele>1045.2205</ele>
        <time>2021-05-23T14:24:58</time>
      </trkpt>
      <trkpt lat="45.60188" lon="6.062">
        <ele>1045.2205</ele>
        <time>2021-05-23T14:24:59</time>
      </trkpt>
      <trkpt lat="45.60181" lon="6.06198">
        <ele>1054.7205</ele>
        <time>2021-05-23T14:25:06</time>
      </trkpt>
      <trkpt lat="45.60179" lon="6.06197">
        <ele>1054.7205</ele>
        <time>2021-05-23T14:25:08</time>
      </trkpt>
      <trkpt lat="45.60177" lon="6.06196">
        <ele>1054.7205</ele>
        <time>2021-05-23T14:25:10</time>
      </trkpt>
      <trkpt lat="45.60173" lon="6.06194">
        <ele>1054.7205</ele>
        <time>2021-05-23T14:25:13</time>
      </trkpt>
      <trkpt lat="45.60172" lon="6.06193">
        <ele>1051.1205</ele>
        <time>2021-05-23T14:25:16</time>
      </trkpt>
      <trkpt lat="45.60171" lon="6.06193">
        <ele>1051.1205</ele>
        <time>2021-05-23T14:25:17</time>
      </trkpt>
      <trkpt lat="45.60167" lon="6.0619">
        <ele>1051.1205</ele>
        <time>2021-05-23T14:25:20</time>
      </trkpt>
      <trkpt lat="45.60156" lon="6.06187">
        <ele>1055.7205</ele>
        <time>2021-05-23T14:25:28</time>
      </trkpt>
      <trkpt lat="45.60154" lon="6.06186">
        <ele>1055.7205</ele>
        <time>2021-05-23T14:25:29</time>
      </trkpt>
      <trkpt lat="45.60148" lon="6.06181">
        <ele>1052.9204</ele>
        <time>2021-05-23T14:25:36</time>
      </trkpt>
      <trkpt lat="45.60147" lon="6.06181">
        <ele>1052.9204</ele>
        <time>2021-05-23T14:25:37</time>
      </trkpt>
      <trkpt lat="45.60143" lon="6.06179">
        <ele>1052.9204</ele>
        <time>2021-05-23T14:25:40</time>
      </trkpt>
      <trkpt lat="45.60136" lon="6.06179">
        <ele>1048.9204</ele>
        <time>2021-05-23T14:25:57</time>
      </trkpt>
      <trkpt lat="45.60128" lon="6.06171">
        <ele>1048.4204</ele>
        <time>2021-05-23T14:26:09</time>
      </trkpt>
      <trkpt lat="45.60127" lon="6.06171">
        <ele>1048.4204</ele>
        <time>2021-05-23T14:26:10</time>
      </trkpt>
      <trkpt lat="45.60119" lon="6.06164">
        <ele>1048.9204</ele>
        <time>2021-05-23T14:26:18</time>
      </trkpt>
      <trkpt lat="45.60105" lon="6.06158">
        <ele>1049.0204</ele>
        <time>2021-05-23T14:26:34</time>
      </trkpt>
      <trkpt lat="45.60095" lon="6.06149">
        <ele>1049.0204</ele>
        <time>2021-05-23T14:26:46</time>
      </trkpt>
      <trkpt lat="45.60092" lon="6.06146">
        <ele>1050.6205</ele>
        <time>2021-05-23T14:26:58</time>
      </trkpt>
      <trkpt lat="45.60091" lon="6.06146">
        <ele>1050.6205</ele>
        <time>2021-05-23T14:26:59</time>
      </trkpt>
      <trkpt lat="45.60088" lon="6.06143">
        <ele>1050.6205</ele>
        <time>2021-05-23T14:27:03</time>
      </trkpt>
      <trkpt lat="45.60083" lon="6.06142">
        <ele>1050.6205</ele>
        <time>2021-05-23T14:27:07</time>
      </trkpt>
      <trkpt lat="45.60082" lon="6.06141">
        <ele>1050.6205</ele>
        <time>2021-05-23T14:27:08</time>
      </trkpt>
      <trkpt lat="45.6008" lon="6.0614">
        <ele>1050.6205</ele>
        <time>2021-05-23T14:27:10</time>
      </trkpt>
      <trkpt lat="45.60071" lon="6.06141">
        <ele>1054.5872</ele>
        <time>2021-05-23T14:27:18</time>
      </trkpt>
      <trkpt lat="45.60069" lon="6.0614">
        <ele>1054.5872</ele>
        <time>2021-05-23T14:27:21</time>
      </trkpt>
      <trkpt lat="45.60069" lon="6.0614">
        <ele>1054.5872</ele>
        <time>2021-05-23T14:27:22</time>
      </trkpt>
      <trkpt lat="45.60068" lon="6.0614">
        <ele>1054.5872</ele>
        <time>2021-05-23T14:27:23</time>
      </trkpt>
      <trkpt lat="45.60067" lon="6.06139">
        <ele>1059.8871</ele>
        <time>2021-05-23T14:27:25</time>
      </trkpt>
      <trkpt lat="45.60067" lon="6.06139">
        <ele>1059.8871</ele>
        <time>2021-05-23T14:27:30</time>
      </trkpt>
      <trkpt lat="45.60064" lon="6.06135">
        <ele>1058.8204</ele>
        <time>2021-05-23T14:27:36</time>
      </trkpt>
      <trkpt lat="45.60063" lon="6.06134">
        <ele>1058.8204</ele>
        <time>2021-05-23T14:27:37</time>
      </trkpt>
      <trkpt lat="45.60062" lon="6.06134">
        <ele>1058.8204</ele>
        <time>2021-05-23T14:27:38</time>
      </trkpt>
      <trkpt lat="45.6006" lon="6.06134">
        <ele>1058.8204</ele>
        <time>2021-05-23T14:27:40</time>
      </trkpt>
      <trkpt lat="45.60058" lon="6.06135">
        <ele>1058.8204</ele>
        <time>2021-05-23T14:27:43</time>
      </trkpt>
      <trkpt lat="45.60057" lon="6.06135">
        <ele>1058.8204</ele>
        <time>2021-05-23T14:27:44</time>
      </trkpt>
      <trkpt lat="45.60046" lon="6.06137">
        <ele>1061.2871</ele>
        <time>2021-05-23T14:27:53</time>
      </trkpt>
      <trkpt lat="45.60044" lon="6.06137">
        <ele>1062.7205</ele>
        <time>2021-05-23T14:27:55</time>
      </trkpt>
      <trkpt lat="45.60038" lon="6.06135">
        <ele>1062.7205</ele>
        <time>2021-05-23T14:28:02</time>
      </trkpt>
      <trkpt lat="45.60037" lon="6.06135">
        <ele>1062.7205</ele>
        <time>2021-05-23T14:28:03</time>
      </trkpt>
      <trkpt lat="45.60036" lon="6.06135">
        <ele>1062.7205</ele>
        <time>2021-05-23T14:28:04</time>
      </trkpt>
      <trkpt lat="45.60014" lon="6.06128">
        <ele>1072.6205</ele>
        <time>2021-05-23T14:28:23</time>
      </trkpt>
      <trkpt lat="45.6001" lon="6.06127">
        <ele>1073.6205</ele>
        <time>2021-05-23T14:28:26</time>
      </trkpt>
      <trkpt lat="45.60005" lon="6.06126">
        <ele>1073.6205</ele>
        <time>2021-05-23T14:28:30</time>
      </trkpt>
      <trkpt lat="45.60004" lon="6.06125">
        <ele>1073.6205</ele>
        <time>2021-05-23T14:28:31</time>
      </trkpt>
      <trkpt lat="45.59994" lon="6.0612">
        <ele>1073.6205</ele>
        <time>2021-05-23T14:28:38</time>
      </trkpt>
      <trkpt lat="45.59988" lon="6.06115">
        <ele>1071.8204</ele>
        <time>2021-05-23T14:28:45</time>
      </trkpt>
      <trkpt lat="45.59984" lon="6.0611">
        <ele>1071.8204</ele>
        <time>2021-05-23T14:28:49</time>
      </trkpt>
      <trkpt lat="45.59983" lon="6.06109">
        <ele>1071.8204</ele>
        <time>2021-05-23T14:28:52</time>
      </trkpt>
      <trkpt lat="45.59981" lon="6.06107">
        <ele>1075.8204</ele>
        <time>2021-05-23T14:28:55</time>
      </trkpt>
      <trkpt lat="45.59976" lon="6.06104">
        <ele>1075.8204</ele>
        <time>2021-05-23T14:28:59</time>
      </trkpt>
      <trkpt lat="45.59974" lon="6.06102">
        <ele>1075.8204</ele>
        <time>2021-05-23T14:29:01</time>
      </trkpt>
      <trkpt lat="45.59964" lon="6.06095">
        <ele>1069.4204</ele>
        <time>2021-05-23T14:29:12</time>
      </trkpt>
      <trkpt lat="45.59954" lon="6.06087">
        <ele>1067.4204</ele>
        <time>2021-05-23T14:29:23</time>
      </trkpt>
      <trkpt lat="45.59952" lon="6.06085">
        <ele>1069.2205</ele>
        <time>2021-05-23T14:29:26</time>
      </trkpt>
      <trkpt lat="45.59951" lon="6.06084">
        <ele>1069.2205</ele>
        <time>2021-05-23T14:29:28</time>
      </trkpt>
      <trkpt lat="45.59947" lon="6.06081">
        <ele>1069.2205</ele>
        <time>2021-05-23T14:29:33</time>
      </trkpt>
      <trkpt lat="45.59937" lon="6.06076">
        <ele>1067.1205</ele>
        <time>2021-05-23T14:29:42</time>
      </trkpt>
      <trkpt lat="45.5993" lon="6.06072">
        <ele>1070.0204</ele>
        <time>2021-05-23T14:29:48</time>
      </trkpt>
      <trkpt lat="45.59916" lon="6.06064">
        <ele>1068.7205</ele>
        <time>2021-05-23T14:30:05</time>
      </trkpt>
      <trkpt lat="45.59914" lon="6.06064">
        <ele>1068.7205</ele>
        <time>2021-05-23T14:30:07</time>
      </trkpt>
      <trkpt lat="45.59906" lon="6.06064">
        <ele>1068.7205</ele>
        <time>2021-05-23T14:30:14</time>
      </trkpt>
      <trkpt lat="45.59905" lon="6.06064">
        <ele>1070.7538</ele>
        <time>2021-05-23T14:30:15</time>
      </trkpt>
      <trkpt lat="45.59901" lon="6.06063">
        <ele>1070.7538</ele>
        <time>2021-05-23T14:30:18</time>
      </trkpt>
      <trkpt lat="45.59894" lon="6.06062">
        <ele>1070.7538</ele>
        <time>2021-05-23T14:30:23</time>
      </trkpt>
      <trkpt lat="45.59892" lon="6.06062">
        <ele>1071.0204</ele>
        <time>2021-05-23T14:30:25</time>
      </trkpt>
      <trkpt lat="45.59885" lon="6.0606">
        <ele>1071.0204</ele>
        <time>2021-05-23T14:30:31</time>
      </trkpt>
      <trkpt lat="45.59881" lon="6.06059">
        <ele>1071.0204</ele>
        <time>2021-05-23T14:30:34</time>
      </trkpt>
      <trkpt lat="45.59878" lon="6.06058">
        <ele>1072.4204</ele>
        <time>2021-05-23T14:30:37</time>
      </trkpt>
      <trkpt lat="45.59875" lon="6.06057">
        <ele>1072.4204</ele>
        <time>2021-05-23T14:30:39</time>
      </trkpt>
      <trkpt lat="45.59871" lon="6.06055">
        <ele>1072.4204</ele>
        <time>2021-05-23T14:30:44</time>
      </trkpt>
      <trkpt lat="45.59844" lon="6.06049">
        <ele>1074.4204</ele>
        <time>2021-05-23T14:31:14</time>
      </trkpt>
      <trkpt lat="45.59842" lon="6.06047">
        <ele>1075.4204</ele>
        <time>2021-05-23T14:31:18</time>
      </trkpt>
      <trkpt lat="45.5984" lon="6.06046">
        <ele>1075.4204</ele>
        <time>2021-05-23T14:31:20</time>
      </trkpt>
      <trkpt lat="45.59836" lon="6.06048">
        <ele>1076.1205</ele>
        <time>2021-05-23T14:31:26</time>
      </trkpt>
      <trkpt lat="45.59835" lon="6.06048">
        <ele>1076.1205</ele>
        <time>2021-05-23T14:31:27</time>
      </trkpt>
      <trkpt lat="45.59827" lon="6.06049">
        <ele>1076.1205</ele>
        <time>2021-05-23T14:31:34</time>
      </trkpt>
      <trkpt lat="45.59825" lon="6.06049">
        <ele>1079.9204</ele>
        <time>2021-05-23T14:31:35</time>
      </trkpt>
      <trkpt lat="45.59824" lon="6.06049">
        <ele>1079.9204</ele>
        <time>2021-05-23T14:31:36</time>
      </trkpt>
      <trkpt lat="45.59814" lon="6.06049">
        <ele>1079.9204</ele>
        <time>2021-05-23T14:31:44</time>
      </trkpt>
      <trkpt lat="45.59812" lon="6.06048">
        <ele>1081.6205</ele>
        <time>2021-05-23T14:31:48</time>
      </trkpt>
      <trkpt lat="45.5981" lon="6.06048">
        <ele>1081.6205</ele>
        <time>2021-05-23T14:31:50</time>
      </trkpt>
      <trkpt lat="45.59807" lon="6.06046">
        <ele>1081.6205</ele>
        <time>2021-05-23T14:31:53</time>
      </trkpt>
      <trkpt lat="45.59805" lon="6.06045">
        <ele>1083.9204</ele>
        <time>2021-05-23T14:31:55</time>
      </trkpt>
      <trkpt lat="45.598" lon="6.06044">
        <ele>1083.9204</ele>
        <time>2021-05-23T14:31:58</time>
      </trkpt>
      <trkpt lat="45.59796" lon="6.06045">
        <ele>1083.9204</ele>
        <time>2021-05-23T14:32:03</time>
      </trkpt>
      <trkpt lat="45.59793" lon="6.06045">
        <ele>1081.7205</ele>
        <time>2021-05-23T14:32:06</time>
      </trkpt>
      <trkpt lat="45.5979" lon="6.06046">
        <ele>1081.7205</ele>
        <time>2021-05-23T14:32:10</time>
      </trkpt>
      <trkpt lat="45.59781" lon="6.06046">
        <ele>1083.3204</ele>
        <time>2021-05-23T14:32:18</time>
      </trkpt>
      <trkpt lat="45.59777" lon="6.06044">
        <ele>1083.3204</ele>
        <time>2021-05-23T14:32:23</time>
      </trkpt>
      <trkpt lat="45.59769" lon="6.06045">
        <ele>1086.3204</ele>
        <time>2021-05-23T14:32:30</time>
      </trkpt>
      <trkpt lat="45.59768" lon="6.06045">
        <ele>1086.3204</ele>
        <time>2021-05-23T14:32:31</time>
      </trkpt>
      <trkpt lat="45.59768" lon="6.06044">
        <ele>1086.3204</ele>
        <time>2021-05-23T14:32:32</time>
      </trkpt>
      <trkpt lat="45.59767" lon="6.06044">
        <ele>1086.3204</ele>
        <time>2021-05-23T14:32:34</time>
      </trkpt>
      <trkpt lat="45.59763" lon="6.06043">
        <ele>1090.2205</ele>
        <time>2021-05-23T14:32:38</time>
      </trkpt>
      <trkpt lat="45.59761" lon="6.0604">
        <ele>1090.2205</ele>
        <time>2021-05-23T14:32:42</time>
      </trkpt>
      <trkpt lat="45.59761" lon="6.06039">
        <ele>1090.2205</ele>
        <time>2021-05-23T14:32:45</time>
      </trkpt>
      <trkpt lat="45.59758" lon="6.0604">
        <ele>1090.2205</ele>
        <time>2021-05-23T14:32:49</time>
      </trkpt>
      <trkpt lat="45.59756" lon="6.06041">
        <ele>1090.2205</ele>
        <time>2021-05-23T14:32:52</time>
      </trkpt>
      <trkpt lat="45.59755" lon="6.06042">
        <ele>1090.2205</ele>
        <time>2021-05-23T14:32:53</time>
      </trkpt>
      <trkpt lat="45.59752" lon="6.06042">
        <ele>1092.8204</ele>
        <time>2021-05-23T14:32:56</time>
      </trkpt>
      <trkpt lat="45.5975" lon="6.06042">
        <ele>1092.8204</ele>
        <time>2021-05-23T14:32:58</time>
      </trkpt>
      <trkpt lat="45.59746" lon="6.06042">
        <ele>1092.8204</ele>
        <time>2021-05-23T14:33:02</time>
      </trkpt>
      <trkpt lat="45.59737" lon="6.06037">
        <ele>1095.1205</ele>
        <time>2021-05-23T14:33:10</time>
      </trkpt>
      <trkpt lat="45.59735" lon="6.06036">
        <ele>1095.1205</ele>
        <time>2021-05-23T14:33:12</time>
      </trkpt>
      <trkpt lat="45.59731" lon="6.06035">
        <ele>1092.1205</ele>
        <time>2021-05-23T14:33:16</time>
      </trkpt>
      <trkpt lat="45.59729" lon="6.06034">
        <ele>1092.1205</ele>
        <time>2021-05-23T14:33:18</time>
      </trkpt>
      <trkpt lat="45.59724" lon="6.06033">
        <ele>1092.1205</ele>
        <time>2021-05-23T14:33:22</time>
      </trkpt>
      <trkpt lat="45.59722" lon="6.06032">
        <ele>1092.1205</ele>
        <time>2021-05-23T14:33:24</time>
      </trkpt>
      <trkpt lat="45.59703" lon="6.06021">
        <ele>1089.5204</ele>
        <time>2021-05-23T14:33:41</time>
      </trkpt>
      <trkpt lat="45.59702" lon="6.0602">
        <ele>1089.5204</ele>
        <time>2021-05-23T14:33:42</time>
      </trkpt>
      <trkpt lat="45.59701" lon="6.06018">
        <ele>1089.5204</ele>
        <time>2021-05-23T14:33:43</time>
      </trkpt>
      <trkpt lat="45.59698" lon="6.06015">
        <ele>1089.5204</ele>
        <time>2021-05-23T14:33:46</time>
      </trkpt>
      <trkpt lat="45.59694" lon="6.06014">
        <ele>1089.5204</ele>
        <time>2021-05-23T14:33:49</time>
      </trkpt>
      <trkpt lat="45.59684" lon="6.06013">
        <ele>1089.5204</ele>
        <time>2021-05-23T14:33:58</time>
      </trkpt>
      <trkpt lat="45.59676" lon="6.06013">
        <ele>1089.5204</ele>
        <time>2021-05-23T14:34:05</time>
      </trkpt>
      <trkpt lat="45.59669" lon="6.06011">
        <ele>1089.5204</ele>
        <time>2021-05-23T14:34:11</time>
      </trkpt>
      <trkpt lat="45.59664" lon="6.0601">
        <ele>1082.8204</ele>
        <time>2021-05-23T14:34:17</time>
      </trkpt>
      <trkpt lat="45.59657" lon="6.06007">
        <ele>1082.8204</ele>
        <time>2021-05-23T14:34:26</time>
      </trkpt>
      <trkpt lat="45.5964" lon="6.06003">
        <ele>1082.8204</ele>
        <time>2021-05-23T14:34:41</time>
      </trkpt>
      <trkpt lat="45.59638" lon="6.06003">
        <ele>1082.8204</ele>
        <time>2021-05-23T14:34:43</time>
      </trkpt>
      <trkpt lat="45.59629" lon="6.06003">
        <ele>1084.4204</ele>
        <time>2021-05-23T14:34:50</time>
      </trkpt>
      <trkpt lat="45.59622" lon="6.06004">
        <ele>1084.4204</ele>
        <time>2021-05-23T14:34:57</time>
      </trkpt>
      <trkpt lat="45.59619" lon="6.06003">
        <ele>1084.4204</ele>
        <time>2021-05-23T14:35:00</time>
      </trkpt>
      <trkpt lat="45.59613" lon="6.06002">
        <ele>1084.4204</ele>
        <time>2021-05-23T14:35:06</time>
      </trkpt>
      <trkpt lat="45.59604" lon="6.06004">
        <ele>1086.0204</ele>
        <time>2021-05-23T14:35:16</time>
      </trkpt>
      <trkpt lat="45.59589" lon="6.06006">
        <ele>1090.9204</ele>
        <time>2021-05-23T14:35:30</time>
      </trkpt>
      <trkpt lat="45.59585" lon="6.06006">
        <ele>1090.9204</ele>
        <time>2021-05-23T14:35:35</time>
      </trkpt>
      <trkpt lat="45.59584" lon="6.06006">
        <ele>1090.9204</ele>
        <time>2021-05-23T14:35:36</time>
      </trkpt>
      <trkpt lat="45.59577" lon="6.06004">
        <ele>1090.9204</ele>
        <time>2021-05-23T14:35:42</time>
      </trkpt>
      <trkpt lat="45.59569" lon="6.06004">
        <ele>1090.9204</ele>
        <time>2021-05-23T14:35:49</time>
      </trkpt>
      <trkpt lat="45.59558" lon="6.06001">
        <ele>1090.9204</ele>
        <time>2021-05-23T14:35:58</time>
      </trkpt>
      <trkpt lat="45.59553" lon="6.05999">
        <ele>1090.9204</ele>
        <time>2021-05-23T14:36:03</time>
      </trkpt>
      <trkpt lat="45.59547" lon="6.05997">
        <ele>1090.9204</ele>
        <time>2021-05-23T14:36:09</time>
      </trkpt>
      <trkpt lat="45.59542" lon="6.05996">
        <ele>1090.9204</ele>
        <time>2021-05-23T14:36:14</time>
      </trkpt>
      <trkpt lat="45.59539" lon="6.05995">
        <ele>1090.9204</ele>
        <time>2021-05-23T14:36:17</time>
      </trkpt>
      <trkpt lat="45.59534" lon="6.05995">
        <ele>1090.9204</ele>
        <time>2021-05-23T14:36:23</time>
      </trkpt>
      <trkpt lat="45.59526" lon="6.05992">
        <ele>1090.9204</ele>
        <time>2021-05-23T14:36:31</time>
      </trkpt>
      <trkpt lat="45.59522" lon="6.0599">
        <ele>1090.9204</ele>
        <time>2021-05-23T14:36:35</time>
      </trkpt>
      <trkpt lat="45.5952" lon="6.05991">
        <ele>1090.9204</ele>
        <time>2021-05-23T14:36:37</time>
      </trkpt>
      <trkpt lat="45.59516" lon="6.05991">
        <ele>1090.9204</ele>
        <time>2021-05-23T14:36:40</time>
      </trkpt>
      <trkpt lat="45.59511" lon="6.0599">
        <ele>1090.9204</ele>
        <time>2021-05-23T14:36:47</time>
      </trkpt>
      <trkpt lat="45.59509" lon="6.05989">
        <ele>1090.9204</ele>
        <time>2021-05-23T14:36:50</time>
      </trkpt>
      <trkpt lat="45.59506" lon="6.05989">
        <ele>1090.9204</ele>
        <time>2021-05-23T14:36:53</time>
      </trkpt>
      <trkpt lat="45.59503" lon="6.05987">
        <ele>1090.9204</ele>
        <time>2021-05-23T14:36:57</time>
      </trkpt>
      <trkpt lat="45.59496" lon="6.05981">
        <ele>1090.9204</ele>
        <time>2021-05-23T14:37:07</time>
      </trkpt>
      <trkpt lat="45.59494" lon="6.05979">
        <ele>1090.9204</ele>
        <time>2021-05-23T14:37:09</time>
      </trkpt>
      <trkpt lat="45.59486" lon="6.05977">
        <ele>1090.9204</ele>
        <time>2021-05-23T14:37:18</time>
      </trkpt>
      <trkpt lat="45.59484" lon="6.05977">
        <ele>1090.9204</ele>
        <time>2021-05-23T14:37:20</time>
      </trkpt>
      <trkpt lat="45.59481" lon="6.05976">
        <ele>1090.9204</ele>
        <time>2021-05-23T14:37:23</time>
      </trkpt>
      <trkpt lat="45.59477" lon="6.05976">
        <ele>1090.9204</ele>
        <time>2021-05-23T14:37:27</time>
      </trkpt>
      <trkpt lat="45.59474" lon="6.05974">
        <ele>1090.9204</ele>
        <time>2021-05-23T14:37:30</time>
      </trkpt>
      <trkpt lat="45.59471" lon="6.05974">
        <ele>1090.9204</ele>
        <time>2021-05-23T14:37:33</time>
      </trkpt>
      <trkpt lat="45.59465" lon="6.05971">
        <ele>1090.9204</ele>
        <time>2021-05-23T14:37:39</time>
      </trkpt>
      <trkpt lat="45.59461" lon="6.05969">
        <ele>1090.9204</ele>
        <time>2021-05-23T14:37:42</time>
      </trkpt>
      <trkpt lat="45.59459" lon="6.05968">
        <ele>1090.9204</ele>
        <time>2021-05-23T14:37:44</time>
      </trkpt>
      <trkpt lat="45.59429" lon="6.05962">
        <ele>1090.9204</ele>
        <time>2021-05-23T14:38:14</time>
      </trkpt>
      <trkpt lat="45.59426" lon="6.0596">
        <ele>1090.9204</ele>
        <time>2021-05-23T14:38:18</time>
      </trkpt>
      <trkpt lat="45.59421" lon="6.05958">
        <ele>1090.9204</ele>
        <time>2021-05-23T14:38:22</time>
      </trkpt>
      <trkpt lat="45.59416" lon="6.05956">
        <ele>1090.9204</ele>
        <time>2021-05-23T14:38:27</time>
      </trkpt>
      <trkpt lat="45.59414" lon="6.05955">
        <ele>1090.9204</ele>
        <time>2021-05-23T14:38:29</time>
      </trkpt>
      <trkpt lat="45.59408" lon="6.05954">
        <ele>1090.9204</ele>
        <time>2021-05-23T14:38:34</time>
      </trkpt>
      <trkpt lat="45.59403" lon="6.05953">
        <ele>1090.9204</ele>
        <time>2021-05-23T14:38:38</time>
      </trkpt>
      <trkpt lat="45.59395" lon="6.05951">
        <ele>1090.9204</ele>
        <time>2021-05-23T14:38:45</time>
      </trkpt>
      <trkpt lat="45.59393" lon="6.05951">
        <ele>1090.9204</ele>
        <time>2021-05-23T14:38:48</time>
      </trkpt>
      <trkpt lat="45.59387" lon="6.05953">
        <ele>1090.9204</ele>
        <time>2021-05-23T14:38:53</time>
      </trkpt>
      <trkpt lat="45.59387" lon="6.05954">
        <ele>1090.9204</ele>
        <time>2021-05-23T14:38:54</time>
      </trkpt>
      <trkpt lat="45.59388" lon="6.05954">
        <ele>1090.9204</ele>
        <time>2021-05-23T14:39:04</time>
      </trkpt>
      <trkpt lat="45.59386" lon="6.05952">
        <ele>1090.9204</ele>
        <time>2021-05-23T14:39:08</time>
      </trkpt>
      <trkpt lat="45.5938" lon="6.05948">
        <ele>1090.9204</ele>
        <time>2021-05-23T14:39:16</time>
      </trkpt>
      <trkpt lat="45.59371" lon="6.05944">
        <ele>1090.9204</ele>
        <time>2021-05-23T14:39:25</time>
      </trkpt>
      <trkpt lat="45.59365" lon="6.05943">
        <ele>1090.9204</ele>
        <time>2021-05-23T14:39:31</time>
      </trkpt>
      <trkpt lat="45.59363" lon="6.05942">
        <ele>1090.9204</ele>
        <time>2021-05-23T14:39:34</time>
      </trkpt>
      <trkpt lat="45.59355" lon="6.0594">
        <ele>1090.9204</ele>
        <time>2021-05-23T14:39:41</time>
      </trkpt>
      <trkpt lat="45.59352" lon="6.05939">
        <ele>1090.9204</ele>
        <time>2021-05-23T14:39:44</time>
      </trkpt>
      <trkpt lat="45.59346" lon="6.05939">
        <ele>1090.9204</ele>
        <time>2021-05-23T14:39:49</time>
      </trkpt>
      <trkpt lat="45.59345" lon="6.05938">
        <ele>1090.9204</ele>
        <time>2021-05-23T14:39:50</time>
      </trkpt>
      <trkpt lat="45.59337" lon="6.05936">
        <ele>1090.9204</ele>
        <time>2021-05-23T14:39:57</time>
      </trkpt>
      <trkpt lat="45.59336" lon="6.05936">
        <ele>1090.9204</ele>
        <time>2021-05-23T14:39:59</time>
      </trkpt>
      <trkpt lat="45.59333" lon="6.05935">
        <ele>1090.9204</ele>
        <time>2021-05-23T14:40:02</time>
      </trkpt>
      <trkpt lat="45.59328" lon="6.05932">
        <ele>1090.9204</ele>
        <time>2021-05-23T14:40:08</time>
      </trkpt>
      <trkpt lat="45.59326" lon="6.05931">
        <ele>1090.9204</ele>
        <time>2021-05-23T14:40:10</time>
      </trkpt>
      <trkpt lat="45.59319" lon="6.05929">
        <ele>1090.9204</ele>
        <time>2021-05-23T14:40:15</time>
      </trkpt>
      <trkpt lat="45.59301" lon="6.05922">
        <ele>1090.9204</ele>
        <time>2021-05-23T14:40:32</time>
      </trkpt>
      <trkpt lat="45.59294" lon="6.0592">
        <ele>1090.9204</ele>
        <time>2021-05-23T14:40:38</time>
      </trkpt>
      <trkpt lat="45.5929" lon="6.05918">
        <ele>1090.9204</ele>
        <time>2021-05-23T14:40:42</time>
      </trkpt>
      <trkpt lat="45.59284" lon="6.05916">
        <ele>1090.9204</ele>
        <time>2021-05-23T14:40:48</time>
      </trkpt>
      <trkpt lat="45.59281" lon="6.05914">
        <ele>1090.9204</ele>
        <time>2021-05-23T14:40:51</time>
      </trkpt>
      <trkpt lat="45.59274" lon="6.05914">
        <ele>1090.9204</ele>
        <time>2021-05-23T14:40:57</time>
      </trkpt>
      <trkpt lat="45.5927" lon="6.05912">
        <ele>1090.9204</ele>
        <time>2021-05-23T14:41:01</time>
      </trkpt>
      <trkpt lat="45.59265" lon="6.05913">
        <ele>1090.9204</ele>
        <time>2021-05-23T14:41:06</time>
      </trkpt>
      <trkpt lat="45.59262" lon="6.05912">
        <ele>1090.9204</ele>
        <time>2021-05-23T14:41:09</time>
      </trkpt>
      <trkpt lat="45.59256" lon="6.05911">
        <ele>1090.9204</ele>
        <time>2021-05-23T14:41:16</time>
      </trkpt>
      <trkpt lat="45.59253" lon="6.05911">
        <ele>1090.9204</ele>
        <time>2021-05-23T14:41:19</time>
      </trkpt>
      <trkpt lat="45.5924" lon="6.05913">
        <ele>1090.9204</ele>
        <time>2021-05-23T14:41:33</time>
      </trkpt>
      <trkpt lat="45.59239" lon="6.05912">
        <ele>1090.9204</ele>
        <time>2021-05-23T14:41:34</time>
      </trkpt>
      <trkpt lat="45.59233" lon="6.0591">
        <ele>1090.9204</ele>
        <time>2021-05-23T14:41:42</time>
      </trkpt>
      <trkpt lat="45.59233" lon="6.0591">
        <ele>1080.0204</ele>
        <time>2021-05-23T14:42:04</time>
      </trkpt>
      <trkpt lat="45.59233" lon="6.0591">
        <ele>1080.0204</ele>
        <time>2021-05-23T14:42:05</time>
      </trkpt>
      <trkpt lat="45.59234" lon="6.0591">
        <ele>1082.0204</ele>
        <time>2021-05-23T14:42:45</time>
      </trkpt>
      <trkpt lat="45.59235" lon="6.05914">
        <ele>1082.0204</ele>
        <time>2021-05-23T14:46:21</time>
      </trkpt>
      <trkpt lat="45.59235" lon="6.05914">
        <ele>1083.8204</ele>
        <time>2021-05-23T14:47:10</time>
      </trkpt>
    </trkseg>
  </trk>
</gpx>